<?xml version="1.0" encoding="UTF-8" standalone="no" ?>
<gpx xmlns="http://www.topografix.com/GPX/1/1" xmlns:xsi="http://www.w3.org/2001/XMLSchema-instance" xsi:schemaLocation="http://www.topografix.com/GPX/1/1 http://www.topografix.com/GPX/1/1/gpx.xsd" version="1.1" creator="VisuGPX - https://www.visugpx.com">
  <metadata>
    <name>Toursnman 2018</name>
    <desc><![CDATA[Parcours vélo du Tours'n Man 2018]]></desc>
  </metadata>
  <trk>
    <name><![CDATA[OR-7610426--Saint-Pierre-des-Corps:ToursNman]]></name>
    <trkseg>
      <trkpt lat="47.38026" lon="0.72645">
        <ele>49</ele>
        <time>2017-09-22T15:28:53Z</time>
      </trkpt>
      <trkpt lat="47.38024" lon="0.72639">
        <ele>49</ele>
        <time>2017-09-22T15:30:53Z</time>
      </trkpt>
      <trkpt lat="47.38022" lon="0.72628">
        <ele>49</ele>
        <time>2017-09-22T15:32:53Z</time>
      </trkpt>
      <trkpt lat="47.3802" lon="0.72617">
        <ele>49</ele>
        <time>2017-09-22T15:34:53Z</time>
      </trkpt>
      <trkpt lat="47.38018" lon="0.72596">
        <ele>49</ele>
        <time>2017-09-22T15:36:53Z</time>
      </trkpt>
      <trkpt lat="47.38016" lon="0.7258">
        <ele>49</ele>
        <time>2017-09-22T15:38:53Z</time>
      </trkpt>
      <trkpt lat="47.38014" lon="0.72568">
        <ele>49</ele>
        <time>2017-09-22T15:40:53Z</time>
      </trkpt>
      <trkpt lat="47.38013" lon="0.72559">
        <ele>49</ele>
        <time>2017-09-22T15:42:53Z</time>
      </trkpt>
      <trkpt lat="47.38012" lon="0.72549">
        <ele>49</ele>
        <time>2017-09-22T15:44:53Z</time>
      </trkpt>
      <trkpt lat="47.3801" lon="0.72539">
        <ele>50</ele>
        <time>2017-09-22T15:46:53Z</time>
      </trkpt>
      <trkpt lat="47.38005" lon="0.72517">
        <ele>50</ele>
        <time>2017-09-22T15:48:53Z</time>
      </trkpt>
      <trkpt lat="47.37998" lon="0.72489">
        <ele>50</ele>
        <time>2017-09-22T15:50:53Z</time>
      </trkpt>
      <trkpt lat="47.37994" lon="0.72473">
        <ele>49</ele>
        <time>2017-09-22T15:52:53Z</time>
      </trkpt>
      <trkpt lat="47.37988" lon="0.72448">
        <ele>49</ele>
        <time>2017-09-22T15:54:53Z</time>
      </trkpt>
      <trkpt lat="47.37982" lon="0.72424">
        <ele>48</ele>
        <time>2017-09-22T15:56:53Z</time>
      </trkpt>
      <trkpt lat="47.3797" lon="0.72378">
        <ele>48</ele>
        <time>2017-09-22T15:58:53Z</time>
      </trkpt>
      <trkpt lat="47.37966" lon="0.72361">
        <ele>48</ele>
        <time>2017-09-22T16:00:53Z</time>
      </trkpt>
      <trkpt lat="47.37946" lon="0.72286">
        <ele>48</ele>
        <time>2017-09-22T16:02:53Z</time>
      </trkpt>
      <trkpt lat="47.37922" lon="0.72194">
        <ele>48</ele>
        <time>2017-09-22T16:04:53Z</time>
      </trkpt>
      <trkpt lat="47.37896" lon="0.72098">
        <ele>48</ele>
        <time>2017-09-22T16:06:53Z</time>
      </trkpt>
      <trkpt lat="47.37892" lon="0.72085">
        <ele>48</ele>
        <time>2017-09-22T16:08:53Z</time>
      </trkpt>
      <trkpt lat="47.37886" lon="0.72064">
        <ele>48</ele>
        <time>2017-09-22T16:10:53Z</time>
      </trkpt>
      <trkpt lat="47.37877" lon="0.72029">
        <ele>48</ele>
        <time>2017-09-22T16:12:53Z</time>
      </trkpt>
      <trkpt lat="47.37871" lon="0.72003">
        <ele>49</ele>
        <time>2017-09-22T16:14:53Z</time>
      </trkpt>
      <trkpt lat="47.37869" lon="0.71992">
        <ele>49</ele>
        <time>2017-09-22T16:16:53Z</time>
      </trkpt>
      <trkpt lat="47.37864" lon="0.71971">
        <ele>49</ele>
        <time>2017-09-22T16:18:53Z</time>
      </trkpt>
      <trkpt lat="47.37862" lon="0.7196">
        <ele>49</ele>
        <time>2017-09-22T16:20:53Z</time>
      </trkpt>
      <trkpt lat="47.37856" lon="0.71933">
        <ele>49</ele>
        <time>2017-09-22T16:22:53Z</time>
      </trkpt>
      <trkpt lat="47.37856" lon="0.71931">
        <ele>49</ele>
        <time>2017-09-22T16:24:53Z</time>
      </trkpt>
      <trkpt lat="47.37854" lon="0.71919">
        <ele>49</ele>
        <time>2017-09-22T16:26:53Z</time>
      </trkpt>
      <trkpt lat="47.37852" lon="0.71908">
        <ele>49</ele>
        <time>2017-09-22T16:28:53Z</time>
      </trkpt>
      <trkpt lat="47.3785" lon="0.71903">
        <ele>49</ele>
        <time>2017-09-22T16:30:53Z</time>
      </trkpt>
      <trkpt lat="47.37847" lon="0.71886">
        <ele>49</ele>
        <time>2017-09-22T16:32:53Z</time>
      </trkpt>
      <trkpt lat="47.37844" lon="0.71865">
        <ele>49</ele>
        <time>2017-09-22T16:34:53Z</time>
      </trkpt>
      <trkpt lat="47.3784" lon="0.7185">
        <ele>49</ele>
        <time>2017-09-22T16:36:53Z</time>
      </trkpt>
      <trkpt lat="47.37836" lon="0.71831">
        <ele>49</ele>
        <time>2017-09-22T16:38:53Z</time>
      </trkpt>
      <trkpt lat="47.37834" lon="0.71827">
        <ele>49</ele>
        <time>2017-09-22T16:40:53Z</time>
      </trkpt>
      <trkpt lat="47.37829" lon="0.71806">
        <ele>48</ele>
        <time>2017-09-22T16:42:53Z</time>
      </trkpt>
      <trkpt lat="47.37822" lon="0.71783">
        <ele>48</ele>
        <time>2017-09-22T16:44:53Z</time>
      </trkpt>
      <trkpt lat="47.37816" lon="0.71766">
        <ele>48</ele>
        <time>2017-09-22T16:46:53Z</time>
      </trkpt>
      <trkpt lat="47.37814" lon="0.71761">
        <ele>48</ele>
        <time>2017-09-22T16:48:53Z</time>
      </trkpt>
      <trkpt lat="47.37804" lon="0.71732">
        <ele>48</ele>
        <time>2017-09-22T16:50:53Z</time>
      </trkpt>
      <trkpt lat="47.37784" lon="0.71671">
        <ele>50</ele>
        <time>2017-09-22T16:52:53Z</time>
      </trkpt>
      <trkpt lat="47.37781" lon="0.71663">
        <ele>50</ele>
        <time>2017-09-22T16:54:53Z</time>
      </trkpt>
      <trkpt lat="47.37775" lon="0.71646">
        <ele>51</ele>
        <time>2017-09-22T16:56:53Z</time>
      </trkpt>
      <trkpt lat="47.37768" lon="0.71625">
        <ele>51</ele>
        <time>2017-09-22T16:58:53Z</time>
      </trkpt>
      <trkpt lat="47.37765" lon="0.71616">
        <ele>52</ele>
        <time>2017-09-22T17:00:53Z</time>
      </trkpt>
      <trkpt lat="47.3776" lon="0.71601">
        <ele>52</ele>
        <time>2017-09-22T17:02:53Z</time>
      </trkpt>
      <trkpt lat="47.37755" lon="0.71584">
        <ele>53</ele>
        <time>2017-09-22T17:04:53Z</time>
      </trkpt>
      <trkpt lat="47.37748" lon="0.71562">
        <ele>53</ele>
        <time>2017-09-22T17:06:53Z</time>
      </trkpt>
      <trkpt lat="47.37737" lon="0.71523">
        <ele>52</ele>
        <time>2017-09-22T17:08:53Z</time>
      </trkpt>
      <trkpt lat="47.37724" lon="0.71478">
        <ele>51</ele>
        <time>2017-09-22T17:10:53Z</time>
      </trkpt>
      <trkpt lat="47.37723" lon="0.71474">
        <ele>51</ele>
        <time>2017-09-22T17:12:53Z</time>
      </trkpt>
      <trkpt lat="47.37723" lon="0.71473">
        <ele>51</ele>
        <time>2017-09-22T17:14:53Z</time>
      </trkpt>
      <trkpt lat="47.37722" lon="0.7147">
        <ele>51</ele>
        <time>2017-09-22T17:16:53Z</time>
      </trkpt>
      <trkpt lat="47.3772" lon="0.71463">
        <ele>51</ele>
        <time>2017-09-22T17:18:53Z</time>
      </trkpt>
      <trkpt lat="47.3772" lon="0.71462">
        <ele>51</ele>
        <time>2017-09-22T17:20:53Z</time>
      </trkpt>
      <trkpt lat="47.37717" lon="0.71452">
        <ele>51</ele>
        <time>2017-09-22T17:22:53Z</time>
      </trkpt>
      <trkpt lat="47.37717" lon="0.71452">
        <ele>51</ele>
        <time>2017-09-22T17:24:53Z</time>
      </trkpt>
      <trkpt lat="47.37715" lon="0.71445">
        <ele>51</ele>
        <time>2017-09-22T17:26:53Z</time>
      </trkpt>
      <trkpt lat="47.37715" lon="0.71444">
        <ele>51</ele>
        <time>2017-09-22T17:28:53Z</time>
      </trkpt>
      <trkpt lat="47.3771" lon="0.71427">
        <ele>51</ele>
        <time>2017-09-22T17:30:53Z</time>
      </trkpt>
      <trkpt lat="47.3771" lon="0.71426">
        <ele>51</ele>
        <time>2017-09-22T17:32:53Z</time>
      </trkpt>
      <trkpt lat="47.37705" lon="0.71408">
        <ele>50</ele>
        <time>2017-09-22T17:34:53Z</time>
      </trkpt>
      <trkpt lat="47.37703" lon="0.71399">
        <ele>50</ele>
        <time>2017-09-22T17:36:53Z</time>
      </trkpt>
      <trkpt lat="47.37695" lon="0.71359">
        <ele>50</ele>
        <time>2017-09-22T17:38:53Z</time>
      </trkpt>
      <trkpt lat="47.37689" lon="0.71337">
        <ele>50</ele>
        <time>2017-09-22T17:40:53Z</time>
      </trkpt>
      <trkpt lat="47.37688" lon="0.71332">
        <ele>50</ele>
        <time>2017-09-22T17:42:53Z</time>
      </trkpt>
      <trkpt lat="47.37677" lon="0.71296">
        <ele>51</ele>
        <time>2017-09-22T17:44:53Z</time>
      </trkpt>
      <trkpt lat="47.37674" lon="0.71286">
        <ele>51</ele>
        <time>2017-09-22T17:46:53Z</time>
      </trkpt>
      <trkpt lat="47.37669" lon="0.71271">
        <ele>51</ele>
        <time>2017-09-22T17:48:53Z</time>
      </trkpt>
      <trkpt lat="47.37658" lon="0.71234">
        <ele>51</ele>
        <time>2017-09-22T17:50:53Z</time>
      </trkpt>
      <trkpt lat="47.37653" lon="0.71214">
        <ele>52</ele>
        <time>2017-09-22T17:52:53Z</time>
      </trkpt>
      <trkpt lat="47.37639" lon="0.71163">
        <ele>52</ele>
        <time>2017-09-22T17:54:53Z</time>
      </trkpt>
      <trkpt lat="47.37632" lon="0.71141">
        <ele>52</ele>
        <time>2017-09-22T17:56:53Z</time>
      </trkpt>
      <trkpt lat="47.37606" lon="0.71045">
        <ele>49</ele>
        <time>2017-09-22T17:58:53Z</time>
      </trkpt>
      <trkpt lat="47.37583" lon="0.70958">
        <ele>50</ele>
        <time>2017-09-22T18:00:53Z</time>
      </trkpt>
      <trkpt lat="47.37566" lon="0.70895">
        <ele>51</ele>
        <time>2017-09-22T18:02:53Z</time>
      </trkpt>
      <trkpt lat="47.3755" lon="0.70837">
        <ele>50</ele>
        <time>2017-09-22T18:04:53Z</time>
      </trkpt>
      <trkpt lat="47.37522" lon="0.70734">
        <ele>50</ele>
        <time>2017-09-22T18:06:53Z</time>
      </trkpt>
      <trkpt lat="47.37502" lon="0.70661">
        <ele>50</ele>
        <time>2017-09-22T18:08:53Z</time>
      </trkpt>
      <trkpt lat="47.37486" lon="0.70601">
        <ele>50</ele>
        <time>2017-09-22T18:10:53Z</time>
      </trkpt>
      <trkpt lat="47.37483" lon="0.70587">
        <ele>50</ele>
        <time>2017-09-22T18:12:53Z</time>
      </trkpt>
      <trkpt lat="47.37478" lon="0.7057">
        <ele>50</ele>
        <time>2017-09-22T18:14:53Z</time>
      </trkpt>
      <trkpt lat="47.37472" lon="0.70551">
        <ele>50</ele>
        <time>2017-09-22T18:16:53Z</time>
      </trkpt>
      <trkpt lat="47.37455" lon="0.70492">
        <ele>50</ele>
        <time>2017-09-22T18:18:53Z</time>
      </trkpt>
      <trkpt lat="47.37447" lon="0.70465">
        <ele>50</ele>
        <time>2017-09-22T18:20:53Z</time>
      </trkpt>
      <trkpt lat="47.37445" lon="0.70458">
        <ele>49</ele>
        <time>2017-09-22T18:22:53Z</time>
      </trkpt>
      <trkpt lat="47.37442" lon="0.70444">
        <ele>49</ele>
        <time>2017-09-22T18:24:53Z</time>
      </trkpt>
      <trkpt lat="47.37441" lon="0.7044">
        <ele>49</ele>
        <time>2017-09-22T18:26:53Z</time>
      </trkpt>
      <trkpt lat="47.37439" lon="0.70428">
        <ele>49</ele>
        <time>2017-09-22T18:28:53Z</time>
      </trkpt>
      <trkpt lat="47.37436" lon="0.70409">
        <ele>49</ele>
        <time>2017-09-22T18:30:53Z</time>
      </trkpt>
      <trkpt lat="47.37434" lon="0.70392">
        <ele>49</ele>
        <time>2017-09-22T18:32:53Z</time>
      </trkpt>
      <trkpt lat="47.37432" lon="0.70383">
        <ele>50</ele>
        <time>2017-09-22T18:34:53Z</time>
      </trkpt>
      <trkpt lat="47.37432" lon="0.70376">
        <ele>50</ele>
        <time>2017-09-22T18:36:53Z</time>
      </trkpt>
      <trkpt lat="47.37431" lon="0.70366">
        <ele>50</ele>
        <time>2017-09-22T18:38:53Z</time>
      </trkpt>
      <trkpt lat="47.3743" lon="0.70348">
        <ele>50</ele>
        <time>2017-09-22T18:40:53Z</time>
      </trkpt>
      <trkpt lat="47.3743" lon="0.70336">
        <ele>50</ele>
        <time>2017-09-22T18:42:53Z</time>
      </trkpt>
      <trkpt lat="47.3743" lon="0.70323">
        <ele>50</ele>
        <time>2017-09-22T18:44:53Z</time>
      </trkpt>
      <trkpt lat="47.3743" lon="0.7031">
        <ele>50</ele>
        <time>2017-09-22T18:46:53Z</time>
      </trkpt>
      <trkpt lat="47.3743" lon="0.70299">
        <ele>50</ele>
        <time>2017-09-22T18:48:53Z</time>
      </trkpt>
      <trkpt lat="47.37432" lon="0.70272">
        <ele>50</ele>
        <time>2017-09-22T18:50:53Z</time>
      </trkpt>
      <trkpt lat="47.37433" lon="0.70251">
        <ele>50</ele>
        <time>2017-09-22T18:52:53Z</time>
      </trkpt>
      <trkpt lat="47.37434" lon="0.70231">
        <ele>50</ele>
        <time>2017-09-22T18:54:53Z</time>
      </trkpt>
      <trkpt lat="47.37435" lon="0.70209">
        <ele>51</ele>
        <time>2017-09-22T18:56:53Z</time>
      </trkpt>
      <trkpt lat="47.37434" lon="0.70184">
        <ele>51</ele>
        <time>2017-09-22T18:58:53Z</time>
      </trkpt>
      <trkpt lat="47.37433" lon="0.70166">
        <ele>51</ele>
        <time>2017-09-22T19:00:53Z</time>
      </trkpt>
      <trkpt lat="47.37431" lon="0.7015">
        <ele>52</ele>
        <time>2017-09-22T19:02:53Z</time>
      </trkpt>
      <trkpt lat="47.37429" lon="0.70132">
        <ele>52</ele>
        <time>2017-09-22T19:04:53Z</time>
      </trkpt>
      <trkpt lat="47.37427" lon="0.70111">
        <ele>53</ele>
        <time>2017-09-22T19:06:53Z</time>
      </trkpt>
      <trkpt lat="47.37422" lon="0.70066">
        <ele>55</ele>
        <time>2017-09-22T19:08:53Z</time>
      </trkpt>
      <trkpt lat="47.37421" lon="0.70052">
        <ele>56</ele>
        <time>2017-09-22T19:10:53Z</time>
      </trkpt>
      <trkpt lat="47.3742" lon="0.70023">
        <ele>57</ele>
        <time>2017-09-22T19:12:53Z</time>
      </trkpt>
      <trkpt lat="47.37419" lon="0.70001">
        <ele>59</ele>
        <time>2017-09-22T19:14:53Z</time>
      </trkpt>
      <trkpt lat="47.37418" lon="0.69969">
        <ele>57</ele>
        <time>2017-09-22T19:16:53Z</time>
      </trkpt>
      <trkpt lat="47.37417" lon="0.69949">
        <ele>56</ele>
        <time>2017-09-22T19:18:53Z</time>
      </trkpt>
      <trkpt lat="47.37417" lon="0.69948">
        <ele>56</ele>
        <time>2017-09-22T19:20:53Z</time>
      </trkpt>
      <trkpt lat="47.37415" lon="0.69866">
        <ele>52</ele>
        <time>2017-09-22T19:22:53Z</time>
      </trkpt>
      <trkpt lat="47.37414" lon="0.6982">
        <ele>51</ele>
        <time>2017-09-22T19:24:53Z</time>
      </trkpt>
      <trkpt lat="47.37414" lon="0.6982">
        <ele>51</ele>
        <time>2017-09-22T19:26:53Z</time>
      </trkpt>
      <trkpt lat="47.37417" lon="0.69802">
        <ele>52</ele>
        <time>2017-09-22T19:28:53Z</time>
      </trkpt>
      <trkpt lat="47.37417" lon="0.69795">
        <ele>52</ele>
        <time>2017-09-22T19:30:53Z</time>
      </trkpt>
      <trkpt lat="47.37417" lon="0.69778">
        <ele>52</ele>
        <time>2017-09-22T19:32:53Z</time>
      </trkpt>
      <trkpt lat="47.37415" lon="0.69741">
        <ele>53</ele>
        <time>2017-09-22T19:34:53Z</time>
      </trkpt>
      <trkpt lat="47.37413" lon="0.6963">
        <ele>54</ele>
        <time>2017-09-22T19:36:53Z</time>
      </trkpt>
      <trkpt lat="47.37412" lon="0.69581">
        <ele>54</ele>
        <time>2017-09-22T19:38:53Z</time>
      </trkpt>
      <trkpt lat="47.37413" lon="0.6957">
        <ele>54</ele>
        <time>2017-09-22T19:40:53Z</time>
      </trkpt>
      <trkpt lat="47.37414" lon="0.69563">
        <ele>54</ele>
        <time>2017-09-22T19:42:53Z</time>
      </trkpt>
      <trkpt lat="47.37415" lon="0.69555">
        <ele>54</ele>
        <time>2017-09-22T19:44:53Z</time>
      </trkpt>
      <trkpt lat="47.37415" lon="0.69555">
        <ele>54</ele>
        <time>2017-09-22T19:46:53Z</time>
      </trkpt>
      <trkpt lat="47.37416" lon="0.69555">
        <ele>54</ele>
        <time>2017-09-22T19:48:53Z</time>
      </trkpt>
      <trkpt lat="47.37417" lon="0.69554">
        <ele>54</ele>
        <time>2017-09-22T19:50:53Z</time>
      </trkpt>
      <trkpt lat="47.37417" lon="0.69553">
        <ele>54</ele>
        <time>2017-09-22T19:52:53Z</time>
      </trkpt>
      <trkpt lat="47.37418" lon="0.69552">
        <ele>54</ele>
        <time>2017-09-22T19:54:53Z</time>
      </trkpt>
      <trkpt lat="47.37418" lon="0.69551">
        <ele>54</ele>
        <time>2017-09-22T19:56:53Z</time>
      </trkpt>
      <trkpt lat="47.37419" lon="0.6955">
        <ele>54</ele>
        <time>2017-09-22T19:58:53Z</time>
      </trkpt>
      <trkpt lat="47.3742" lon="0.69549">
        <ele>54</ele>
        <time>2017-09-22T20:00:53Z</time>
      </trkpt>
      <trkpt lat="47.3742" lon="0.69548">
        <ele>54</ele>
        <time>2017-09-22T20:02:53Z</time>
      </trkpt>
      <trkpt lat="47.37421" lon="0.69547">
        <ele>54</ele>
        <time>2017-09-22T20:04:53Z</time>
      </trkpt>
      <trkpt lat="47.37421" lon="0.69546">
        <ele>54</ele>
        <time>2017-09-22T20:06:53Z</time>
      </trkpt>
      <trkpt lat="47.37422" lon="0.69546">
        <ele>54</ele>
        <time>2017-09-22T20:08:53Z</time>
      </trkpt>
      <trkpt lat="47.37422" lon="0.69545">
        <ele>54</ele>
        <time>2017-09-22T20:10:53Z</time>
      </trkpt>
      <trkpt lat="47.37422" lon="0.69544">
        <ele>54</ele>
        <time>2017-09-22T20:12:53Z</time>
      </trkpt>
      <trkpt lat="47.37423" lon="0.69543">
        <ele>54</ele>
        <time>2017-09-22T20:14:53Z</time>
      </trkpt>
      <trkpt lat="47.37423" lon="0.69542">
        <ele>54</ele>
        <time>2017-09-22T20:16:53Z</time>
      </trkpt>
      <trkpt lat="47.37423" lon="0.69541">
        <ele>54</ele>
        <time>2017-09-22T20:18:53Z</time>
      </trkpt>
      <trkpt lat="47.37423" lon="0.6954">
        <ele>54</ele>
        <time>2017-09-22T20:20:53Z</time>
      </trkpt>
      <trkpt lat="47.37423" lon="0.69539">
        <ele>54</ele>
        <time>2017-09-22T20:22:53Z</time>
      </trkpt>
      <trkpt lat="47.37423" lon="0.69537">
        <ele>54</ele>
        <time>2017-09-22T20:24:53Z</time>
      </trkpt>
      <trkpt lat="47.37423" lon="0.69535">
        <ele>54</ele>
        <time>2017-09-22T20:26:53Z</time>
      </trkpt>
      <trkpt lat="47.37423" lon="0.69534">
        <ele>54</ele>
        <time>2017-09-22T20:28:53Z</time>
      </trkpt>
      <trkpt lat="47.37423" lon="0.69533">
        <ele>54</ele>
        <time>2017-09-22T20:30:53Z</time>
      </trkpt>
      <trkpt lat="47.37423" lon="0.6953">
        <ele>54</ele>
        <time>2017-09-22T20:32:53Z</time>
      </trkpt>
      <trkpt lat="47.37422" lon="0.69528">
        <ele>54</ele>
        <time>2017-09-22T20:34:53Z</time>
      </trkpt>
      <trkpt lat="47.3742" lon="0.69525">
        <ele>54</ele>
        <time>2017-09-22T20:36:53Z</time>
      </trkpt>
      <trkpt lat="47.37418" lon="0.69523">
        <ele>54</ele>
        <time>2017-09-22T20:38:53Z</time>
      </trkpt>
      <trkpt lat="47.37416" lon="0.69522">
        <ele>54</ele>
        <time>2017-09-22T20:40:53Z</time>
      </trkpt>
      <trkpt lat="47.37414" lon="0.69521">
        <ele>54</ele>
        <time>2017-09-22T20:42:53Z</time>
      </trkpt>
      <trkpt lat="47.3741" lon="0.69502">
        <ele>54</ele>
        <time>2017-09-22T20:44:53Z</time>
      </trkpt>
      <trkpt lat="47.37408" lon="0.69484">
        <ele>54</ele>
        <time>2017-09-22T20:46:53Z</time>
      </trkpt>
      <trkpt lat="47.37407" lon="0.69469">
        <ele>54</ele>
        <time>2017-09-22T20:48:53Z</time>
      </trkpt>
      <trkpt lat="47.37407" lon="0.69453">
        <ele>53</ele>
        <time>2017-09-22T20:50:53Z</time>
      </trkpt>
      <trkpt lat="47.37406" lon="0.69438">
        <ele>53</ele>
        <time>2017-09-22T20:52:53Z</time>
      </trkpt>
      <trkpt lat="47.37404" lon="0.6942">
        <ele>53</ele>
        <time>2017-09-22T20:54:53Z</time>
      </trkpt>
      <trkpt lat="47.37402" lon="0.694">
        <ele>52</ele>
        <time>2017-09-22T20:56:53Z</time>
      </trkpt>
      <trkpt lat="47.37402" lon="0.69397">
        <ele>52</ele>
        <time>2017-09-22T20:58:53Z</time>
      </trkpt>
      <trkpt lat="47.37395" lon="0.69345">
        <ele>52</ele>
        <time>2017-09-22T21:00:53Z</time>
      </trkpt>
      <trkpt lat="47.37388" lon="0.69315">
        <ele>52</ele>
        <time>2017-09-22T21:02:53Z</time>
      </trkpt>
      <trkpt lat="47.3738" lon="0.69282">
        <ele>51</ele>
        <time>2017-09-22T21:04:53Z</time>
      </trkpt>
      <trkpt lat="47.37377" lon="0.69271">
        <ele>51</ele>
        <time>2017-09-22T21:06:53Z</time>
      </trkpt>
      <trkpt lat="47.37371" lon="0.69257">
        <ele>51</ele>
        <time>2017-09-22T21:08:53Z</time>
      </trkpt>
      <trkpt lat="47.37363" lon="0.69217">
        <ele>51</ele>
        <time>2017-09-22T21:10:53Z</time>
      </trkpt>
      <trkpt lat="47.37358" lon="0.69184">
        <ele>51</ele>
        <time>2017-09-22T21:12:53Z</time>
      </trkpt>
      <trkpt lat="47.3735" lon="0.69138">
        <ele>52</ele>
        <time>2017-09-22T21:14:53Z</time>
      </trkpt>
      <trkpt lat="47.37343" lon="0.69088">
        <ele>52</ele>
        <time>2017-09-22T21:16:53Z</time>
      </trkpt>
      <trkpt lat="47.3734" lon="0.6906">
        <ele>52</ele>
        <time>2017-09-22T21:18:53Z</time>
      </trkpt>
      <trkpt lat="47.37339" lon="0.69047">
        <ele>52</ele>
        <time>2017-09-22T21:20:53Z</time>
      </trkpt>
      <trkpt lat="47.37339" lon="0.69038">
        <ele>52</ele>
        <time>2017-09-22T21:22:53Z</time>
      </trkpt>
      <trkpt lat="47.37338" lon="0.68998">
        <ele>51</ele>
        <time>2017-09-22T21:24:53Z</time>
      </trkpt>
      <trkpt lat="47.37337" lon="0.68968">
        <ele>50</ele>
        <time>2017-09-22T21:26:53Z</time>
      </trkpt>
      <trkpt lat="47.37336" lon="0.68925">
        <ele>50</ele>
        <time>2017-09-22T21:28:53Z</time>
      </trkpt>
      <trkpt lat="47.37336" lon="0.68911">
        <ele>50</ele>
        <time>2017-09-22T21:30:53Z</time>
      </trkpt>
      <trkpt lat="47.37334" lon="0.68808">
        <ele>50</ele>
        <time>2017-09-22T21:32:53Z</time>
      </trkpt>
      <trkpt lat="47.37334" lon="0.68769">
        <ele>50</ele>
        <time>2017-09-22T21:34:53Z</time>
      </trkpt>
      <trkpt lat="47.37334" lon="0.68752">
        <ele>50</ele>
        <time>2017-09-22T21:36:53Z</time>
      </trkpt>
      <trkpt lat="47.37335" lon="0.68738">
        <ele>50</ele>
        <time>2017-09-22T21:38:53Z</time>
      </trkpt>
      <trkpt lat="47.37338" lon="0.68715">
        <ele>50</ele>
        <time>2017-09-22T21:40:53Z</time>
      </trkpt>
      <trkpt lat="47.37341" lon="0.68688">
        <ele>51</ele>
        <time>2017-09-22T21:42:53Z</time>
      </trkpt>
      <trkpt lat="47.37343" lon="0.68678">
        <ele>51</ele>
        <time>2017-09-22T21:44:53Z</time>
      </trkpt>
      <trkpt lat="47.37346" lon="0.68656">
        <ele>51</ele>
        <time>2017-09-22T21:46:53Z</time>
      </trkpt>
      <trkpt lat="47.37367" lon="0.68503">
        <ele>51</ele>
        <time>2017-09-22T21:48:53Z</time>
      </trkpt>
      <trkpt lat="47.37372" lon="0.68451">
        <ele>52</ele>
        <time>2017-09-22T21:50:53Z</time>
      </trkpt>
      <trkpt lat="47.37373" lon="0.68432">
        <ele>52</ele>
        <time>2017-09-22T21:52:53Z</time>
      </trkpt>
      <trkpt lat="47.37374" lon="0.68414">
        <ele>52</ele>
        <time>2017-09-22T21:54:53Z</time>
      </trkpt>
      <trkpt lat="47.37374" lon="0.68394">
        <ele>52</ele>
        <time>2017-09-22T21:56:53Z</time>
      </trkpt>
      <trkpt lat="47.37374" lon="0.68378">
        <ele>51</ele>
        <time>2017-09-22T21:58:53Z</time>
      </trkpt>
      <trkpt lat="47.37374" lon="0.68344">
        <ele>51</ele>
        <time>2017-09-22T22:00:53Z</time>
      </trkpt>
      <trkpt lat="47.37373" lon="0.68304">
        <ele>50</ele>
        <time>2017-09-22T22:02:53Z</time>
      </trkpt>
      <trkpt lat="47.37372" lon="0.68293">
        <ele>50</ele>
        <time>2017-09-22T22:04:53Z</time>
      </trkpt>
      <trkpt lat="47.37372" lon="0.68268">
        <ele>50</ele>
        <time>2017-09-22T22:06:53Z</time>
      </trkpt>
      <trkpt lat="47.37371" lon="0.6823">
        <ele>51</ele>
        <time>2017-09-22T22:08:53Z</time>
      </trkpt>
      <trkpt lat="47.37368" lon="0.68142">
        <ele>53</ele>
        <time>2017-09-22T22:10:53Z</time>
      </trkpt>
      <trkpt lat="47.37367" lon="0.68082">
        <ele>52</ele>
        <time>2017-09-22T22:12:53Z</time>
      </trkpt>
      <trkpt lat="47.37368" lon="0.68057">
        <ele>51</ele>
        <time>2017-09-22T22:14:53Z</time>
      </trkpt>
      <trkpt lat="47.37368" lon="0.68047">
        <ele>51</ele>
        <time>2017-09-22T22:16:53Z</time>
      </trkpt>
      <trkpt lat="47.37371" lon="0.68011">
        <ele>50</ele>
        <time>2017-09-22T22:18:53Z</time>
      </trkpt>
      <trkpt lat="47.37375" lon="0.67971">
        <ele>49</ele>
        <time>2017-09-22T22:20:53Z</time>
      </trkpt>
      <trkpt lat="47.3738" lon="0.67929">
        <ele>49</ele>
        <time>2017-09-22T22:22:53Z</time>
      </trkpt>
      <trkpt lat="47.37381" lon="0.67907">
        <ele>49</ele>
        <time>2017-09-22T22:24:53Z</time>
      </trkpt>
      <trkpt lat="47.37381" lon="0.67898">
        <ele>49</ele>
        <time>2017-09-22T22:26:53Z</time>
      </trkpt>
      <trkpt lat="47.37381" lon="0.67892">
        <ele>49</ele>
        <time>2017-09-22T22:28:53Z</time>
      </trkpt>
      <trkpt lat="47.37381" lon="0.67892">
        <ele>49</ele>
        <time>2017-09-22T22:30:53Z</time>
      </trkpt>
      <trkpt lat="47.37382" lon="0.67891">
        <ele>49</ele>
        <time>2017-09-22T22:32:53Z</time>
      </trkpt>
      <trkpt lat="47.37383" lon="0.6789">
        <ele>49</ele>
        <time>2017-09-22T22:34:53Z</time>
      </trkpt>
      <trkpt lat="47.37385" lon="0.67889">
        <ele>49</ele>
        <time>2017-09-22T22:36:53Z</time>
      </trkpt>
      <trkpt lat="47.37385" lon="0.67888">
        <ele>49</ele>
        <time>2017-09-22T22:38:53Z</time>
      </trkpt>
      <trkpt lat="47.37386" lon="0.67886">
        <ele>49</ele>
        <time>2017-09-22T22:40:53Z</time>
      </trkpt>
      <trkpt lat="47.37387" lon="0.67885">
        <ele>49</ele>
        <time>2017-09-22T22:42:53Z</time>
      </trkpt>
      <trkpt lat="47.37388" lon="0.67883">
        <ele>49</ele>
        <time>2017-09-22T22:44:53Z</time>
      </trkpt>
      <trkpt lat="47.37389" lon="0.67881">
        <ele>49</ele>
        <time>2017-09-22T22:46:53Z</time>
      </trkpt>
      <trkpt lat="47.37389" lon="0.6788">
        <ele>49</ele>
        <time>2017-09-22T22:48:53Z</time>
      </trkpt>
      <trkpt lat="47.3739" lon="0.67878">
        <ele>49</ele>
        <time>2017-09-22T22:50:53Z</time>
      </trkpt>
      <trkpt lat="47.3739" lon="0.67876">
        <ele>49</ele>
        <time>2017-09-22T22:52:53Z</time>
      </trkpt>
      <trkpt lat="47.37391" lon="0.67873">
        <ele>49</ele>
        <time>2017-09-22T22:54:53Z</time>
      </trkpt>
      <trkpt lat="47.37391" lon="0.67871">
        <ele>49</ele>
        <time>2017-09-22T22:56:53Z</time>
      </trkpt>
      <trkpt lat="47.37391" lon="0.67869">
        <ele>49</ele>
        <time>2017-09-22T22:58:53Z</time>
      </trkpt>
      <trkpt lat="47.37391" lon="0.67867">
        <ele>49</ele>
        <time>2017-09-22T23:00:53Z</time>
      </trkpt>
      <trkpt lat="47.37391" lon="0.67865">
        <ele>50</ele>
        <time>2017-09-22T23:02:53Z</time>
      </trkpt>
      <trkpt lat="47.37391" lon="0.67862">
        <ele>50</ele>
        <time>2017-09-22T23:04:53Z</time>
      </trkpt>
      <trkpt lat="47.3739" lon="0.6786">
        <ele>50</ele>
        <time>2017-09-22T23:06:53Z</time>
      </trkpt>
      <trkpt lat="47.3739" lon="0.67858">
        <ele>50</ele>
        <time>2017-09-22T23:08:53Z</time>
      </trkpt>
      <trkpt lat="47.37389" lon="0.67856">
        <ele>50</ele>
        <time>2017-09-22T23:10:53Z</time>
      </trkpt>
      <trkpt lat="47.37389" lon="0.67854">
        <ele>50</ele>
        <time>2017-09-22T23:12:53Z</time>
      </trkpt>
      <trkpt lat="47.37388" lon="0.67852">
        <ele>50</ele>
        <time>2017-09-22T23:14:53Z</time>
      </trkpt>
      <trkpt lat="47.37386" lon="0.67849">
        <ele>50</ele>
        <time>2017-09-22T23:16:53Z</time>
      </trkpt>
      <trkpt lat="47.37386" lon="0.67848">
        <ele>50</ele>
        <time>2017-09-22T23:18:53Z</time>
      </trkpt>
      <trkpt lat="47.37385" lon="0.67847">
        <ele>50</ele>
        <time>2017-09-22T23:20:53Z</time>
      </trkpt>
      <trkpt lat="47.37384" lon="0.67847">
        <ele>50</ele>
        <time>2017-09-22T23:22:53Z</time>
      </trkpt>
      <trkpt lat="47.37383" lon="0.67846">
        <ele>50</ele>
        <time>2017-09-22T23:24:53Z</time>
      </trkpt>
      <trkpt lat="47.37383" lon="0.67845">
        <ele>50</ele>
        <time>2017-09-22T23:26:53Z</time>
      </trkpt>
      <trkpt lat="47.37382" lon="0.67844">
        <ele>50</ele>
        <time>2017-09-22T23:28:53Z</time>
      </trkpt>
      <trkpt lat="47.37381" lon="0.67844">
        <ele>50</ele>
        <time>2017-09-22T23:30:53Z</time>
      </trkpt>
      <trkpt lat="47.3738" lon="0.67843">
        <ele>50</ele>
        <time>2017-09-22T23:32:53Z</time>
      </trkpt>
      <trkpt lat="47.3738" lon="0.67823">
        <ele>50</ele>
        <time>2017-09-22T23:34:53Z</time>
      </trkpt>
      <trkpt lat="47.37381" lon="0.67803">
        <ele>50</ele>
        <time>2017-09-22T23:36:53Z</time>
      </trkpt>
      <trkpt lat="47.37382" lon="0.67791">
        <ele>50</ele>
        <time>2017-09-22T23:38:53Z</time>
      </trkpt>
      <trkpt lat="47.37389" lon="0.67722">
        <ele>51</ele>
        <time>2017-09-22T23:40:53Z</time>
      </trkpt>
      <trkpt lat="47.37391" lon="0.67701">
        <ele>51</ele>
        <time>2017-09-22T23:42:53Z</time>
      </trkpt>
      <trkpt lat="47.37394" lon="0.67678">
        <ele>51</ele>
        <time>2017-09-22T23:44:53Z</time>
      </trkpt>
      <trkpt lat="47.37396" lon="0.67661">
        <ele>51</ele>
        <time>2017-09-22T23:46:53Z</time>
      </trkpt>
      <trkpt lat="47.37403" lon="0.67601">
        <ele>50</ele>
        <time>2017-09-22T23:48:53Z</time>
      </trkpt>
      <trkpt lat="47.37405" lon="0.67585">
        <ele>50</ele>
        <time>2017-09-22T23:50:53Z</time>
      </trkpt>
      <trkpt lat="47.3741" lon="0.67548">
        <ele>49</ele>
        <time>2017-09-22T23:52:53Z</time>
      </trkpt>
      <trkpt lat="47.37441" lon="0.67322">
        <ele>50</ele>
        <time>2017-09-22T23:54:53Z</time>
      </trkpt>
      <trkpt lat="47.37452" lon="0.67245">
        <ele>49</ele>
        <time>2017-09-22T23:56:53Z</time>
      </trkpt>
      <trkpt lat="47.37462" lon="0.67174">
        <ele>49</ele>
        <time>2017-09-22T23:58:53Z</time>
      </trkpt>
      <trkpt lat="47.37464" lon="0.67161">
        <ele>49</ele>
        <time>2017-09-23T00:00:53Z</time>
      </trkpt>
      <trkpt lat="47.37466" lon="0.67153">
        <ele>49</ele>
        <time>2017-09-23T00:02:53Z</time>
      </trkpt>
      <trkpt lat="47.37471" lon="0.67139">
        <ele>49</ele>
        <time>2017-09-23T00:04:53Z</time>
      </trkpt>
      <trkpt lat="47.37474" lon="0.67138">
        <ele>49</ele>
        <time>2017-09-23T00:06:53Z</time>
      </trkpt>
      <trkpt lat="47.37476" lon="0.67138">
        <ele>49</ele>
        <time>2017-09-23T00:08:53Z</time>
      </trkpt>
      <trkpt lat="47.37477" lon="0.67137">
        <ele>49</ele>
        <time>2017-09-23T00:10:53Z</time>
      </trkpt>
      <trkpt lat="47.37478" lon="0.67137">
        <ele>49</ele>
        <time>2017-09-23T00:12:53Z</time>
      </trkpt>
      <trkpt lat="47.37479" lon="0.67136">
        <ele>49</ele>
        <time>2017-09-23T00:14:53Z</time>
      </trkpt>
      <trkpt lat="47.3748" lon="0.67135">
        <ele>49</ele>
        <time>2017-09-23T00:16:53Z</time>
      </trkpt>
      <trkpt lat="47.37481" lon="0.67134">
        <ele>49</ele>
        <time>2017-09-23T00:18:53Z</time>
      </trkpt>
      <trkpt lat="47.37482" lon="0.67131">
        <ele>49</ele>
        <time>2017-09-23T00:20:53Z</time>
      </trkpt>
      <trkpt lat="47.37483" lon="0.6713">
        <ele>49</ele>
        <time>2017-09-23T00:22:53Z</time>
      </trkpt>
      <trkpt lat="47.37484" lon="0.67128">
        <ele>49</ele>
        <time>2017-09-23T00:24:53Z</time>
      </trkpt>
      <trkpt lat="47.37484" lon="0.67126">
        <ele>49</ele>
        <time>2017-09-23T00:26:53Z</time>
      </trkpt>
      <trkpt lat="47.37485" lon="0.67125">
        <ele>49</ele>
        <time>2017-09-23T00:28:53Z</time>
      </trkpt>
      <trkpt lat="47.37485" lon="0.67123">
        <ele>49</ele>
        <time>2017-09-23T00:30:53Z</time>
      </trkpt>
      <trkpt lat="47.37486" lon="0.67121">
        <ele>49</ele>
        <time>2017-09-23T00:32:53Z</time>
      </trkpt>
      <trkpt lat="47.37486" lon="0.67119">
        <ele>49</ele>
        <time>2017-09-23T00:34:53Z</time>
      </trkpt>
      <trkpt lat="47.37486" lon="0.67117">
        <ele>49</ele>
        <time>2017-09-23T00:36:53Z</time>
      </trkpt>
      <trkpt lat="47.37486" lon="0.67114">
        <ele>49</ele>
        <time>2017-09-23T00:38:53Z</time>
      </trkpt>
      <trkpt lat="47.37486" lon="0.67112">
        <ele>49</ele>
        <time>2017-09-23T00:40:53Z</time>
      </trkpt>
      <trkpt lat="47.37486" lon="0.6711">
        <ele>49</ele>
        <time>2017-09-23T00:42:53Z</time>
      </trkpt>
      <trkpt lat="47.37486" lon="0.67108">
        <ele>49</ele>
        <time>2017-09-23T00:44:53Z</time>
      </trkpt>
      <trkpt lat="47.37486" lon="0.67106">
        <ele>49</ele>
        <time>2017-09-23T00:46:53Z</time>
      </trkpt>
      <trkpt lat="47.37485" lon="0.67104">
        <ele>49</ele>
        <time>2017-09-23T00:48:53Z</time>
      </trkpt>
      <trkpt lat="47.37485" lon="0.67103">
        <ele>49</ele>
        <time>2017-09-23T00:50:53Z</time>
      </trkpt>
      <trkpt lat="47.37484" lon="0.67101">
        <ele>48</ele>
        <time>2017-09-23T00:52:53Z</time>
      </trkpt>
      <trkpt lat="47.37483" lon="0.67099">
        <ele>48</ele>
        <time>2017-09-23T00:54:53Z</time>
      </trkpt>
      <trkpt lat="47.37482" lon="0.67098">
        <ele>48</ele>
        <time>2017-09-23T00:56:53Z</time>
      </trkpt>
      <trkpt lat="47.37482" lon="0.67096">
        <ele>48</ele>
        <time>2017-09-23T00:58:53Z</time>
      </trkpt>
      <trkpt lat="47.37481" lon="0.67095">
        <ele>48</ele>
        <time>2017-09-23T01:00:53Z</time>
      </trkpt>
      <trkpt lat="47.3748" lon="0.67094">
        <ele>48</ele>
        <time>2017-09-23T01:02:53Z</time>
      </trkpt>
      <trkpt lat="47.37478" lon="0.67093">
        <ele>48</ele>
        <time>2017-09-23T01:04:53Z</time>
      </trkpt>
      <trkpt lat="47.37476" lon="0.67091">
        <ele>48</ele>
        <time>2017-09-23T01:06:53Z</time>
      </trkpt>
      <trkpt lat="47.37475" lon="0.67078">
        <ele>48</ele>
        <time>2017-09-23T01:08:53Z</time>
      </trkpt>
      <trkpt lat="47.37476" lon="0.67069">
        <ele>48</ele>
        <time>2017-09-23T01:10:53Z</time>
      </trkpt>
      <trkpt lat="47.37477" lon="0.67056">
        <ele>48</ele>
        <time>2017-09-23T01:12:53Z</time>
      </trkpt>
      <trkpt lat="47.37491" lon="0.66954">
        <ele>46</ele>
        <time>2017-09-23T01:14:53Z</time>
      </trkpt>
      <trkpt lat="47.37499" lon="0.66898">
        <ele>45</ele>
        <time>2017-09-23T01:16:53Z</time>
      </trkpt>
      <trkpt lat="47.37532" lon="0.66663">
        <ele>47</ele>
        <time>2017-09-23T01:18:53Z</time>
      </trkpt>
      <trkpt lat="47.37534" lon="0.6665">
        <ele>47</ele>
        <time>2017-09-23T01:20:53Z</time>
      </trkpt>
      <trkpt lat="47.37541" lon="0.66595">
        <ele>47</ele>
        <time>2017-09-23T01:22:53Z</time>
      </trkpt>
      <trkpt lat="47.37543" lon="0.66585">
        <ele>47</ele>
        <time>2017-09-23T01:24:53Z</time>
      </trkpt>
      <trkpt lat="47.37543" lon="0.66578">
        <ele>47</ele>
        <time>2017-09-23T01:26:53Z</time>
      </trkpt>
      <trkpt lat="47.37545" lon="0.66565">
        <ele>47</ele>
        <time>2017-09-23T01:28:53Z</time>
      </trkpt>
      <trkpt lat="47.37547" lon="0.66556">
        <ele>47</ele>
        <time>2017-09-23T01:30:53Z</time>
      </trkpt>
      <trkpt lat="47.37549" lon="0.66548">
        <ele>47</ele>
        <time>2017-09-23T01:32:53Z</time>
      </trkpt>
      <trkpt lat="47.37554" lon="0.66539">
        <ele>47</ele>
        <time>2017-09-23T01:34:53Z</time>
      </trkpt>
      <trkpt lat="47.37556" lon="0.66539">
        <ele>47</ele>
        <time>2017-09-23T01:36:53Z</time>
      </trkpt>
      <trkpt lat="47.37557" lon="0.66538">
        <ele>47</ele>
        <time>2017-09-23T01:38:53Z</time>
      </trkpt>
      <trkpt lat="47.37558" lon="0.66538">
        <ele>47</ele>
        <time>2017-09-23T01:40:53Z</time>
      </trkpt>
      <trkpt lat="47.37558" lon="0.66537">
        <ele>47</ele>
        <time>2017-09-23T01:42:53Z</time>
      </trkpt>
      <trkpt lat="47.37559" lon="0.66536">
        <ele>47</ele>
        <time>2017-09-23T01:44:53Z</time>
      </trkpt>
      <trkpt lat="47.3756" lon="0.66535">
        <ele>47</ele>
        <time>2017-09-23T01:46:53Z</time>
      </trkpt>
      <trkpt lat="47.37561" lon="0.66534">
        <ele>47</ele>
        <time>2017-09-23T01:48:53Z</time>
      </trkpt>
      <trkpt lat="47.37562" lon="0.66533">
        <ele>47</ele>
        <time>2017-09-23T01:50:53Z</time>
      </trkpt>
      <trkpt lat="47.37562" lon="0.66532">
        <ele>47</ele>
        <time>2017-09-23T01:52:53Z</time>
      </trkpt>
      <trkpt lat="47.37563" lon="0.66531">
        <ele>47</ele>
        <time>2017-09-23T01:54:53Z</time>
      </trkpt>
      <trkpt lat="47.37564" lon="0.6653">
        <ele>47</ele>
        <time>2017-09-23T01:56:53Z</time>
      </trkpt>
      <trkpt lat="47.37564" lon="0.66529">
        <ele>47</ele>
        <time>2017-09-23T01:58:53Z</time>
      </trkpt>
      <trkpt lat="47.37565" lon="0.66527">
        <ele>47</ele>
        <time>2017-09-23T02:00:53Z</time>
      </trkpt>
      <trkpt lat="47.37565" lon="0.66526">
        <ele>47</ele>
        <time>2017-09-23T02:02:53Z</time>
      </trkpt>
      <trkpt lat="47.37566" lon="0.66524">
        <ele>47</ele>
        <time>2017-09-23T02:04:53Z</time>
      </trkpt>
      <trkpt lat="47.37566" lon="0.66523">
        <ele>47</ele>
        <time>2017-09-23T02:06:53Z</time>
      </trkpt>
      <trkpt lat="47.37566" lon="0.66521">
        <ele>47</ele>
        <time>2017-09-23T02:08:53Z</time>
      </trkpt>
      <trkpt lat="47.37566" lon="0.6652">
        <ele>47</ele>
        <time>2017-09-23T02:10:53Z</time>
      </trkpt>
      <trkpt lat="47.37566" lon="0.66518">
        <ele>47</ele>
        <time>2017-09-23T02:12:53Z</time>
      </trkpt>
      <trkpt lat="47.37566" lon="0.66517">
        <ele>47</ele>
        <time>2017-09-23T02:14:53Z</time>
      </trkpt>
      <trkpt lat="47.37566" lon="0.66515">
        <ele>47</ele>
        <time>2017-09-23T02:16:53Z</time>
      </trkpt>
      <trkpt lat="47.37566" lon="0.66514">
        <ele>47</ele>
        <time>2017-09-23T02:18:53Z</time>
      </trkpt>
      <trkpt lat="47.37566" lon="0.66512">
        <ele>47</ele>
        <time>2017-09-23T02:20:53Z</time>
      </trkpt>
      <trkpt lat="47.37566" lon="0.66511">
        <ele>47</ele>
        <time>2017-09-23T02:22:53Z</time>
      </trkpt>
      <trkpt lat="47.37565" lon="0.6651">
        <ele>47</ele>
        <time>2017-09-23T02:24:53Z</time>
      </trkpt>
      <trkpt lat="47.37565" lon="0.66508">
        <ele>47</ele>
        <time>2017-09-23T02:26:53Z</time>
      </trkpt>
      <trkpt lat="47.37564" lon="0.66506">
        <ele>47</ele>
        <time>2017-09-23T02:28:53Z</time>
      </trkpt>
      <trkpt lat="47.37564" lon="0.66505">
        <ele>47</ele>
        <time>2017-09-23T02:30:53Z</time>
      </trkpt>
      <trkpt lat="47.37563" lon="0.66503">
        <ele>47</ele>
        <time>2017-09-23T02:32:53Z</time>
      </trkpt>
      <trkpt lat="47.37562" lon="0.66502">
        <ele>47</ele>
        <time>2017-09-23T02:34:53Z</time>
      </trkpt>
      <trkpt lat="47.37562" lon="0.66501">
        <ele>47</ele>
        <time>2017-09-23T02:36:53Z</time>
      </trkpt>
      <trkpt lat="47.37561" lon="0.665">
        <ele>47</ele>
        <time>2017-09-23T02:38:53Z</time>
      </trkpt>
      <trkpt lat="47.3756" lon="0.66499">
        <ele>47</ele>
        <time>2017-09-23T02:40:53Z</time>
      </trkpt>
      <trkpt lat="47.37559" lon="0.66498">
        <ele>47</ele>
        <time>2017-09-23T02:42:53Z</time>
      </trkpt>
      <trkpt lat="47.37558" lon="0.66497">
        <ele>47</ele>
        <time>2017-09-23T02:44:53Z</time>
      </trkpt>
      <trkpt lat="47.37561" lon="0.6648">
        <ele>47</ele>
        <time>2017-09-23T02:46:53Z</time>
      </trkpt>
      <trkpt lat="47.37563" lon="0.66469">
        <ele>48</ele>
        <time>2017-09-23T02:48:53Z</time>
      </trkpt>
      <trkpt lat="47.37569" lon="0.66446">
        <ele>48</ele>
        <time>2017-09-23T02:50:53Z</time>
      </trkpt>
      <trkpt lat="47.37576" lon="0.66417">
        <ele>49</ele>
        <time>2017-09-23T02:52:53Z</time>
      </trkpt>
      <trkpt lat="47.37584" lon="0.6639">
        <ele>49</ele>
        <time>2017-09-23T02:54:53Z</time>
      </trkpt>
      <trkpt lat="47.37591" lon="0.66358">
        <ele>48</ele>
        <time>2017-09-23T02:56:53Z</time>
      </trkpt>
      <trkpt lat="47.37594" lon="0.66338">
        <ele>48</ele>
        <time>2017-09-23T02:58:53Z</time>
      </trkpt>
      <trkpt lat="47.37596" lon="0.6633">
        <ele>48</ele>
        <time>2017-09-23T03:00:53Z</time>
      </trkpt>
      <trkpt lat="47.37599" lon="0.66302">
        <ele>48</ele>
        <time>2017-09-23T03:02:53Z</time>
      </trkpt>
      <trkpt lat="47.37602" lon="0.66277">
        <ele>47</ele>
        <time>2017-09-23T03:04:53Z</time>
      </trkpt>
      <trkpt lat="47.37604" lon="0.66255">
        <ele>47</ele>
        <time>2017-09-23T03:06:53Z</time>
      </trkpt>
      <trkpt lat="47.37605" lon="0.66232">
        <ele>47</ele>
        <time>2017-09-23T03:08:53Z</time>
      </trkpt>
      <trkpt lat="47.37606" lon="0.66216">
        <ele>47</ele>
        <time>2017-09-23T03:10:53Z</time>
      </trkpt>
      <trkpt lat="47.37606" lon="0.662">
        <ele>46</ele>
        <time>2017-09-23T03:12:53Z</time>
      </trkpt>
      <trkpt lat="47.37606" lon="0.66183">
        <ele>46</ele>
        <time>2017-09-23T03:14:53Z</time>
      </trkpt>
      <trkpt lat="47.37605" lon="0.66166">
        <ele>46</ele>
        <time>2017-09-23T03:16:53Z</time>
      </trkpt>
      <trkpt lat="47.37604" lon="0.66148">
        <ele>46</ele>
        <time>2017-09-23T03:18:53Z</time>
      </trkpt>
      <trkpt lat="47.37604" lon="0.66139">
        <ele>46</ele>
        <time>2017-09-23T03:20:53Z</time>
      </trkpt>
      <trkpt lat="47.37602" lon="0.66123">
        <ele>47</ele>
        <time>2017-09-23T03:22:53Z</time>
      </trkpt>
      <trkpt lat="47.376" lon="0.66102">
        <ele>47</ele>
        <time>2017-09-23T03:24:53Z</time>
      </trkpt>
      <trkpt lat="47.37598" lon="0.6609">
        <ele>47</ele>
        <time>2017-09-23T03:26:53Z</time>
      </trkpt>
      <trkpt lat="47.37597" lon="0.66078">
        <ele>47</ele>
        <time>2017-09-23T03:28:53Z</time>
      </trkpt>
      <trkpt lat="47.37594" lon="0.66059">
        <ele>47</ele>
        <time>2017-09-23T03:30:53Z</time>
      </trkpt>
      <trkpt lat="47.37589" lon="0.66034">
        <ele>47</ele>
        <time>2017-09-23T03:32:53Z</time>
      </trkpt>
      <trkpt lat="47.37582" lon="0.66001">
        <ele>47</ele>
        <time>2017-09-23T03:34:53Z</time>
      </trkpt>
      <trkpt lat="47.37572" lon="0.65951">
        <ele>45</ele>
        <time>2017-09-23T03:36:53Z</time>
      </trkpt>
      <trkpt lat="47.37566" lon="0.65923">
        <ele>45</ele>
        <time>2017-09-23T03:38:53Z</time>
      </trkpt>
      <trkpt lat="47.37564" lon="0.65913">
        <ele>45</ele>
        <time>2017-09-23T03:40:53Z</time>
      </trkpt>
      <trkpt lat="47.37564" lon="0.65905">
        <ele>45</ele>
        <time>2017-09-23T03:42:53Z</time>
      </trkpt>
      <trkpt lat="47.37564" lon="0.65899">
        <ele>45</ele>
        <time>2017-09-23T03:44:53Z</time>
      </trkpt>
      <trkpt lat="47.37565" lon="0.65895">
        <ele>45</ele>
        <time>2017-09-23T03:46:53Z</time>
      </trkpt>
      <trkpt lat="47.37567" lon="0.65891">
        <ele>45</ele>
        <time>2017-09-23T03:48:53Z</time>
      </trkpt>
      <trkpt lat="47.37569" lon="0.65886">
        <ele>45</ele>
        <time>2017-09-23T03:50:53Z</time>
      </trkpt>
      <trkpt lat="47.37573" lon="0.65884">
        <ele>45</ele>
        <time>2017-09-23T03:52:53Z</time>
      </trkpt>
      <trkpt lat="47.37576" lon="0.65882">
        <ele>45</ele>
        <time>2017-09-23T03:54:53Z</time>
      </trkpt>
      <trkpt lat="47.37578" lon="0.6588">
        <ele>45</ele>
        <time>2017-09-23T03:56:53Z</time>
      </trkpt>
      <trkpt lat="47.37581" lon="0.65877">
        <ele>45</ele>
        <time>2017-09-23T03:58:53Z</time>
      </trkpt>
      <trkpt lat="47.37583" lon="0.65874">
        <ele>46</ele>
        <time>2017-09-23T04:00:53Z</time>
      </trkpt>
      <trkpt lat="47.37586" lon="0.6587">
        <ele>46</ele>
        <time>2017-09-23T04:02:53Z</time>
      </trkpt>
      <trkpt lat="47.37587" lon="0.65867">
        <ele>46</ele>
        <time>2017-09-23T04:04:53Z</time>
      </trkpt>
      <trkpt lat="47.37587" lon="0.65865">
        <ele>46</ele>
        <time>2017-09-23T04:06:53Z</time>
      </trkpt>
      <trkpt lat="47.37588" lon="0.65862">
        <ele>46</ele>
        <time>2017-09-23T04:08:53Z</time>
      </trkpt>
      <trkpt lat="47.37589" lon="0.6586">
        <ele>46</ele>
        <time>2017-09-23T04:10:53Z</time>
      </trkpt>
      <trkpt lat="47.37589" lon="0.65857">
        <ele>46</ele>
        <time>2017-09-23T04:12:53Z</time>
      </trkpt>
      <trkpt lat="47.37589" lon="0.65855">
        <ele>46</ele>
        <time>2017-09-23T04:14:53Z</time>
      </trkpt>
      <trkpt lat="47.37589" lon="0.65852">
        <ele>46</ele>
        <time>2017-09-23T04:16:53Z</time>
      </trkpt>
      <trkpt lat="47.37589" lon="0.6585">
        <ele>46</ele>
        <time>2017-09-23T04:18:53Z</time>
      </trkpt>
      <trkpt lat="47.3759" lon="0.65847">
        <ele>46</ele>
        <time>2017-09-23T04:20:53Z</time>
      </trkpt>
      <trkpt lat="47.3759" lon="0.65844">
        <ele>46</ele>
        <time>2017-09-23T04:22:53Z</time>
      </trkpt>
      <trkpt lat="47.37589" lon="0.65841">
        <ele>46</ele>
        <time>2017-09-23T04:24:53Z</time>
      </trkpt>
      <trkpt lat="47.37589" lon="0.65838">
        <ele>46</ele>
        <time>2017-09-23T04:26:53Z</time>
      </trkpt>
      <trkpt lat="47.37588" lon="0.65835">
        <ele>46</ele>
        <time>2017-09-23T04:28:53Z</time>
      </trkpt>
      <trkpt lat="47.37588" lon="0.65833">
        <ele>46</ele>
        <time>2017-09-23T04:30:53Z</time>
      </trkpt>
      <trkpt lat="47.37587" lon="0.6583">
        <ele>46</ele>
        <time>2017-09-23T04:32:53Z</time>
      </trkpt>
      <trkpt lat="47.37586" lon="0.65827">
        <ele>46</ele>
        <time>2017-09-23T04:34:53Z</time>
      </trkpt>
      <trkpt lat="47.37585" lon="0.65825">
        <ele>46</ele>
        <time>2017-09-23T04:36:53Z</time>
      </trkpt>
      <trkpt lat="47.37584" lon="0.65823">
        <ele>46</ele>
        <time>2017-09-23T04:38:53Z</time>
      </trkpt>
      <trkpt lat="47.37582" lon="0.65822">
        <ele>46</ele>
        <time>2017-09-23T04:40:53Z</time>
      </trkpt>
      <trkpt lat="47.37581" lon="0.6582">
        <ele>46</ele>
        <time>2017-09-23T04:42:53Z</time>
      </trkpt>
      <trkpt lat="47.3758" lon="0.65818">
        <ele>46</ele>
        <time>2017-09-23T04:44:53Z</time>
      </trkpt>
      <trkpt lat="47.37578" lon="0.65817">
        <ele>46</ele>
        <time>2017-09-23T04:46:53Z</time>
      </trkpt>
      <trkpt lat="47.37576" lon="0.65816">
        <ele>46</ele>
        <time>2017-09-23T04:48:53Z</time>
      </trkpt>
      <trkpt lat="47.37574" lon="0.65814">
        <ele>46</ele>
        <time>2017-09-23T04:50:53Z</time>
      </trkpt>
      <trkpt lat="47.37573" lon="0.65814">
        <ele>46</ele>
        <time>2017-09-23T04:52:53Z</time>
      </trkpt>
      <trkpt lat="47.37571" lon="0.65813">
        <ele>46</ele>
        <time>2017-09-23T04:54:53Z</time>
      </trkpt>
      <trkpt lat="47.3757" lon="0.65812">
        <ele>46</ele>
        <time>2017-09-23T04:56:53Z</time>
      </trkpt>
      <trkpt lat="47.37568" lon="0.65811">
        <ele>45</ele>
        <time>2017-09-23T04:58:53Z</time>
      </trkpt>
      <trkpt lat="47.37566" lon="0.65811">
        <ele>45</ele>
        <time>2017-09-23T05:00:53Z</time>
      </trkpt>
      <trkpt lat="47.37564" lon="0.6581">
        <ele>45</ele>
        <time>2017-09-23T05:02:53Z</time>
      </trkpt>
      <trkpt lat="47.37562" lon="0.6581">
        <ele>45</ele>
        <time>2017-09-23T05:04:53Z</time>
      </trkpt>
      <trkpt lat="47.37561" lon="0.6581">
        <ele>45</ele>
        <time>2017-09-23T05:06:53Z</time>
      </trkpt>
      <trkpt lat="47.37553" lon="0.65799">
        <ele>45</ele>
        <time>2017-09-23T05:08:53Z</time>
      </trkpt>
      <trkpt lat="47.37552" lon="0.65794">
        <ele>45</ele>
        <time>2017-09-23T05:10:53Z</time>
      </trkpt>
      <trkpt lat="47.37549" lon="0.65788">
        <ele>45</ele>
        <time>2017-09-23T05:12:53Z</time>
      </trkpt>
      <trkpt lat="47.37548" lon="0.65782">
        <ele>45</ele>
        <time>2017-09-23T05:14:53Z</time>
      </trkpt>
      <trkpt lat="47.37546" lon="0.65775">
        <ele>45</ele>
        <time>2017-09-23T05:16:53Z</time>
      </trkpt>
      <trkpt lat="47.37546" lon="0.65768">
        <ele>45</ele>
        <time>2017-09-23T05:18:53Z</time>
      </trkpt>
      <trkpt lat="47.37545" lon="0.65754">
        <ele>45</ele>
        <time>2017-09-23T05:20:53Z</time>
      </trkpt>
      <trkpt lat="47.37546" lon="0.65737">
        <ele>45</ele>
        <time>2017-09-23T05:22:53Z</time>
      </trkpt>
      <trkpt lat="47.37549" lon="0.65723">
        <ele>45</ele>
        <time>2017-09-23T05:24:53Z</time>
      </trkpt>
      <trkpt lat="47.37552" lon="0.65704">
        <ele>45</ele>
        <time>2017-09-23T05:26:53Z</time>
      </trkpt>
      <trkpt lat="47.37561" lon="0.65665">
        <ele>46</ele>
        <time>2017-09-23T05:28:53Z</time>
      </trkpt>
      <trkpt lat="47.37578" lon="0.6559">
        <ele>46</ele>
        <time>2017-09-23T05:30:53Z</time>
      </trkpt>
      <trkpt lat="47.37585" lon="0.65556">
        <ele>46</ele>
        <time>2017-09-23T05:32:53Z</time>
      </trkpt>
      <trkpt lat="47.37596" lon="0.65507">
        <ele>46</ele>
        <time>2017-09-23T05:34:53Z</time>
      </trkpt>
      <trkpt lat="47.37602" lon="0.65474">
        <ele>47</ele>
        <time>2017-09-23T05:36:53Z</time>
      </trkpt>
      <trkpt lat="47.37607" lon="0.65445">
        <ele>47</ele>
        <time>2017-09-23T05:38:53Z</time>
      </trkpt>
      <trkpt lat="47.3761" lon="0.65422">
        <ele>47</ele>
        <time>2017-09-23T05:40:53Z</time>
      </trkpt>
      <trkpt lat="47.37612" lon="0.65397">
        <ele>47</ele>
        <time>2017-09-23T05:42:53Z</time>
      </trkpt>
      <trkpt lat="47.37613" lon="0.65381">
        <ele>47</ele>
        <time>2017-09-23T05:44:53Z</time>
      </trkpt>
      <trkpt lat="47.37615" lon="0.65353">
        <ele>46</ele>
        <time>2017-09-23T05:46:53Z</time>
      </trkpt>
      <trkpt lat="47.37616" lon="0.65336">
        <ele>46</ele>
        <time>2017-09-23T05:48:53Z</time>
      </trkpt>
      <trkpt lat="47.37617" lon="0.65304">
        <ele>46</ele>
        <time>2017-09-23T05:50:53Z</time>
      </trkpt>
      <trkpt lat="47.37619" lon="0.65249">
        <ele>46</ele>
        <time>2017-09-23T05:52:53Z</time>
      </trkpt>
      <trkpt lat="47.37619" lon="0.65243">
        <ele>46</ele>
        <time>2017-09-23T05:54:53Z</time>
      </trkpt>
      <trkpt lat="47.37618" lon="0.65216">
        <ele>46</ele>
        <time>2017-09-23T05:56:53Z</time>
      </trkpt>
      <trkpt lat="47.37617" lon="0.65192">
        <ele>45</ele>
        <time>2017-09-23T05:58:53Z</time>
      </trkpt>
      <trkpt lat="47.37615" lon="0.65167">
        <ele>45</ele>
        <time>2017-09-23T06:00:53Z</time>
      </trkpt>
      <trkpt lat="47.37614" lon="0.65159">
        <ele>45</ele>
        <time>2017-09-23T06:02:53Z</time>
      </trkpt>
      <trkpt lat="47.37613" lon="0.6515">
        <ele>46</ele>
        <time>2017-09-23T06:04:53Z</time>
      </trkpt>
      <trkpt lat="47.37612" lon="0.65135">
        <ele>46</ele>
        <time>2017-09-23T06:06:53Z</time>
      </trkpt>
      <trkpt lat="47.3761" lon="0.65124">
        <ele>46</ele>
        <time>2017-09-23T06:08:53Z</time>
      </trkpt>
      <trkpt lat="47.37607" lon="0.65099">
        <ele>46</ele>
        <time>2017-09-23T06:10:53Z</time>
      </trkpt>
      <trkpt lat="47.37602" lon="0.65075">
        <ele>46</ele>
        <time>2017-09-23T06:12:53Z</time>
      </trkpt>
      <trkpt lat="47.37597" lon="0.65047">
        <ele>47</ele>
        <time>2017-09-23T06:14:53Z</time>
      </trkpt>
      <trkpt lat="47.37596" lon="0.65042">
        <ele>47</ele>
        <time>2017-09-23T06:16:53Z</time>
      </trkpt>
      <trkpt lat="47.37585" lon="0.65007">
        <ele>49</ele>
        <time>2017-09-23T06:18:53Z</time>
      </trkpt>
      <trkpt lat="47.37583" lon="0.65001">
        <ele>49</ele>
        <time>2017-09-23T06:20:53Z</time>
      </trkpt>
      <trkpt lat="47.37583" lon="0.65001">
        <ele>49</ele>
        <time>2017-09-23T06:22:53Z</time>
      </trkpt>
      <trkpt lat="47.3758" lon="0.64991">
        <ele>49</ele>
        <time>2017-09-23T06:24:53Z</time>
      </trkpt>
      <trkpt lat="47.37574" lon="0.64971">
        <ele>48</ele>
        <time>2017-09-23T06:26:53Z</time>
      </trkpt>
      <trkpt lat="47.37563" lon="0.64942">
        <ele>47</ele>
        <time>2017-09-23T06:28:53Z</time>
      </trkpt>
      <trkpt lat="47.3755" lon="0.64907">
        <ele>47</ele>
        <time>2017-09-23T06:30:53Z</time>
      </trkpt>
      <trkpt lat="47.37544" lon="0.64899">
        <ele>47</ele>
        <time>2017-09-23T06:32:53Z</time>
      </trkpt>
      <trkpt lat="47.3752" lon="0.64828">
        <ele>48</ele>
        <time>2017-09-23T06:34:53Z</time>
      </trkpt>
      <trkpt lat="47.3751" lon="0.64802">
        <ele>48</ele>
        <time>2017-09-23T06:36:53Z</time>
      </trkpt>
      <trkpt lat="47.37481" lon="0.64724">
        <ele>47</ele>
        <time>2017-09-23T06:38:53Z</time>
      </trkpt>
      <trkpt lat="47.37476" lon="0.6471">
        <ele>47</ele>
        <time>2017-09-23T06:40:53Z</time>
      </trkpt>
      <trkpt lat="47.37472" lon="0.64695">
        <ele>47</ele>
        <time>2017-09-23T06:42:53Z</time>
      </trkpt>
      <trkpt lat="47.37469" lon="0.64681">
        <ele>47</ele>
        <time>2017-09-23T06:44:53Z</time>
      </trkpt>
      <trkpt lat="47.37467" lon="0.64651">
        <ele>47</ele>
        <time>2017-09-23T06:46:53Z</time>
      </trkpt>
      <trkpt lat="47.37467" lon="0.6464">
        <ele>46</ele>
        <time>2017-09-23T06:48:53Z</time>
      </trkpt>
      <trkpt lat="47.37468" lon="0.6463">
        <ele>46</ele>
        <time>2017-09-23T06:50:53Z</time>
      </trkpt>
      <trkpt lat="47.37471" lon="0.64611">
        <ele>46</ele>
        <time>2017-09-23T06:52:53Z</time>
      </trkpt>
      <trkpt lat="47.37476" lon="0.64595">
        <ele>45</ele>
        <time>2017-09-23T06:54:53Z</time>
      </trkpt>
      <trkpt lat="47.3751" lon="0.64526">
        <ele>46</ele>
        <time>2017-09-23T06:56:53Z</time>
      </trkpt>
      <trkpt lat="47.37525" lon="0.64494">
        <ele>46</ele>
        <time>2017-09-23T06:58:53Z</time>
      </trkpt>
      <trkpt lat="47.37549" lon="0.64439">
        <ele>45</ele>
        <time>2017-09-23T07:00:53Z</time>
      </trkpt>
      <trkpt lat="47.37559" lon="0.64413">
        <ele>45</ele>
        <time>2017-09-23T07:02:53Z</time>
      </trkpt>
      <trkpt lat="47.37561" lon="0.64408">
        <ele>45</ele>
        <time>2017-09-23T07:04:53Z</time>
      </trkpt>
      <trkpt lat="47.37566" lon="0.64403">
        <ele>45</ele>
        <time>2017-09-23T07:06:53Z</time>
      </trkpt>
      <trkpt lat="47.37586" lon="0.6425">
        <ele>46</ele>
        <time>2017-09-23T07:08:53Z</time>
      </trkpt>
      <trkpt lat="47.37587" lon="0.64238">
        <ele>46</ele>
        <time>2017-09-23T07:10:53Z</time>
      </trkpt>
      <trkpt lat="47.37591" lon="0.64172">
        <ele>45</ele>
        <time>2017-09-23T07:12:53Z</time>
      </trkpt>
      <trkpt lat="47.37592" lon="0.64141">
        <ele>44</ele>
        <time>2017-09-23T07:14:53Z</time>
      </trkpt>
      <trkpt lat="47.37592" lon="0.64115">
        <ele>44</ele>
        <time>2017-09-23T07:16:53Z</time>
      </trkpt>
      <trkpt lat="47.37591" lon="0.64103">
        <ele>44</ele>
        <time>2017-09-23T07:18:53Z</time>
      </trkpt>
      <trkpt lat="47.3759" lon="0.641">
        <ele>43</ele>
        <time>2017-09-23T07:20:53Z</time>
      </trkpt>
      <trkpt lat="47.37589" lon="0.64092">
        <ele>43</ele>
        <time>2017-09-23T07:22:53Z</time>
      </trkpt>
      <trkpt lat="47.37584" lon="0.64068">
        <ele>43</ele>
        <time>2017-09-23T07:24:53Z</time>
      </trkpt>
      <trkpt lat="47.37555" lon="0.63919">
        <ele>46</ele>
        <time>2017-09-23T07:26:53Z</time>
      </trkpt>
      <trkpt lat="47.37552" lon="0.63904">
        <ele>46</ele>
        <time>2017-09-23T07:28:53Z</time>
      </trkpt>
      <trkpt lat="47.37542" lon="0.63867">
        <ele>46</ele>
        <time>2017-09-23T07:30:53Z</time>
      </trkpt>
      <trkpt lat="47.37518" lon="0.63793">
        <ele>46</ele>
        <time>2017-09-23T07:32:53Z</time>
      </trkpt>
      <trkpt lat="47.37516" lon="0.63785">
        <ele>46</ele>
        <time>2017-09-23T07:34:53Z</time>
      </trkpt>
      <trkpt lat="47.37515" lon="0.63776">
        <ele>46</ele>
        <time>2017-09-23T07:36:53Z</time>
      </trkpt>
      <trkpt lat="47.37516" lon="0.63763">
        <ele>46</ele>
        <time>2017-09-23T07:38:53Z</time>
      </trkpt>
      <trkpt lat="47.37517" lon="0.63747">
        <ele>46</ele>
        <time>2017-09-23T07:40:53Z</time>
      </trkpt>
      <trkpt lat="47.37519" lon="0.63725">
        <ele>45</ele>
        <time>2017-09-23T07:42:53Z</time>
      </trkpt>
      <trkpt lat="47.3752" lon="0.63694">
        <ele>45</ele>
        <time>2017-09-23T07:44:53Z</time>
      </trkpt>
      <trkpt lat="47.3752" lon="0.63644">
        <ele>45</ele>
        <time>2017-09-23T07:46:53Z</time>
      </trkpt>
      <trkpt lat="47.37518" lon="0.63607">
        <ele>44</ele>
        <time>2017-09-23T07:48:53Z</time>
      </trkpt>
      <trkpt lat="47.37516" lon="0.63579">
        <ele>44</ele>
        <time>2017-09-23T07:50:53Z</time>
      </trkpt>
      <trkpt lat="47.37513" lon="0.63561">
        <ele>44</ele>
        <time>2017-09-23T07:52:53Z</time>
      </trkpt>
      <trkpt lat="47.37497" lon="0.63412">
        <ele>44</ele>
        <time>2017-09-23T07:54:53Z</time>
      </trkpt>
      <trkpt lat="47.37491" lon="0.63315">
        <ele>45</ele>
        <time>2017-09-23T07:56:53Z</time>
      </trkpt>
      <trkpt lat="47.37485" lon="0.63251">
        <ele>45</ele>
        <time>2017-09-23T07:58:53Z</time>
      </trkpt>
      <trkpt lat="47.37481" lon="0.63224">
        <ele>45</ele>
        <time>2017-09-23T08:00:53Z</time>
      </trkpt>
      <trkpt lat="47.37472" lon="0.63178">
        <ele>45</ele>
        <time>2017-09-23T08:02:53Z</time>
      </trkpt>
      <trkpt lat="47.37462" lon="0.63123">
        <ele>44</ele>
        <time>2017-09-23T08:04:53Z</time>
      </trkpt>
      <trkpt lat="47.37461" lon="0.63122">
        <ele>44</ele>
        <time>2017-09-23T08:06:53Z</time>
      </trkpt>
      <trkpt lat="47.37457" lon="0.63094">
        <ele>44</ele>
        <time>2017-09-23T08:08:53Z</time>
      </trkpt>
      <trkpt lat="47.37452" lon="0.63021">
        <ele>45</ele>
        <time>2017-09-23T08:10:53Z</time>
      </trkpt>
      <trkpt lat="47.37445" lon="0.62913">
        <ele>45</ele>
        <time>2017-09-23T08:12:53Z</time>
      </trkpt>
      <trkpt lat="47.37444" lon="0.62906">
        <ele>45</ele>
        <time>2017-09-23T08:14:53Z</time>
      </trkpt>
      <trkpt lat="47.37441" lon="0.62882">
        <ele>45</ele>
        <time>2017-09-23T08:16:53Z</time>
      </trkpt>
      <trkpt lat="47.3744" lon="0.62858">
        <ele>46</ele>
        <time>2017-09-23T08:18:53Z</time>
      </trkpt>
      <trkpt lat="47.37439" lon="0.62842">
        <ele>46</ele>
        <time>2017-09-23T08:20:53Z</time>
      </trkpt>
      <trkpt lat="47.37441" lon="0.62813">
        <ele>46</ele>
        <time>2017-09-23T08:22:53Z</time>
      </trkpt>
      <trkpt lat="47.37444" lon="0.62777">
        <ele>45</ele>
        <time>2017-09-23T08:24:53Z</time>
      </trkpt>
      <trkpt lat="47.37444" lon="0.62753">
        <ele>45</ele>
        <time>2017-09-23T08:26:53Z</time>
      </trkpt>
      <trkpt lat="47.37444" lon="0.62722">
        <ele>46</ele>
        <time>2017-09-23T08:28:53Z</time>
      </trkpt>
      <trkpt lat="47.3744" lon="0.62675">
        <ele>46</ele>
        <time>2017-09-23T08:30:53Z</time>
      </trkpt>
      <trkpt lat="47.37433" lon="0.62644">
        <ele>46</ele>
        <time>2017-09-23T08:32:53Z</time>
      </trkpt>
      <trkpt lat="47.37428" lon="0.62628">
        <ele>46</ele>
        <time>2017-09-23T08:34:53Z</time>
      </trkpt>
      <trkpt lat="47.37423" lon="0.62612">
        <ele>46</ele>
        <time>2017-09-23T08:36:53Z</time>
      </trkpt>
      <trkpt lat="47.37416" lon="0.62588">
        <ele>46</ele>
        <time>2017-09-23T08:38:53Z</time>
      </trkpt>
      <trkpt lat="47.374" lon="0.62544">
        <ele>46</ele>
        <time>2017-09-23T08:40:53Z</time>
      </trkpt>
      <trkpt lat="47.3739" lon="0.62522">
        <ele>45</ele>
        <time>2017-09-23T08:42:53Z</time>
      </trkpt>
      <trkpt lat="47.37382" lon="0.62507">
        <ele>45</ele>
        <time>2017-09-23T08:44:53Z</time>
      </trkpt>
      <trkpt lat="47.37377" lon="0.62498">
        <ele>45</ele>
        <time>2017-09-23T08:46:53Z</time>
      </trkpt>
      <trkpt lat="47.37371" lon="0.62487">
        <ele>45</ele>
        <time>2017-09-23T08:48:53Z</time>
      </trkpt>
      <trkpt lat="47.37356" lon="0.62464">
        <ele>45</ele>
        <time>2017-09-23T08:50:53Z</time>
      </trkpt>
      <trkpt lat="47.37318" lon="0.62412">
        <ele>45</ele>
        <time>2017-09-23T08:52:53Z</time>
      </trkpt>
      <trkpt lat="47.37312" lon="0.62403">
        <ele>45</ele>
        <time>2017-09-23T08:54:53Z</time>
      </trkpt>
      <trkpt lat="47.37306" lon="0.62393">
        <ele>45</ele>
        <time>2017-09-23T08:56:53Z</time>
      </trkpt>
      <trkpt lat="47.373" lon="0.62376">
        <ele>45</ele>
        <time>2017-09-23T08:58:53Z</time>
      </trkpt>
      <trkpt lat="47.37299" lon="0.62369">
        <ele>45</ele>
        <time>2017-09-23T09:00:53Z</time>
      </trkpt>
      <trkpt lat="47.37296" lon="0.62357">
        <ele>45</ele>
        <time>2017-09-23T09:02:53Z</time>
      </trkpt>
      <trkpt lat="47.37296" lon="0.62335">
        <ele>46</ele>
        <time>2017-09-23T09:04:53Z</time>
      </trkpt>
      <trkpt lat="47.37299" lon="0.62308">
        <ele>46</ele>
        <time>2017-09-23T09:06:53Z</time>
      </trkpt>
      <trkpt lat="47.37303" lon="0.62281">
        <ele>46</ele>
        <time>2017-09-23T09:08:53Z</time>
      </trkpt>
      <trkpt lat="47.37312" lon="0.62225">
        <ele>46</ele>
        <time>2017-09-23T09:10:53Z</time>
      </trkpt>
      <trkpt lat="47.37314" lon="0.62202">
        <ele>47</ele>
        <time>2017-09-23T09:12:53Z</time>
      </trkpt>
      <trkpt lat="47.37316" lon="0.62185">
        <ele>47</ele>
        <time>2017-09-23T09:14:53Z</time>
      </trkpt>
      <trkpt lat="47.3732" lon="0.62138">
        <ele>47</ele>
        <time>2017-09-23T09:16:53Z</time>
      </trkpt>
      <trkpt lat="47.37321" lon="0.62135">
        <ele>47</ele>
        <time>2017-09-23T09:18:53Z</time>
      </trkpt>
      <trkpt lat="47.37323" lon="0.62126">
        <ele>47</ele>
        <time>2017-09-23T09:20:53Z</time>
      </trkpt>
      <trkpt lat="47.37338" lon="0.62067">
        <ele>46</ele>
        <time>2017-09-23T09:22:53Z</time>
      </trkpt>
      <trkpt lat="47.37356" lon="0.62005">
        <ele>44</ele>
        <time>2017-09-23T09:24:53Z</time>
      </trkpt>
      <trkpt lat="47.37371" lon="0.61954">
        <ele>44</ele>
        <time>2017-09-23T09:26:53Z</time>
      </trkpt>
      <trkpt lat="47.37378" lon="0.61918">
        <ele>43</ele>
        <time>2017-09-23T09:28:53Z</time>
      </trkpt>
      <trkpt lat="47.37381" lon="0.61894">
        <ele>44</ele>
        <time>2017-09-23T09:30:53Z</time>
      </trkpt>
      <trkpt lat="47.37385" lon="0.61834">
        <ele>45</ele>
        <time>2017-09-23T09:32:53Z</time>
      </trkpt>
      <trkpt lat="47.37387" lon="0.61819">
        <ele>45</ele>
        <time>2017-09-23T09:34:53Z</time>
      </trkpt>
      <trkpt lat="47.37388" lon="0.61785">
        <ele>44</ele>
        <time>2017-09-23T09:36:53Z</time>
      </trkpt>
      <trkpt lat="47.37389" lon="0.61746">
        <ele>43</ele>
        <time>2017-09-23T09:38:53Z</time>
      </trkpt>
      <trkpt lat="47.3739" lon="0.61722">
        <ele>44</ele>
        <time>2017-09-23T09:40:53Z</time>
      </trkpt>
      <trkpt lat="47.37392" lon="0.61687">
        <ele>45</ele>
        <time>2017-09-23T09:42:53Z</time>
      </trkpt>
      <trkpt lat="47.37394" lon="0.61662">
        <ele>46</ele>
        <time>2017-09-23T09:44:53Z</time>
      </trkpt>
      <trkpt lat="47.37395" lon="0.61632">
        <ele>46</ele>
        <time>2017-09-23T09:46:53Z</time>
      </trkpt>
      <trkpt lat="47.37394" lon="0.61595">
        <ele>46</ele>
        <time>2017-09-23T09:48:53Z</time>
      </trkpt>
      <trkpt lat="47.37393" lon="0.61564">
        <ele>46</ele>
        <time>2017-09-23T09:50:53Z</time>
      </trkpt>
      <trkpt lat="47.37392" lon="0.61538">
        <ele>46</ele>
        <time>2017-09-23T09:52:53Z</time>
      </trkpt>
      <trkpt lat="47.3739" lon="0.61526">
        <ele>46</ele>
        <time>2017-09-23T09:54:53Z</time>
      </trkpt>
      <trkpt lat="47.37388" lon="0.61513">
        <ele>46</ele>
        <time>2017-09-23T09:56:53Z</time>
      </trkpt>
      <trkpt lat="47.37384" lon="0.615">
        <ele>46</ele>
        <time>2017-09-23T09:58:53Z</time>
      </trkpt>
      <trkpt lat="47.37375" lon="0.61478">
        <ele>46</ele>
        <time>2017-09-23T10:00:53Z</time>
      </trkpt>
      <trkpt lat="47.37362" lon="0.61453">
        <ele>46</ele>
        <time>2017-09-23T10:02:53Z</time>
      </trkpt>
      <trkpt lat="47.37347" lon="0.61428">
        <ele>45</ele>
        <time>2017-09-23T10:04:53Z</time>
      </trkpt>
      <trkpt lat="47.3733" lon="0.61406">
        <ele>45</ele>
        <time>2017-09-23T10:06:53Z</time>
      </trkpt>
      <trkpt lat="47.37308" lon="0.61381">
        <ele>45</ele>
        <time>2017-09-23T10:08:53Z</time>
      </trkpt>
      <trkpt lat="47.37282" lon="0.61348">
        <ele>45</ele>
        <time>2017-09-23T10:10:53Z</time>
      </trkpt>
      <trkpt lat="47.37266" lon="0.6133">
        <ele>46</ele>
        <time>2017-09-23T10:12:53Z</time>
      </trkpt>
      <trkpt lat="47.37253" lon="0.61315">
        <ele>45</ele>
        <time>2017-09-23T10:14:53Z</time>
      </trkpt>
      <trkpt lat="47.37245" lon="0.61306">
        <ele>45</ele>
        <time>2017-09-23T10:16:53Z</time>
      </trkpt>
      <trkpt lat="47.37234" lon="0.61296">
        <ele>45</ele>
        <time>2017-09-23T10:18:53Z</time>
      </trkpt>
      <trkpt lat="47.37219" lon="0.61284">
        <ele>45</ele>
        <time>2017-09-23T10:20:53Z</time>
      </trkpt>
      <trkpt lat="47.37186" lon="0.6126">
        <ele>45</ele>
        <time>2017-09-23T10:22:53Z</time>
      </trkpt>
      <trkpt lat="47.37161" lon="0.61243">
        <ele>45</ele>
        <time>2017-09-23T10:24:53Z</time>
      </trkpt>
      <trkpt lat="47.37134" lon="0.61223">
        <ele>45</ele>
        <time>2017-09-23T10:26:53Z</time>
      </trkpt>
      <trkpt lat="47.37116" lon="0.61209">
        <ele>45</ele>
        <time>2017-09-23T10:28:53Z</time>
      </trkpt>
      <trkpt lat="47.37108" lon="0.61203">
        <ele>45</ele>
        <time>2017-09-23T10:30:53Z</time>
      </trkpt>
      <trkpt lat="47.37091" lon="0.6119">
        <ele>44</ele>
        <time>2017-09-23T10:32:53Z</time>
      </trkpt>
      <trkpt lat="47.37063" lon="0.61164">
        <ele>44</ele>
        <time>2017-09-23T10:34:53Z</time>
      </trkpt>
      <trkpt lat="47.37046" lon="0.61147">
        <ele>45</ele>
        <time>2017-09-23T10:36:53Z</time>
      </trkpt>
      <trkpt lat="47.37036" lon="0.61136">
        <ele>45</ele>
        <time>2017-09-23T10:38:53Z</time>
      </trkpt>
      <trkpt lat="47.37027" lon="0.61126">
        <ele>45</ele>
        <time>2017-09-23T10:40:53Z</time>
      </trkpt>
      <trkpt lat="47.37015" lon="0.6111">
        <ele>45</ele>
        <time>2017-09-23T10:42:53Z</time>
      </trkpt>
      <trkpt lat="47.37001" lon="0.61089">
        <ele>45</ele>
        <time>2017-09-23T10:44:53Z</time>
      </trkpt>
      <trkpt lat="47.36991" lon="0.6107">
        <ele>45</ele>
        <time>2017-09-23T10:46:53Z</time>
      </trkpt>
      <trkpt lat="47.36973" lon="0.61034">
        <ele>45</ele>
        <time>2017-09-23T10:48:53Z</time>
      </trkpt>
      <trkpt lat="47.36966" lon="0.61021">
        <ele>45</ele>
        <time>2017-09-23T10:50:53Z</time>
      </trkpt>
      <trkpt lat="47.36963" lon="0.61016">
        <ele>45</ele>
        <time>2017-09-23T10:52:53Z</time>
      </trkpt>
      <trkpt lat="47.36958" lon="0.61006">
        <ele>45</ele>
        <time>2017-09-23T10:54:53Z</time>
      </trkpt>
      <trkpt lat="47.36944" lon="0.60987">
        <ele>45</ele>
        <time>2017-09-23T10:56:53Z</time>
      </trkpt>
      <trkpt lat="47.36913" lon="0.60955">
        <ele>45</ele>
        <time>2017-09-23T10:58:53Z</time>
      </trkpt>
      <trkpt lat="47.36889" lon="0.60936">
        <ele>45</ele>
        <time>2017-09-23T11:00:53Z</time>
      </trkpt>
      <trkpt lat="47.36842" lon="0.60905">
        <ele>46</ele>
        <time>2017-09-23T11:02:53Z</time>
      </trkpt>
      <trkpt lat="47.3683" lon="0.60894">
        <ele>46</ele>
        <time>2017-09-23T11:04:53Z</time>
      </trkpt>
      <trkpt lat="47.36815" lon="0.60881">
        <ele>46</ele>
        <time>2017-09-23T11:06:53Z</time>
      </trkpt>
      <trkpt lat="47.36795" lon="0.6086">
        <ele>47</ele>
        <time>2017-09-23T11:08:53Z</time>
      </trkpt>
      <trkpt lat="47.36791" lon="0.60858">
        <ele>47</ele>
        <time>2017-09-23T11:10:53Z</time>
      </trkpt>
      <trkpt lat="47.36785" lon="0.60853">
        <ele>47</ele>
        <time>2017-09-23T11:12:53Z</time>
      </trkpt>
      <trkpt lat="47.36782" lon="0.60852">
        <ele>47</ele>
        <time>2017-09-23T11:14:53Z</time>
      </trkpt>
      <trkpt lat="47.36777" lon="0.60849">
        <ele>47</ele>
        <time>2017-09-23T11:16:53Z</time>
      </trkpt>
      <trkpt lat="47.36757" lon="0.60839">
        <ele>47</ele>
        <time>2017-09-23T11:18:53Z</time>
      </trkpt>
      <trkpt lat="47.36689" lon="0.60806">
        <ele>44</ele>
        <time>2017-09-23T11:20:53Z</time>
      </trkpt>
      <trkpt lat="47.3667" lon="0.60796">
        <ele>44</ele>
        <time>2017-09-23T11:22:53Z</time>
      </trkpt>
      <trkpt lat="47.36661" lon="0.60791">
        <ele>44</ele>
        <time>2017-09-23T11:24:53Z</time>
      </trkpt>
      <trkpt lat="47.36638" lon="0.60776">
        <ele>44</ele>
        <time>2017-09-23T11:26:53Z</time>
      </trkpt>
      <trkpt lat="47.36628" lon="0.60768">
        <ele>44</ele>
        <time>2017-09-23T11:28:53Z</time>
      </trkpt>
      <trkpt lat="47.3662" lon="0.6076">
        <ele>44</ele>
        <time>2017-09-23T11:30:53Z</time>
      </trkpt>
      <trkpt lat="47.36613" lon="0.60748">
        <ele>44</ele>
        <time>2017-09-23T11:32:53Z</time>
      </trkpt>
      <trkpt lat="47.36604" lon="0.60727">
        <ele>43</ele>
        <time>2017-09-23T11:34:53Z</time>
      </trkpt>
      <trkpt lat="47.36596" lon="0.6071">
        <ele>43</ele>
        <time>2017-09-23T11:36:53Z</time>
      </trkpt>
      <trkpt lat="47.36586" lon="0.60681">
        <ele>43</ele>
        <time>2017-09-23T11:38:53Z</time>
      </trkpt>
      <trkpt lat="47.36569" lon="0.60633">
        <ele>43</ele>
        <time>2017-09-23T11:40:53Z</time>
      </trkpt>
      <trkpt lat="47.36568" lon="0.60629">
        <ele>43</ele>
        <time>2017-09-23T11:42:53Z</time>
      </trkpt>
      <trkpt lat="47.3656" lon="0.60607">
        <ele>44</ele>
        <time>2017-09-23T11:44:53Z</time>
      </trkpt>
      <trkpt lat="47.36558" lon="0.60602">
        <ele>44</ele>
        <time>2017-09-23T11:46:53Z</time>
      </trkpt>
      <trkpt lat="47.36549" lon="0.60582">
        <ele>44</ele>
        <time>2017-09-23T11:48:53Z</time>
      </trkpt>
      <trkpt lat="47.36542" lon="0.60569">
        <ele>44</ele>
        <time>2017-09-23T11:50:53Z</time>
      </trkpt>
      <trkpt lat="47.36534" lon="0.60556">
        <ele>44</ele>
        <time>2017-09-23T11:52:53Z</time>
      </trkpt>
      <trkpt lat="47.3652" lon="0.60539">
        <ele>44</ele>
        <time>2017-09-23T11:54:53Z</time>
      </trkpt>
      <trkpt lat="47.36499" lon="0.60519">
        <ele>44</ele>
        <time>2017-09-23T11:56:53Z</time>
      </trkpt>
      <trkpt lat="47.36487" lon="0.6051">
        <ele>44</ele>
        <time>2017-09-23T11:58:53Z</time>
      </trkpt>
      <trkpt lat="47.36474" lon="0.60495">
        <ele>44</ele>
        <time>2017-09-23T12:00:53Z</time>
      </trkpt>
      <trkpt lat="47.3646" lon="0.60476">
        <ele>44</ele>
        <time>2017-09-23T12:02:53Z</time>
      </trkpt>
      <trkpt lat="47.36452" lon="0.6046">
        <ele>43</ele>
        <time>2017-09-23T12:04:53Z</time>
      </trkpt>
      <trkpt lat="47.36445" lon="0.60444">
        <ele>43</ele>
        <time>2017-09-23T12:06:53Z</time>
      </trkpt>
      <trkpt lat="47.3644" lon="0.60423">
        <ele>43</ele>
        <time>2017-09-23T12:08:53Z</time>
      </trkpt>
      <trkpt lat="47.36434" lon="0.6039">
        <ele>44</ele>
        <time>2017-09-23T12:10:53Z</time>
      </trkpt>
      <trkpt lat="47.36417" lon="0.60305">
        <ele>46</ele>
        <time>2017-09-23T12:12:53Z</time>
      </trkpt>
      <trkpt lat="47.36409" lon="0.60228">
        <ele>47</ele>
        <time>2017-09-23T12:14:53Z</time>
      </trkpt>
      <trkpt lat="47.36405" lon="0.60187">
        <ele>46</ele>
        <time>2017-09-23T12:16:53Z</time>
      </trkpt>
      <trkpt lat="47.36403" lon="0.60155">
        <ele>46</ele>
        <time>2017-09-23T12:18:53Z</time>
      </trkpt>
      <trkpt lat="47.36402" lon="0.60122">
        <ele>45</ele>
        <time>2017-09-23T12:20:53Z</time>
      </trkpt>
      <trkpt lat="47.36402" lon="0.60083">
        <ele>45</ele>
        <time>2017-09-23T12:22:53Z</time>
      </trkpt>
      <trkpt lat="47.36402" lon="0.60028">
        <ele>44</ele>
        <time>2017-09-23T12:24:53Z</time>
      </trkpt>
      <trkpt lat="47.36403" lon="0.60004">
        <ele>44</ele>
        <time>2017-09-23T12:26:53Z</time>
      </trkpt>
      <trkpt lat="47.36404" lon="0.59996">
        <ele>44</ele>
        <time>2017-09-23T12:28:53Z</time>
      </trkpt>
      <trkpt lat="47.36407" lon="0.59958">
        <ele>44</ele>
        <time>2017-09-23T12:30:53Z</time>
      </trkpt>
      <trkpt lat="47.36411" lon="0.59919">
        <ele>45</ele>
        <time>2017-09-23T12:32:53Z</time>
      </trkpt>
      <trkpt lat="47.36413" lon="0.599">
        <ele>45</ele>
        <time>2017-09-23T12:34:53Z</time>
      </trkpt>
      <trkpt lat="47.3642" lon="0.5979">
        <ele>45</ele>
        <time>2017-09-23T12:36:53Z</time>
      </trkpt>
      <trkpt lat="47.36426" lon="0.59725">
        <ele>45</ele>
        <time>2017-09-23T12:38:53Z</time>
      </trkpt>
      <trkpt lat="47.36428" lon="0.59707">
        <ele>45</ele>
        <time>2017-09-23T12:40:53Z</time>
      </trkpt>
      <trkpt lat="47.36431" lon="0.59691">
        <ele>45</ele>
        <time>2017-09-23T12:42:53Z</time>
      </trkpt>
      <trkpt lat="47.36434" lon="0.59677">
        <ele>45</ele>
        <time>2017-09-23T12:44:53Z</time>
      </trkpt>
      <trkpt lat="47.36438" lon="0.59663">
        <ele>45</ele>
        <time>2017-09-23T12:46:53Z</time>
      </trkpt>
      <trkpt lat="47.36443" lon="0.59642">
        <ele>45</ele>
        <time>2017-09-23T12:48:53Z</time>
      </trkpt>
      <trkpt lat="47.36456" lon="0.59597">
        <ele>45</ele>
        <time>2017-09-23T12:50:53Z</time>
      </trkpt>
      <trkpt lat="47.36463" lon="0.59573">
        <ele>45</ele>
        <time>2017-09-23T12:52:53Z</time>
      </trkpt>
      <trkpt lat="47.36479" lon="0.59524">
        <ele>45</ele>
        <time>2017-09-23T12:54:53Z</time>
      </trkpt>
      <trkpt lat="47.36482" lon="0.5951">
        <ele>45</ele>
        <time>2017-09-23T12:56:53Z</time>
      </trkpt>
      <trkpt lat="47.36484" lon="0.59504">
        <ele>45</ele>
        <time>2017-09-23T12:58:53Z</time>
      </trkpt>
      <trkpt lat="47.36484" lon="0.59497">
        <ele>45</ele>
        <time>2017-09-23T13:00:53Z</time>
      </trkpt>
      <trkpt lat="47.36484" lon="0.59492">
        <ele>45</ele>
        <time>2017-09-23T13:02:53Z</time>
      </trkpt>
      <trkpt lat="47.36484" lon="0.59465">
        <ele>45</ele>
        <time>2017-09-23T13:04:53Z</time>
      </trkpt>
      <trkpt lat="47.36483" lon="0.59432">
        <ele>44</ele>
        <time>2017-09-23T13:06:53Z</time>
      </trkpt>
      <trkpt lat="47.36482" lon="0.59414">
        <ele>44</ele>
        <time>2017-09-23T13:08:53Z</time>
      </trkpt>
      <trkpt lat="47.36483" lon="0.59398">
        <ele>43</ele>
        <time>2017-09-23T13:10:53Z</time>
      </trkpt>
      <trkpt lat="47.36485" lon="0.59388">
        <ele>43</ele>
        <time>2017-09-23T13:12:53Z</time>
      </trkpt>
      <trkpt lat="47.36499" lon="0.5931">
        <ele>44</ele>
        <time>2017-09-23T13:14:53Z</time>
      </trkpt>
      <trkpt lat="47.365" lon="0.59301">
        <ele>44</ele>
        <time>2017-09-23T13:16:53Z</time>
      </trkpt>
      <trkpt lat="47.36516" lon="0.59137">
        <ele>45</ele>
        <time>2017-09-23T13:18:53Z</time>
      </trkpt>
      <trkpt lat="47.36523" lon="0.59076">
        <ele>43</ele>
        <time>2017-09-23T13:20:53Z</time>
      </trkpt>
      <trkpt lat="47.36529" lon="0.59035">
        <ele>44</ele>
        <time>2017-09-23T13:22:53Z</time>
      </trkpt>
      <trkpt lat="47.36543" lon="0.58945">
        <ele>43</ele>
        <time>2017-09-23T13:24:53Z</time>
      </trkpt>
      <trkpt lat="47.36545" lon="0.58924">
        <ele>43</ele>
        <time>2017-09-23T13:26:53Z</time>
      </trkpt>
      <trkpt lat="47.36546" lon="0.58899">
        <ele>43</ele>
        <time>2017-09-23T13:28:53Z</time>
      </trkpt>
      <trkpt lat="47.36545" lon="0.58879">
        <ele>43</ele>
        <time>2017-09-23T13:30:53Z</time>
      </trkpt>
      <trkpt lat="47.36543" lon="0.58858">
        <ele>43</ele>
        <time>2017-09-23T13:32:53Z</time>
      </trkpt>
      <trkpt lat="47.36543" lon="0.58858">
        <ele>43</ele>
        <time>2017-09-23T13:34:53Z</time>
      </trkpt>
      <trkpt lat="47.36543" lon="0.58855">
        <ele>43</ele>
        <time>2017-09-23T13:36:53Z</time>
      </trkpt>
      <trkpt lat="47.3654" lon="0.58836">
        <ele>43</ele>
        <time>2017-09-23T13:38:53Z</time>
      </trkpt>
      <trkpt lat="47.36537" lon="0.58816">
        <ele>43</ele>
        <time>2017-09-23T13:40:53Z</time>
      </trkpt>
      <trkpt lat="47.3651" lon="0.58695">
        <ele>44</ele>
        <time>2017-09-23T13:42:53Z</time>
      </trkpt>
      <trkpt lat="47.36486" lon="0.58569">
        <ele>46</ele>
        <time>2017-09-23T13:44:53Z</time>
      </trkpt>
      <trkpt lat="47.36479" lon="0.58536">
        <ele>45</ele>
        <time>2017-09-23T13:46:53Z</time>
      </trkpt>
      <trkpt lat="47.36471" lon="0.585">
        <ele>45</ele>
        <time>2017-09-23T13:48:53Z</time>
      </trkpt>
      <trkpt lat="47.36467" lon="0.58488">
        <ele>45</ele>
        <time>2017-09-23T13:50:53Z</time>
      </trkpt>
      <trkpt lat="47.36457" lon="0.5846">
        <ele>45</ele>
        <time>2017-09-23T13:52:53Z</time>
      </trkpt>
      <trkpt lat="47.36447" lon="0.58432">
        <ele>45</ele>
        <time>2017-09-23T13:54:53Z</time>
      </trkpt>
      <trkpt lat="47.36434" lon="0.58397">
        <ele>45</ele>
        <time>2017-09-23T13:56:53Z</time>
      </trkpt>
      <trkpt lat="47.36428" lon="0.58378">
        <ele>45</ele>
        <time>2017-09-23T13:58:53Z</time>
      </trkpt>
      <trkpt lat="47.36417" lon="0.58338">
        <ele>44</ele>
        <time>2017-09-23T14:00:53Z</time>
      </trkpt>
      <trkpt lat="47.36413" lon="0.58317">
        <ele>44</ele>
        <time>2017-09-23T14:02:53Z</time>
      </trkpt>
      <trkpt lat="47.36397" lon="0.58256">
        <ele>43</ele>
        <time>2017-09-23T14:04:53Z</time>
      </trkpt>
      <trkpt lat="47.36389" lon="0.58229">
        <ele>42</ele>
        <time>2017-09-23T14:06:53Z</time>
      </trkpt>
      <trkpt lat="47.36378" lon="0.58196">
        <ele>42</ele>
        <time>2017-09-23T14:08:53Z</time>
      </trkpt>
      <trkpt lat="47.36368" lon="0.58166">
        <ele>42</ele>
        <time>2017-09-23T14:10:53Z</time>
      </trkpt>
      <trkpt lat="47.36355" lon="0.5813">
        <ele>43</ele>
        <time>2017-09-23T14:12:53Z</time>
      </trkpt>
      <trkpt lat="47.36346" lon="0.58101">
        <ele>43</ele>
        <time>2017-09-23T14:14:53Z</time>
      </trkpt>
      <trkpt lat="47.36333" lon="0.58053">
        <ele>46</ele>
        <time>2017-09-23T14:16:53Z</time>
      </trkpt>
      <trkpt lat="47.3632" lon="0.58006">
        <ele>48</ele>
        <time>2017-09-23T14:18:53Z</time>
      </trkpt>
      <trkpt lat="47.36314" lon="0.57987">
        <ele>48</ele>
        <time>2017-09-23T14:20:53Z</time>
      </trkpt>
      <trkpt lat="47.36307" lon="0.57966">
        <ele>48</ele>
        <time>2017-09-23T14:22:53Z</time>
      </trkpt>
      <trkpt lat="47.36297" lon="0.57937">
        <ele>48</ele>
        <time>2017-09-23T14:24:53Z</time>
      </trkpt>
      <trkpt lat="47.36285" lon="0.57908">
        <ele>47</ele>
        <time>2017-09-23T14:26:53Z</time>
      </trkpt>
      <trkpt lat="47.36272" lon="0.57879">
        <ele>45</ele>
        <time>2017-09-23T14:28:53Z</time>
      </trkpt>
      <trkpt lat="47.36259" lon="0.57853">
        <ele>44</ele>
        <time>2017-09-23T14:30:53Z</time>
      </trkpt>
      <trkpt lat="47.36233" lon="0.57799">
        <ele>44</ele>
        <time>2017-09-23T14:32:53Z</time>
      </trkpt>
      <trkpt lat="47.36207" lon="0.57743">
        <ele>44</ele>
        <time>2017-09-23T14:34:53Z</time>
      </trkpt>
      <trkpt lat="47.362" lon="0.57726">
        <ele>44</ele>
        <time>2017-09-23T14:36:53Z</time>
      </trkpt>
      <trkpt lat="47.36192" lon="0.57705">
        <ele>44</ele>
        <time>2017-09-23T14:38:53Z</time>
      </trkpt>
      <trkpt lat="47.36186" lon="0.57686">
        <ele>45</ele>
        <time>2017-09-23T14:40:53Z</time>
      </trkpt>
      <trkpt lat="47.36181" lon="0.57668">
        <ele>45</ele>
        <time>2017-09-23T14:42:53Z</time>
      </trkpt>
      <trkpt lat="47.3618" lon="0.57659">
        <ele>45</ele>
        <time>2017-09-23T14:44:53Z</time>
      </trkpt>
      <trkpt lat="47.36177" lon="0.57647">
        <ele>45</ele>
        <time>2017-09-23T14:46:53Z</time>
      </trkpt>
      <trkpt lat="47.36175" lon="0.57624">
        <ele>45</ele>
        <time>2017-09-23T14:48:53Z</time>
      </trkpt>
      <trkpt lat="47.36174" lon="0.57598">
        <ele>45</ele>
        <time>2017-09-23T14:50:53Z</time>
      </trkpt>
      <trkpt lat="47.36171" lon="0.57427">
        <ele>44</ele>
        <time>2017-09-23T14:52:53Z</time>
      </trkpt>
      <trkpt lat="47.36171" lon="0.5741">
        <ele>44</ele>
        <time>2017-09-23T14:54:53Z</time>
      </trkpt>
      <trkpt lat="47.36173" lon="0.57394">
        <ele>44</ele>
        <time>2017-09-23T14:56:53Z</time>
      </trkpt>
      <trkpt lat="47.36176" lon="0.57378">
        <ele>44</ele>
        <time>2017-09-23T14:58:53Z</time>
      </trkpt>
      <trkpt lat="47.36178" lon="0.57372">
        <ele>44</ele>
        <time>2017-09-23T15:00:53Z</time>
      </trkpt>
      <trkpt lat="47.36178" lon="0.57372">
        <ele>44</ele>
        <time>2017-09-23T15:02:53Z</time>
      </trkpt>
      <trkpt lat="47.36192" lon="0.5733">
        <ele>44</ele>
        <time>2017-09-23T15:04:53Z</time>
      </trkpt>
      <trkpt lat="47.36204" lon="0.5726">
        <ele>44</ele>
        <time>2017-09-23T15:06:53Z</time>
      </trkpt>
      <trkpt lat="47.36219" lon="0.57181">
        <ele>44</ele>
        <time>2017-09-23T15:08:53Z</time>
      </trkpt>
      <trkpt lat="47.36227" lon="0.57149">
        <ele>44</ele>
        <time>2017-09-23T15:10:53Z</time>
      </trkpt>
      <trkpt lat="47.36235" lon="0.57125">
        <ele>44</ele>
        <time>2017-09-23T15:12:53Z</time>
      </trkpt>
      <trkpt lat="47.36241" lon="0.57102">
        <ele>44</ele>
        <time>2017-09-23T15:14:53Z</time>
      </trkpt>
      <trkpt lat="47.36246" lon="0.57088">
        <ele>44</ele>
        <time>2017-09-23T15:16:53Z</time>
      </trkpt>
      <trkpt lat="47.3625" lon="0.57073">
        <ele>44</ele>
        <time>2017-09-23T15:18:53Z</time>
      </trkpt>
      <trkpt lat="47.36288" lon="0.56984">
        <ele>42</ele>
        <time>2017-09-23T15:20:53Z</time>
      </trkpt>
      <trkpt lat="47.36306" lon="0.56951">
        <ele>42</ele>
        <time>2017-09-23T15:22:53Z</time>
      </trkpt>
      <trkpt lat="47.36332" lon="0.56912">
        <ele>42</ele>
        <time>2017-09-23T15:24:53Z</time>
      </trkpt>
      <trkpt lat="47.36356" lon="0.56871">
        <ele>42</ele>
        <time>2017-09-23T15:26:53Z</time>
      </trkpt>
      <trkpt lat="47.36384" lon="0.56824">
        <ele>43</ele>
        <time>2017-09-23T15:28:53Z</time>
      </trkpt>
      <trkpt lat="47.36402" lon="0.56791">
        <ele>44</ele>
        <time>2017-09-23T15:30:53Z</time>
      </trkpt>
      <trkpt lat="47.36405" lon="0.56783">
        <ele>44</ele>
        <time>2017-09-23T15:32:53Z</time>
      </trkpt>
      <trkpt lat="47.36409" lon="0.56772">
        <ele>44</ele>
        <time>2017-09-23T15:34:53Z</time>
      </trkpt>
      <trkpt lat="47.36412" lon="0.56765">
        <ele>44</ele>
        <time>2017-09-23T15:36:53Z</time>
      </trkpt>
      <trkpt lat="47.36414" lon="0.56756">
        <ele>44</ele>
        <time>2017-09-23T15:38:53Z</time>
      </trkpt>
      <trkpt lat="47.3643" lon="0.56684">
        <ele>43</ele>
        <time>2017-09-23T15:40:53Z</time>
      </trkpt>
      <trkpt lat="47.36441" lon="0.56647">
        <ele>43</ele>
        <time>2017-09-23T15:42:53Z</time>
      </trkpt>
      <trkpt lat="47.36445" lon="0.56635">
        <ele>43</ele>
        <time>2017-09-23T15:44:53Z</time>
      </trkpt>
      <trkpt lat="47.36447" lon="0.56625">
        <ele>43</ele>
        <time>2017-09-23T15:46:53Z</time>
      </trkpt>
      <trkpt lat="47.36447" lon="0.56625">
        <ele>43</ele>
        <time>2017-09-23T15:48:53Z</time>
      </trkpt>
      <trkpt lat="47.36448" lon="0.56606">
        <ele>43</ele>
        <time>2017-09-23T15:50:53Z</time>
      </trkpt>
      <trkpt lat="47.36449" lon="0.56579">
        <ele>44</ele>
        <time>2017-09-23T15:52:53Z</time>
      </trkpt>
      <trkpt lat="47.36447" lon="0.56535">
        <ele>43</ele>
        <time>2017-09-23T15:54:53Z</time>
      </trkpt>
      <trkpt lat="47.36447" lon="0.56507">
        <ele>43</ele>
        <time>2017-09-23T15:56:53Z</time>
      </trkpt>
      <trkpt lat="47.36445" lon="0.5647">
        <ele>43</ele>
        <time>2017-09-23T15:58:53Z</time>
      </trkpt>
      <trkpt lat="47.36443" lon="0.56448">
        <ele>43</ele>
        <time>2017-09-23T16:00:53Z</time>
      </trkpt>
      <trkpt lat="47.36441" lon="0.56422">
        <ele>43</ele>
        <time>2017-09-23T16:02:53Z</time>
      </trkpt>
      <trkpt lat="47.36438" lon="0.56394">
        <ele>43</ele>
        <time>2017-09-23T16:04:53Z</time>
      </trkpt>
      <trkpt lat="47.36436" lon="0.5637">
        <ele>43</ele>
        <time>2017-09-23T16:06:53Z</time>
      </trkpt>
      <trkpt lat="47.36433" lon="0.56344">
        <ele>44</ele>
        <time>2017-09-23T16:08:53Z</time>
      </trkpt>
      <trkpt lat="47.36432" lon="0.56336">
        <ele>44</ele>
        <time>2017-09-23T16:10:53Z</time>
      </trkpt>
      <trkpt lat="47.36429" lon="0.56319">
        <ele>44</ele>
        <time>2017-09-23T16:12:53Z</time>
      </trkpt>
      <trkpt lat="47.36423" lon="0.56284">
        <ele>44</ele>
        <time>2017-09-23T16:14:53Z</time>
      </trkpt>
      <trkpt lat="47.36415" lon="0.56247">
        <ele>44</ele>
        <time>2017-09-23T16:16:53Z</time>
      </trkpt>
      <trkpt lat="47.36411" lon="0.56231">
        <ele>44</ele>
        <time>2017-09-23T16:18:53Z</time>
      </trkpt>
      <trkpt lat="47.36406" lon="0.5621">
        <ele>45</ele>
        <time>2017-09-23T16:20:53Z</time>
      </trkpt>
      <trkpt lat="47.36399" lon="0.56191">
        <ele>45</ele>
        <time>2017-09-23T16:22:53Z</time>
      </trkpt>
      <trkpt lat="47.36393" lon="0.56175">
        <ele>45</ele>
        <time>2017-09-23T16:24:53Z</time>
      </trkpt>
      <trkpt lat="47.36382" lon="0.56149">
        <ele>45</ele>
        <time>2017-09-23T16:26:53Z</time>
      </trkpt>
      <trkpt lat="47.36372" lon="0.56128">
        <ele>45</ele>
        <time>2017-09-23T16:28:53Z</time>
      </trkpt>
      <trkpt lat="47.36359" lon="0.56104">
        <ele>44</ele>
        <time>2017-09-23T16:30:53Z</time>
      </trkpt>
      <trkpt lat="47.36325" lon="0.56041">
        <ele>45</ele>
        <time>2017-09-23T16:32:53Z</time>
      </trkpt>
      <trkpt lat="47.363" lon="0.55991">
        <ele>45</ele>
        <time>2017-09-23T16:34:53Z</time>
      </trkpt>
      <trkpt lat="47.36222" lon="0.55806">
        <ele>45</ele>
        <time>2017-09-23T16:36:53Z</time>
      </trkpt>
      <trkpt lat="47.3622" lon="0.558">
        <ele>45</ele>
        <time>2017-09-23T16:38:53Z</time>
      </trkpt>
      <trkpt lat="47.3621" lon="0.55775">
        <ele>45</ele>
        <time>2017-09-23T16:40:53Z</time>
      </trkpt>
      <trkpt lat="47.36183" lon="0.55696">
        <ele>44</ele>
        <time>2017-09-23T16:42:53Z</time>
      </trkpt>
      <trkpt lat="47.36167" lon="0.5564">
        <ele>44</ele>
        <time>2017-09-23T16:44:53Z</time>
      </trkpt>
      <trkpt lat="47.36163" lon="0.55621">
        <ele>44</ele>
        <time>2017-09-23T16:46:53Z</time>
      </trkpt>
      <trkpt lat="47.3616" lon="0.55601">
        <ele>45</ele>
        <time>2017-09-23T16:48:53Z</time>
      </trkpt>
      <trkpt lat="47.3616" lon="0.55588">
        <ele>45</ele>
        <time>2017-09-23T16:50:53Z</time>
      </trkpt>
      <trkpt lat="47.36161" lon="0.55575">
        <ele>45</ele>
        <time>2017-09-23T16:52:53Z</time>
      </trkpt>
      <trkpt lat="47.36166" lon="0.55528">
        <ele>45</ele>
        <time>2017-09-23T16:54:53Z</time>
      </trkpt>
      <trkpt lat="47.36168" lon="0.55513">
        <ele>45</ele>
        <time>2017-09-23T16:56:53Z</time>
      </trkpt>
      <trkpt lat="47.36171" lon="0.55484">
        <ele>45</ele>
        <time>2017-09-23T16:58:53Z</time>
      </trkpt>
      <trkpt lat="47.36174" lon="0.55415">
        <ele>46</ele>
        <time>2017-09-23T17:00:53Z</time>
      </trkpt>
      <trkpt lat="47.36172" lon="0.55368">
        <ele>46</ele>
        <time>2017-09-23T17:02:53Z</time>
      </trkpt>
      <trkpt lat="47.36167" lon="0.55332">
        <ele>46</ele>
        <time>2017-09-23T17:04:53Z</time>
      </trkpt>
      <trkpt lat="47.36151" lon="0.55262">
        <ele>43</ele>
        <time>2017-09-23T17:06:53Z</time>
      </trkpt>
      <trkpt lat="47.36138" lon="0.55216">
        <ele>43</ele>
        <time>2017-09-23T17:08:53Z</time>
      </trkpt>
      <trkpt lat="47.3612" lon="0.55157">
        <ele>42</ele>
        <time>2017-09-23T17:10:53Z</time>
      </trkpt>
      <trkpt lat="47.36116" lon="0.5514">
        <ele>42</ele>
        <time>2017-09-23T17:12:53Z</time>
      </trkpt>
      <trkpt lat="47.3611" lon="0.55112">
        <ele>42</ele>
        <time>2017-09-23T17:14:53Z</time>
      </trkpt>
      <trkpt lat="47.36106" lon="0.5509">
        <ele>42</ele>
        <time>2017-09-23T17:16:53Z</time>
      </trkpt>
      <trkpt lat="47.36105" lon="0.55074">
        <ele>42</ele>
        <time>2017-09-23T17:18:53Z</time>
      </trkpt>
      <trkpt lat="47.36105" lon="0.55059">
        <ele>42</ele>
        <time>2017-09-23T17:20:53Z</time>
      </trkpt>
      <trkpt lat="47.36108" lon="0.55043">
        <ele>42</ele>
        <time>2017-09-23T17:22:53Z</time>
      </trkpt>
      <trkpt lat="47.36112" lon="0.55032">
        <ele>42</ele>
        <time>2017-09-23T17:24:53Z</time>
      </trkpt>
      <trkpt lat="47.36125" lon="0.54991">
        <ele>42</ele>
        <time>2017-09-23T17:26:53Z</time>
      </trkpt>
      <trkpt lat="47.3613" lon="0.54971">
        <ele>43</ele>
        <time>2017-09-23T17:28:53Z</time>
      </trkpt>
      <trkpt lat="47.36131" lon="0.54953">
        <ele>43</ele>
        <time>2017-09-23T17:30:53Z</time>
      </trkpt>
      <trkpt lat="47.36131" lon="0.5494">
        <ele>43</ele>
        <time>2017-09-23T17:32:53Z</time>
      </trkpt>
      <trkpt lat="47.3613" lon="0.54935">
        <ele>43</ele>
        <time>2017-09-23T17:34:53Z</time>
      </trkpt>
      <trkpt lat="47.36129" lon="0.54922">
        <ele>43</ele>
        <time>2017-09-23T17:36:53Z</time>
      </trkpt>
      <trkpt lat="47.36127" lon="0.54911">
        <ele>42</ele>
        <time>2017-09-23T17:38:53Z</time>
      </trkpt>
      <trkpt lat="47.36123" lon="0.549">
        <ele>42</ele>
        <time>2017-09-23T17:40:53Z</time>
      </trkpt>
      <trkpt lat="47.3612" lon="0.54891">
        <ele>42</ele>
        <time>2017-09-23T17:42:53Z</time>
      </trkpt>
      <trkpt lat="47.36117" lon="0.54883">
        <ele>42</ele>
        <time>2017-09-23T17:44:53Z</time>
      </trkpt>
      <trkpt lat="47.36113" lon="0.54875">
        <ele>42</ele>
        <time>2017-09-23T17:46:53Z</time>
      </trkpt>
      <trkpt lat="47.36108" lon="0.54868">
        <ele>42</ele>
        <time>2017-09-23T17:48:53Z</time>
      </trkpt>
      <trkpt lat="47.36097" lon="0.54852">
        <ele>42</ele>
        <time>2017-09-23T17:50:53Z</time>
      </trkpt>
      <trkpt lat="47.36083" lon="0.54832">
        <ele>42</ele>
        <time>2017-09-23T17:52:53Z</time>
      </trkpt>
      <trkpt lat="47.36065" lon="0.548">
        <ele>42</ele>
        <time>2017-09-23T17:54:53Z</time>
      </trkpt>
      <trkpt lat="47.36052" lon="0.54776">
        <ele>43</ele>
        <time>2017-09-23T17:56:53Z</time>
      </trkpt>
      <trkpt lat="47.36036" lon="0.54747">
        <ele>43</ele>
        <time>2017-09-23T17:58:53Z</time>
      </trkpt>
      <trkpt lat="47.36025" lon="0.5473">
        <ele>44</ele>
        <time>2017-09-23T18:00:53Z</time>
      </trkpt>
      <trkpt lat="47.36001" lon="0.54691">
        <ele>45</ele>
        <time>2017-09-23T18:02:53Z</time>
      </trkpt>
      <trkpt lat="47.35985" lon="0.54668">
        <ele>46</ele>
        <time>2017-09-23T18:04:53Z</time>
      </trkpt>
      <trkpt lat="47.35971" lon="0.5465">
        <ele>45</ele>
        <time>2017-09-23T18:06:53Z</time>
      </trkpt>
      <trkpt lat="47.35956" lon="0.54634">
        <ele>45</ele>
        <time>2017-09-23T18:08:53Z</time>
      </trkpt>
      <trkpt lat="47.35938" lon="0.54614">
        <ele>45</ele>
        <time>2017-09-23T18:10:53Z</time>
      </trkpt>
      <trkpt lat="47.35912" lon="0.54588">
        <ele>46</ele>
        <time>2017-09-23T18:12:53Z</time>
      </trkpt>
      <trkpt lat="47.35898" lon="0.54572">
        <ele>45</ele>
        <time>2017-09-23T18:14:53Z</time>
      </trkpt>
      <trkpt lat="47.35895" lon="0.54567">
        <ele>45</ele>
        <time>2017-09-23T18:16:53Z</time>
      </trkpt>
      <trkpt lat="47.3589" lon="0.5456">
        <ele>45</ele>
        <time>2017-09-23T18:18:53Z</time>
      </trkpt>
      <trkpt lat="47.35888" lon="0.54555">
        <ele>44</ele>
        <time>2017-09-23T18:20:53Z</time>
      </trkpt>
      <trkpt lat="47.35886" lon="0.54551">
        <ele>44</ele>
        <time>2017-09-23T18:22:53Z</time>
      </trkpt>
      <trkpt lat="47.35884" lon="0.54545">
        <ele>44</ele>
        <time>2017-09-23T18:24:53Z</time>
      </trkpt>
      <trkpt lat="47.35884" lon="0.54545">
        <ele>44</ele>
        <time>2017-09-23T18:26:53Z</time>
      </trkpt>
      <trkpt lat="47.35883" lon="0.54537">
        <ele>44</ele>
        <time>2017-09-23T18:28:53Z</time>
      </trkpt>
      <trkpt lat="47.35883" lon="0.54531">
        <ele>44</ele>
        <time>2017-09-23T18:30:53Z</time>
      </trkpt>
      <trkpt lat="47.35883" lon="0.54522">
        <ele>44</ele>
        <time>2017-09-23T18:32:53Z</time>
      </trkpt>
      <trkpt lat="47.35884" lon="0.54515">
        <ele>44</ele>
        <time>2017-09-23T18:34:53Z</time>
      </trkpt>
      <trkpt lat="47.35884" lon="0.54515">
        <ele>44</ele>
        <time>2017-09-23T18:36:53Z</time>
      </trkpt>
      <trkpt lat="47.35864" lon="0.54507">
        <ele>44</ele>
        <time>2017-09-23T18:38:53Z</time>
      </trkpt>
      <trkpt lat="47.3584" lon="0.54498">
        <ele>44</ele>
        <time>2017-09-23T18:40:53Z</time>
      </trkpt>
      <trkpt lat="47.35828" lon="0.54492">
        <ele>44</ele>
        <time>2017-09-23T18:42:53Z</time>
      </trkpt>
      <trkpt lat="47.35813" lon="0.54484">
        <ele>44</ele>
        <time>2017-09-23T18:44:53Z</time>
      </trkpt>
      <trkpt lat="47.35768" lon="0.54457">
        <ele>45</ele>
        <time>2017-09-23T18:46:53Z</time>
      </trkpt>
      <trkpt lat="47.35749" lon="0.5445">
        <ele>45</ele>
        <time>2017-09-23T18:48:53Z</time>
      </trkpt>
      <trkpt lat="47.35741" lon="0.54449">
        <ele>45</ele>
        <time>2017-09-23T18:50:53Z</time>
      </trkpt>
      <trkpt lat="47.35732" lon="0.5445">
        <ele>45</ele>
        <time>2017-09-23T18:52:53Z</time>
      </trkpt>
      <trkpt lat="47.35723" lon="0.54454">
        <ele>45</ele>
        <time>2017-09-23T18:54:53Z</time>
      </trkpt>
      <trkpt lat="47.35714" lon="0.54458">
        <ele>45</ele>
        <time>2017-09-23T18:56:53Z</time>
      </trkpt>
      <trkpt lat="47.35703" lon="0.54465">
        <ele>45</ele>
        <time>2017-09-23T18:58:53Z</time>
      </trkpt>
      <trkpt lat="47.35692" lon="0.54474">
        <ele>45</ele>
        <time>2017-09-23T19:00:53Z</time>
      </trkpt>
      <trkpt lat="47.35682" lon="0.54485">
        <ele>44</ele>
        <time>2017-09-23T19:02:53Z</time>
      </trkpt>
      <trkpt lat="47.35662" lon="0.54512">
        <ele>44</ele>
        <time>2017-09-23T19:04:53Z</time>
      </trkpt>
      <trkpt lat="47.35657" lon="0.54519">
        <ele>44</ele>
        <time>2017-09-23T19:06:53Z</time>
      </trkpt>
      <trkpt lat="47.35651" lon="0.54526">
        <ele>44</ele>
        <time>2017-09-23T19:08:53Z</time>
      </trkpt>
      <trkpt lat="47.35643" lon="0.54535">
        <ele>44</ele>
        <time>2017-09-23T19:10:53Z</time>
      </trkpt>
      <trkpt lat="47.35636" lon="0.5454">
        <ele>44</ele>
        <time>2017-09-23T19:12:53Z</time>
      </trkpt>
      <trkpt lat="47.3563" lon="0.54543">
        <ele>44</ele>
        <time>2017-09-23T19:14:53Z</time>
      </trkpt>
      <trkpt lat="47.35625" lon="0.54544">
        <ele>44</ele>
        <time>2017-09-23T19:16:53Z</time>
      </trkpt>
      <trkpt lat="47.35615" lon="0.54547">
        <ele>44</ele>
        <time>2017-09-23T19:18:53Z</time>
      </trkpt>
      <trkpt lat="47.35596" lon="0.54545">
        <ele>44</ele>
        <time>2017-09-23T19:20:53Z</time>
      </trkpt>
      <trkpt lat="47.35526" lon="0.54535">
        <ele>44</ele>
        <time>2017-09-23T19:22:53Z</time>
      </trkpt>
      <trkpt lat="47.35514" lon="0.54535">
        <ele>44</ele>
        <time>2017-09-23T19:24:53Z</time>
      </trkpt>
      <trkpt lat="47.355" lon="0.54536">
        <ele>44</ele>
        <time>2017-09-23T19:26:53Z</time>
      </trkpt>
      <trkpt lat="47.35477" lon="0.5454">
        <ele>44</ele>
        <time>2017-09-23T19:28:53Z</time>
      </trkpt>
      <trkpt lat="47.35457" lon="0.54545">
        <ele>43</ele>
        <time>2017-09-23T19:30:53Z</time>
      </trkpt>
      <trkpt lat="47.35453" lon="0.54546">
        <ele>43</ele>
        <time>2017-09-23T19:32:53Z</time>
      </trkpt>
      <trkpt lat="47.35406" lon="0.54565">
        <ele>43</ele>
        <time>2017-09-23T19:34:53Z</time>
      </trkpt>
      <trkpt lat="47.35365" lon="0.54574">
        <ele>42</ele>
        <time>2017-09-23T19:36:53Z</time>
      </trkpt>
      <trkpt lat="47.35294" lon="0.54602">
        <ele>42</ele>
        <time>2017-09-23T19:38:53Z</time>
      </trkpt>
      <trkpt lat="47.35253" lon="0.54617">
        <ele>41</ele>
        <time>2017-09-23T19:40:53Z</time>
      </trkpt>
      <trkpt lat="47.35235" lon="0.54622">
        <ele>41</ele>
        <time>2017-09-23T19:42:53Z</time>
      </trkpt>
      <trkpt lat="47.351" lon="0.54653">
        <ele>43</ele>
        <time>2017-09-23T19:44:53Z</time>
      </trkpt>
      <trkpt lat="47.35092" lon="0.54653">
        <ele>44</ele>
        <time>2017-09-23T19:46:53Z</time>
      </trkpt>
      <trkpt lat="47.3508" lon="0.54653">
        <ele>44</ele>
        <time>2017-09-23T19:48:53Z</time>
      </trkpt>
      <trkpt lat="47.35066" lon="0.5465">
        <ele>44</ele>
        <time>2017-09-23T19:50:53Z</time>
      </trkpt>
      <trkpt lat="47.3506" lon="0.54646">
        <ele>44</ele>
        <time>2017-09-23T19:52:53Z</time>
      </trkpt>
      <trkpt lat="47.35053" lon="0.5464">
        <ele>44</ele>
        <time>2017-09-23T19:54:53Z</time>
      </trkpt>
      <trkpt lat="47.35044" lon="0.5463">
        <ele>44</ele>
        <time>2017-09-23T19:56:53Z</time>
      </trkpt>
      <trkpt lat="47.35034" lon="0.54615">
        <ele>43</ele>
        <time>2017-09-23T19:58:53Z</time>
      </trkpt>
      <trkpt lat="47.35023" lon="0.54595">
        <ele>43</ele>
        <time>2017-09-23T20:00:53Z</time>
      </trkpt>
      <trkpt lat="47.35012" lon="0.54572">
        <ele>43</ele>
        <time>2017-09-23T20:02:53Z</time>
      </trkpt>
      <trkpt lat="47.34969" lon="0.54479">
        <ele>43</ele>
        <time>2017-09-23T20:04:53Z</time>
      </trkpt>
      <trkpt lat="47.3496" lon="0.54458">
        <ele>43</ele>
        <time>2017-09-23T20:06:53Z</time>
      </trkpt>
      <trkpt lat="47.3495" lon="0.54438">
        <ele>43</ele>
        <time>2017-09-23T20:08:53Z</time>
      </trkpt>
      <trkpt lat="47.3494" lon="0.54424">
        <ele>43</ele>
        <time>2017-09-23T20:10:53Z</time>
      </trkpt>
      <trkpt lat="47.34932" lon="0.54411">
        <ele>43</ele>
        <time>2017-09-23T20:12:53Z</time>
      </trkpt>
      <trkpt lat="47.34926" lon="0.54397">
        <ele>43</ele>
        <time>2017-09-23T20:14:53Z</time>
      </trkpt>
      <trkpt lat="47.34919" lon="0.54382">
        <ele>43</ele>
        <time>2017-09-23T20:16:53Z</time>
      </trkpt>
      <trkpt lat="47.3491" lon="0.54355">
        <ele>43</ele>
        <time>2017-09-23T20:18:53Z</time>
      </trkpt>
      <trkpt lat="47.34893" lon="0.54303">
        <ele>43</ele>
        <time>2017-09-23T20:20:53Z</time>
      </trkpt>
      <trkpt lat="47.34883" lon="0.54268">
        <ele>43</ele>
        <time>2017-09-23T20:22:53Z</time>
      </trkpt>
      <trkpt lat="47.34883" lon="0.54268">
        <ele>43</ele>
        <time>2017-09-23T20:24:53Z</time>
      </trkpt>
      <trkpt lat="47.34875" lon="0.5427">
        <ele>43</ele>
        <time>2017-09-23T20:26:53Z</time>
      </trkpt>
      <trkpt lat="47.34865" lon="0.54273">
        <ele>43</ele>
        <time>2017-09-23T20:28:53Z</time>
      </trkpt>
      <trkpt lat="47.3483" lon="0.54286">
        <ele>43</ele>
        <time>2017-09-23T20:30:53Z</time>
      </trkpt>
      <trkpt lat="47.34793" lon="0.54301">
        <ele>49</ele>
        <time>2017-09-23T20:32:53Z</time>
      </trkpt>
      <trkpt lat="47.34781" lon="0.54305">
        <ele>51</ele>
        <time>2017-09-23T20:34:53Z</time>
      </trkpt>
      <trkpt lat="47.34775" lon="0.54308">
        <ele>52</ele>
        <time>2017-09-23T20:36:53Z</time>
      </trkpt>
      <trkpt lat="47.34775" lon="0.54308">
        <ele>52</ele>
        <time>2017-09-23T20:38:53Z</time>
      </trkpt>
      <trkpt lat="47.34775" lon="0.54307">
        <ele>52</ele>
        <time>2017-09-23T20:40:53Z</time>
      </trkpt>
      <trkpt lat="47.34775" lon="0.54306">
        <ele>52</ele>
        <time>2017-09-23T20:42:53Z</time>
      </trkpt>
      <trkpt lat="47.34774" lon="0.54306">
        <ele>52</ele>
        <time>2017-09-23T20:44:53Z</time>
      </trkpt>
      <trkpt lat="47.34774" lon="0.54305">
        <ele>52</ele>
        <time>2017-09-23T20:46:53Z</time>
      </trkpt>
      <trkpt lat="47.34774" lon="0.54304">
        <ele>52</ele>
        <time>2017-09-23T20:48:53Z</time>
      </trkpt>
      <trkpt lat="47.34773" lon="0.54304">
        <ele>52</ele>
        <time>2017-09-23T20:50:53Z</time>
      </trkpt>
      <trkpt lat="47.34773" lon="0.54303">
        <ele>52</ele>
        <time>2017-09-23T20:52:53Z</time>
      </trkpt>
      <trkpt lat="47.34772" lon="0.54303">
        <ele>52</ele>
        <time>2017-09-23T20:54:53Z</time>
      </trkpt>
      <trkpt lat="47.34772" lon="0.54302">
        <ele>52</ele>
        <time>2017-09-23T20:56:53Z</time>
      </trkpt>
      <trkpt lat="47.34771" lon="0.54302">
        <ele>52</ele>
        <time>2017-09-23T20:58:53Z</time>
      </trkpt>
      <trkpt lat="47.34763" lon="0.54215">
        <ele>48</ele>
        <time>2017-09-23T21:00:53Z</time>
      </trkpt>
      <trkpt lat="47.34749" lon="0.54134">
        <ele>45</ele>
        <time>2017-09-23T21:02:53Z</time>
      </trkpt>
      <trkpt lat="47.34739" lon="0.54028">
        <ele>48</ele>
        <time>2017-09-23T21:04:53Z</time>
      </trkpt>
      <trkpt lat="47.34739" lon="0.54028">
        <ele>48</ele>
        <time>2017-09-23T21:06:53Z</time>
      </trkpt>
      <trkpt lat="47.34749" lon="0.54134">
        <ele>45</ele>
        <time>2017-09-23T21:08:53Z</time>
      </trkpt>
      <trkpt lat="47.34763" lon="0.54215">
        <ele>48</ele>
        <time>2017-09-23T21:10:53Z</time>
      </trkpt>
      <trkpt lat="47.34771" lon="0.54302">
        <ele>52</ele>
        <time>2017-09-23T21:12:53Z</time>
      </trkpt>
      <trkpt lat="47.34771" lon="0.54302">
        <ele>52</ele>
        <time>2017-09-23T21:14:53Z</time>
      </trkpt>
      <trkpt lat="47.3477" lon="0.54302">
        <ele>52</ele>
        <time>2017-09-23T21:16:53Z</time>
      </trkpt>
      <trkpt lat="47.34769" lon="0.54302">
        <ele>52</ele>
        <time>2017-09-23T21:18:53Z</time>
      </trkpt>
      <trkpt lat="47.34768" lon="0.54302">
        <ele>53</ele>
        <time>2017-09-23T21:20:53Z</time>
      </trkpt>
      <trkpt lat="47.34753" lon="0.54222">
        <ele>49</ele>
        <time>2017-09-23T21:22:53Z</time>
      </trkpt>
      <trkpt lat="47.34746" lon="0.54168">
        <ele>46</ele>
        <time>2017-09-23T21:24:53Z</time>
      </trkpt>
      <trkpt lat="47.34719" lon="0.5392">
        <ele>50</ele>
        <time>2017-09-23T21:26:53Z</time>
      </trkpt>
      <trkpt lat="47.34718" lon="0.53907">
        <ele>50</ele>
        <time>2017-09-23T21:28:53Z</time>
      </trkpt>
      <trkpt lat="47.34712" lon="0.53826">
        <ele>49</ele>
        <time>2017-09-23T21:30:53Z</time>
      </trkpt>
      <trkpt lat="47.34691" lon="0.53675">
        <ele>50</ele>
        <time>2017-09-23T21:32:53Z</time>
      </trkpt>
      <trkpt lat="47.34688" lon="0.5366">
        <ele>50</ele>
        <time>2017-09-23T21:34:53Z</time>
      </trkpt>
      <trkpt lat="47.34686" lon="0.53649">
        <ele>50</ele>
        <time>2017-09-23T21:36:53Z</time>
      </trkpt>
      <trkpt lat="47.34683" lon="0.53636">
        <ele>51</ele>
        <time>2017-09-23T21:38:53Z</time>
      </trkpt>
      <trkpt lat="47.34678" lon="0.53616">
        <ele>51</ele>
        <time>2017-09-23T21:40:53Z</time>
      </trkpt>
      <trkpt lat="47.34664" lon="0.53557">
        <ele>51</ele>
        <time>2017-09-23T21:42:53Z</time>
      </trkpt>
      <trkpt lat="47.34635" lon="0.53437">
        <ele>54</ele>
        <time>2017-09-23T21:44:53Z</time>
      </trkpt>
      <trkpt lat="47.34618" lon="0.53345">
        <ele>56</ele>
        <time>2017-09-23T21:46:53Z</time>
      </trkpt>
      <trkpt lat="47.34595" lon="0.53184">
        <ele>52</ele>
        <time>2017-09-23T21:48:53Z</time>
      </trkpt>
      <trkpt lat="47.3458" lon="0.53078">
        <ele>54</ele>
        <time>2017-09-23T21:50:53Z</time>
      </trkpt>
      <trkpt lat="47.3458" lon="0.53075">
        <ele>54</ele>
        <time>2017-09-23T21:52:53Z</time>
      </trkpt>
      <trkpt lat="47.34576" lon="0.53056">
        <ele>54</ele>
        <time>2017-09-23T21:54:53Z</time>
      </trkpt>
      <trkpt lat="47.34575" lon="0.53046">
        <ele>54</ele>
        <time>2017-09-23T21:56:53Z</time>
      </trkpt>
      <trkpt lat="47.34572" lon="0.53028">
        <ele>54</ele>
        <time>2017-09-23T21:58:53Z</time>
      </trkpt>
      <trkpt lat="47.34571" lon="0.53023">
        <ele>54</ele>
        <time>2017-09-23T22:00:53Z</time>
      </trkpt>
      <trkpt lat="47.3457" lon="0.53015">
        <ele>54</ele>
        <time>2017-09-23T22:02:53Z</time>
      </trkpt>
      <trkpt lat="47.34566" lon="0.52992">
        <ele>54</ele>
        <time>2017-09-23T22:04:53Z</time>
      </trkpt>
      <trkpt lat="47.34563" lon="0.52975">
        <ele>54</ele>
        <time>2017-09-23T22:06:53Z</time>
      </trkpt>
      <trkpt lat="47.34562" lon="0.52971">
        <ele>55</ele>
        <time>2017-09-23T22:08:53Z</time>
      </trkpt>
      <trkpt lat="47.3456" lon="0.52958">
        <ele>55</ele>
        <time>2017-09-23T22:10:53Z</time>
      </trkpt>
      <trkpt lat="47.34546" lon="0.52885">
        <ele>57</ele>
        <time>2017-09-23T22:12:53Z</time>
      </trkpt>
      <trkpt lat="47.34535" lon="0.5283">
        <ele>60</ele>
        <time>2017-09-23T22:14:53Z</time>
      </trkpt>
      <trkpt lat="47.34526" lon="0.52784">
        <ele>59</ele>
        <time>2017-09-23T22:16:53Z</time>
      </trkpt>
      <trkpt lat="47.3451" lon="0.52706">
        <ele>56</ele>
        <time>2017-09-23T22:18:53Z</time>
      </trkpt>
      <trkpt lat="47.34493" lon="0.52626">
        <ele>52</ele>
        <time>2017-09-23T22:20:53Z</time>
      </trkpt>
      <trkpt lat="47.34486" lon="0.52596">
        <ele>52</ele>
        <time>2017-09-23T22:22:53Z</time>
      </trkpt>
      <trkpt lat="47.34475" lon="0.52549">
        <ele>54</ele>
        <time>2017-09-23T22:24:53Z</time>
      </trkpt>
      <trkpt lat="47.34464" lon="0.52505">
        <ele>56</ele>
        <time>2017-09-23T22:26:53Z</time>
      </trkpt>
      <trkpt lat="47.34451" lon="0.52456">
        <ele>57</ele>
        <time>2017-09-23T22:28:53Z</time>
      </trkpt>
      <trkpt lat="47.34436" lon="0.52398">
        <ele>57</ele>
        <time>2017-09-23T22:30:53Z</time>
      </trkpt>
      <trkpt lat="47.3442" lon="0.52339">
        <ele>55</ele>
        <time>2017-09-23T22:32:53Z</time>
      </trkpt>
      <trkpt lat="47.34411" lon="0.52304">
        <ele>55</ele>
        <time>2017-09-23T22:34:53Z</time>
      </trkpt>
      <trkpt lat="47.34403" lon="0.52276">
        <ele>55</ele>
        <time>2017-09-23T22:36:53Z</time>
      </trkpt>
      <trkpt lat="47.34394" lon="0.52245">
        <ele>56</ele>
        <time>2017-09-23T22:38:53Z</time>
      </trkpt>
      <trkpt lat="47.34387" lon="0.5222">
        <ele>57</ele>
        <time>2017-09-23T22:40:53Z</time>
      </trkpt>
      <trkpt lat="47.34365" lon="0.52146">
        <ele>58</ele>
        <time>2017-09-23T22:42:53Z</time>
      </trkpt>
      <trkpt lat="47.3435" lon="0.52095">
        <ele>57</ele>
        <time>2017-09-23T22:44:53Z</time>
      </trkpt>
      <trkpt lat="47.34347" lon="0.52085">
        <ele>56</ele>
        <time>2017-09-23T22:46:53Z</time>
      </trkpt>
      <trkpt lat="47.34337" lon="0.52053">
        <ele>55</ele>
        <time>2017-09-23T22:48:53Z</time>
      </trkpt>
      <trkpt lat="47.34287" lon="0.51891">
        <ele>55</ele>
        <time>2017-09-23T22:50:53Z</time>
      </trkpt>
      <trkpt lat="47.3427" lon="0.51835">
        <ele>56</ele>
        <time>2017-09-23T22:52:53Z</time>
      </trkpt>
      <trkpt lat="47.34255" lon="0.51787">
        <ele>56</ele>
        <time>2017-09-23T22:54:53Z</time>
      </trkpt>
      <trkpt lat="47.34246" lon="0.51753">
        <ele>56</ele>
        <time>2017-09-23T22:56:53Z</time>
      </trkpt>
      <trkpt lat="47.34198" lon="0.5159">
        <ele>59</ele>
        <time>2017-09-23T22:58:53Z</time>
      </trkpt>
      <trkpt lat="47.34174" lon="0.51508">
        <ele>53</ele>
        <time>2017-09-23T23:00:53Z</time>
      </trkpt>
      <trkpt lat="47.34157" lon="0.51452">
        <ele>50</ele>
        <time>2017-09-23T23:02:53Z</time>
      </trkpt>
      <trkpt lat="47.34108" lon="0.51285">
        <ele>44</ele>
        <time>2017-09-23T23:04:53Z</time>
      </trkpt>
      <trkpt lat="47.34095" lon="0.5124">
        <ele>44</ele>
        <time>2017-09-23T23:06:53Z</time>
      </trkpt>
      <trkpt lat="47.3409" lon="0.51218">
        <ele>43</ele>
        <time>2017-09-23T23:08:53Z</time>
      </trkpt>
      <trkpt lat="47.34084" lon="0.51189">
        <ele>43</ele>
        <time>2017-09-23T23:10:53Z</time>
      </trkpt>
      <trkpt lat="47.34078" lon="0.51145">
        <ele>43</ele>
        <time>2017-09-23T23:12:53Z</time>
      </trkpt>
      <trkpt lat="47.34061" lon="0.51023">
        <ele>43</ele>
        <time>2017-09-23T23:14:53Z</time>
      </trkpt>
      <trkpt lat="47.34057" lon="0.51005">
        <ele>42</ele>
        <time>2017-09-23T23:16:53Z</time>
      </trkpt>
      <trkpt lat="47.34054" lon="0.5099">
        <ele>42</ele>
        <time>2017-09-23T23:18:53Z</time>
      </trkpt>
      <trkpt lat="47.34051" lon="0.50977">
        <ele>42</ele>
        <time>2017-09-23T23:20:53Z</time>
      </trkpt>
      <trkpt lat="47.34048" lon="0.50967">
        <ele>42</ele>
        <time>2017-09-23T23:22:53Z</time>
      </trkpt>
      <trkpt lat="47.34044" lon="0.50953">
        <ele>42</ele>
        <time>2017-09-23T23:24:53Z</time>
      </trkpt>
      <trkpt lat="47.34039" lon="0.50938">
        <ele>42</ele>
        <time>2017-09-23T23:26:53Z</time>
      </trkpt>
      <trkpt lat="47.34035" lon="0.50928">
        <ele>42</ele>
        <time>2017-09-23T23:28:53Z</time>
      </trkpt>
      <trkpt lat="47.34027" lon="0.50913">
        <ele>42</ele>
        <time>2017-09-23T23:30:53Z</time>
      </trkpt>
      <trkpt lat="47.34017" lon="0.50897">
        <ele>42</ele>
        <time>2017-09-23T23:32:53Z</time>
      </trkpt>
      <trkpt lat="47.34002" lon="0.50873">
        <ele>41</ele>
        <time>2017-09-23T23:34:53Z</time>
      </trkpt>
      <trkpt lat="47.33994" lon="0.50861">
        <ele>42</ele>
        <time>2017-09-23T23:36:53Z</time>
      </trkpt>
      <trkpt lat="47.33985" lon="0.50847">
        <ele>42</ele>
        <time>2017-09-23T23:38:53Z</time>
      </trkpt>
      <trkpt lat="47.33975" lon="0.50833">
        <ele>42</ele>
        <time>2017-09-23T23:40:53Z</time>
      </trkpt>
      <trkpt lat="47.33968" lon="0.50822">
        <ele>42</ele>
        <time>2017-09-23T23:42:53Z</time>
      </trkpt>
      <trkpt lat="47.33954" lon="0.50801">
        <ele>42</ele>
        <time>2017-09-23T23:44:53Z</time>
      </trkpt>
      <trkpt lat="47.33939" lon="0.50779">
        <ele>42</ele>
        <time>2017-09-23T23:46:53Z</time>
      </trkpt>
      <trkpt lat="47.33935" lon="0.50771">
        <ele>42</ele>
        <time>2017-09-23T23:48:53Z</time>
      </trkpt>
      <trkpt lat="47.33932" lon="0.50765">
        <ele>42</ele>
        <time>2017-09-23T23:50:53Z</time>
      </trkpt>
      <trkpt lat="47.3393" lon="0.5076">
        <ele>42</ele>
        <time>2017-09-23T23:52:53Z</time>
      </trkpt>
      <trkpt lat="47.33928" lon="0.50755">
        <ele>42</ele>
        <time>2017-09-23T23:54:53Z</time>
      </trkpt>
      <trkpt lat="47.33928" lon="0.50754">
        <ele>42</ele>
        <time>2017-09-23T23:56:53Z</time>
      </trkpt>
      <trkpt lat="47.33928" lon="0.50753">
        <ele>42</ele>
        <time>2017-09-23T23:58:53Z</time>
      </trkpt>
      <trkpt lat="47.33928" lon="0.50752">
        <ele>42</ele>
        <time>2017-09-24T00:00:53Z</time>
      </trkpt>
      <trkpt lat="47.33928" lon="0.50751">
        <ele>42</ele>
        <time>2017-09-24T00:02:53Z</time>
      </trkpt>
      <trkpt lat="47.33928" lon="0.5075">
        <ele>42</ele>
        <time>2017-09-24T00:04:53Z</time>
      </trkpt>
      <trkpt lat="47.33928" lon="0.50749">
        <ele>42</ele>
        <time>2017-09-24T00:06:53Z</time>
      </trkpt>
      <trkpt lat="47.33928" lon="0.50748">
        <ele>42</ele>
        <time>2017-09-24T00:08:53Z</time>
      </trkpt>
      <trkpt lat="47.33927" lon="0.50747">
        <ele>42</ele>
        <time>2017-09-24T00:10:53Z</time>
      </trkpt>
      <trkpt lat="47.33927" lon="0.50746">
        <ele>42</ele>
        <time>2017-09-24T00:12:53Z</time>
      </trkpt>
      <trkpt lat="47.33927" lon="0.50745">
        <ele>42</ele>
        <time>2017-09-24T00:14:53Z</time>
      </trkpt>
      <trkpt lat="47.33926" lon="0.50745">
        <ele>42</ele>
        <time>2017-09-24T00:16:53Z</time>
      </trkpt>
      <trkpt lat="47.33926" lon="0.50744">
        <ele>42</ele>
        <time>2017-09-24T00:18:53Z</time>
      </trkpt>
      <trkpt lat="47.33926" lon="0.50743">
        <ele>42</ele>
        <time>2017-09-24T00:20:53Z</time>
      </trkpt>
      <trkpt lat="47.33925" lon="0.50743">
        <ele>42</ele>
        <time>2017-09-24T00:22:53Z</time>
      </trkpt>
      <trkpt lat="47.33925" lon="0.50742">
        <ele>42</ele>
        <time>2017-09-24T00:24:53Z</time>
      </trkpt>
      <trkpt lat="47.33924" lon="0.50742">
        <ele>42</ele>
        <time>2017-09-24T00:26:53Z</time>
      </trkpt>
      <trkpt lat="47.33924" lon="0.50741">
        <ele>42</ele>
        <time>2017-09-24T00:28:53Z</time>
      </trkpt>
      <trkpt lat="47.33923" lon="0.50741">
        <ele>42</ele>
        <time>2017-09-24T00:30:53Z</time>
      </trkpt>
      <trkpt lat="47.33922" lon="0.5074">
        <ele>42</ele>
        <time>2017-09-24T00:32:53Z</time>
      </trkpt>
      <trkpt lat="47.33921" lon="0.5074">
        <ele>42</ele>
        <time>2017-09-24T00:34:53Z</time>
      </trkpt>
      <trkpt lat="47.3392" lon="0.5074">
        <ele>42</ele>
        <time>2017-09-24T00:36:53Z</time>
      </trkpt>
      <trkpt lat="47.33919" lon="0.5074">
        <ele>42</ele>
        <time>2017-09-24T00:38:53Z</time>
      </trkpt>
      <trkpt lat="47.33901" lon="0.50724">
        <ele>43</ele>
        <time>2017-09-24T00:40:53Z</time>
      </trkpt>
      <trkpt lat="47.339" lon="0.50723">
        <ele>43</ele>
        <time>2017-09-24T00:42:53Z</time>
      </trkpt>
      <trkpt lat="47.33897" lon="0.50718">
        <ele>43</ele>
        <time>2017-09-24T00:44:53Z</time>
      </trkpt>
      <trkpt lat="47.33893" lon="0.50712">
        <ele>43</ele>
        <time>2017-09-24T00:46:53Z</time>
      </trkpt>
      <trkpt lat="47.33886" lon="0.50702">
        <ele>43</ele>
        <time>2017-09-24T00:48:53Z</time>
      </trkpt>
      <trkpt lat="47.33881" lon="0.50694">
        <ele>43</ele>
        <time>2017-09-24T00:50:53Z</time>
      </trkpt>
      <trkpt lat="47.33879" lon="0.50691">
        <ele>43</ele>
        <time>2017-09-24T00:52:53Z</time>
      </trkpt>
      <trkpt lat="47.33874" lon="0.50685">
        <ele>43</ele>
        <time>2017-09-24T00:54:53Z</time>
      </trkpt>
      <trkpt lat="47.33871" lon="0.50681">
        <ele>43</ele>
        <time>2017-09-24T00:56:53Z</time>
      </trkpt>
      <trkpt lat="47.33868" lon="0.50678">
        <ele>43</ele>
        <time>2017-09-24T00:58:53Z</time>
      </trkpt>
      <trkpt lat="47.33863" lon="0.50672">
        <ele>43</ele>
        <time>2017-09-24T01:00:53Z</time>
      </trkpt>
      <trkpt lat="47.33857" lon="0.50666">
        <ele>42</ele>
        <time>2017-09-24T01:02:53Z</time>
      </trkpt>
      <trkpt lat="47.33852" lon="0.50661">
        <ele>42</ele>
        <time>2017-09-24T01:04:53Z</time>
      </trkpt>
      <trkpt lat="47.33842" lon="0.50653">
        <ele>42</ele>
        <time>2017-09-24T01:06:53Z</time>
      </trkpt>
      <trkpt lat="47.33808" lon="0.50623">
        <ele>47</ele>
        <time>2017-09-24T01:08:53Z</time>
      </trkpt>
      <trkpt lat="47.33799" lon="0.50615">
        <ele>48</ele>
        <time>2017-09-24T01:10:53Z</time>
      </trkpt>
      <trkpt lat="47.33791" lon="0.50604">
        <ele>49</ele>
        <time>2017-09-24T01:12:53Z</time>
      </trkpt>
      <trkpt lat="47.33788" lon="0.50598">
        <ele>49</ele>
        <time>2017-09-24T01:14:53Z</time>
      </trkpt>
      <trkpt lat="47.33786" lon="0.50595">
        <ele>49</ele>
        <time>2017-09-24T01:16:53Z</time>
      </trkpt>
      <trkpt lat="47.33782" lon="0.50587">
        <ele>49</ele>
        <time>2017-09-24T01:18:53Z</time>
      </trkpt>
      <trkpt lat="47.33778" lon="0.50579">
        <ele>49</ele>
        <time>2017-09-24T01:20:53Z</time>
      </trkpt>
      <trkpt lat="47.33772" lon="0.50566">
        <ele>49</ele>
        <time>2017-09-24T01:22:53Z</time>
      </trkpt>
      <trkpt lat="47.3377" lon="0.50561">
        <ele>49</ele>
        <time>2017-09-24T01:24:53Z</time>
      </trkpt>
      <trkpt lat="47.33763" lon="0.50545">
        <ele>49</ele>
        <time>2017-09-24T01:26:53Z</time>
      </trkpt>
      <trkpt lat="47.3376" lon="0.50539">
        <ele>49</ele>
        <time>2017-09-24T01:28:53Z</time>
      </trkpt>
      <trkpt lat="47.33757" lon="0.50533">
        <ele>49</ele>
        <time>2017-09-24T01:30:53Z</time>
      </trkpt>
      <trkpt lat="47.33755" lon="0.5053">
        <ele>49</ele>
        <time>2017-09-24T01:32:53Z</time>
      </trkpt>
      <trkpt lat="47.33755" lon="0.50528">
        <ele>49</ele>
        <time>2017-09-24T01:34:53Z</time>
      </trkpt>
      <trkpt lat="47.33752" lon="0.50523">
        <ele>49</ele>
        <time>2017-09-24T01:36:53Z</time>
      </trkpt>
      <trkpt lat="47.33746" lon="0.50512">
        <ele>50</ele>
        <time>2017-09-24T01:38:53Z</time>
      </trkpt>
      <trkpt lat="47.3374" lon="0.50495">
        <ele>51</ele>
        <time>2017-09-24T01:40:53Z</time>
      </trkpt>
      <trkpt lat="47.33737" lon="0.50487">
        <ele>52</ele>
        <time>2017-09-24T01:42:53Z</time>
      </trkpt>
      <trkpt lat="47.33731" lon="0.50474">
        <ele>53</ele>
        <time>2017-09-24T01:44:53Z</time>
      </trkpt>
      <trkpt lat="47.33726" lon="0.5046">
        <ele>54</ele>
        <time>2017-09-24T01:46:53Z</time>
      </trkpt>
      <trkpt lat="47.33722" lon="0.50449">
        <ele>54</ele>
        <time>2017-09-24T01:48:53Z</time>
      </trkpt>
      <trkpt lat="47.33716" lon="0.50432">
        <ele>55</ele>
        <time>2017-09-24T01:50:53Z</time>
      </trkpt>
      <trkpt lat="47.33711" lon="0.50419">
        <ele>55</ele>
        <time>2017-09-24T01:52:53Z</time>
      </trkpt>
      <trkpt lat="47.33702" lon="0.50395">
        <ele>56</ele>
        <time>2017-09-24T01:54:53Z</time>
      </trkpt>
      <trkpt lat="47.33685" lon="0.50351">
        <ele>56</ele>
        <time>2017-09-24T01:56:53Z</time>
      </trkpt>
      <trkpt lat="47.33666" lon="0.503">
        <ele>55</ele>
        <time>2017-09-24T01:58:53Z</time>
      </trkpt>
      <trkpt lat="47.33646" lon="0.50246">
        <ele>54</ele>
        <time>2017-09-24T02:00:53Z</time>
      </trkpt>
      <trkpt lat="47.33624" lon="0.50194">
        <ele>56</ele>
        <time>2017-09-24T02:02:53Z</time>
      </trkpt>
      <trkpt lat="47.33622" lon="0.50188">
        <ele>56</ele>
        <time>2017-09-24T02:04:53Z</time>
      </trkpt>
      <trkpt lat="47.33602" lon="0.50142">
        <ele>56</ele>
        <time>2017-09-24T02:06:53Z</time>
      </trkpt>
      <trkpt lat="47.3359" lon="0.50115">
        <ele>56</ele>
        <time>2017-09-24T02:08:53Z</time>
      </trkpt>
      <trkpt lat="47.33576" lon="0.50079">
        <ele>56</ele>
        <time>2017-09-24T02:10:53Z</time>
      </trkpt>
      <trkpt lat="47.33569" lon="0.50059">
        <ele>56</ele>
        <time>2017-09-24T02:12:53Z</time>
      </trkpt>
      <trkpt lat="47.33556" lon="0.50021">
        <ele>58</ele>
        <time>2017-09-24T02:14:53Z</time>
      </trkpt>
      <trkpt lat="47.33547" lon="0.49993">
        <ele>59</ele>
        <time>2017-09-24T02:16:53Z</time>
      </trkpt>
      <trkpt lat="47.33536" lon="0.49954">
        <ele>59</ele>
        <time>2017-09-24T02:18:53Z</time>
      </trkpt>
      <trkpt lat="47.3352" lon="0.49899">
        <ele>59</ele>
        <time>2017-09-24T02:20:53Z</time>
      </trkpt>
      <trkpt lat="47.33514" lon="0.49879">
        <ele>58</ele>
        <time>2017-09-24T02:22:53Z</time>
      </trkpt>
      <trkpt lat="47.33502" lon="0.49838">
        <ele>57</ele>
        <time>2017-09-24T02:24:53Z</time>
      </trkpt>
      <trkpt lat="47.33495" lon="0.49813">
        <ele>57</ele>
        <time>2017-09-24T02:26:53Z</time>
      </trkpt>
      <trkpt lat="47.33484" lon="0.49775">
        <ele>58</ele>
        <time>2017-09-24T02:28:53Z</time>
      </trkpt>
      <trkpt lat="47.33478" lon="0.49757">
        <ele>58</ele>
        <time>2017-09-24T02:30:53Z</time>
      </trkpt>
      <trkpt lat="47.33477" lon="0.49754">
        <ele>58</ele>
        <time>2017-09-24T02:32:53Z</time>
      </trkpt>
      <trkpt lat="47.33473" lon="0.49744">
        <ele>58</ele>
        <time>2017-09-24T02:34:53Z</time>
      </trkpt>
      <trkpt lat="47.33468" lon="0.49732">
        <ele>59</ele>
        <time>2017-09-24T02:36:53Z</time>
      </trkpt>
      <trkpt lat="47.33464" lon="0.49724">
        <ele>59</ele>
        <time>2017-09-24T02:38:53Z</time>
      </trkpt>
      <trkpt lat="47.33463" lon="0.4972">
        <ele>59</ele>
        <time>2017-09-24T02:40:53Z</time>
      </trkpt>
      <trkpt lat="47.33458" lon="0.49709">
        <ele>59</ele>
        <time>2017-09-24T02:42:53Z</time>
      </trkpt>
      <trkpt lat="47.3345" lon="0.49694">
        <ele>59</ele>
        <time>2017-09-24T02:44:53Z</time>
      </trkpt>
      <trkpt lat="47.3344" lon="0.49673">
        <ele>59</ele>
        <time>2017-09-24T02:46:53Z</time>
      </trkpt>
      <trkpt lat="47.33435" lon="0.49661">
        <ele>58</ele>
        <time>2017-09-24T02:48:53Z</time>
      </trkpt>
      <trkpt lat="47.33429" lon="0.49649">
        <ele>58</ele>
        <time>2017-09-24T02:50:53Z</time>
      </trkpt>
      <trkpt lat="47.33419" lon="0.49625">
        <ele>56</ele>
        <time>2017-09-24T02:52:53Z</time>
      </trkpt>
      <trkpt lat="47.33402" lon="0.4958">
        <ele>54</ele>
        <time>2017-09-24T02:54:53Z</time>
      </trkpt>
      <trkpt lat="47.33372" lon="0.49501">
        <ele>54</ele>
        <time>2017-09-24T02:56:53Z</time>
      </trkpt>
      <trkpt lat="47.33342" lon="0.49423">
        <ele>57</ele>
        <time>2017-09-24T02:58:53Z</time>
      </trkpt>
      <trkpt lat="47.33316" lon="0.49362">
        <ele>57</ele>
        <time>2017-09-24T03:00:53Z</time>
      </trkpt>
      <trkpt lat="47.33276" lon="0.49271">
        <ele>57</ele>
        <time>2017-09-24T03:02:53Z</time>
      </trkpt>
      <trkpt lat="47.33266" lon="0.49252">
        <ele>56</ele>
        <time>2017-09-24T03:04:53Z</time>
      </trkpt>
      <trkpt lat="47.33261" lon="0.4924">
        <ele>55</ele>
        <time>2017-09-24T03:06:53Z</time>
      </trkpt>
      <trkpt lat="47.33257" lon="0.4923">
        <ele>54</ele>
        <time>2017-09-24T03:08:53Z</time>
      </trkpt>
      <trkpt lat="47.33252" lon="0.49216">
        <ele>53</ele>
        <time>2017-09-24T03:10:53Z</time>
      </trkpt>
      <trkpt lat="47.33243" lon="0.49191">
        <ele>53</ele>
        <time>2017-09-24T03:12:53Z</time>
      </trkpt>
      <trkpt lat="47.33232" lon="0.49155">
        <ele>53</ele>
        <time>2017-09-24T03:14:53Z</time>
      </trkpt>
      <trkpt lat="47.33216" lon="0.491">
        <ele>55</ele>
        <time>2017-09-24T03:16:53Z</time>
      </trkpt>
      <trkpt lat="47.33205" lon="0.49063">
        <ele>55</ele>
        <time>2017-09-24T03:18:53Z</time>
      </trkpt>
      <trkpt lat="47.33192" lon="0.49027">
        <ele>55</ele>
        <time>2017-09-24T03:20:53Z</time>
      </trkpt>
      <trkpt lat="47.33173" lon="0.48976">
        <ele>53</ele>
        <time>2017-09-24T03:22:53Z</time>
      </trkpt>
      <trkpt lat="47.33159" lon="0.48941">
        <ele>52</ele>
        <time>2017-09-24T03:24:53Z</time>
      </trkpt>
      <trkpt lat="47.33152" lon="0.48923">
        <ele>53</ele>
        <time>2017-09-24T03:26:53Z</time>
      </trkpt>
      <trkpt lat="47.33141" lon="0.48893">
        <ele>54</ele>
        <time>2017-09-24T03:28:53Z</time>
      </trkpt>
      <trkpt lat="47.33131" lon="0.48864">
        <ele>55</ele>
        <time>2017-09-24T03:30:53Z</time>
      </trkpt>
      <trkpt lat="47.33121" lon="0.48835">
        <ele>56</ele>
        <time>2017-09-24T03:32:53Z</time>
      </trkpt>
      <trkpt lat="47.33108" lon="0.48803">
        <ele>55</ele>
        <time>2017-09-24T03:34:53Z</time>
      </trkpt>
      <trkpt lat="47.33074" lon="0.48723">
        <ele>52</ele>
        <time>2017-09-24T03:36:53Z</time>
      </trkpt>
      <trkpt lat="47.33056" lon="0.48693">
        <ele>55</ele>
        <time>2017-09-24T03:38:53Z</time>
      </trkpt>
      <trkpt lat="47.33041" lon="0.48657">
        <ele>57</ele>
        <time>2017-09-24T03:40:53Z</time>
      </trkpt>
      <trkpt lat="47.33036" lon="0.48647">
        <ele>57</ele>
        <time>2017-09-24T03:42:53Z</time>
      </trkpt>
      <trkpt lat="47.33031" lon="0.48637">
        <ele>58</ele>
        <time>2017-09-24T03:44:53Z</time>
      </trkpt>
      <trkpt lat="47.33016" lon="0.48601">
        <ele>57</ele>
        <time>2017-09-24T03:46:53Z</time>
      </trkpt>
      <trkpt lat="47.32944" lon="0.48443">
        <ele>57</ele>
        <time>2017-09-24T03:48:53Z</time>
      </trkpt>
      <trkpt lat="47.32846" lon="0.48224">
        <ele>54</ele>
        <time>2017-09-24T03:50:53Z</time>
      </trkpt>
      <trkpt lat="47.32832" lon="0.48196">
        <ele>52</ele>
        <time>2017-09-24T03:52:53Z</time>
      </trkpt>
      <trkpt lat="47.32796" lon="0.48132">
        <ele>53</ele>
        <time>2017-09-24T03:54:53Z</time>
      </trkpt>
      <trkpt lat="47.32789" lon="0.4812">
        <ele>53</ele>
        <time>2017-09-24T03:56:53Z</time>
      </trkpt>
      <trkpt lat="47.32784" lon="0.4811">
        <ele>53</ele>
        <time>2017-09-24T03:58:53Z</time>
      </trkpt>
      <trkpt lat="47.32778" lon="0.48098">
        <ele>53</ele>
        <time>2017-09-24T04:00:53Z</time>
      </trkpt>
      <trkpt lat="47.32752" lon="0.48036">
        <ele>52</ele>
        <time>2017-09-24T04:02:53Z</time>
      </trkpt>
      <trkpt lat="47.32746" lon="0.48013">
        <ele>50</ele>
        <time>2017-09-24T04:04:53Z</time>
      </trkpt>
      <trkpt lat="47.32727" lon="0.47967">
        <ele>52</ele>
        <time>2017-09-24T04:06:53Z</time>
      </trkpt>
      <trkpt lat="47.32708" lon="0.47916">
        <ele>54</ele>
        <time>2017-09-24T04:08:53Z</time>
      </trkpt>
      <trkpt lat="47.32696" lon="0.47887">
        <ele>54</ele>
        <time>2017-09-24T04:10:53Z</time>
      </trkpt>
      <trkpt lat="47.32691" lon="0.47877">
        <ele>54</ele>
        <time>2017-09-24T04:12:53Z</time>
      </trkpt>
      <trkpt lat="47.3265" lon="0.47781">
        <ele>50</ele>
        <time>2017-09-24T04:14:53Z</time>
      </trkpt>
      <trkpt lat="47.32615" lon="0.47697">
        <ele>52</ele>
        <time>2017-09-24T04:16:53Z</time>
      </trkpt>
      <trkpt lat="47.32608" lon="0.47682">
        <ele>52</ele>
        <time>2017-09-24T04:18:53Z</time>
      </trkpt>
      <trkpt lat="47.32601" lon="0.47668">
        <ele>52</ele>
        <time>2017-09-24T04:20:53Z</time>
      </trkpt>
      <trkpt lat="47.32586" lon="0.47643">
        <ele>51</ele>
        <time>2017-09-24T04:22:53Z</time>
      </trkpt>
      <trkpt lat="47.32566" lon="0.47614">
        <ele>51</ele>
        <time>2017-09-24T04:24:53Z</time>
      </trkpt>
      <trkpt lat="47.32558" lon="0.47605">
        <ele>52</ele>
        <time>2017-09-24T04:26:53Z</time>
      </trkpt>
      <trkpt lat="47.32532" lon="0.47567">
        <ele>53</ele>
        <time>2017-09-24T04:28:53Z</time>
      </trkpt>
      <trkpt lat="47.32521" lon="0.47557">
        <ele>53</ele>
        <time>2017-09-24T04:30:53Z</time>
      </trkpt>
      <trkpt lat="47.32511" lon="0.47535">
        <ele>51</ele>
        <time>2017-09-24T04:32:53Z</time>
      </trkpt>
      <trkpt lat="47.3248" lon="0.47478">
        <ele>46</ele>
        <time>2017-09-24T04:34:53Z</time>
      </trkpt>
      <trkpt lat="47.3247" lon="0.47465">
        <ele>46</ele>
        <time>2017-09-24T04:36:53Z</time>
      </trkpt>
      <trkpt lat="47.32459" lon="0.47453">
        <ele>45</ele>
        <time>2017-09-24T04:38:53Z</time>
      </trkpt>
      <trkpt lat="47.32433" lon="0.47424">
        <ele>43</ele>
        <time>2017-09-24T04:40:53Z</time>
      </trkpt>
      <trkpt lat="47.32427" lon="0.47416">
        <ele>42</ele>
        <time>2017-09-24T04:42:53Z</time>
      </trkpt>
      <trkpt lat="47.32421" lon="0.4741">
        <ele>42</ele>
        <time>2017-09-24T04:44:53Z</time>
      </trkpt>
      <trkpt lat="47.32414" lon="0.47403">
        <ele>42</ele>
        <time>2017-09-24T04:46:53Z</time>
      </trkpt>
      <trkpt lat="47.32411" lon="0.47399">
        <ele>42</ele>
        <time>2017-09-24T04:48:53Z</time>
      </trkpt>
      <trkpt lat="47.32395" lon="0.47381">
        <ele>43</ele>
        <time>2017-09-24T04:50:53Z</time>
      </trkpt>
      <trkpt lat="47.32385" lon="0.47366">
        <ele>43</ele>
        <time>2017-09-24T04:52:53Z</time>
      </trkpt>
      <trkpt lat="47.3238" lon="0.47355">
        <ele>44</ele>
        <time>2017-09-24T04:54:53Z</time>
      </trkpt>
      <trkpt lat="47.32375" lon="0.47342">
        <ele>45</ele>
        <time>2017-09-24T04:56:53Z</time>
      </trkpt>
      <trkpt lat="47.32372" lon="0.47328">
        <ele>46</ele>
        <time>2017-09-24T04:58:53Z</time>
      </trkpt>
      <trkpt lat="47.32372" lon="0.47313">
        <ele>47</ele>
        <time>2017-09-24T05:00:53Z</time>
      </trkpt>
      <trkpt lat="47.3237" lon="0.47268">
        <ele>49</ele>
        <time>2017-09-24T05:02:53Z</time>
      </trkpt>
      <trkpt lat="47.32368" lon="0.47247">
        <ele>50</ele>
        <time>2017-09-24T05:04:53Z</time>
      </trkpt>
      <trkpt lat="47.32365" lon="0.47226">
        <ele>50</ele>
        <time>2017-09-24T05:06:53Z</time>
      </trkpt>
      <trkpt lat="47.32361" lon="0.4721">
        <ele>50</ele>
        <time>2017-09-24T05:08:53Z</time>
      </trkpt>
      <trkpt lat="47.32356" lon="0.47191">
        <ele>50</ele>
        <time>2017-09-24T05:10:53Z</time>
      </trkpt>
      <trkpt lat="47.32354" lon="0.47185">
        <ele>50</ele>
        <time>2017-09-24T05:12:53Z</time>
      </trkpt>
      <trkpt lat="47.32351" lon="0.47177">
        <ele>51</ele>
        <time>2017-09-24T05:14:53Z</time>
      </trkpt>
      <trkpt lat="47.32345" lon="0.47162">
        <ele>51</ele>
        <time>2017-09-24T05:16:53Z</time>
      </trkpt>
      <trkpt lat="47.32321" lon="0.47102">
        <ele>48</ele>
        <time>2017-09-24T05:18:53Z</time>
      </trkpt>
      <trkpt lat="47.32158" lon="0.46772">
        <ele>50</ele>
        <time>2017-09-24T05:20:53Z</time>
      </trkpt>
      <trkpt lat="47.32137" lon="0.46735">
        <ele>51</ele>
        <time>2017-09-24T05:22:53Z</time>
      </trkpt>
      <trkpt lat="47.3213" lon="0.46723">
        <ele>52</ele>
        <time>2017-09-24T05:24:53Z</time>
      </trkpt>
      <trkpt lat="47.32116" lon="0.46701">
        <ele>52</ele>
        <time>2017-09-24T05:26:53Z</time>
      </trkpt>
      <trkpt lat="47.32098" lon="0.46674">
        <ele>52</ele>
        <time>2017-09-24T05:28:53Z</time>
      </trkpt>
      <trkpt lat="47.32069" lon="0.4662">
        <ele>50</ele>
        <time>2017-09-24T05:30:53Z</time>
      </trkpt>
      <trkpt lat="47.32037" lon="0.46556">
        <ele>49</ele>
        <time>2017-09-24T05:32:53Z</time>
      </trkpt>
      <trkpt lat="47.32018" lon="0.46513">
        <ele>47</ele>
        <time>2017-09-24T05:34:53Z</time>
      </trkpt>
      <trkpt lat="47.31988" lon="0.46465">
        <ele>47</ele>
        <time>2017-09-24T05:36:53Z</time>
      </trkpt>
      <trkpt lat="47.31954" lon="0.46404">
        <ele>50</ele>
        <time>2017-09-24T05:38:53Z</time>
      </trkpt>
      <trkpt lat="47.31909" lon="0.46313">
        <ele>49</ele>
        <time>2017-09-24T05:40:53Z</time>
      </trkpt>
      <trkpt lat="47.3188" lon="0.46251">
        <ele>48</ele>
        <time>2017-09-24T05:42:53Z</time>
      </trkpt>
      <trkpt lat="47.31875" lon="0.4624">
        <ele>48</ele>
        <time>2017-09-24T05:44:53Z</time>
      </trkpt>
      <trkpt lat="47.31868" lon="0.46219">
        <ele>48</ele>
        <time>2017-09-24T05:46:53Z</time>
      </trkpt>
      <trkpt lat="47.31853" lon="0.4616">
        <ele>47</ele>
        <time>2017-09-24T05:48:53Z</time>
      </trkpt>
      <trkpt lat="47.31839" lon="0.4612">
        <ele>46</ele>
        <time>2017-09-24T05:50:53Z</time>
      </trkpt>
      <trkpt lat="47.31821" lon="0.46081">
        <ele>47</ele>
        <time>2017-09-24T05:52:53Z</time>
      </trkpt>
      <trkpt lat="47.31817" lon="0.46072">
        <ele>47</ele>
        <time>2017-09-24T05:54:53Z</time>
      </trkpt>
      <trkpt lat="47.31791" lon="0.46024">
        <ele>48</ele>
        <time>2017-09-24T05:56:53Z</time>
      </trkpt>
      <trkpt lat="47.31761" lon="0.45974">
        <ele>46</ele>
        <time>2017-09-24T05:58:53Z</time>
      </trkpt>
      <trkpt lat="47.31737" lon="0.45925">
        <ele>45</ele>
        <time>2017-09-24T06:00:53Z</time>
      </trkpt>
      <trkpt lat="47.31732" lon="0.45916">
        <ele>45</ele>
        <time>2017-09-24T06:02:53Z</time>
      </trkpt>
      <trkpt lat="47.31725" lon="0.459">
        <ele>45</ele>
        <time>2017-09-24T06:04:53Z</time>
      </trkpt>
      <trkpt lat="47.31712" lon="0.45871">
        <ele>45</ele>
        <time>2017-09-24T06:06:53Z</time>
      </trkpt>
      <trkpt lat="47.31698" lon="0.45845">
        <ele>44</ele>
        <time>2017-09-24T06:08:53Z</time>
      </trkpt>
      <trkpt lat="47.31694" lon="0.45838">
        <ele>43</ele>
        <time>2017-09-24T06:10:53Z</time>
      </trkpt>
      <trkpt lat="47.31674" lon="0.45799">
        <ele>43</ele>
        <time>2017-09-24T06:12:53Z</time>
      </trkpt>
      <trkpt lat="47.31642" lon="0.45735">
        <ele>44</ele>
        <time>2017-09-24T06:14:53Z</time>
      </trkpt>
      <trkpt lat="47.3163" lon="0.45713">
        <ele>44</ele>
        <time>2017-09-24T06:16:53Z</time>
      </trkpt>
      <trkpt lat="47.31626" lon="0.45707">
        <ele>44</ele>
        <time>2017-09-24T06:18:53Z</time>
      </trkpt>
      <trkpt lat="47.31614" lon="0.45688">
        <ele>44</ele>
        <time>2017-09-24T06:20:53Z</time>
      </trkpt>
      <trkpt lat="47.31577" lon="0.45635">
        <ele>44</ele>
        <time>2017-09-24T06:22:53Z</time>
      </trkpt>
      <trkpt lat="47.31565" lon="0.45617">
        <ele>44</ele>
        <time>2017-09-24T06:24:53Z</time>
      </trkpt>
      <trkpt lat="47.3154" lon="0.4558">
        <ele>43</ele>
        <time>2017-09-24T06:26:53Z</time>
      </trkpt>
      <trkpt lat="47.3153" lon="0.45563">
        <ele>43</ele>
        <time>2017-09-24T06:28:53Z</time>
      </trkpt>
      <trkpt lat="47.31529" lon="0.45561">
        <ele>43</ele>
        <time>2017-09-24T06:30:53Z</time>
      </trkpt>
      <trkpt lat="47.31506" lon="0.45513">
        <ele>41</ele>
        <time>2017-09-24T06:32:53Z</time>
      </trkpt>
      <trkpt lat="47.31503" lon="0.45509">
        <ele>41</ele>
        <time>2017-09-24T06:34:53Z</time>
      </trkpt>
      <trkpt lat="47.31498" lon="0.45501">
        <ele>40</ele>
        <time>2017-09-24T06:36:53Z</time>
      </trkpt>
      <trkpt lat="47.31494" lon="0.45492">
        <ele>40</ele>
        <time>2017-09-24T06:38:53Z</time>
      </trkpt>
      <trkpt lat="47.31483" lon="0.45478">
        <ele>41</ele>
        <time>2017-09-24T06:40:53Z</time>
      </trkpt>
      <trkpt lat="47.3148" lon="0.45473">
        <ele>41</ele>
        <time>2017-09-24T06:42:53Z</time>
      </trkpt>
      <trkpt lat="47.31475" lon="0.45467">
        <ele>41</ele>
        <time>2017-09-24T06:44:53Z</time>
      </trkpt>
      <trkpt lat="47.31471" lon="0.45463">
        <ele>41</ele>
        <time>2017-09-24T06:46:53Z</time>
      </trkpt>
      <trkpt lat="47.31465" lon="0.45457">
        <ele>41</ele>
        <time>2017-09-24T06:48:53Z</time>
      </trkpt>
      <trkpt lat="47.31458" lon="0.4545">
        <ele>42</ele>
        <time>2017-09-24T06:50:53Z</time>
      </trkpt>
      <trkpt lat="47.31412" lon="0.45408">
        <ele>42</ele>
        <time>2017-09-24T06:52:53Z</time>
      </trkpt>
      <trkpt lat="47.314" lon="0.45398">
        <ele>43</ele>
        <time>2017-09-24T06:54:53Z</time>
      </trkpt>
      <trkpt lat="47.31391" lon="0.45389">
        <ele>43</ele>
        <time>2017-09-24T06:56:53Z</time>
      </trkpt>
      <trkpt lat="47.31381" lon="0.45377">
        <ele>44</ele>
        <time>2017-09-24T06:58:53Z</time>
      </trkpt>
      <trkpt lat="47.31311" lon="0.45266">
        <ele>47</ele>
        <time>2017-09-24T07:00:53Z</time>
      </trkpt>
      <trkpt lat="47.31305" lon="0.45254">
        <ele>47</ele>
        <time>2017-09-24T07:02:53Z</time>
      </trkpt>
      <trkpt lat="47.31295" lon="0.45236">
        <ele>48</ele>
        <time>2017-09-24T07:04:53Z</time>
      </trkpt>
      <trkpt lat="47.31273" lon="0.45195">
        <ele>48</ele>
        <time>2017-09-24T07:06:53Z</time>
      </trkpt>
      <trkpt lat="47.31254" lon="0.45165">
        <ele>49</ele>
        <time>2017-09-24T07:08:53Z</time>
      </trkpt>
      <trkpt lat="47.31234" lon="0.45135">
        <ele>48</ele>
        <time>2017-09-24T07:10:53Z</time>
      </trkpt>
      <trkpt lat="47.31195" lon="0.45077">
        <ele>49</ele>
        <time>2017-09-24T07:12:53Z</time>
      </trkpt>
      <trkpt lat="47.31156" lon="0.45015">
        <ele>49</ele>
        <time>2017-09-24T07:14:53Z</time>
      </trkpt>
      <trkpt lat="47.31153" lon="0.45009">
        <ele>49</ele>
        <time>2017-09-24T07:16:53Z</time>
      </trkpt>
      <trkpt lat="47.3112" lon="0.44957">
        <ele>51</ele>
        <time>2017-09-24T07:18:53Z</time>
      </trkpt>
      <trkpt lat="47.31105" lon="0.4493">
        <ele>52</ele>
        <time>2017-09-24T07:20:53Z</time>
      </trkpt>
      <trkpt lat="47.31094" lon="0.44908">
        <ele>52</ele>
        <time>2017-09-24T07:22:53Z</time>
      </trkpt>
      <trkpt lat="47.3106" lon="0.4483">
        <ele>52</ele>
        <time>2017-09-24T07:24:53Z</time>
      </trkpt>
      <trkpt lat="47.31051" lon="0.44811">
        <ele>52</ele>
        <time>2017-09-24T07:26:53Z</time>
      </trkpt>
      <trkpt lat="47.31025" lon="0.44768">
        <ele>53</ele>
        <time>2017-09-24T07:28:53Z</time>
      </trkpt>
      <trkpt lat="47.31018" lon="0.44758">
        <ele>53</ele>
        <time>2017-09-24T07:30:53Z</time>
      </trkpt>
      <trkpt lat="47.31015" lon="0.44753">
        <ele>53</ele>
        <time>2017-09-24T07:32:53Z</time>
      </trkpt>
      <trkpt lat="47.3101" lon="0.44747">
        <ele>53</ele>
        <time>2017-09-24T07:34:53Z</time>
      </trkpt>
      <trkpt lat="47.31006" lon="0.44742">
        <ele>53</ele>
        <time>2017-09-24T07:36:53Z</time>
      </trkpt>
      <trkpt lat="47.31" lon="0.44735">
        <ele>54</ele>
        <time>2017-09-24T07:38:53Z</time>
      </trkpt>
      <trkpt lat="47.30993" lon="0.44728">
        <ele>54</ele>
        <time>2017-09-24T07:40:53Z</time>
      </trkpt>
      <trkpt lat="47.30986" lon="0.44722">
        <ele>54</ele>
        <time>2017-09-24T07:42:53Z</time>
      </trkpt>
      <trkpt lat="47.30973" lon="0.44711">
        <ele>55</ele>
        <time>2017-09-24T07:44:53Z</time>
      </trkpt>
      <trkpt lat="47.30946" lon="0.44688">
        <ele>55</ele>
        <time>2017-09-24T07:46:53Z</time>
      </trkpt>
      <trkpt lat="47.30921" lon="0.4466">
        <ele>54</ele>
        <time>2017-09-24T07:48:53Z</time>
      </trkpt>
      <trkpt lat="47.30913" lon="0.44647">
        <ele>53</ele>
        <time>2017-09-24T07:50:53Z</time>
      </trkpt>
      <trkpt lat="47.30901" lon="0.44628">
        <ele>53</ele>
        <time>2017-09-24T07:52:53Z</time>
      </trkpt>
      <trkpt lat="47.30895" lon="0.44616">
        <ele>53</ele>
        <time>2017-09-24T07:54:53Z</time>
      </trkpt>
      <trkpt lat="47.30895" lon="0.44615">
        <ele>53</ele>
        <time>2017-09-24T07:56:53Z</time>
      </trkpt>
      <trkpt lat="47.30892" lon="0.44607">
        <ele>52</ele>
        <time>2017-09-24T07:58:53Z</time>
      </trkpt>
      <trkpt lat="47.30888" lon="0.44599">
        <ele>52</ele>
        <time>2017-09-24T08:00:53Z</time>
      </trkpt>
      <trkpt lat="47.30885" lon="0.44591">
        <ele>52</ele>
        <time>2017-09-24T08:02:53Z</time>
      </trkpt>
      <trkpt lat="47.30881" lon="0.44582">
        <ele>52</ele>
        <time>2017-09-24T08:04:53Z</time>
      </trkpt>
      <trkpt lat="47.30876" lon="0.44563">
        <ele>52</ele>
        <time>2017-09-24T08:06:53Z</time>
      </trkpt>
      <trkpt lat="47.30868" lon="0.44535">
        <ele>52</ele>
        <time>2017-09-24T08:08:53Z</time>
      </trkpt>
      <trkpt lat="47.30861" lon="0.44511">
        <ele>53</ele>
        <time>2017-09-24T08:10:53Z</time>
      </trkpt>
      <trkpt lat="47.30849" lon="0.4447">
        <ele>53</ele>
        <time>2017-09-24T08:12:53Z</time>
      </trkpt>
      <trkpt lat="47.30836" lon="0.44426">
        <ele>53</ele>
        <time>2017-09-24T08:14:53Z</time>
      </trkpt>
      <trkpt lat="47.30831" lon="0.44409">
        <ele>53</ele>
        <time>2017-09-24T08:16:53Z</time>
      </trkpt>
      <trkpt lat="47.30814" lon="0.44359">
        <ele>55</ele>
        <time>2017-09-24T08:18:53Z</time>
      </trkpt>
      <trkpt lat="47.30808" lon="0.44345">
        <ele>56</ele>
        <time>2017-09-24T08:20:53Z</time>
      </trkpt>
      <trkpt lat="47.308" lon="0.44325">
        <ele>56</ele>
        <time>2017-09-24T08:22:53Z</time>
      </trkpt>
      <trkpt lat="47.30782" lon="0.4428">
        <ele>56</ele>
        <time>2017-09-24T08:24:53Z</time>
      </trkpt>
      <trkpt lat="47.30781" lon="0.44278">
        <ele>56</ele>
        <time>2017-09-24T08:26:53Z</time>
      </trkpt>
      <trkpt lat="47.30771" lon="0.4426">
        <ele>56</ele>
        <time>2017-09-24T08:28:53Z</time>
      </trkpt>
      <trkpt lat="47.30765" lon="0.4425">
        <ele>56</ele>
        <time>2017-09-24T08:30:53Z</time>
      </trkpt>
      <trkpt lat="47.30762" lon="0.44245">
        <ele>56</ele>
        <time>2017-09-24T08:32:53Z</time>
      </trkpt>
      <trkpt lat="47.30753" lon="0.44233">
        <ele>56</ele>
        <time>2017-09-24T08:34:53Z</time>
      </trkpt>
      <trkpt lat="47.3072" lon="0.4419">
        <ele>56</ele>
        <time>2017-09-24T08:36:53Z</time>
      </trkpt>
      <trkpt lat="47.30711" lon="0.4418">
        <ele>55</ele>
        <time>2017-09-24T08:38:53Z</time>
      </trkpt>
      <trkpt lat="47.30704" lon="0.44174">
        <ele>55</ele>
        <time>2017-09-24T08:40:53Z</time>
      </trkpt>
      <trkpt lat="47.307" lon="0.4417">
        <ele>55</ele>
        <time>2017-09-24T08:42:53Z</time>
      </trkpt>
      <trkpt lat="47.30675" lon="0.44151">
        <ele>54</ele>
        <time>2017-09-24T08:44:53Z</time>
      </trkpt>
      <trkpt lat="47.30659" lon="0.44142">
        <ele>54</ele>
        <time>2017-09-24T08:46:53Z</time>
      </trkpt>
      <trkpt lat="47.30641" lon="0.44132">
        <ele>54</ele>
        <time>2017-09-24T08:48:53Z</time>
      </trkpt>
      <trkpt lat="47.30638" lon="0.44129">
        <ele>54</ele>
        <time>2017-09-24T08:50:53Z</time>
      </trkpt>
      <trkpt lat="47.30619" lon="0.44114">
        <ele>54</ele>
        <time>2017-09-24T08:52:53Z</time>
      </trkpt>
      <trkpt lat="47.30609" lon="0.44105">
        <ele>54</ele>
        <time>2017-09-24T08:54:53Z</time>
      </trkpt>
      <trkpt lat="47.30604" lon="0.44099">
        <ele>54</ele>
        <time>2017-09-24T08:56:53Z</time>
      </trkpt>
      <trkpt lat="47.30602" lon="0.44095">
        <ele>54</ele>
        <time>2017-09-24T08:58:53Z</time>
      </trkpt>
      <trkpt lat="47.30599" lon="0.44091">
        <ele>54</ele>
        <time>2017-09-24T09:00:53Z</time>
      </trkpt>
      <trkpt lat="47.30597" lon="0.44086">
        <ele>54</ele>
        <time>2017-09-24T09:02:53Z</time>
      </trkpt>
      <trkpt lat="47.30594" lon="0.44078">
        <ele>54</ele>
        <time>2017-09-24T09:04:53Z</time>
      </trkpt>
      <trkpt lat="47.3059" lon="0.4407">
        <ele>55</ele>
        <time>2017-09-24T09:06:53Z</time>
      </trkpt>
      <trkpt lat="47.30587" lon="0.44062">
        <ele>55</ele>
        <time>2017-09-24T09:08:53Z</time>
      </trkpt>
      <trkpt lat="47.30584" lon="0.44052">
        <ele>55</ele>
        <time>2017-09-24T09:10:53Z</time>
      </trkpt>
      <trkpt lat="47.30578" lon="0.44029">
        <ele>56</ele>
        <time>2017-09-24T09:12:53Z</time>
      </trkpt>
      <trkpt lat="47.30574" lon="0.44012">
        <ele>56</ele>
        <time>2017-09-24T09:14:53Z</time>
      </trkpt>
      <trkpt lat="47.30573" lon="0.44006">
        <ele>57</ele>
        <time>2017-09-24T09:16:53Z</time>
      </trkpt>
      <trkpt lat="47.30563" lon="0.43946">
        <ele>55</ele>
        <time>2017-09-24T09:18:53Z</time>
      </trkpt>
      <trkpt lat="47.30557" lon="0.43912">
        <ele>55</ele>
        <time>2017-09-24T09:20:53Z</time>
      </trkpt>
      <trkpt lat="47.30556" lon="0.43907">
        <ele>55</ele>
        <time>2017-09-24T09:22:53Z</time>
      </trkpt>
      <trkpt lat="47.30546" lon="0.43872">
        <ele>55</ele>
        <time>2017-09-24T09:24:53Z</time>
      </trkpt>
      <trkpt lat="47.30531" lon="0.43836">
        <ele>55</ele>
        <time>2017-09-24T09:26:53Z</time>
      </trkpt>
      <trkpt lat="47.30503" lon="0.43774">
        <ele>56</ele>
        <time>2017-09-24T09:28:53Z</time>
      </trkpt>
      <trkpt lat="47.3048" lon="0.4372">
        <ele>56</ele>
        <time>2017-09-24T09:30:53Z</time>
      </trkpt>
      <trkpt lat="47.30425" lon="0.43601">
        <ele>56</ele>
        <time>2017-09-24T09:32:53Z</time>
      </trkpt>
      <trkpt lat="47.30398" lon="0.43543">
        <ele>55</ele>
        <time>2017-09-24T09:34:53Z</time>
      </trkpt>
      <trkpt lat="47.3038" lon="0.43504">
        <ele>55</ele>
        <time>2017-09-24T09:36:53Z</time>
      </trkpt>
      <trkpt lat="47.30374" lon="0.43489">
        <ele>55</ele>
        <time>2017-09-24T09:38:53Z</time>
      </trkpt>
      <trkpt lat="47.30369" lon="0.43475">
        <ele>55</ele>
        <time>2017-09-24T09:40:53Z</time>
      </trkpt>
      <trkpt lat="47.30354" lon="0.43439">
        <ele>56</ele>
        <time>2017-09-24T09:42:53Z</time>
      </trkpt>
      <trkpt lat="47.30352" lon="0.43433">
        <ele>56</ele>
        <time>2017-09-24T09:44:53Z</time>
      </trkpt>
      <trkpt lat="47.30341" lon="0.43403">
        <ele>57</ele>
        <time>2017-09-24T09:46:53Z</time>
      </trkpt>
      <trkpt lat="47.30331" lon="0.43377">
        <ele>57</ele>
        <time>2017-09-24T09:48:53Z</time>
      </trkpt>
      <trkpt lat="47.30316" lon="0.43335">
        <ele>56</ele>
        <time>2017-09-24T09:50:53Z</time>
      </trkpt>
      <trkpt lat="47.30308" lon="0.43313">
        <ele>55</ele>
        <time>2017-09-24T09:52:53Z</time>
      </trkpt>
      <trkpt lat="47.30303" lon="0.433">
        <ele>55</ele>
        <time>2017-09-24T09:54:53Z</time>
      </trkpt>
      <trkpt lat="47.30261" lon="0.43211">
        <ele>54</ele>
        <time>2017-09-24T09:56:53Z</time>
      </trkpt>
      <trkpt lat="47.3025" lon="0.43182">
        <ele>54</ele>
        <time>2017-09-24T09:58:53Z</time>
      </trkpt>
      <trkpt lat="47.30245" lon="0.43169">
        <ele>54</ele>
        <time>2017-09-24T10:00:53Z</time>
      </trkpt>
      <trkpt lat="47.30243" lon="0.43164">
        <ele>54</ele>
        <time>2017-09-24T10:02:53Z</time>
      </trkpt>
      <trkpt lat="47.3023" lon="0.43125">
        <ele>54</ele>
        <time>2017-09-24T10:04:53Z</time>
      </trkpt>
      <trkpt lat="47.30216" lon="0.43087">
        <ele>55</ele>
        <time>2017-09-24T10:06:53Z</time>
      </trkpt>
      <trkpt lat="47.30211" lon="0.43073">
        <ele>55</ele>
        <time>2017-09-24T10:08:53Z</time>
      </trkpt>
      <trkpt lat="47.30205" lon="0.43054">
        <ele>55</ele>
        <time>2017-09-24T10:10:53Z</time>
      </trkpt>
      <trkpt lat="47.30198" lon="0.43036">
        <ele>55</ele>
        <time>2017-09-24T10:12:53Z</time>
      </trkpt>
      <trkpt lat="47.30181" lon="0.42996">
        <ele>55</ele>
        <time>2017-09-24T10:14:53Z</time>
      </trkpt>
      <trkpt lat="47.30166" lon="0.42959">
        <ele>55</ele>
        <time>2017-09-24T10:16:53Z</time>
      </trkpt>
      <trkpt lat="47.30161" lon="0.42948">
        <ele>55</ele>
        <time>2017-09-24T10:18:53Z</time>
      </trkpt>
      <trkpt lat="47.30156" lon="0.42933">
        <ele>55</ele>
        <time>2017-09-24T10:20:53Z</time>
      </trkpt>
      <trkpt lat="47.30152" lon="0.4292">
        <ele>55</ele>
        <time>2017-09-24T10:22:53Z</time>
      </trkpt>
      <trkpt lat="47.30149" lon="0.42904">
        <ele>55</ele>
        <time>2017-09-24T10:24:53Z</time>
      </trkpt>
      <trkpt lat="47.30148" lon="0.42894">
        <ele>55</ele>
        <time>2017-09-24T10:26:53Z</time>
      </trkpt>
      <trkpt lat="47.30147" lon="0.42883">
        <ele>55</ele>
        <time>2017-09-24T10:28:53Z</time>
      </trkpt>
      <trkpt lat="47.30145" lon="0.42848">
        <ele>54</ele>
        <time>2017-09-24T10:30:53Z</time>
      </trkpt>
      <trkpt lat="47.30141" lon="0.42808">
        <ele>53</ele>
        <time>2017-09-24T10:32:53Z</time>
      </trkpt>
      <trkpt lat="47.30135" lon="0.42751">
        <ele>52</ele>
        <time>2017-09-24T10:34:53Z</time>
      </trkpt>
      <trkpt lat="47.30128" lon="0.42717">
        <ele>52</ele>
        <time>2017-09-24T10:36:53Z</time>
      </trkpt>
      <trkpt lat="47.30127" lon="0.4271">
        <ele>52</ele>
        <time>2017-09-24T10:38:53Z</time>
      </trkpt>
      <trkpt lat="47.30108" lon="0.42625">
        <ele>52</ele>
        <time>2017-09-24T10:40:53Z</time>
      </trkpt>
      <trkpt lat="47.30102" lon="0.42603">
        <ele>52</ele>
        <time>2017-09-24T10:42:53Z</time>
      </trkpt>
      <trkpt lat="47.301" lon="0.42595">
        <ele>52</ele>
        <time>2017-09-24T10:44:53Z</time>
      </trkpt>
      <trkpt lat="47.30091" lon="0.42569">
        <ele>52</ele>
        <time>2017-09-24T10:46:53Z</time>
      </trkpt>
      <trkpt lat="47.30088" lon="0.4256">
        <ele>52</ele>
        <time>2017-09-24T10:48:53Z</time>
      </trkpt>
      <trkpt lat="47.30086" lon="0.42553">
        <ele>52</ele>
        <time>2017-09-24T10:50:53Z</time>
      </trkpt>
      <trkpt lat="47.30081" lon="0.4254">
        <ele>52</ele>
        <time>2017-09-24T10:52:53Z</time>
      </trkpt>
      <trkpt lat="47.30064" lon="0.42496">
        <ele>51</ele>
        <time>2017-09-24T10:54:53Z</time>
      </trkpt>
      <trkpt lat="47.30046" lon="0.42451">
        <ele>51</ele>
        <time>2017-09-24T10:56:53Z</time>
      </trkpt>
      <trkpt lat="47.3003" lon="0.42397">
        <ele>50</ele>
        <time>2017-09-24T10:58:53Z</time>
      </trkpt>
      <trkpt lat="47.30029" lon="0.42394">
        <ele>50</ele>
        <time>2017-09-24T11:00:53Z</time>
      </trkpt>
      <trkpt lat="47.3002" lon="0.42362">
        <ele>49</ele>
        <time>2017-09-24T11:02:53Z</time>
      </trkpt>
      <trkpt lat="47.3002" lon="0.42361">
        <ele>49</ele>
        <time>2017-09-24T11:04:53Z</time>
      </trkpt>
      <trkpt lat="47.3002" lon="0.4236">
        <ele>49</ele>
        <time>2017-09-24T11:06:53Z</time>
      </trkpt>
      <trkpt lat="47.3002" lon="0.42359">
        <ele>49</ele>
        <time>2017-09-24T11:08:53Z</time>
      </trkpt>
      <trkpt lat="47.3002" lon="0.42358">
        <ele>49</ele>
        <time>2017-09-24T11:10:53Z</time>
      </trkpt>
      <trkpt lat="47.3002" lon="0.42357">
        <ele>49</ele>
        <time>2017-09-24T11:12:53Z</time>
      </trkpt>
      <trkpt lat="47.3002" lon="0.42356">
        <ele>49</ele>
        <time>2017-09-24T11:14:53Z</time>
      </trkpt>
      <trkpt lat="47.30019" lon="0.42356">
        <ele>49</ele>
        <time>2017-09-24T11:16:53Z</time>
      </trkpt>
      <trkpt lat="47.30019" lon="0.42355">
        <ele>49</ele>
        <time>2017-09-24T11:18:53Z</time>
      </trkpt>
      <trkpt lat="47.30018" lon="0.42355">
        <ele>49</ele>
        <time>2017-09-24T11:20:53Z</time>
      </trkpt>
      <trkpt lat="47.30018" lon="0.42354">
        <ele>49</ele>
        <time>2017-09-24T11:22:53Z</time>
      </trkpt>
      <trkpt lat="47.30017" lon="0.42354">
        <ele>49</ele>
        <time>2017-09-24T11:24:53Z</time>
      </trkpt>
      <trkpt lat="47.30016" lon="0.42354">
        <ele>49</ele>
        <time>2017-09-24T11:26:53Z</time>
      </trkpt>
      <trkpt lat="47.30016" lon="0.42354">
        <ele>49</ele>
        <time>2017-09-24T11:28:53Z</time>
      </trkpt>
      <trkpt lat="47.30016" lon="0.4234">
        <ele>49</ele>
        <time>2017-09-24T11:30:53Z</time>
      </trkpt>
      <trkpt lat="47.30011" lon="0.42322">
        <ele>49</ele>
        <time>2017-09-24T11:32:53Z</time>
      </trkpt>
      <trkpt lat="47.30008" lon="0.42311">
        <ele>49</ele>
        <time>2017-09-24T11:34:53Z</time>
      </trkpt>
      <trkpt lat="47.30003" lon="0.42295">
        <ele>49</ele>
        <time>2017-09-24T11:36:53Z</time>
      </trkpt>
      <trkpt lat="47.30002" lon="0.4229">
        <ele>49</ele>
        <time>2017-09-24T11:38:53Z</time>
      </trkpt>
      <trkpt lat="47.29996" lon="0.42271">
        <ele>49</ele>
        <time>2017-09-24T11:40:53Z</time>
      </trkpt>
      <trkpt lat="47.2999" lon="0.42255">
        <ele>49</ele>
        <time>2017-09-24T11:42:53Z</time>
      </trkpt>
      <trkpt lat="47.2998" lon="0.4223">
        <ele>49</ele>
        <time>2017-09-24T11:44:53Z</time>
      </trkpt>
      <trkpt lat="47.29969" lon="0.4221">
        <ele>49</ele>
        <time>2017-09-24T11:46:53Z</time>
      </trkpt>
      <trkpt lat="47.29965" lon="0.42201">
        <ele>49</ele>
        <time>2017-09-24T11:48:53Z</time>
      </trkpt>
      <trkpt lat="47.29963" lon="0.42199">
        <ele>49</ele>
        <time>2017-09-24T11:50:53Z</time>
      </trkpt>
      <trkpt lat="47.29958" lon="0.42191">
        <ele>49</ele>
        <time>2017-09-24T11:52:53Z</time>
      </trkpt>
      <trkpt lat="47.29954" lon="0.42185">
        <ele>49</ele>
        <time>2017-09-24T11:54:53Z</time>
      </trkpt>
      <trkpt lat="47.29945" lon="0.42173">
        <ele>49</ele>
        <time>2017-09-24T11:56:53Z</time>
      </trkpt>
      <trkpt lat="47.29939" lon="0.42166">
        <ele>49</ele>
        <time>2017-09-24T11:58:53Z</time>
      </trkpt>
      <trkpt lat="47.29936" lon="0.42162">
        <ele>49</ele>
        <time>2017-09-24T12:00:53Z</time>
      </trkpt>
      <trkpt lat="47.29914" lon="0.4214">
        <ele>49</ele>
        <time>2017-09-24T12:02:53Z</time>
      </trkpt>
      <trkpt lat="47.29907" lon="0.42133">
        <ele>50</ele>
        <time>2017-09-24T12:04:53Z</time>
      </trkpt>
      <trkpt lat="47.29898" lon="0.42124">
        <ele>50</ele>
        <time>2017-09-24T12:06:53Z</time>
      </trkpt>
      <trkpt lat="47.2989" lon="0.42116">
        <ele>50</ele>
        <time>2017-09-24T12:08:53Z</time>
      </trkpt>
      <trkpt lat="47.29882" lon="0.42107">
        <ele>50</ele>
        <time>2017-09-24T12:10:53Z</time>
      </trkpt>
      <trkpt lat="47.29876" lon="0.42098">
        <ele>50</ele>
        <time>2017-09-24T12:12:53Z</time>
      </trkpt>
      <trkpt lat="47.29871" lon="0.4209">
        <ele>50</ele>
        <time>2017-09-24T12:14:53Z</time>
      </trkpt>
      <trkpt lat="47.29867" lon="0.42084">
        <ele>50</ele>
        <time>2017-09-24T12:16:53Z</time>
      </trkpt>
      <trkpt lat="47.29845" lon="0.42035">
        <ele>51</ele>
        <time>2017-09-24T12:18:53Z</time>
      </trkpt>
      <trkpt lat="47.29844" lon="0.42034">
        <ele>51</ele>
        <time>2017-09-24T12:20:53Z</time>
      </trkpt>
      <trkpt lat="47.29821" lon="0.41979">
        <ele>51</ele>
        <time>2017-09-24T12:22:53Z</time>
      </trkpt>
      <trkpt lat="47.2981" lon="0.41951">
        <ele>50</ele>
        <time>2017-09-24T12:24:53Z</time>
      </trkpt>
      <trkpt lat="47.29794" lon="0.41908">
        <ele>50</ele>
        <time>2017-09-24T12:26:53Z</time>
      </trkpt>
      <trkpt lat="47.29787" lon="0.41887">
        <ele>49</ele>
        <time>2017-09-24T12:28:53Z</time>
      </trkpt>
      <trkpt lat="47.29772" lon="0.41844">
        <ele>49</ele>
        <time>2017-09-24T12:30:53Z</time>
      </trkpt>
      <trkpt lat="47.2975" lon="0.41785">
        <ele>48</ele>
        <time>2017-09-24T12:32:53Z</time>
      </trkpt>
      <trkpt lat="47.29747" lon="0.41774">
        <ele>48</ele>
        <time>2017-09-24T12:34:53Z</time>
      </trkpt>
      <trkpt lat="47.29744" lon="0.41763">
        <ele>48</ele>
        <time>2017-09-24T12:36:53Z</time>
      </trkpt>
      <trkpt lat="47.29741" lon="0.41754">
        <ele>48</ele>
        <time>2017-09-24T12:38:53Z</time>
      </trkpt>
      <trkpt lat="47.2974" lon="0.41749">
        <ele>48</ele>
        <time>2017-09-24T12:40:53Z</time>
      </trkpt>
      <trkpt lat="47.2974" lon="0.41744">
        <ele>48</ele>
        <time>2017-09-24T12:42:53Z</time>
      </trkpt>
      <trkpt lat="47.2974" lon="0.41742">
        <ele>48</ele>
        <time>2017-09-24T12:44:53Z</time>
      </trkpt>
      <trkpt lat="47.2974" lon="0.41739">
        <ele>48</ele>
        <time>2017-09-24T12:46:53Z</time>
      </trkpt>
      <trkpt lat="47.29739" lon="0.41734">
        <ele>48</ele>
        <time>2017-09-24T12:48:53Z</time>
      </trkpt>
      <trkpt lat="47.29738" lon="0.41715">
        <ele>48</ele>
        <time>2017-09-24T12:50:53Z</time>
      </trkpt>
      <trkpt lat="47.29739" lon="0.4169">
        <ele>48</ele>
        <time>2017-09-24T12:52:53Z</time>
      </trkpt>
      <trkpt lat="47.29743" lon="0.41658">
        <ele>47</ele>
        <time>2017-09-24T12:54:53Z</time>
      </trkpt>
      <trkpt lat="47.29743" lon="0.41658">
        <ele>47</ele>
        <time>2017-09-24T12:56:53Z</time>
      </trkpt>
      <trkpt lat="47.29766" lon="0.41651">
        <ele>46</ele>
        <time>2017-09-24T12:58:53Z</time>
      </trkpt>
      <trkpt lat="47.29791" lon="0.41641">
        <ele>45</ele>
        <time>2017-09-24T13:00:53Z</time>
      </trkpt>
      <trkpt lat="47.29819" lon="0.41628">
        <ele>43</ele>
        <time>2017-09-24T13:02:53Z</time>
      </trkpt>
      <trkpt lat="47.2983" lon="0.41622">
        <ele>42</ele>
        <time>2017-09-24T13:04:53Z</time>
      </trkpt>
      <trkpt lat="47.2984" lon="0.41617">
        <ele>42</ele>
        <time>2017-09-24T13:06:53Z</time>
      </trkpt>
      <trkpt lat="47.29846" lon="0.41614">
        <ele>41</ele>
        <time>2017-09-24T13:08:53Z</time>
      </trkpt>
      <trkpt lat="47.29855" lon="0.41608">
        <ele>41</ele>
        <time>2017-09-24T13:10:53Z</time>
      </trkpt>
      <trkpt lat="47.29862" lon="0.41603">
        <ele>41</ele>
        <time>2017-09-24T13:12:53Z</time>
      </trkpt>
      <trkpt lat="47.2987" lon="0.41595">
        <ele>40</ele>
        <time>2017-09-24T13:14:53Z</time>
      </trkpt>
      <trkpt lat="47.29874" lon="0.41592">
        <ele>40</ele>
        <time>2017-09-24T13:16:53Z</time>
      </trkpt>
      <trkpt lat="47.29905" lon="0.4156">
        <ele>38</ele>
        <time>2017-09-24T13:18:53Z</time>
      </trkpt>
      <trkpt lat="47.30028" lon="0.41435">
        <ele>38</ele>
        <time>2017-09-24T13:20:53Z</time>
      </trkpt>
      <trkpt lat="47.30043" lon="0.4142">
        <ele>38</ele>
        <time>2017-09-24T13:22:53Z</time>
      </trkpt>
      <trkpt lat="47.30085" lon="0.41382">
        <ele>37</ele>
        <time>2017-09-24T13:24:53Z</time>
      </trkpt>
      <trkpt lat="47.30092" lon="0.41379">
        <ele>38</ele>
        <time>2017-09-24T13:26:53Z</time>
      </trkpt>
      <trkpt lat="47.30106" lon="0.41375">
        <ele>38</ele>
        <time>2017-09-24T13:28:53Z</time>
      </trkpt>
      <trkpt lat="47.30189" lon="0.41354">
        <ele>40</ele>
        <time>2017-09-24T13:30:53Z</time>
      </trkpt>
      <trkpt lat="47.3021" lon="0.41349">
        <ele>40</ele>
        <time>2017-09-24T13:32:53Z</time>
      </trkpt>
      <trkpt lat="47.30215" lon="0.41347">
        <ele>40</ele>
        <time>2017-09-24T13:34:53Z</time>
      </trkpt>
      <trkpt lat="47.3022" lon="0.41346">
        <ele>40</ele>
        <time>2017-09-24T13:36:53Z</time>
      </trkpt>
      <trkpt lat="47.3024" lon="0.41341">
        <ele>40</ele>
        <time>2017-09-24T13:38:53Z</time>
      </trkpt>
      <trkpt lat="47.30316" lon="0.4132">
        <ele>39</ele>
        <time>2017-09-24T13:40:53Z</time>
      </trkpt>
      <trkpt lat="47.30327" lon="0.41317">
        <ele>39</ele>
        <time>2017-09-24T13:42:53Z</time>
      </trkpt>
      <trkpt lat="47.30333" lon="0.41316">
        <ele>38</ele>
        <time>2017-09-24T13:44:53Z</time>
      </trkpt>
      <trkpt lat="47.30341" lon="0.41314">
        <ele>38</ele>
        <time>2017-09-24T13:46:53Z</time>
      </trkpt>
      <trkpt lat="47.30361" lon="0.41309">
        <ele>38</ele>
        <time>2017-09-24T13:48:53Z</time>
      </trkpt>
      <trkpt lat="47.30366" lon="0.41309">
        <ele>38</ele>
        <time>2017-09-24T13:50:53Z</time>
      </trkpt>
      <trkpt lat="47.30397" lon="0.41297">
        <ele>37</ele>
        <time>2017-09-24T13:52:53Z</time>
      </trkpt>
      <trkpt lat="47.30402" lon="0.41295">
        <ele>37</ele>
        <time>2017-09-24T13:54:53Z</time>
      </trkpt>
      <trkpt lat="47.30471" lon="0.41265">
        <ele>37</ele>
        <time>2017-09-24T13:56:53Z</time>
      </trkpt>
      <trkpt lat="47.30507" lon="0.4125">
        <ele>37</ele>
        <time>2017-09-24T13:58:53Z</time>
      </trkpt>
      <trkpt lat="47.30552" lon="0.41234">
        <ele>36</ele>
        <time>2017-09-24T14:00:53Z</time>
      </trkpt>
      <trkpt lat="47.30626" lon="0.41204">
        <ele>36</ele>
        <time>2017-09-24T14:02:53Z</time>
      </trkpt>
      <trkpt lat="47.30679" lon="0.41183">
        <ele>36</ele>
        <time>2017-09-24T14:04:53Z</time>
      </trkpt>
      <trkpt lat="47.30691" lon="0.41179">
        <ele>36</ele>
        <time>2017-09-24T14:06:53Z</time>
      </trkpt>
      <trkpt lat="47.30776" lon="0.41142">
        <ele>38</ele>
        <time>2017-09-24T14:08:53Z</time>
      </trkpt>
      <trkpt lat="47.3078" lon="0.41141">
        <ele>38</ele>
        <time>2017-09-24T14:10:53Z</time>
      </trkpt>
      <trkpt lat="47.30816" lon="0.41127">
        <ele>38</ele>
        <time>2017-09-24T14:12:53Z</time>
      </trkpt>
      <trkpt lat="47.309" lon="0.41094">
        <ele>39</ele>
        <time>2017-09-24T14:14:53Z</time>
      </trkpt>
      <trkpt lat="47.30973" lon="0.41064">
        <ele>38</ele>
        <time>2017-09-24T14:16:53Z</time>
      </trkpt>
      <trkpt lat="47.31072" lon="0.41025">
        <ele>38</ele>
        <time>2017-09-24T14:18:53Z</time>
      </trkpt>
      <trkpt lat="47.31077" lon="0.41023">
        <ele>38</ele>
        <time>2017-09-24T14:20:53Z</time>
      </trkpt>
      <trkpt lat="47.31252" lon="0.40951">
        <ele>38</ele>
        <time>2017-09-24T14:22:53Z</time>
      </trkpt>
      <trkpt lat="47.31308" lon="0.40929">
        <ele>39</ele>
        <time>2017-09-24T14:24:53Z</time>
      </trkpt>
      <trkpt lat="47.31368" lon="0.40904">
        <ele>39</ele>
        <time>2017-09-24T14:26:53Z</time>
      </trkpt>
      <trkpt lat="47.31459" lon="0.4087">
        <ele>39</ele>
        <time>2017-09-24T14:28:53Z</time>
      </trkpt>
      <trkpt lat="47.31473" lon="0.40859">
        <ele>39</ele>
        <time>2017-09-24T14:30:53Z</time>
      </trkpt>
      <trkpt lat="47.31496" lon="0.40832">
        <ele>39</ele>
        <time>2017-09-24T14:32:53Z</time>
      </trkpt>
      <trkpt lat="47.315" lon="0.40824">
        <ele>39</ele>
        <time>2017-09-24T14:34:53Z</time>
      </trkpt>
      <trkpt lat="47.315" lon="0.40824">
        <ele>39</ele>
        <time>2017-09-24T14:36:53Z</time>
      </trkpt>
      <trkpt lat="47.31471" lon="0.40741">
        <ele>37</ele>
        <time>2017-09-24T14:38:53Z</time>
      </trkpt>
      <trkpt lat="47.31466" lon="0.40726">
        <ele>37</ele>
        <time>2017-09-24T14:40:53Z</time>
      </trkpt>
      <trkpt lat="47.31463" lon="0.4072">
        <ele>38</ele>
        <time>2017-09-24T14:42:53Z</time>
      </trkpt>
      <trkpt lat="47.3146" lon="0.40711">
        <ele>38</ele>
        <time>2017-09-24T14:44:53Z</time>
      </trkpt>
      <trkpt lat="47.3143" lon="0.40641">
        <ele>40</ele>
        <time>2017-09-24T14:46:53Z</time>
      </trkpt>
      <trkpt lat="47.31413" lon="0.40602">
        <ele>40</ele>
        <time>2017-09-24T14:48:53Z</time>
      </trkpt>
      <trkpt lat="47.31406" lon="0.40585">
        <ele>40</ele>
        <time>2017-09-24T14:50:53Z</time>
      </trkpt>
      <trkpt lat="47.31404" lon="0.4058">
        <ele>40</ele>
        <time>2017-09-24T14:52:53Z</time>
      </trkpt>
      <trkpt lat="47.31372" lon="0.40486">
        <ele>39</ele>
        <time>2017-09-24T14:54:53Z</time>
      </trkpt>
      <trkpt lat="47.31365" lon="0.40469">
        <ele>39</ele>
        <time>2017-09-24T14:56:53Z</time>
      </trkpt>
      <trkpt lat="47.31337" lon="0.40397">
        <ele>40</ele>
        <time>2017-09-24T14:58:53Z</time>
      </trkpt>
      <trkpt lat="47.31307" lon="0.40311">
        <ele>41</ele>
        <time>2017-09-24T15:00:53Z</time>
      </trkpt>
      <trkpt lat="47.31294" lon="0.40268">
        <ele>40</ele>
        <time>2017-09-24T15:02:53Z</time>
      </trkpt>
      <trkpt lat="47.31252" lon="0.40119">
        <ele>39</ele>
        <time>2017-09-24T15:04:53Z</time>
      </trkpt>
      <trkpt lat="47.31246" lon="0.40096">
        <ele>38</ele>
        <time>2017-09-24T15:06:53Z</time>
      </trkpt>
      <trkpt lat="47.31246" lon="0.40094">
        <ele>38</ele>
        <time>2017-09-24T15:08:53Z</time>
      </trkpt>
      <trkpt lat="47.31239" lon="0.40058">
        <ele>38</ele>
        <time>2017-09-24T15:10:53Z</time>
      </trkpt>
      <trkpt lat="47.31234" lon="0.40029">
        <ele>38</ele>
        <time>2017-09-24T15:12:53Z</time>
      </trkpt>
      <trkpt lat="47.31228" lon="0.3999">
        <ele>39</ele>
        <time>2017-09-24T15:14:53Z</time>
      </trkpt>
      <trkpt lat="47.31217" lon="0.39948">
        <ele>39</ele>
        <time>2017-09-24T15:16:53Z</time>
      </trkpt>
      <trkpt lat="47.31216" lon="0.39945">
        <ele>39</ele>
        <time>2017-09-24T15:18:53Z</time>
      </trkpt>
      <trkpt lat="47.31215" lon="0.39943">
        <ele>39</ele>
        <time>2017-09-24T15:20:53Z</time>
      </trkpt>
      <trkpt lat="47.31199" lon="0.39897">
        <ele>39</ele>
        <time>2017-09-24T15:22:53Z</time>
      </trkpt>
      <trkpt lat="47.31194" lon="0.39884">
        <ele>39</ele>
        <time>2017-09-24T15:24:53Z</time>
      </trkpt>
      <trkpt lat="47.3118" lon="0.3985">
        <ele>40</ele>
        <time>2017-09-24T15:26:53Z</time>
      </trkpt>
      <trkpt lat="47.31153" lon="0.39786">
        <ele>40</ele>
        <time>2017-09-24T15:28:53Z</time>
      </trkpt>
      <trkpt lat="47.31133" lon="0.39743">
        <ele>40</ele>
        <time>2017-09-24T15:30:53Z</time>
      </trkpt>
      <trkpt lat="47.31123" lon="0.39722">
        <ele>41</ele>
        <time>2017-09-24T15:32:53Z</time>
      </trkpt>
      <trkpt lat="47.3112" lon="0.39716">
        <ele>41</ele>
        <time>2017-09-24T15:34:53Z</time>
      </trkpt>
      <trkpt lat="47.31075" lon="0.39609">
        <ele>40</ele>
        <time>2017-09-24T15:36:53Z</time>
      </trkpt>
      <trkpt lat="47.31057" lon="0.39562">
        <ele>40</ele>
        <time>2017-09-24T15:38:53Z</time>
      </trkpt>
      <trkpt lat="47.31042" lon="0.39512">
        <ele>41</ele>
        <time>2017-09-24T15:40:53Z</time>
      </trkpt>
      <trkpt lat="47.31025" lon="0.39457">
        <ele>42</ele>
        <time>2017-09-24T15:42:53Z</time>
      </trkpt>
      <trkpt lat="47.31013" lon="0.39417">
        <ele>44</ele>
        <time>2017-09-24T15:44:53Z</time>
      </trkpt>
      <trkpt lat="47.31002" lon="0.39372">
        <ele>43</ele>
        <time>2017-09-24T15:46:53Z</time>
      </trkpt>
      <trkpt lat="47.30999" lon="0.39346">
        <ele>42</ele>
        <time>2017-09-24T15:48:53Z</time>
      </trkpt>
      <trkpt lat="47.30997" lon="0.39336">
        <ele>42</ele>
        <time>2017-09-24T15:50:53Z</time>
      </trkpt>
      <trkpt lat="47.30994" lon="0.39306">
        <ele>42</ele>
        <time>2017-09-24T15:52:53Z</time>
      </trkpt>
      <trkpt lat="47.30988" lon="0.39277">
        <ele>41</ele>
        <time>2017-09-24T15:54:53Z</time>
      </trkpt>
      <trkpt lat="47.30984" lon="0.39265">
        <ele>41</ele>
        <time>2017-09-24T15:56:53Z</time>
      </trkpt>
      <trkpt lat="47.30924" lon="0.39102">
        <ele>40</ele>
        <time>2017-09-24T15:58:53Z</time>
      </trkpt>
      <trkpt lat="47.30914" lon="0.39081">
        <ele>40</ele>
        <time>2017-09-24T16:00:53Z</time>
      </trkpt>
      <trkpt lat="47.30906" lon="0.39057">
        <ele>40</ele>
        <time>2017-09-24T16:02:53Z</time>
      </trkpt>
      <trkpt lat="47.30897" lon="0.39039">
        <ele>40</ele>
        <time>2017-09-24T16:04:53Z</time>
      </trkpt>
      <trkpt lat="47.30824" lon="0.3891">
        <ele>42</ele>
        <time>2017-09-24T16:06:53Z</time>
      </trkpt>
      <trkpt lat="47.30802" lon="0.38865">
        <ele>40</ele>
        <time>2017-09-24T16:08:53Z</time>
      </trkpt>
      <trkpt lat="47.30788" lon="0.38832">
        <ele>40</ele>
        <time>2017-09-24T16:10:53Z</time>
      </trkpt>
      <trkpt lat="47.30784" lon="0.38819">
        <ele>40</ele>
        <time>2017-09-24T16:12:53Z</time>
      </trkpt>
      <trkpt lat="47.30777" lon="0.38795">
        <ele>40</ele>
        <time>2017-09-24T16:14:53Z</time>
      </trkpt>
      <trkpt lat="47.30733" lon="0.38619">
        <ele>40</ele>
        <time>2017-09-24T16:16:53Z</time>
      </trkpt>
      <trkpt lat="47.30712" lon="0.3852">
        <ele>41</ele>
        <time>2017-09-24T16:18:53Z</time>
      </trkpt>
      <trkpt lat="47.30707" lon="0.38506">
        <ele>41</ele>
        <time>2017-09-24T16:20:53Z</time>
      </trkpt>
      <trkpt lat="47.307" lon="0.38485">
        <ele>41</ele>
        <time>2017-09-24T16:22:53Z</time>
      </trkpt>
      <trkpt lat="47.3069" lon="0.38462">
        <ele>41</ele>
        <time>2017-09-24T16:24:53Z</time>
      </trkpt>
      <trkpt lat="47.30667" lon="0.38428">
        <ele>41</ele>
        <time>2017-09-24T16:26:53Z</time>
      </trkpt>
      <trkpt lat="47.30655" lon="0.38406">
        <ele>41</ele>
        <time>2017-09-24T16:28:53Z</time>
      </trkpt>
      <trkpt lat="47.30642" lon="0.38383">
        <ele>41</ele>
        <time>2017-09-24T16:30:53Z</time>
      </trkpt>
      <trkpt lat="47.306" lon="0.38288">
        <ele>40</ele>
        <time>2017-09-24T16:32:53Z</time>
      </trkpt>
      <trkpt lat="47.30577" lon="0.3824">
        <ele>40</ele>
        <time>2017-09-24T16:34:53Z</time>
      </trkpt>
      <trkpt lat="47.30537" lon="0.38157">
        <ele>39</ele>
        <time>2017-09-24T16:36:53Z</time>
      </trkpt>
      <trkpt lat="47.3051" lon="0.38101">
        <ele>39</ele>
        <time>2017-09-24T16:38:53Z</time>
      </trkpt>
      <trkpt lat="47.3048" lon="0.38025">
        <ele>39</ele>
        <time>2017-09-24T16:40:53Z</time>
      </trkpt>
      <trkpt lat="47.30479" lon="0.38024">
        <ele>39</ele>
        <time>2017-09-24T16:42:53Z</time>
      </trkpt>
      <trkpt lat="47.30464" lon="0.37992">
        <ele>39</ele>
        <time>2017-09-24T16:44:53Z</time>
      </trkpt>
      <trkpt lat="47.30463" lon="0.37991">
        <ele>39</ele>
        <time>2017-09-24T16:46:53Z</time>
      </trkpt>
      <trkpt lat="47.30456" lon="0.37978">
        <ele>39</ele>
        <time>2017-09-24T16:48:53Z</time>
      </trkpt>
      <trkpt lat="47.30445" lon="0.37961">
        <ele>39</ele>
        <time>2017-09-24T16:50:53Z</time>
      </trkpt>
      <trkpt lat="47.30436" lon="0.37948">
        <ele>39</ele>
        <time>2017-09-24T16:52:53Z</time>
      </trkpt>
      <trkpt lat="47.30422" lon="0.37929">
        <ele>40</ele>
        <time>2017-09-24T16:54:53Z</time>
      </trkpt>
      <trkpt lat="47.30418" lon="0.37921">
        <ele>40</ele>
        <time>2017-09-24T16:56:53Z</time>
      </trkpt>
      <trkpt lat="47.30411" lon="0.37906">
        <ele>40</ele>
        <time>2017-09-24T16:58:53Z</time>
      </trkpt>
      <trkpt lat="47.30405" lon="0.37891">
        <ele>39</ele>
        <time>2017-09-24T17:00:53Z</time>
      </trkpt>
      <trkpt lat="47.30388" lon="0.37831">
        <ele>38</ele>
        <time>2017-09-24T17:02:53Z</time>
      </trkpt>
      <trkpt lat="47.30367" lon="0.37742">
        <ele>38</ele>
        <time>2017-09-24T17:04:53Z</time>
      </trkpt>
      <trkpt lat="47.30335" lon="0.37618">
        <ele>40</ele>
        <time>2017-09-24T17:06:53Z</time>
      </trkpt>
      <trkpt lat="47.30295" lon="0.37452">
        <ele>39</ele>
        <time>2017-09-24T17:08:53Z</time>
      </trkpt>
      <trkpt lat="47.30293" lon="0.37443">
        <ele>38</ele>
        <time>2017-09-24T17:10:53Z</time>
      </trkpt>
      <trkpt lat="47.30284" lon="0.37399">
        <ele>38</ele>
        <time>2017-09-24T17:12:53Z</time>
      </trkpt>
      <trkpt lat="47.30277" lon="0.3737">
        <ele>38</ele>
        <time>2017-09-24T17:14:53Z</time>
      </trkpt>
      <trkpt lat="47.30274" lon="0.37357">
        <ele>38</ele>
        <time>2017-09-24T17:16:53Z</time>
      </trkpt>
      <trkpt lat="47.30271" lon="0.37349">
        <ele>38</ele>
        <time>2017-09-24T17:18:53Z</time>
      </trkpt>
      <trkpt lat="47.30259" lon="0.37314">
        <ele>37</ele>
        <time>2017-09-24T17:20:53Z</time>
      </trkpt>
      <trkpt lat="47.30258" lon="0.37313">
        <ele>37</ele>
        <time>2017-09-24T17:22:53Z</time>
      </trkpt>
      <trkpt lat="47.30247" lon="0.37292">
        <ele>37</ele>
        <time>2017-09-24T17:24:53Z</time>
      </trkpt>
      <trkpt lat="47.30229" lon="0.3726">
        <ele>37</ele>
        <time>2017-09-24T17:26:53Z</time>
      </trkpt>
      <trkpt lat="47.30228" lon="0.37258">
        <ele>37</ele>
        <time>2017-09-24T17:28:53Z</time>
      </trkpt>
      <trkpt lat="47.30182" lon="0.3719">
        <ele>37</ele>
        <time>2017-09-24T17:30:53Z</time>
      </trkpt>
      <trkpt lat="47.30122" lon="0.37098">
        <ele>37</ele>
        <time>2017-09-24T17:32:53Z</time>
      </trkpt>
      <trkpt lat="47.30115" lon="0.37089">
        <ele>37</ele>
        <time>2017-09-24T17:34:53Z</time>
      </trkpt>
      <trkpt lat="47.30087" lon="0.37041">
        <ele>38</ele>
        <time>2017-09-24T17:36:53Z</time>
      </trkpt>
      <trkpt lat="47.30069" lon="0.37008">
        <ele>38</ele>
        <time>2017-09-24T17:38:53Z</time>
      </trkpt>
      <trkpt lat="47.30064" lon="0.36999">
        <ele>38</ele>
        <time>2017-09-24T17:40:53Z</time>
      </trkpt>
      <trkpt lat="47.30042" lon="0.36955">
        <ele>38</ele>
        <time>2017-09-24T17:42:53Z</time>
      </trkpt>
      <trkpt lat="47.3003" lon="0.36932">
        <ele>38</ele>
        <time>2017-09-24T17:44:53Z</time>
      </trkpt>
      <trkpt lat="47.30011" lon="0.36896">
        <ele>37</ele>
        <time>2017-09-24T17:46:53Z</time>
      </trkpt>
      <trkpt lat="47.29999" lon="0.36875">
        <ele>37</ele>
        <time>2017-09-24T17:48:53Z</time>
      </trkpt>
      <trkpt lat="47.29988" lon="0.36858">
        <ele>37</ele>
        <time>2017-09-24T17:50:53Z</time>
      </trkpt>
      <trkpt lat="47.29982" lon="0.3685">
        <ele>37</ele>
        <time>2017-09-24T17:52:53Z</time>
      </trkpt>
      <trkpt lat="47.29964" lon="0.36829">
        <ele>37</ele>
        <time>2017-09-24T17:54:53Z</time>
      </trkpt>
      <trkpt lat="47.29963" lon="0.36828">
        <ele>37</ele>
        <time>2017-09-24T17:56:53Z</time>
      </trkpt>
      <trkpt lat="47.29924" lon="0.36792">
        <ele>38</ele>
        <time>2017-09-24T17:58:53Z</time>
      </trkpt>
      <trkpt lat="47.29912" lon="0.3678">
        <ele>38</ele>
        <time>2017-09-24T18:00:53Z</time>
      </trkpt>
      <trkpt lat="47.299" lon="0.36766">
        <ele>37</ele>
        <time>2017-09-24T18:02:53Z</time>
      </trkpt>
      <trkpt lat="47.29894" lon="0.36759">
        <ele>37</ele>
        <time>2017-09-24T18:04:53Z</time>
      </trkpt>
      <trkpt lat="47.29889" lon="0.36751">
        <ele>37</ele>
        <time>2017-09-24T18:06:53Z</time>
      </trkpt>
      <trkpt lat="47.29884" lon="0.36744">
        <ele>37</ele>
        <time>2017-09-24T18:08:53Z</time>
      </trkpt>
      <trkpt lat="47.29878" lon="0.36733">
        <ele>37</ele>
        <time>2017-09-24T18:10:53Z</time>
      </trkpt>
      <trkpt lat="47.29877" lon="0.36731">
        <ele>37</ele>
        <time>2017-09-24T18:12:53Z</time>
      </trkpt>
      <trkpt lat="47.29872" lon="0.36718">
        <ele>37</ele>
        <time>2017-09-24T18:14:53Z</time>
      </trkpt>
      <trkpt lat="47.29868" lon="0.36709">
        <ele>37</ele>
        <time>2017-09-24T18:16:53Z</time>
      </trkpt>
      <trkpt lat="47.29865" lon="0.367">
        <ele>37</ele>
        <time>2017-09-24T18:18:53Z</time>
      </trkpt>
      <trkpt lat="47.29858" lon="0.3668">
        <ele>37</ele>
        <time>2017-09-24T18:20:53Z</time>
      </trkpt>
      <trkpt lat="47.29853" lon="0.3666">
        <ele>37</ele>
        <time>2017-09-24T18:22:53Z</time>
      </trkpt>
      <trkpt lat="47.29853" lon="0.36659">
        <ele>37</ele>
        <time>2017-09-24T18:24:53Z</time>
      </trkpt>
      <trkpt lat="47.29848" lon="0.36637">
        <ele>37</ele>
        <time>2017-09-24T18:26:53Z</time>
      </trkpt>
      <trkpt lat="47.29848" lon="0.36635">
        <ele>37</ele>
        <time>2017-09-24T18:28:53Z</time>
      </trkpt>
      <trkpt lat="47.29845" lon="0.3661">
        <ele>36</ele>
        <time>2017-09-24T18:30:53Z</time>
      </trkpt>
      <trkpt lat="47.29842" lon="0.36577">
        <ele>36</ele>
        <time>2017-09-24T18:32:53Z</time>
      </trkpt>
      <trkpt lat="47.29839" lon="0.36533">
        <ele>37</ele>
        <time>2017-09-24T18:34:53Z</time>
      </trkpt>
      <trkpt lat="47.29837" lon="0.36509">
        <ele>38</ele>
        <time>2017-09-24T18:36:53Z</time>
      </trkpt>
      <trkpt lat="47.29836" lon="0.36498">
        <ele>38</ele>
        <time>2017-09-24T18:38:53Z</time>
      </trkpt>
      <trkpt lat="47.29835" lon="0.36484">
        <ele>38</ele>
        <time>2017-09-24T18:40:53Z</time>
      </trkpt>
      <trkpt lat="47.29833" lon="0.36461">
        <ele>38</ele>
        <time>2017-09-24T18:42:53Z</time>
      </trkpt>
      <trkpt lat="47.29829" lon="0.36426">
        <ele>39</ele>
        <time>2017-09-24T18:44:53Z</time>
      </trkpt>
      <trkpt lat="47.29827" lon="0.36414">
        <ele>39</ele>
        <time>2017-09-24T18:46:53Z</time>
      </trkpt>
      <trkpt lat="47.29826" lon="0.36403">
        <ele>38</ele>
        <time>2017-09-24T18:48:53Z</time>
      </trkpt>
      <trkpt lat="47.29824" lon="0.36391">
        <ele>38</ele>
        <time>2017-09-24T18:50:53Z</time>
      </trkpt>
      <trkpt lat="47.29821" lon="0.36379">
        <ele>37</ele>
        <time>2017-09-24T18:52:53Z</time>
      </trkpt>
      <trkpt lat="47.29817" lon="0.36357">
        <ele>37</ele>
        <time>2017-09-24T18:54:53Z</time>
      </trkpt>
      <trkpt lat="47.29814" lon="0.36345">
        <ele>36</ele>
        <time>2017-09-24T18:56:53Z</time>
      </trkpt>
      <trkpt lat="47.29812" lon="0.36334">
        <ele>36</ele>
        <time>2017-09-24T18:58:53Z</time>
      </trkpt>
      <trkpt lat="47.29809" lon="0.36323">
        <ele>36</ele>
        <time>2017-09-24T19:00:53Z</time>
      </trkpt>
      <trkpt lat="47.29806" lon="0.36313">
        <ele>36</ele>
        <time>2017-09-24T19:02:53Z</time>
      </trkpt>
      <trkpt lat="47.29804" lon="0.36302">
        <ele>36</ele>
        <time>2017-09-24T19:04:53Z</time>
      </trkpt>
      <trkpt lat="47.29801" lon="0.36292">
        <ele>36</ele>
        <time>2017-09-24T19:06:53Z</time>
      </trkpt>
      <trkpt lat="47.29798" lon="0.36281">
        <ele>37</ele>
        <time>2017-09-24T19:08:53Z</time>
      </trkpt>
      <trkpt lat="47.29795" lon="0.36271">
        <ele>37</ele>
        <time>2017-09-24T19:10:53Z</time>
      </trkpt>
      <trkpt lat="47.29792" lon="0.36261">
        <ele>37</ele>
        <time>2017-09-24T19:12:53Z</time>
      </trkpt>
      <trkpt lat="47.29788" lon="0.36251">
        <ele>37</ele>
        <time>2017-09-24T19:14:53Z</time>
      </trkpt>
      <trkpt lat="47.29783" lon="0.36235">
        <ele>37</ele>
        <time>2017-09-24T19:16:53Z</time>
      </trkpt>
      <trkpt lat="47.29783" lon="0.36235">
        <ele>37</ele>
        <time>2017-09-24T19:18:53Z</time>
      </trkpt>
      <trkpt lat="47.29779" lon="0.36221">
        <ele>37</ele>
        <time>2017-09-24T19:20:53Z</time>
      </trkpt>
      <trkpt lat="47.29772" lon="0.36202">
        <ele>37</ele>
        <time>2017-09-24T19:22:53Z</time>
      </trkpt>
      <trkpt lat="47.29766" lon="0.36182">
        <ele>37</ele>
        <time>2017-09-24T19:24:53Z</time>
      </trkpt>
      <trkpt lat="47.2976" lon="0.36163">
        <ele>37</ele>
        <time>2017-09-24T19:26:53Z</time>
      </trkpt>
      <trkpt lat="47.29754" lon="0.36144">
        <ele>37</ele>
        <time>2017-09-24T19:28:53Z</time>
      </trkpt>
      <trkpt lat="47.29748" lon="0.36124">
        <ele>37</ele>
        <time>2017-09-24T19:30:53Z</time>
      </trkpt>
      <trkpt lat="47.29742" lon="0.36105">
        <ele>36</ele>
        <time>2017-09-24T19:32:53Z</time>
      </trkpt>
      <trkpt lat="47.29727" lon="0.3604">
        <ele>36</ele>
        <time>2017-09-24T19:34:53Z</time>
      </trkpt>
      <trkpt lat="47.2972" lon="0.36014">
        <ele>36</ele>
        <time>2017-09-24T19:36:53Z</time>
      </trkpt>
      <trkpt lat="47.29715" lon="0.3599">
        <ele>36</ele>
        <time>2017-09-24T19:38:53Z</time>
      </trkpt>
      <trkpt lat="47.29713" lon="0.35979">
        <ele>36</ele>
        <time>2017-09-24T19:40:53Z</time>
      </trkpt>
      <trkpt lat="47.2971" lon="0.35967">
        <ele>36</ele>
        <time>2017-09-24T19:42:53Z</time>
      </trkpt>
      <trkpt lat="47.29705" lon="0.3595">
        <ele>37</ele>
        <time>2017-09-24T19:44:53Z</time>
      </trkpt>
      <trkpt lat="47.29698" lon="0.35925">
        <ele>37</ele>
        <time>2017-09-24T19:46:53Z</time>
      </trkpt>
      <trkpt lat="47.29665" lon="0.35821">
        <ele>41</ele>
        <time>2017-09-24T19:48:53Z</time>
      </trkpt>
      <trkpt lat="47.29654" lon="0.35785">
        <ele>40</ele>
        <time>2017-09-24T19:50:53Z</time>
      </trkpt>
      <trkpt lat="47.29644" lon="0.35752">
        <ele>40</ele>
        <time>2017-09-24T19:52:53Z</time>
      </trkpt>
      <trkpt lat="47.2964" lon="0.35737">
        <ele>39</ele>
        <time>2017-09-24T19:54:53Z</time>
      </trkpt>
      <trkpt lat="47.29637" lon="0.35725">
        <ele>39</ele>
        <time>2017-09-24T19:56:53Z</time>
      </trkpt>
      <trkpt lat="47.29633" lon="0.35712">
        <ele>39</ele>
        <time>2017-09-24T19:58:53Z</time>
      </trkpt>
      <trkpt lat="47.29629" lon="0.35698">
        <ele>38</ele>
        <time>2017-09-24T20:00:53Z</time>
      </trkpt>
      <trkpt lat="47.29627" lon="0.35688">
        <ele>38</ele>
        <time>2017-09-24T20:02:53Z</time>
      </trkpt>
      <trkpt lat="47.29624" lon="0.35676">
        <ele>38</ele>
        <time>2017-09-24T20:04:53Z</time>
      </trkpt>
      <trkpt lat="47.29622" lon="0.35666">
        <ele>38</ele>
        <time>2017-09-24T20:06:53Z</time>
      </trkpt>
      <trkpt lat="47.29619" lon="0.35657">
        <ele>38</ele>
        <time>2017-09-24T20:08:53Z</time>
      </trkpt>
      <trkpt lat="47.29618" lon="0.35648">
        <ele>38</ele>
        <time>2017-09-24T20:10:53Z</time>
      </trkpt>
      <trkpt lat="47.29616" lon="0.35638">
        <ele>38</ele>
        <time>2017-09-24T20:12:53Z</time>
      </trkpt>
      <trkpt lat="47.29615" lon="0.35631">
        <ele>38</ele>
        <time>2017-09-24T20:14:53Z</time>
      </trkpt>
      <trkpt lat="47.29614" lon="0.35624">
        <ele>38</ele>
        <time>2017-09-24T20:16:53Z</time>
      </trkpt>
      <trkpt lat="47.29613" lon="0.35609">
        <ele>38</ele>
        <time>2017-09-24T20:18:53Z</time>
      </trkpt>
      <trkpt lat="47.29606" lon="0.35569">
        <ele>38</ele>
        <time>2017-09-24T20:20:53Z</time>
      </trkpt>
      <trkpt lat="47.29601" lon="0.35543">
        <ele>39</ele>
        <time>2017-09-24T20:22:53Z</time>
      </trkpt>
      <trkpt lat="47.29596" lon="0.35521">
        <ele>39</ele>
        <time>2017-09-24T20:24:53Z</time>
      </trkpt>
      <trkpt lat="47.29592" lon="0.35503">
        <ele>40</ele>
        <time>2017-09-24T20:26:53Z</time>
      </trkpt>
      <trkpt lat="47.29586" lon="0.35483">
        <ele>39</ele>
        <time>2017-09-24T20:28:53Z</time>
      </trkpt>
      <trkpt lat="47.29577" lon="0.35457">
        <ele>38</ele>
        <time>2017-09-24T20:30:53Z</time>
      </trkpt>
      <trkpt lat="47.29561" lon="0.3542">
        <ele>37</ele>
        <time>2017-09-24T20:32:53Z</time>
      </trkpt>
      <trkpt lat="47.29558" lon="0.35411">
        <ele>37</ele>
        <time>2017-09-24T20:34:53Z</time>
      </trkpt>
      <trkpt lat="47.29554" lon="0.35401">
        <ele>37</ele>
        <time>2017-09-24T20:36:53Z</time>
      </trkpt>
      <trkpt lat="47.29552" lon="0.35394">
        <ele>37</ele>
        <time>2017-09-24T20:38:53Z</time>
      </trkpt>
      <trkpt lat="47.2955" lon="0.35386">
        <ele>37</ele>
        <time>2017-09-24T20:40:53Z</time>
      </trkpt>
      <trkpt lat="47.29546" lon="0.35372">
        <ele>37</ele>
        <time>2017-09-24T20:42:53Z</time>
      </trkpt>
      <trkpt lat="47.29543" lon="0.35356">
        <ele>37</ele>
        <time>2017-09-24T20:44:53Z</time>
      </trkpt>
      <trkpt lat="47.29539" lon="0.35341">
        <ele>38</ele>
        <time>2017-09-24T20:46:53Z</time>
      </trkpt>
      <trkpt lat="47.29534" lon="0.3532">
        <ele>38</ele>
        <time>2017-09-24T20:48:53Z</time>
      </trkpt>
      <trkpt lat="47.29527" lon="0.35295">
        <ele>38</ele>
        <time>2017-09-24T20:50:53Z</time>
      </trkpt>
      <trkpt lat="47.29522" lon="0.35277">
        <ele>38</ele>
        <time>2017-09-24T20:52:53Z</time>
      </trkpt>
      <trkpt lat="47.29515" lon="0.3525">
        <ele>38</ele>
        <time>2017-09-24T20:54:53Z</time>
      </trkpt>
      <trkpt lat="47.29508" lon="0.35234">
        <ele>37</ele>
        <time>2017-09-24T20:56:53Z</time>
      </trkpt>
      <trkpt lat="47.29505" lon="0.35228">
        <ele>37</ele>
        <time>2017-09-24T20:58:53Z</time>
      </trkpt>
      <trkpt lat="47.29501" lon="0.3522">
        <ele>37</ele>
        <time>2017-09-24T21:00:53Z</time>
      </trkpt>
      <trkpt lat="47.29474" lon="0.35166">
        <ele>35</ele>
        <time>2017-09-24T21:02:53Z</time>
      </trkpt>
      <trkpt lat="47.29467" lon="0.35151">
        <ele>36</ele>
        <time>2017-09-24T21:04:53Z</time>
      </trkpt>
      <trkpt lat="47.29453" lon="0.35123">
        <ele>37</ele>
        <time>2017-09-24T21:06:53Z</time>
      </trkpt>
      <trkpt lat="47.2945" lon="0.35117">
        <ele>37</ele>
        <time>2017-09-24T21:08:53Z</time>
      </trkpt>
      <trkpt lat="47.29423" lon="0.35071">
        <ele>39</ele>
        <time>2017-09-24T21:10:53Z</time>
      </trkpt>
      <trkpt lat="47.29412" lon="0.3505">
        <ele>38</ele>
        <time>2017-09-24T21:12:53Z</time>
      </trkpt>
      <trkpt lat="47.29398" lon="0.35022">
        <ele>38</ele>
        <time>2017-09-24T21:14:53Z</time>
      </trkpt>
      <trkpt lat="47.29388" lon="0.35005">
        <ele>38</ele>
        <time>2017-09-24T21:16:53Z</time>
      </trkpt>
      <trkpt lat="47.2938" lon="0.34991">
        <ele>38</ele>
        <time>2017-09-24T21:18:53Z</time>
      </trkpt>
      <trkpt lat="47.29344" lon="0.34938">
        <ele>38</ele>
        <time>2017-09-24T21:20:53Z</time>
      </trkpt>
      <trkpt lat="47.29331" lon="0.3492">
        <ele>38</ele>
        <time>2017-09-24T21:22:53Z</time>
      </trkpt>
      <trkpt lat="47.29275" lon="0.3484">
        <ele>39</ele>
        <time>2017-09-24T21:24:53Z</time>
      </trkpt>
      <trkpt lat="47.29257" lon="0.34816">
        <ele>39</ele>
        <time>2017-09-24T21:26:53Z</time>
      </trkpt>
      <trkpt lat="47.29238" lon="0.34792">
        <ele>39</ele>
        <time>2017-09-24T21:28:53Z</time>
      </trkpt>
      <trkpt lat="47.2918" lon="0.34714">
        <ele>39</ele>
        <time>2017-09-24T21:30:53Z</time>
      </trkpt>
      <trkpt lat="47.29163" lon="0.34684">
        <ele>39</ele>
        <time>2017-09-24T21:32:53Z</time>
      </trkpt>
      <trkpt lat="47.29145" lon="0.34654">
        <ele>39</ele>
        <time>2017-09-24T21:34:53Z</time>
      </trkpt>
      <trkpt lat="47.2913" lon="0.3463">
        <ele>38</ele>
        <time>2017-09-24T21:36:53Z</time>
      </trkpt>
      <trkpt lat="47.29121" lon="0.34617">
        <ele>38</ele>
        <time>2017-09-24T21:38:53Z</time>
      </trkpt>
      <trkpt lat="47.29115" lon="0.34606">
        <ele>38</ele>
        <time>2017-09-24T21:40:53Z</time>
      </trkpt>
      <trkpt lat="47.2911" lon="0.34595">
        <ele>37</ele>
        <time>2017-09-24T21:42:53Z</time>
      </trkpt>
      <trkpt lat="47.29097" lon="0.34561">
        <ele>38</ele>
        <time>2017-09-24T21:44:53Z</time>
      </trkpt>
      <trkpt lat="47.29084" lon="0.34529">
        <ele>38</ele>
        <time>2017-09-24T21:46:53Z</time>
      </trkpt>
      <trkpt lat="47.2907" lon="0.34494">
        <ele>39</ele>
        <time>2017-09-24T21:48:53Z</time>
      </trkpt>
      <trkpt lat="47.29058" lon="0.34465">
        <ele>38</ele>
        <time>2017-09-24T21:50:53Z</time>
      </trkpt>
      <trkpt lat="47.29049" lon="0.34448">
        <ele>38</ele>
        <time>2017-09-24T21:52:53Z</time>
      </trkpt>
      <trkpt lat="47.29027" lon="0.34417">
        <ele>38</ele>
        <time>2017-09-24T21:54:53Z</time>
      </trkpt>
      <trkpt lat="47.28981" lon="0.34355">
        <ele>38</ele>
        <time>2017-09-24T21:56:53Z</time>
      </trkpt>
      <trkpt lat="47.28964" lon="0.34331">
        <ele>38</ele>
        <time>2017-09-24T21:58:53Z</time>
      </trkpt>
      <trkpt lat="47.28952" lon="0.34316">
        <ele>37</ele>
        <time>2017-09-24T22:00:53Z</time>
      </trkpt>
      <trkpt lat="47.289" lon="0.34237">
        <ele>37</ele>
        <time>2017-09-24T22:02:53Z</time>
      </trkpt>
      <trkpt lat="47.28894" lon="0.34228">
        <ele>37</ele>
        <time>2017-09-24T22:04:53Z</time>
      </trkpt>
      <trkpt lat="47.28885" lon="0.34213">
        <ele>37</ele>
        <time>2017-09-24T22:06:53Z</time>
      </trkpt>
      <trkpt lat="47.28868" lon="0.34187">
        <ele>37</ele>
        <time>2017-09-24T22:08:53Z</time>
      </trkpt>
      <trkpt lat="47.28848" lon="0.34157">
        <ele>38</ele>
        <time>2017-09-24T22:10:53Z</time>
      </trkpt>
      <trkpt lat="47.28796" lon="0.34077">
        <ele>38</ele>
        <time>2017-09-24T22:12:53Z</time>
      </trkpt>
      <trkpt lat="47.2877" lon="0.34037">
        <ele>38</ele>
        <time>2017-09-24T22:14:53Z</time>
      </trkpt>
      <trkpt lat="47.28752" lon="0.34006">
        <ele>37</ele>
        <time>2017-09-24T22:16:53Z</time>
      </trkpt>
      <trkpt lat="47.28735" lon="0.3397">
        <ele>37</ele>
        <time>2017-09-24T22:18:53Z</time>
      </trkpt>
      <trkpt lat="47.28703" lon="0.33912">
        <ele>38</ele>
        <time>2017-09-24T22:20:53Z</time>
      </trkpt>
      <trkpt lat="47.28685" lon="0.33879">
        <ele>38</ele>
        <time>2017-09-24T22:22:53Z</time>
      </trkpt>
      <trkpt lat="47.28679" lon="0.3387">
        <ele>37</ele>
        <time>2017-09-24T22:24:53Z</time>
      </trkpt>
      <trkpt lat="47.28656" lon="0.33824">
        <ele>37</ele>
        <time>2017-09-24T22:26:53Z</time>
      </trkpt>
      <trkpt lat="47.28637" lon="0.33785">
        <ele>37</ele>
        <time>2017-09-24T22:28:53Z</time>
      </trkpt>
      <trkpt lat="47.28611" lon="0.33735">
        <ele>37</ele>
        <time>2017-09-24T22:30:53Z</time>
      </trkpt>
      <trkpt lat="47.28593" lon="0.33704">
        <ele>36</ele>
        <time>2017-09-24T22:32:53Z</time>
      </trkpt>
      <trkpt lat="47.28586" lon="0.33693">
        <ele>36</ele>
        <time>2017-09-24T22:34:53Z</time>
      </trkpt>
      <trkpt lat="47.28577" lon="0.33678">
        <ele>36</ele>
        <time>2017-09-24T22:36:53Z</time>
      </trkpt>
      <trkpt lat="47.28566" lon="0.33663">
        <ele>36</ele>
        <time>2017-09-24T22:38:53Z</time>
      </trkpt>
      <trkpt lat="47.28557" lon="0.33654">
        <ele>36</ele>
        <time>2017-09-24T22:40:53Z</time>
      </trkpt>
      <trkpt lat="47.28536" lon="0.33632">
        <ele>36</ele>
        <time>2017-09-24T22:42:53Z</time>
      </trkpt>
      <trkpt lat="47.28485" lon="0.33576">
        <ele>36</ele>
        <time>2017-09-24T22:44:53Z</time>
      </trkpt>
      <trkpt lat="47.28456" lon="0.33543">
        <ele>36</ele>
        <time>2017-09-24T22:46:53Z</time>
      </trkpt>
      <trkpt lat="47.28436" lon="0.33518">
        <ele>37</ele>
        <time>2017-09-24T22:48:53Z</time>
      </trkpt>
      <trkpt lat="47.28425" lon="0.33496">
        <ele>37</ele>
        <time>2017-09-24T22:50:53Z</time>
      </trkpt>
      <trkpt lat="47.28411" lon="0.33463">
        <ele>37</ele>
        <time>2017-09-24T22:52:53Z</time>
      </trkpt>
      <trkpt lat="47.28388" lon="0.33403">
        <ele>36</ele>
        <time>2017-09-24T22:54:53Z</time>
      </trkpt>
      <trkpt lat="47.28373" lon="0.33367">
        <ele>37</ele>
        <time>2017-09-24T22:56:53Z</time>
      </trkpt>
      <trkpt lat="47.28358" lon="0.33341">
        <ele>37</ele>
        <time>2017-09-24T22:58:53Z</time>
      </trkpt>
      <trkpt lat="47.28326" lon="0.33294">
        <ele>38</ele>
        <time>2017-09-24T23:00:53Z</time>
      </trkpt>
      <trkpt lat="47.28285" lon="0.33242">
        <ele>38</ele>
        <time>2017-09-24T23:02:53Z</time>
      </trkpt>
      <trkpt lat="47.28274" lon="0.33226">
        <ele>38</ele>
        <time>2017-09-24T23:04:53Z</time>
      </trkpt>
      <trkpt lat="47.28258" lon="0.33205">
        <ele>38</ele>
        <time>2017-09-24T23:06:53Z</time>
      </trkpt>
      <trkpt lat="47.28225" lon="0.33158">
        <ele>37</ele>
        <time>2017-09-24T23:08:53Z</time>
      </trkpt>
      <trkpt lat="47.28197" lon="0.33125">
        <ele>37</ele>
        <time>2017-09-24T23:10:53Z</time>
      </trkpt>
      <trkpt lat="47.28188" lon="0.33116">
        <ele>37</ele>
        <time>2017-09-24T23:12:53Z</time>
      </trkpt>
      <trkpt lat="47.28183" lon="0.33112">
        <ele>36</ele>
        <time>2017-09-24T23:14:53Z</time>
      </trkpt>
      <trkpt lat="47.28167" lon="0.33101">
        <ele>36</ele>
        <time>2017-09-24T23:16:53Z</time>
      </trkpt>
      <trkpt lat="47.28155" lon="0.33092">
        <ele>36</ele>
        <time>2017-09-24T23:18:53Z</time>
      </trkpt>
      <trkpt lat="47.28148" lon="0.33088">
        <ele>36</ele>
        <time>2017-09-24T23:20:53Z</time>
      </trkpt>
      <trkpt lat="47.28147" lon="0.33087">
        <ele>36</ele>
        <time>2017-09-24T23:22:53Z</time>
      </trkpt>
      <trkpt lat="47.28142" lon="0.33083">
        <ele>36</ele>
        <time>2017-09-24T23:24:53Z</time>
      </trkpt>
      <trkpt lat="47.2813" lon="0.33073">
        <ele>36</ele>
        <time>2017-09-24T23:26:53Z</time>
      </trkpt>
      <trkpt lat="47.2812" lon="0.33062">
        <ele>37</ele>
        <time>2017-09-24T23:28:53Z</time>
      </trkpt>
      <trkpt lat="47.28106" lon="0.33044">
        <ele>37</ele>
        <time>2017-09-24T23:30:53Z</time>
      </trkpt>
      <trkpt lat="47.28094" lon="0.33031">
        <ele>37</ele>
        <time>2017-09-24T23:32:53Z</time>
      </trkpt>
      <trkpt lat="47.28083" lon="0.33016">
        <ele>38</ele>
        <time>2017-09-24T23:34:53Z</time>
      </trkpt>
      <trkpt lat="47.28074" lon="0.33003">
        <ele>38</ele>
        <time>2017-09-24T23:36:53Z</time>
      </trkpt>
      <trkpt lat="47.28066" lon="0.32992">
        <ele>37</ele>
        <time>2017-09-24T23:38:53Z</time>
      </trkpt>
      <trkpt lat="47.28058" lon="0.3298">
        <ele>37</ele>
        <time>2017-09-24T23:40:53Z</time>
      </trkpt>
      <trkpt lat="47.28043" lon="0.32954">
        <ele>37</ele>
        <time>2017-09-24T23:42:53Z</time>
      </trkpt>
      <trkpt lat="47.28035" lon="0.3294">
        <ele>36</ele>
        <time>2017-09-24T23:44:53Z</time>
      </trkpt>
      <trkpt lat="47.28019" lon="0.32911">
        <ele>37</ele>
        <time>2017-09-24T23:46:53Z</time>
      </trkpt>
      <trkpt lat="47.28005" lon="0.32881">
        <ele>37</ele>
        <time>2017-09-24T23:48:53Z</time>
      </trkpt>
      <trkpt lat="47.27996" lon="0.32861">
        <ele>37</ele>
        <time>2017-09-24T23:50:53Z</time>
      </trkpt>
      <trkpt lat="47.27987" lon="0.32843">
        <ele>37</ele>
        <time>2017-09-24T23:52:53Z</time>
      </trkpt>
      <trkpt lat="47.27978" lon="0.32816">
        <ele>36</ele>
        <time>2017-09-24T23:54:53Z</time>
      </trkpt>
      <trkpt lat="47.2797" lon="0.32785">
        <ele>35</ele>
        <time>2017-09-24T23:56:53Z</time>
      </trkpt>
      <trkpt lat="47.27962" lon="0.32727">
        <ele>34</ele>
        <time>2017-09-24T23:58:53Z</time>
      </trkpt>
      <trkpt lat="47.27958" lon="0.327">
        <ele>35</ele>
        <time>2017-09-25T00:00:53Z</time>
      </trkpt>
      <trkpt lat="47.27954" lon="0.32681">
        <ele>35</ele>
        <time>2017-09-25T00:02:53Z</time>
      </trkpt>
      <trkpt lat="47.27945" lon="0.32664">
        <ele>35</ele>
        <time>2017-09-25T00:04:53Z</time>
      </trkpt>
      <trkpt lat="47.27916" lon="0.3262">
        <ele>34</ele>
        <time>2017-09-25T00:06:53Z</time>
      </trkpt>
      <trkpt lat="47.27909" lon="0.32608">
        <ele>34</ele>
        <time>2017-09-25T00:08:53Z</time>
      </trkpt>
      <trkpt lat="47.27901" lon="0.32597">
        <ele>34</ele>
        <time>2017-09-25T00:10:53Z</time>
      </trkpt>
      <trkpt lat="47.27888" lon="0.32574">
        <ele>34</ele>
        <time>2017-09-25T00:12:53Z</time>
      </trkpt>
      <trkpt lat="47.27877" lon="0.32557">
        <ele>34</ele>
        <time>2017-09-25T00:14:53Z</time>
      </trkpt>
      <trkpt lat="47.27862" lon="0.32539">
        <ele>34</ele>
        <time>2017-09-25T00:16:53Z</time>
      </trkpt>
      <trkpt lat="47.27852" lon="0.32526">
        <ele>34</ele>
        <time>2017-09-25T00:18:53Z</time>
      </trkpt>
      <trkpt lat="47.27839" lon="0.32513">
        <ele>34</ele>
        <time>2017-09-25T00:20:53Z</time>
      </trkpt>
      <trkpt lat="47.27818" lon="0.32494">
        <ele>34</ele>
        <time>2017-09-25T00:22:53Z</time>
      </trkpt>
      <trkpt lat="47.27801" lon="0.32483">
        <ele>35</ele>
        <time>2017-09-25T00:24:53Z</time>
      </trkpt>
      <trkpt lat="47.2778" lon="0.32472">
        <ele>35</ele>
        <time>2017-09-25T00:26:53Z</time>
      </trkpt>
      <trkpt lat="47.27771" lon="0.32468">
        <ele>35</ele>
        <time>2017-09-25T00:28:53Z</time>
      </trkpt>
      <trkpt lat="47.27759" lon="0.32462">
        <ele>36</ele>
        <time>2017-09-25T00:30:53Z</time>
      </trkpt>
      <trkpt lat="47.27752" lon="0.32456">
        <ele>36</ele>
        <time>2017-09-25T00:32:53Z</time>
      </trkpt>
      <trkpt lat="47.27733" lon="0.3244">
        <ele>36</ele>
        <time>2017-09-25T00:34:53Z</time>
      </trkpt>
      <trkpt lat="47.27719" lon="0.32427">
        <ele>36</ele>
        <time>2017-09-25T00:36:53Z</time>
      </trkpt>
      <trkpt lat="47.27714" lon="0.3242">
        <ele>37</ele>
        <time>2017-09-25T00:38:53Z</time>
      </trkpt>
      <trkpt lat="47.27709" lon="0.32413">
        <ele>36</ele>
        <time>2017-09-25T00:40:53Z</time>
      </trkpt>
      <trkpt lat="47.27705" lon="0.32408">
        <ele>36</ele>
        <time>2017-09-25T00:42:53Z</time>
      </trkpt>
      <trkpt lat="47.27693" lon="0.32389">
        <ele>36</ele>
        <time>2017-09-25T00:44:53Z</time>
      </trkpt>
      <trkpt lat="47.2768" lon="0.32364">
        <ele>35</ele>
        <time>2017-09-25T00:46:53Z</time>
      </trkpt>
      <trkpt lat="47.27668" lon="0.32348">
        <ele>34</ele>
        <time>2017-09-25T00:48:53Z</time>
      </trkpt>
      <trkpt lat="47.27659" lon="0.32336">
        <ele>34</ele>
        <time>2017-09-25T00:50:53Z</time>
      </trkpt>
      <trkpt lat="47.27646" lon="0.3232">
        <ele>34</ele>
        <time>2017-09-25T00:52:53Z</time>
      </trkpt>
      <trkpt lat="47.27593" lon="0.32258">
        <ele>35</ele>
        <time>2017-09-25T00:54:53Z</time>
      </trkpt>
      <trkpt lat="47.27579" lon="0.32242">
        <ele>35</ele>
        <time>2017-09-25T00:56:53Z</time>
      </trkpt>
      <trkpt lat="47.27572" lon="0.32234">
        <ele>35</ele>
        <time>2017-09-25T00:58:53Z</time>
      </trkpt>
      <trkpt lat="47.27571" lon="0.32232">
        <ele>35</ele>
        <time>2017-09-25T01:00:53Z</time>
      </trkpt>
      <trkpt lat="47.27563" lon="0.32223">
        <ele>35</ele>
        <time>2017-09-25T01:02:53Z</time>
      </trkpt>
      <trkpt lat="47.27556" lon="0.32216">
        <ele>36</ele>
        <time>2017-09-25T01:04:53Z</time>
      </trkpt>
      <trkpt lat="47.27516" lon="0.32178">
        <ele>38</ele>
        <time>2017-09-25T01:06:53Z</time>
      </trkpt>
      <trkpt lat="47.27495" lon="0.32157">
        <ele>39</ele>
        <time>2017-09-25T01:08:53Z</time>
      </trkpt>
      <trkpt lat="47.27457" lon="0.32119">
        <ele>39</ele>
        <time>2017-09-25T01:10:53Z</time>
      </trkpt>
      <trkpt lat="47.27424" lon="0.32091">
        <ele>40</ele>
        <time>2017-09-25T01:12:53Z</time>
      </trkpt>
      <trkpt lat="47.27415" lon="0.32086">
        <ele>40</ele>
        <time>2017-09-25T01:14:53Z</time>
      </trkpt>
      <trkpt lat="47.27411" lon="0.32084">
        <ele>40</ele>
        <time>2017-09-25T01:16:53Z</time>
      </trkpt>
      <trkpt lat="47.27406" lon="0.32083">
        <ele>40</ele>
        <time>2017-09-25T01:18:53Z</time>
      </trkpt>
      <trkpt lat="47.27401" lon="0.32082">
        <ele>40</ele>
        <time>2017-09-25T01:20:53Z</time>
      </trkpt>
      <trkpt lat="47.27396" lon="0.32081">
        <ele>39</ele>
        <time>2017-09-25T01:22:53Z</time>
      </trkpt>
      <trkpt lat="47.27381" lon="0.3208">
        <ele>39</ele>
        <time>2017-09-25T01:24:53Z</time>
      </trkpt>
      <trkpt lat="47.27361" lon="0.32077">
        <ele>39</ele>
        <time>2017-09-25T01:26:53Z</time>
      </trkpt>
      <trkpt lat="47.27353" lon="0.32076">
        <ele>38</ele>
        <time>2017-09-25T01:28:53Z</time>
      </trkpt>
      <trkpt lat="47.27346" lon="0.32074">
        <ele>38</ele>
        <time>2017-09-25T01:30:53Z</time>
      </trkpt>
      <trkpt lat="47.27338" lon="0.32071">
        <ele>38</ele>
        <time>2017-09-25T01:32:53Z</time>
      </trkpt>
      <trkpt lat="47.27332" lon="0.32066">
        <ele>38</ele>
        <time>2017-09-25T01:34:53Z</time>
      </trkpt>
      <trkpt lat="47.27325" lon="0.32062">
        <ele>38</ele>
        <time>2017-09-25T01:36:53Z</time>
      </trkpt>
      <trkpt lat="47.2732" lon="0.32058">
        <ele>37</ele>
        <time>2017-09-25T01:38:53Z</time>
      </trkpt>
      <trkpt lat="47.27315" lon="0.32052">
        <ele>37</ele>
        <time>2017-09-25T01:40:53Z</time>
      </trkpt>
      <trkpt lat="47.27309" lon="0.32044">
        <ele>37</ele>
        <time>2017-09-25T01:42:53Z</time>
      </trkpt>
      <trkpt lat="47.27304" lon="0.32034">
        <ele>37</ele>
        <time>2017-09-25T01:44:53Z</time>
      </trkpt>
      <trkpt lat="47.27299" lon="0.32026">
        <ele>37</ele>
        <time>2017-09-25T01:46:53Z</time>
      </trkpt>
      <trkpt lat="47.27297" lon="0.3202">
        <ele>37</ele>
        <time>2017-09-25T01:48:53Z</time>
      </trkpt>
      <trkpt lat="47.27297" lon="0.32019">
        <ele>37</ele>
        <time>2017-09-25T01:50:53Z</time>
      </trkpt>
      <trkpt lat="47.27295" lon="0.3201">
        <ele>37</ele>
        <time>2017-09-25T01:52:53Z</time>
      </trkpt>
      <trkpt lat="47.27292" lon="0.31998">
        <ele>37</ele>
        <time>2017-09-25T01:54:53Z</time>
      </trkpt>
      <trkpt lat="47.2729" lon="0.31986">
        <ele>37</ele>
        <time>2017-09-25T01:56:53Z</time>
      </trkpt>
      <trkpt lat="47.27287" lon="0.31973">
        <ele>37</ele>
        <time>2017-09-25T01:58:53Z</time>
      </trkpt>
      <trkpt lat="47.27277" lon="0.31934">
        <ele>38</ele>
        <time>2017-09-25T02:00:53Z</time>
      </trkpt>
      <trkpt lat="47.27264" lon="0.31892">
        <ele>37</ele>
        <time>2017-09-25T02:02:53Z</time>
      </trkpt>
      <trkpt lat="47.2726" lon="0.31879">
        <ele>36</ele>
        <time>2017-09-25T02:04:53Z</time>
      </trkpt>
      <trkpt lat="47.27255" lon="0.31867">
        <ele>36</ele>
        <time>2017-09-25T02:06:53Z</time>
      </trkpt>
      <trkpt lat="47.27249" lon="0.3185">
        <ele>35</ele>
        <time>2017-09-25T02:08:53Z</time>
      </trkpt>
      <trkpt lat="47.27243" lon="0.31836">
        <ele>35</ele>
        <time>2017-09-25T02:10:53Z</time>
      </trkpt>
      <trkpt lat="47.2723" lon="0.31809">
        <ele>35</ele>
        <time>2017-09-25T02:12:53Z</time>
      </trkpt>
      <trkpt lat="47.2722" lon="0.31793">
        <ele>36</ele>
        <time>2017-09-25T02:14:53Z</time>
      </trkpt>
      <trkpt lat="47.27212" lon="0.31779">
        <ele>37</ele>
        <time>2017-09-25T02:16:53Z</time>
      </trkpt>
      <trkpt lat="47.27204" lon="0.31764">
        <ele>37</ele>
        <time>2017-09-25T02:18:53Z</time>
      </trkpt>
      <trkpt lat="47.27196" lon="0.31754">
        <ele>38</ele>
        <time>2017-09-25T02:20:53Z</time>
      </trkpt>
      <trkpt lat="47.2719" lon="0.31745">
        <ele>39</ele>
        <time>2017-09-25T02:22:53Z</time>
      </trkpt>
      <trkpt lat="47.27182" lon="0.31734">
        <ele>39</ele>
        <time>2017-09-25T02:24:53Z</time>
      </trkpt>
      <trkpt lat="47.27178" lon="0.31727">
        <ele>39</ele>
        <time>2017-09-25T02:26:53Z</time>
      </trkpt>
      <trkpt lat="47.27163" lon="0.31703">
        <ele>40</ele>
        <time>2017-09-25T02:28:53Z</time>
      </trkpt>
      <trkpt lat="47.27154" lon="0.31691">
        <ele>39</ele>
        <time>2017-09-25T02:30:53Z</time>
      </trkpt>
      <trkpt lat="47.2715" lon="0.31687">
        <ele>39</ele>
        <time>2017-09-25T02:32:53Z</time>
      </trkpt>
      <trkpt lat="47.27144" lon="0.3168">
        <ele>39</ele>
        <time>2017-09-25T02:34:53Z</time>
      </trkpt>
      <trkpt lat="47.27138" lon="0.31676">
        <ele>39</ele>
        <time>2017-09-25T02:36:53Z</time>
      </trkpt>
      <trkpt lat="47.27132" lon="0.31673">
        <ele>39</ele>
        <time>2017-09-25T02:38:53Z</time>
      </trkpt>
      <trkpt lat="47.27124" lon="0.31668">
        <ele>39</ele>
        <time>2017-09-25T02:40:53Z</time>
      </trkpt>
      <trkpt lat="47.27118" lon="0.31664">
        <ele>38</ele>
        <time>2017-09-25T02:42:53Z</time>
      </trkpt>
      <trkpt lat="47.27116" lon="0.31663">
        <ele>38</ele>
        <time>2017-09-25T02:44:53Z</time>
      </trkpt>
      <trkpt lat="47.27109" lon="0.31657">
        <ele>38</ele>
        <time>2017-09-25T02:46:53Z</time>
      </trkpt>
      <trkpt lat="47.27102" lon="0.31652">
        <ele>38</ele>
        <time>2017-09-25T02:48:53Z</time>
      </trkpt>
      <trkpt lat="47.27098" lon="0.31649">
        <ele>38</ele>
        <time>2017-09-25T02:50:53Z</time>
      </trkpt>
      <trkpt lat="47.27093" lon="0.31644">
        <ele>38</ele>
        <time>2017-09-25T02:52:53Z</time>
      </trkpt>
      <trkpt lat="47.27085" lon="0.31635">
        <ele>39</ele>
        <time>2017-09-25T02:54:53Z</time>
      </trkpt>
      <trkpt lat="47.27069" lon="0.31616">
        <ele>39</ele>
        <time>2017-09-25T02:56:53Z</time>
      </trkpt>
      <trkpt lat="47.27032" lon="0.3156">
        <ele>38</ele>
        <time>2017-09-25T02:58:53Z</time>
      </trkpt>
      <trkpt lat="47.2703" lon="0.31557">
        <ele>38</ele>
        <time>2017-09-25T03:00:53Z</time>
      </trkpt>
      <trkpt lat="47.27011" lon="0.31528">
        <ele>38</ele>
        <time>2017-09-25T03:02:53Z</time>
      </trkpt>
      <trkpt lat="47.26997" lon="0.31504">
        <ele>38</ele>
        <time>2017-09-25T03:04:53Z</time>
      </trkpt>
      <trkpt lat="47.26992" lon="0.31495">
        <ele>38</ele>
        <time>2017-09-25T03:06:53Z</time>
      </trkpt>
      <trkpt lat="47.26983" lon="0.31471">
        <ele>37</ele>
        <time>2017-09-25T03:08:53Z</time>
      </trkpt>
      <trkpt lat="47.26979" lon="0.31459">
        <ele>37</ele>
        <time>2017-09-25T03:10:53Z</time>
      </trkpt>
      <trkpt lat="47.26975" lon="0.31447">
        <ele>36</ele>
        <time>2017-09-25T03:12:53Z</time>
      </trkpt>
      <trkpt lat="47.26971" lon="0.31433">
        <ele>36</ele>
        <time>2017-09-25T03:14:53Z</time>
      </trkpt>
      <trkpt lat="47.26968" lon="0.31425">
        <ele>36</ele>
        <time>2017-09-25T03:16:53Z</time>
      </trkpt>
      <trkpt lat="47.26964" lon="0.31417">
        <ele>36</ele>
        <time>2017-09-25T03:18:53Z</time>
      </trkpt>
      <trkpt lat="47.2696" lon="0.31409">
        <ele>36</ele>
        <time>2017-09-25T03:20:53Z</time>
      </trkpt>
      <trkpt lat="47.26955" lon="0.31402">
        <ele>36</ele>
        <time>2017-09-25T03:22:53Z</time>
      </trkpt>
      <trkpt lat="47.26949" lon="0.31393">
        <ele>37</ele>
        <time>2017-09-25T03:24:53Z</time>
      </trkpt>
      <trkpt lat="47.26944" lon="0.31386">
        <ele>37</ele>
        <time>2017-09-25T03:26:53Z</time>
      </trkpt>
      <trkpt lat="47.26938" lon="0.3138">
        <ele>37</ele>
        <time>2017-09-25T03:28:53Z</time>
      </trkpt>
      <trkpt lat="47.26932" lon="0.31373">
        <ele>37</ele>
        <time>2017-09-25T03:30:53Z</time>
      </trkpt>
      <trkpt lat="47.26926" lon="0.31366">
        <ele>37</ele>
        <time>2017-09-25T03:32:53Z</time>
      </trkpt>
      <trkpt lat="47.2692" lon="0.31357">
        <ele>37</ele>
        <time>2017-09-25T03:34:53Z</time>
      </trkpt>
      <trkpt lat="47.26916" lon="0.31349">
        <ele>37</ele>
        <time>2017-09-25T03:36:53Z</time>
      </trkpt>
      <trkpt lat="47.26914" lon="0.31344">
        <ele>37</ele>
        <time>2017-09-25T03:38:53Z</time>
      </trkpt>
      <trkpt lat="47.26909" lon="0.31331">
        <ele>37</ele>
        <time>2017-09-25T03:40:53Z</time>
      </trkpt>
      <trkpt lat="47.26904" lon="0.31319">
        <ele>37</ele>
        <time>2017-09-25T03:42:53Z</time>
      </trkpt>
      <trkpt lat="47.269" lon="0.31308">
        <ele>37</ele>
        <time>2017-09-25T03:44:53Z</time>
      </trkpt>
      <trkpt lat="47.26895" lon="0.31298">
        <ele>37</ele>
        <time>2017-09-25T03:46:53Z</time>
      </trkpt>
      <trkpt lat="47.26891" lon="0.31287">
        <ele>37</ele>
        <time>2017-09-25T03:48:53Z</time>
      </trkpt>
      <trkpt lat="47.26886" lon="0.31276">
        <ele>37</ele>
        <time>2017-09-25T03:50:53Z</time>
      </trkpt>
      <trkpt lat="47.26882" lon="0.31265">
        <ele>37</ele>
        <time>2017-09-25T03:52:53Z</time>
      </trkpt>
      <trkpt lat="47.26878" lon="0.31254">
        <ele>37</ele>
        <time>2017-09-25T03:54:53Z</time>
      </trkpt>
      <trkpt lat="47.26875" lon="0.31244">
        <ele>37</ele>
        <time>2017-09-25T03:56:53Z</time>
      </trkpt>
      <trkpt lat="47.26872" lon="0.31233">
        <ele>37</ele>
        <time>2017-09-25T03:58:53Z</time>
      </trkpt>
      <trkpt lat="47.26868" lon="0.31213">
        <ele>36</ele>
        <time>2017-09-25T04:00:53Z</time>
      </trkpt>
      <trkpt lat="47.26864" lon="0.31196">
        <ele>36</ele>
        <time>2017-09-25T04:02:53Z</time>
      </trkpt>
      <trkpt lat="47.2686" lon="0.31178">
        <ele>36</ele>
        <time>2017-09-25T04:04:53Z</time>
      </trkpt>
      <trkpt lat="47.26856" lon="0.3116">
        <ele>36</ele>
        <time>2017-09-25T04:06:53Z</time>
      </trkpt>
      <trkpt lat="47.26849" lon="0.31141">
        <ele>37</ele>
        <time>2017-09-25T04:08:53Z</time>
      </trkpt>
      <trkpt lat="47.26821" lon="0.31075">
        <ele>38</ele>
        <time>2017-09-25T04:10:53Z</time>
      </trkpt>
      <trkpt lat="47.26806" lon="0.31041">
        <ele>38</ele>
        <time>2017-09-25T04:12:53Z</time>
      </trkpt>
      <trkpt lat="47.26785" lon="0.30993">
        <ele>38</ele>
        <time>2017-09-25T04:14:53Z</time>
      </trkpt>
      <trkpt lat="47.26776" lon="0.3098">
        <ele>38</ele>
        <time>2017-09-25T04:16:53Z</time>
      </trkpt>
      <trkpt lat="47.26772" lon="0.30974">
        <ele>37</ele>
        <time>2017-09-25T04:18:53Z</time>
      </trkpt>
      <trkpt lat="47.26761" lon="0.30962">
        <ele>37</ele>
        <time>2017-09-25T04:20:53Z</time>
      </trkpt>
      <trkpt lat="47.26741" lon="0.30937">
        <ele>37</ele>
        <time>2017-09-25T04:22:53Z</time>
      </trkpt>
      <trkpt lat="47.26712" lon="0.30894">
        <ele>36</ele>
        <time>2017-09-25T04:24:53Z</time>
      </trkpt>
      <trkpt lat="47.26684" lon="0.30846">
        <ele>36</ele>
        <time>2017-09-25T04:26:53Z</time>
      </trkpt>
      <trkpt lat="47.26667" lon="0.30818">
        <ele>37</ele>
        <time>2017-09-25T04:28:53Z</time>
      </trkpt>
      <trkpt lat="47.26661" lon="0.30808">
        <ele>37</ele>
        <time>2017-09-25T04:30:53Z</time>
      </trkpt>
      <trkpt lat="47.26654" lon="0.30795">
        <ele>37</ele>
        <time>2017-09-25T04:32:53Z</time>
      </trkpt>
      <trkpt lat="47.26633" lon="0.30757">
        <ele>37</ele>
        <time>2017-09-25T04:34:53Z</time>
      </trkpt>
      <trkpt lat="47.26628" lon="0.30748">
        <ele>37</ele>
        <time>2017-09-25T04:36:53Z</time>
      </trkpt>
      <trkpt lat="47.26623" lon="0.30737">
        <ele>37</ele>
        <time>2017-09-25T04:38:53Z</time>
      </trkpt>
      <trkpt lat="47.26618" lon="0.30724">
        <ele>36</ele>
        <time>2017-09-25T04:40:53Z</time>
      </trkpt>
      <trkpt lat="47.26614" lon="0.30713">
        <ele>36</ele>
        <time>2017-09-25T04:42:53Z</time>
      </trkpt>
      <trkpt lat="47.2661" lon="0.30703">
        <ele>36</ele>
        <time>2017-09-25T04:44:53Z</time>
      </trkpt>
      <trkpt lat="47.26596" lon="0.30664">
        <ele>37</ele>
        <time>2017-09-25T04:46:53Z</time>
      </trkpt>
      <trkpt lat="47.26586" lon="0.3063">
        <ele>37</ele>
        <time>2017-09-25T04:48:53Z</time>
      </trkpt>
      <trkpt lat="47.26573" lon="0.30583">
        <ele>37</ele>
        <time>2017-09-25T04:50:53Z</time>
      </trkpt>
      <trkpt lat="47.26547" lon="0.30496">
        <ele>37</ele>
        <time>2017-09-25T04:52:53Z</time>
      </trkpt>
      <trkpt lat="47.26539" lon="0.30475">
        <ele>37</ele>
        <time>2017-09-25T04:54:53Z</time>
      </trkpt>
      <trkpt lat="47.26532" lon="0.30459">
        <ele>37</ele>
        <time>2017-09-25T04:56:53Z</time>
      </trkpt>
      <trkpt lat="47.26511" lon="0.30419">
        <ele>37</ele>
        <time>2017-09-25T04:58:53Z</time>
      </trkpt>
      <trkpt lat="47.26482" lon="0.30368">
        <ele>34</ele>
        <time>2017-09-25T05:00:53Z</time>
      </trkpt>
      <trkpt lat="47.26466" lon="0.30333">
        <ele>32</ele>
        <time>2017-09-25T05:02:53Z</time>
      </trkpt>
      <trkpt lat="47.26455" lon="0.30301">
        <ele>33</ele>
        <time>2017-09-25T05:04:53Z</time>
      </trkpt>
      <trkpt lat="47.26443" lon="0.30254">
        <ele>35</ele>
        <time>2017-09-25T05:06:53Z</time>
      </trkpt>
      <trkpt lat="47.26433" lon="0.30213">
        <ele>35</ele>
        <time>2017-09-25T05:08:53Z</time>
      </trkpt>
      <trkpt lat="47.26417" lon="0.30128">
        <ele>35</ele>
        <time>2017-09-25T05:10:53Z</time>
      </trkpt>
      <trkpt lat="47.26411" lon="0.30082">
        <ele>36</ele>
        <time>2017-09-25T05:12:53Z</time>
      </trkpt>
      <trkpt lat="47.26409" lon="0.30063">
        <ele>36</ele>
        <time>2017-09-25T05:14:53Z</time>
      </trkpt>
      <trkpt lat="47.26408" lon="0.30042">
        <ele>37</ele>
        <time>2017-09-25T05:16:53Z</time>
      </trkpt>
      <trkpt lat="47.26407" lon="0.29995">
        <ele>38</ele>
        <time>2017-09-25T05:18:53Z</time>
      </trkpt>
      <trkpt lat="47.26406" lon="0.29957">
        <ele>38</ele>
        <time>2017-09-25T05:20:53Z</time>
      </trkpt>
      <trkpt lat="47.26405" lon="0.29942">
        <ele>37</ele>
        <time>2017-09-25T05:22:53Z</time>
      </trkpt>
      <trkpt lat="47.26401" lon="0.29929">
        <ele>37</ele>
        <time>2017-09-25T05:24:53Z</time>
      </trkpt>
      <trkpt lat="47.2639" lon="0.29901">
        <ele>36</ele>
        <time>2017-09-25T05:26:53Z</time>
      </trkpt>
      <trkpt lat="47.26386" lon="0.29893">
        <ele>36</ele>
        <time>2017-09-25T05:28:53Z</time>
      </trkpt>
      <trkpt lat="47.26377" lon="0.2987">
        <ele>35</ele>
        <time>2017-09-25T05:30:53Z</time>
      </trkpt>
      <trkpt lat="47.26342" lon="0.29789">
        <ele>34</ele>
        <time>2017-09-25T05:32:53Z</time>
      </trkpt>
      <trkpt lat="47.26333" lon="0.29771">
        <ele>34</ele>
        <time>2017-09-25T05:34:53Z</time>
      </trkpt>
      <trkpt lat="47.26326" lon="0.29738">
        <ele>34</ele>
        <time>2017-09-25T05:36:53Z</time>
      </trkpt>
      <trkpt lat="47.26318" lon="0.29697">
        <ele>33</ele>
        <time>2017-09-25T05:38:53Z</time>
      </trkpt>
      <trkpt lat="47.26316" lon="0.29681">
        <ele>33</ele>
        <time>2017-09-25T05:40:53Z</time>
      </trkpt>
      <trkpt lat="47.26315" lon="0.2966">
        <ele>33</ele>
        <time>2017-09-25T05:42:53Z</time>
      </trkpt>
      <trkpt lat="47.26316" lon="0.29597">
        <ele>34</ele>
        <time>2017-09-25T05:44:53Z</time>
      </trkpt>
      <trkpt lat="47.26317" lon="0.29554">
        <ele>34</ele>
        <time>2017-09-25T05:46:53Z</time>
      </trkpt>
      <trkpt lat="47.26315" lon="0.29531">
        <ele>33</ele>
        <time>2017-09-25T05:48:53Z</time>
      </trkpt>
      <trkpt lat="47.26312" lon="0.29516">
        <ele>33</ele>
        <time>2017-09-25T05:50:53Z</time>
      </trkpt>
      <trkpt lat="47.2631" lon="0.29501">
        <ele>33</ele>
        <time>2017-09-25T05:52:53Z</time>
      </trkpt>
      <trkpt lat="47.26301" lon="0.29469">
        <ele>34</ele>
        <time>2017-09-25T05:54:53Z</time>
      </trkpt>
      <trkpt lat="47.26283" lon="0.29415">
        <ele>34</ele>
        <time>2017-09-25T05:56:53Z</time>
      </trkpt>
      <trkpt lat="47.26274" lon="0.2938">
        <ele>34</ele>
        <time>2017-09-25T05:58:53Z</time>
      </trkpt>
      <trkpt lat="47.26265" lon="0.29338">
        <ele>35</ele>
        <time>2017-09-25T06:00:53Z</time>
      </trkpt>
      <trkpt lat="47.2626" lon="0.29312">
        <ele>35</ele>
        <time>2017-09-25T06:02:53Z</time>
      </trkpt>
      <trkpt lat="47.26255" lon="0.29296">
        <ele>36</ele>
        <time>2017-09-25T06:04:53Z</time>
      </trkpt>
      <trkpt lat="47.26251" lon="0.29282">
        <ele>36</ele>
        <time>2017-09-25T06:06:53Z</time>
      </trkpt>
      <trkpt lat="47.26239" lon="0.29248">
        <ele>37</ele>
        <time>2017-09-25T06:08:53Z</time>
      </trkpt>
      <trkpt lat="47.26224" lon="0.29204">
        <ele>37</ele>
        <time>2017-09-25T06:10:53Z</time>
      </trkpt>
      <trkpt lat="47.26214" lon="0.29167">
        <ele>37</ele>
        <time>2017-09-25T06:12:53Z</time>
      </trkpt>
      <trkpt lat="47.26197" lon="0.29098">
        <ele>38</ele>
        <time>2017-09-25T06:14:53Z</time>
      </trkpt>
      <trkpt lat="47.26174" lon="0.28993">
        <ele>37</ele>
        <time>2017-09-25T06:16:53Z</time>
      </trkpt>
      <trkpt lat="47.26164" lon="0.28948">
        <ele>37</ele>
        <time>2017-09-25T06:18:53Z</time>
      </trkpt>
      <trkpt lat="47.26161" lon="0.28935">
        <ele>37</ele>
        <time>2017-09-25T06:20:53Z</time>
      </trkpt>
      <trkpt lat="47.26154" lon="0.28911">
        <ele>37</ele>
        <time>2017-09-25T06:22:53Z</time>
      </trkpt>
      <trkpt lat="47.26151" lon="0.289">
        <ele>37</ele>
        <time>2017-09-25T06:24:53Z</time>
      </trkpt>
      <trkpt lat="47.26146" lon="0.28882">
        <ele>37</ele>
        <time>2017-09-25T06:26:53Z</time>
      </trkpt>
      <trkpt lat="47.26142" lon="0.28868">
        <ele>37</ele>
        <time>2017-09-25T06:28:53Z</time>
      </trkpt>
      <trkpt lat="47.2614" lon="0.28858">
        <ele>37</ele>
        <time>2017-09-25T06:30:53Z</time>
      </trkpt>
      <trkpt lat="47.26135" lon="0.28835">
        <ele>37</ele>
        <time>2017-09-25T06:32:53Z</time>
      </trkpt>
      <trkpt lat="47.26123" lon="0.28774">
        <ele>37</ele>
        <time>2017-09-25T06:34:53Z</time>
      </trkpt>
      <trkpt lat="47.26123" lon="0.28774">
        <ele>37</ele>
        <time>2017-09-25T06:36:53Z</time>
      </trkpt>
      <trkpt lat="47.26116" lon="0.28774">
        <ele>37</ele>
        <time>2017-09-25T06:38:53Z</time>
      </trkpt>
      <trkpt lat="47.26114" lon="0.28774">
        <ele>37</ele>
        <time>2017-09-25T06:40:53Z</time>
      </trkpt>
      <trkpt lat="47.26108" lon="0.28775">
        <ele>37</ele>
        <time>2017-09-25T06:42:53Z</time>
      </trkpt>
      <trkpt lat="47.26103" lon="0.28776">
        <ele>36</ele>
        <time>2017-09-25T06:44:53Z</time>
      </trkpt>
      <trkpt lat="47.26066" lon="0.28787">
        <ele>36</ele>
        <time>2017-09-25T06:46:53Z</time>
      </trkpt>
      <trkpt lat="47.26025" lon="0.28798">
        <ele>35</ele>
        <time>2017-09-25T06:48:53Z</time>
      </trkpt>
      <trkpt lat="47.25868" lon="0.28841">
        <ele>34</ele>
        <time>2017-09-25T06:50:53Z</time>
      </trkpt>
      <trkpt lat="47.25863" lon="0.28842">
        <ele>34</ele>
        <time>2017-09-25T06:52:53Z</time>
      </trkpt>
      <trkpt lat="47.25859" lon="0.28843">
        <ele>34</ele>
        <time>2017-09-25T06:54:53Z</time>
      </trkpt>
      <trkpt lat="47.25797" lon="0.28863">
        <ele>34</ele>
        <time>2017-09-25T06:56:53Z</time>
      </trkpt>
      <trkpt lat="47.25793" lon="0.28864">
        <ele>34</ele>
        <time>2017-09-25T06:58:53Z</time>
      </trkpt>
      <trkpt lat="47.25732" lon="0.28884">
        <ele>34</ele>
        <time>2017-09-25T07:00:53Z</time>
      </trkpt>
      <trkpt lat="47.25725" lon="0.28886">
        <ele>34</ele>
        <time>2017-09-25T07:02:53Z</time>
      </trkpt>
      <trkpt lat="47.25716" lon="0.28888">
        <ele>34</ele>
        <time>2017-09-25T07:04:53Z</time>
      </trkpt>
      <trkpt lat="47.25709" lon="0.28891">
        <ele>34</ele>
        <time>2017-09-25T07:06:53Z</time>
      </trkpt>
      <trkpt lat="47.25658" lon="0.28907">
        <ele>35</ele>
        <time>2017-09-25T07:08:53Z</time>
      </trkpt>
      <trkpt lat="47.25604" lon="0.28923">
        <ele>34</ele>
        <time>2017-09-25T07:10:53Z</time>
      </trkpt>
      <trkpt lat="47.25553" lon="0.28939">
        <ele>34</ele>
        <time>2017-09-25T07:12:53Z</time>
      </trkpt>
      <trkpt lat="47.25545" lon="0.28942">
        <ele>34</ele>
        <time>2017-09-25T07:14:53Z</time>
      </trkpt>
      <trkpt lat="47.25535" lon="0.28945">
        <ele>34</ele>
        <time>2017-09-25T07:16:53Z</time>
      </trkpt>
      <trkpt lat="47.2552" lon="0.2895">
        <ele>35</ele>
        <time>2017-09-25T07:18:53Z</time>
      </trkpt>
      <trkpt lat="47.25514" lon="0.28952">
        <ele>35</ele>
        <time>2017-09-25T07:20:53Z</time>
      </trkpt>
      <trkpt lat="47.2543" lon="0.28978">
        <ele>33</ele>
        <time>2017-09-25T07:22:53Z</time>
      </trkpt>
      <trkpt lat="47.25401" lon="0.28987">
        <ele>33</ele>
        <time>2017-09-25T07:24:53Z</time>
      </trkpt>
      <trkpt lat="47.25386" lon="0.28991">
        <ele>33</ele>
        <time>2017-09-25T07:26:53Z</time>
      </trkpt>
      <trkpt lat="47.25194" lon="0.2905">
        <ele>35</ele>
        <time>2017-09-25T07:28:53Z</time>
      </trkpt>
      <trkpt lat="47.25122" lon="0.29073">
        <ele>37</ele>
        <time>2017-09-25T07:30:53Z</time>
      </trkpt>
      <trkpt lat="47.25107" lon="0.29078">
        <ele>37</ele>
        <time>2017-09-25T07:32:53Z</time>
      </trkpt>
      <trkpt lat="47.251" lon="0.2908">
        <ele>37</ele>
        <time>2017-09-25T07:34:53Z</time>
      </trkpt>
      <trkpt lat="47.25088" lon="0.29084">
        <ele>38</ele>
        <time>2017-09-25T07:36:53Z</time>
      </trkpt>
      <trkpt lat="47.25085" lon="0.29084">
        <ele>38</ele>
        <time>2017-09-25T07:38:53Z</time>
      </trkpt>
      <trkpt lat="47.25074" lon="0.29088">
        <ele>40</ele>
        <time>2017-09-25T07:40:53Z</time>
      </trkpt>
      <trkpt lat="47.25062" lon="0.29092">
        <ele>43</ele>
        <time>2017-09-25T07:42:53Z</time>
      </trkpt>
      <trkpt lat="47.25059" lon="0.29092">
        <ele>44</ele>
        <time>2017-09-25T07:44:53Z</time>
      </trkpt>
      <trkpt lat="47.25053" lon="0.29094">
        <ele>45</ele>
        <time>2017-09-25T07:46:53Z</time>
      </trkpt>
      <trkpt lat="47.25039" lon="0.29099">
        <ele>48</ele>
        <time>2017-09-25T07:48:53Z</time>
      </trkpt>
      <trkpt lat="47.25036" lon="0.29101">
        <ele>49</ele>
        <time>2017-09-25T07:50:53Z</time>
      </trkpt>
      <trkpt lat="47.25036" lon="0.29103">
        <ele>49</ele>
        <time>2017-09-25T07:52:53Z</time>
      </trkpt>
      <trkpt lat="47.25036" lon="0.29106">
        <ele>49</ele>
        <time>2017-09-25T07:54:53Z</time>
      </trkpt>
      <trkpt lat="47.25041" lon="0.2915">
        <ele>49</ele>
        <time>2017-09-25T07:56:53Z</time>
      </trkpt>
      <trkpt lat="47.25042" lon="0.29154">
        <ele>49</ele>
        <time>2017-09-25T07:58:53Z</time>
      </trkpt>
      <trkpt lat="47.25042" lon="0.29156">
        <ele>49</ele>
        <time>2017-09-25T08:00:53Z</time>
      </trkpt>
      <trkpt lat="47.25041" lon="0.29157">
        <ele>49</ele>
        <time>2017-09-25T08:02:53Z</time>
      </trkpt>
      <trkpt lat="47.25041" lon="0.29158">
        <ele>49</ele>
        <time>2017-09-25T08:04:53Z</time>
      </trkpt>
      <trkpt lat="47.2504" lon="0.29158">
        <ele>49</ele>
        <time>2017-09-25T08:06:53Z</time>
      </trkpt>
      <trkpt lat="47.25037" lon="0.29159">
        <ele>50</ele>
        <time>2017-09-25T08:08:53Z</time>
      </trkpt>
      <trkpt lat="47.25037" lon="0.29159">
        <ele>50</ele>
        <time>2017-09-25T08:10:53Z</time>
      </trkpt>
      <trkpt lat="47.2504" lon="0.29158">
        <ele>49</ele>
        <time>2017-09-25T08:12:53Z</time>
      </trkpt>
      <trkpt lat="47.25041" lon="0.29158">
        <ele>49</ele>
        <time>2017-09-25T08:14:53Z</time>
      </trkpt>
      <trkpt lat="47.25041" lon="0.29157">
        <ele>49</ele>
        <time>2017-09-25T08:16:53Z</time>
      </trkpt>
      <trkpt lat="47.25042" lon="0.29156">
        <ele>49</ele>
        <time>2017-09-25T08:18:53Z</time>
      </trkpt>
      <trkpt lat="47.25042" lon="0.29154">
        <ele>49</ele>
        <time>2017-09-25T08:20:53Z</time>
      </trkpt>
      <trkpt lat="47.25041" lon="0.2915">
        <ele>49</ele>
        <time>2017-09-25T08:22:53Z</time>
      </trkpt>
      <trkpt lat="47.25036" lon="0.29106">
        <ele>49</ele>
        <time>2017-09-25T08:24:53Z</time>
      </trkpt>
      <trkpt lat="47.25036" lon="0.29103">
        <ele>49</ele>
        <time>2017-09-25T08:26:53Z</time>
      </trkpt>
      <trkpt lat="47.25036" lon="0.29101">
        <ele>49</ele>
        <time>2017-09-25T08:28:53Z</time>
      </trkpt>
      <trkpt lat="47.25039" lon="0.29099">
        <ele>48</ele>
        <time>2017-09-25T08:30:53Z</time>
      </trkpt>
      <trkpt lat="47.25053" lon="0.29094">
        <ele>45</ele>
        <time>2017-09-25T08:32:53Z</time>
      </trkpt>
      <trkpt lat="47.25053" lon="0.29094">
        <ele>45</ele>
        <time>2017-09-25T08:34:53Z</time>
      </trkpt>
      <trkpt lat="47.25058" lon="0.29121">
        <ele>45</ele>
        <time>2017-09-25T08:36:53Z</time>
      </trkpt>
      <trkpt lat="47.25075" lon="0.29199">
        <ele>43</ele>
        <time>2017-09-25T08:38:53Z</time>
      </trkpt>
      <trkpt lat="47.2508" lon="0.29221">
        <ele>43</ele>
        <time>2017-09-25T08:40:53Z</time>
      </trkpt>
      <trkpt lat="47.25083" lon="0.29232">
        <ele>43</ele>
        <time>2017-09-25T08:42:53Z</time>
      </trkpt>
      <trkpt lat="47.25084" lon="0.29238">
        <ele>43</ele>
        <time>2017-09-25T08:44:53Z</time>
      </trkpt>
      <trkpt lat="47.25084" lon="0.29243">
        <ele>43</ele>
        <time>2017-09-25T08:46:53Z</time>
      </trkpt>
      <trkpt lat="47.25085" lon="0.29245">
        <ele>43</ele>
        <time>2017-09-25T08:48:53Z</time>
      </trkpt>
      <trkpt lat="47.25085" lon="0.29247">
        <ele>43</ele>
        <time>2017-09-25T08:50:53Z</time>
      </trkpt>
      <trkpt lat="47.25085" lon="0.29249">
        <ele>43</ele>
        <time>2017-09-25T08:52:53Z</time>
      </trkpt>
      <trkpt lat="47.25085" lon="0.29251">
        <ele>43</ele>
        <time>2017-09-25T08:54:53Z</time>
      </trkpt>
      <trkpt lat="47.25085" lon="0.29254">
        <ele>43</ele>
        <time>2017-09-25T08:56:53Z</time>
      </trkpt>
      <trkpt lat="47.25085" lon="0.29257">
        <ele>43</ele>
        <time>2017-09-25T08:58:53Z</time>
      </trkpt>
      <trkpt lat="47.25085" lon="0.2926">
        <ele>43</ele>
        <time>2017-09-25T09:00:53Z</time>
      </trkpt>
      <trkpt lat="47.25085" lon="0.29263">
        <ele>42</ele>
        <time>2017-09-25T09:02:53Z</time>
      </trkpt>
      <trkpt lat="47.25082" lon="0.29293">
        <ele>42</ele>
        <time>2017-09-25T09:04:53Z</time>
      </trkpt>
      <trkpt lat="47.2508" lon="0.29302">
        <ele>42</ele>
        <time>2017-09-25T09:06:53Z</time>
      </trkpt>
      <trkpt lat="47.2508" lon="0.29304">
        <ele>42</ele>
        <time>2017-09-25T09:08:53Z</time>
      </trkpt>
      <trkpt lat="47.2508" lon="0.29308">
        <ele>42</ele>
        <time>2017-09-25T09:10:53Z</time>
      </trkpt>
      <trkpt lat="47.25079" lon="0.29322">
        <ele>42</ele>
        <time>2017-09-25T09:12:53Z</time>
      </trkpt>
      <trkpt lat="47.25081" lon="0.2934">
        <ele>41</ele>
        <time>2017-09-25T09:14:53Z</time>
      </trkpt>
      <trkpt lat="47.25094" lon="0.29399">
        <ele>43</ele>
        <time>2017-09-25T09:16:53Z</time>
      </trkpt>
      <trkpt lat="47.25104" lon="0.29439">
        <ele>44</ele>
        <time>2017-09-25T09:18:53Z</time>
      </trkpt>
      <trkpt lat="47.25107" lon="0.29449">
        <ele>44</ele>
        <time>2017-09-25T09:20:53Z</time>
      </trkpt>
      <trkpt lat="47.25109" lon="0.2946">
        <ele>45</ele>
        <time>2017-09-25T09:22:53Z</time>
      </trkpt>
      <trkpt lat="47.25111" lon="0.29468">
        <ele>45</ele>
        <time>2017-09-25T09:24:53Z</time>
      </trkpt>
      <trkpt lat="47.25113" lon="0.29481">
        <ele>45</ele>
        <time>2017-09-25T09:26:53Z</time>
      </trkpt>
      <trkpt lat="47.25116" lon="0.29498">
        <ele>45</ele>
        <time>2017-09-25T09:28:53Z</time>
      </trkpt>
      <trkpt lat="47.25119" lon="0.29513">
        <ele>46</ele>
        <time>2017-09-25T09:30:53Z</time>
      </trkpt>
      <trkpt lat="47.25124" lon="0.29535">
        <ele>46</ele>
        <time>2017-09-25T09:32:53Z</time>
      </trkpt>
      <trkpt lat="47.25126" lon="0.29542">
        <ele>46</ele>
        <time>2017-09-25T09:34:53Z</time>
      </trkpt>
      <trkpt lat="47.25133" lon="0.29566">
        <ele>46</ele>
        <time>2017-09-25T09:36:53Z</time>
      </trkpt>
      <trkpt lat="47.25144" lon="0.29612">
        <ele>45</ele>
        <time>2017-09-25T09:38:53Z</time>
      </trkpt>
      <trkpt lat="47.25146" lon="0.29617">
        <ele>45</ele>
        <time>2017-09-25T09:40:53Z</time>
      </trkpt>
      <trkpt lat="47.25152" lon="0.29645">
        <ele>44</ele>
        <time>2017-09-25T09:42:53Z</time>
      </trkpt>
      <trkpt lat="47.25153" lon="0.2965">
        <ele>44</ele>
        <time>2017-09-25T09:44:53Z</time>
      </trkpt>
      <trkpt lat="47.25162" lon="0.29692">
        <ele>42</ele>
        <time>2017-09-25T09:46:53Z</time>
      </trkpt>
      <trkpt lat="47.25165" lon="0.29702">
        <ele>41</ele>
        <time>2017-09-25T09:48:53Z</time>
      </trkpt>
      <trkpt lat="47.25168" lon="0.29711">
        <ele>41</ele>
        <time>2017-09-25T09:50:53Z</time>
      </trkpt>
      <trkpt lat="47.25171" lon="0.29725">
        <ele>41</ele>
        <time>2017-09-25T09:52:53Z</time>
      </trkpt>
      <trkpt lat="47.25181" lon="0.29761">
        <ele>42</ele>
        <time>2017-09-25T09:54:53Z</time>
      </trkpt>
      <trkpt lat="47.25193" lon="0.29793">
        <ele>42</ele>
        <time>2017-09-25T09:56:53Z</time>
      </trkpt>
      <trkpt lat="47.25194" lon="0.29796">
        <ele>42</ele>
        <time>2017-09-25T09:58:53Z</time>
      </trkpt>
      <trkpt lat="47.25195" lon="0.29798">
        <ele>42</ele>
        <time>2017-09-25T10:00:53Z</time>
      </trkpt>
      <trkpt lat="47.25204" lon="0.29824">
        <ele>43</ele>
        <time>2017-09-25T10:02:53Z</time>
      </trkpt>
      <trkpt lat="47.25209" lon="0.29838">
        <ele>43</ele>
        <time>2017-09-25T10:04:53Z</time>
      </trkpt>
      <trkpt lat="47.25216" lon="0.2986">
        <ele>43</ele>
        <time>2017-09-25T10:06:53Z</time>
      </trkpt>
      <trkpt lat="47.25218" lon="0.29865">
        <ele>43</ele>
        <time>2017-09-25T10:08:53Z</time>
      </trkpt>
      <trkpt lat="47.25229" lon="0.29901">
        <ele>42</ele>
        <time>2017-09-25T10:10:53Z</time>
      </trkpt>
      <trkpt lat="47.25245" lon="0.2995">
        <ele>41</ele>
        <time>2017-09-25T10:12:53Z</time>
      </trkpt>
      <trkpt lat="47.25252" lon="0.29977">
        <ele>40</ele>
        <time>2017-09-25T10:14:53Z</time>
      </trkpt>
      <trkpt lat="47.25254" lon="0.29983">
        <ele>40</ele>
        <time>2017-09-25T10:16:53Z</time>
      </trkpt>
      <trkpt lat="47.25265" lon="0.3002">
        <ele>40</ele>
        <time>2017-09-25T10:18:53Z</time>
      </trkpt>
      <trkpt lat="47.25275" lon="0.30056">
        <ele>41</ele>
        <time>2017-09-25T10:20:53Z</time>
      </trkpt>
      <trkpt lat="47.25278" lon="0.30065">
        <ele>41</ele>
        <time>2017-09-25T10:22:53Z</time>
      </trkpt>
      <trkpt lat="47.25285" lon="0.30094">
        <ele>41</ele>
        <time>2017-09-25T10:24:53Z</time>
      </trkpt>
      <trkpt lat="47.25292" lon="0.30119">
        <ele>43</ele>
        <time>2017-09-25T10:26:53Z</time>
      </trkpt>
      <trkpt lat="47.25306" lon="0.30168">
        <ele>43</ele>
        <time>2017-09-25T10:28:53Z</time>
      </trkpt>
      <trkpt lat="47.25315" lon="0.30201">
        <ele>43</ele>
        <time>2017-09-25T10:30:53Z</time>
      </trkpt>
      <trkpt lat="47.25322" lon="0.30224">
        <ele>42</ele>
        <time>2017-09-25T10:32:53Z</time>
      </trkpt>
      <trkpt lat="47.25337" lon="0.30275">
        <ele>41</ele>
        <time>2017-09-25T10:34:53Z</time>
      </trkpt>
      <trkpt lat="47.25344" lon="0.30304">
        <ele>42</ele>
        <time>2017-09-25T10:36:53Z</time>
      </trkpt>
      <trkpt lat="47.25359" lon="0.30351">
        <ele>45</ele>
        <time>2017-09-25T10:38:53Z</time>
      </trkpt>
      <trkpt lat="47.25365" lon="0.30376">
        <ele>46</ele>
        <time>2017-09-25T10:40:53Z</time>
      </trkpt>
      <trkpt lat="47.25372" lon="0.30402">
        <ele>48</ele>
        <time>2017-09-25T10:42:53Z</time>
      </trkpt>
      <trkpt lat="47.25375" lon="0.30416">
        <ele>48</ele>
        <time>2017-09-25T10:44:53Z</time>
      </trkpt>
      <trkpt lat="47.25387" lon="0.30465">
        <ele>49</ele>
        <time>2017-09-25T10:46:53Z</time>
      </trkpt>
      <trkpt lat="47.25389" lon="0.3047">
        <ele>49</ele>
        <time>2017-09-25T10:48:53Z</time>
      </trkpt>
      <trkpt lat="47.25392" lon="0.30484">
        <ele>48</ele>
        <time>2017-09-25T10:50:53Z</time>
      </trkpt>
      <trkpt lat="47.254" lon="0.30523">
        <ele>48</ele>
        <time>2017-09-25T10:52:53Z</time>
      </trkpt>
      <trkpt lat="47.25402" lon="0.30537">
        <ele>49</ele>
        <time>2017-09-25T10:54:53Z</time>
      </trkpt>
      <trkpt lat="47.25405" lon="0.30549">
        <ele>48</ele>
        <time>2017-09-25T10:56:53Z</time>
      </trkpt>
      <trkpt lat="47.25406" lon="0.30554">
        <ele>48</ele>
        <time>2017-09-25T10:58:53Z</time>
      </trkpt>
      <trkpt lat="47.25408" lon="0.30568">
        <ele>49</ele>
        <time>2017-09-25T11:00:53Z</time>
      </trkpt>
      <trkpt lat="47.25409" lon="0.3059">
        <ele>50</ele>
        <time>2017-09-25T11:02:53Z</time>
      </trkpt>
      <trkpt lat="47.25411" lon="0.30636">
        <ele>53</ele>
        <time>2017-09-25T11:04:53Z</time>
      </trkpt>
      <trkpt lat="47.25412" lon="0.307">
        <ele>54</ele>
        <time>2017-09-25T11:06:53Z</time>
      </trkpt>
      <trkpt lat="47.25412" lon="0.30705">
        <ele>54</ele>
        <time>2017-09-25T11:08:53Z</time>
      </trkpt>
      <trkpt lat="47.25413" lon="0.30724">
        <ele>53</ele>
        <time>2017-09-25T11:10:53Z</time>
      </trkpt>
      <trkpt lat="47.25413" lon="0.30735">
        <ele>53</ele>
        <time>2017-09-25T11:12:53Z</time>
      </trkpt>
      <trkpt lat="47.25415" lon="0.30776">
        <ele>52</ele>
        <time>2017-09-25T11:14:53Z</time>
      </trkpt>
      <trkpt lat="47.25418" lon="0.30813">
        <ele>51</ele>
        <time>2017-09-25T11:16:53Z</time>
      </trkpt>
      <trkpt lat="47.25421" lon="0.30827">
        <ele>50</ele>
        <time>2017-09-25T11:18:53Z</time>
      </trkpt>
      <trkpt lat="47.25424" lon="0.30846">
        <ele>50</ele>
        <time>2017-09-25T11:20:53Z</time>
      </trkpt>
      <trkpt lat="47.2543" lon="0.30862">
        <ele>48</ele>
        <time>2017-09-25T11:22:53Z</time>
      </trkpt>
      <trkpt lat="47.25435" lon="0.30873">
        <ele>48</ele>
        <time>2017-09-25T11:24:53Z</time>
      </trkpt>
      <trkpt lat="47.2544" lon="0.30882">
        <ele>47</ele>
        <time>2017-09-25T11:26:53Z</time>
      </trkpt>
      <trkpt lat="47.25457" lon="0.30905">
        <ele>45</ele>
        <time>2017-09-25T11:28:53Z</time>
      </trkpt>
      <trkpt lat="47.25471" lon="0.3092">
        <ele>44</ele>
        <time>2017-09-25T11:30:53Z</time>
      </trkpt>
      <trkpt lat="47.25473" lon="0.30922">
        <ele>44</ele>
        <time>2017-09-25T11:32:53Z</time>
      </trkpt>
      <trkpt lat="47.25493" lon="0.30939">
        <ele>43</ele>
        <time>2017-09-25T11:34:53Z</time>
      </trkpt>
      <trkpt lat="47.25506" lon="0.30947">
        <ele>43</ele>
        <time>2017-09-25T11:36:53Z</time>
      </trkpt>
      <trkpt lat="47.25516" lon="0.30953">
        <ele>42</ele>
        <time>2017-09-25T11:38:53Z</time>
      </trkpt>
      <trkpt lat="47.2554" lon="0.30968">
        <ele>41</ele>
        <time>2017-09-25T11:40:53Z</time>
      </trkpt>
      <trkpt lat="47.25544" lon="0.3097">
        <ele>41</ele>
        <time>2017-09-25T11:42:53Z</time>
      </trkpt>
      <trkpt lat="47.25547" lon="0.30972">
        <ele>41</ele>
        <time>2017-09-25T11:44:53Z</time>
      </trkpt>
      <trkpt lat="47.2555" lon="0.30974">
        <ele>41</ele>
        <time>2017-09-25T11:46:53Z</time>
      </trkpt>
      <trkpt lat="47.25573" lon="0.30988">
        <ele>40</ele>
        <time>2017-09-25T11:48:53Z</time>
      </trkpt>
      <trkpt lat="47.25634" lon="0.31026">
        <ele>40</ele>
        <time>2017-09-25T11:50:53Z</time>
      </trkpt>
      <trkpt lat="47.25657" lon="0.3104">
        <ele>39</ele>
        <time>2017-09-25T11:52:53Z</time>
      </trkpt>
      <trkpt lat="47.25666" lon="0.31049">
        <ele>38</ele>
        <time>2017-09-25T11:54:53Z</time>
      </trkpt>
      <trkpt lat="47.2567" lon="0.31053">
        <ele>38</ele>
        <time>2017-09-25T11:56:53Z</time>
      </trkpt>
      <trkpt lat="47.25675" lon="0.31061">
        <ele>38</ele>
        <time>2017-09-25T11:58:53Z</time>
      </trkpt>
      <trkpt lat="47.25685" lon="0.31083">
        <ele>38</ele>
        <time>2017-09-25T12:00:53Z</time>
      </trkpt>
      <trkpt lat="47.257" lon="0.31124">
        <ele>41</ele>
        <time>2017-09-25T12:02:53Z</time>
      </trkpt>
      <trkpt lat="47.25712" lon="0.31151">
        <ele>41</ele>
        <time>2017-09-25T12:04:53Z</time>
      </trkpt>
      <trkpt lat="47.25722" lon="0.31172">
        <ele>40</ele>
        <time>2017-09-25T12:06:53Z</time>
      </trkpt>
      <trkpt lat="47.2574" lon="0.31203">
        <ele>39</ele>
        <time>2017-09-25T12:08:53Z</time>
      </trkpt>
      <trkpt lat="47.2575" lon="0.31225">
        <ele>37</ele>
        <time>2017-09-25T12:10:53Z</time>
      </trkpt>
      <trkpt lat="47.25761" lon="0.31258">
        <ele>38</ele>
        <time>2017-09-25T12:12:53Z</time>
      </trkpt>
      <trkpt lat="47.25776" lon="0.31306">
        <ele>41</ele>
        <time>2017-09-25T12:14:53Z</time>
      </trkpt>
      <trkpt lat="47.25781" lon="0.31322">
        <ele>41</ele>
        <time>2017-09-25T12:16:53Z</time>
      </trkpt>
      <trkpt lat="47.25784" lon="0.31334">
        <ele>42</ele>
        <time>2017-09-25T12:18:53Z</time>
      </trkpt>
      <trkpt lat="47.25788" lon="0.3135">
        <ele>43</ele>
        <time>2017-09-25T12:20:53Z</time>
      </trkpt>
      <trkpt lat="47.258" lon="0.31395">
        <ele>43</ele>
        <time>2017-09-25T12:22:53Z</time>
      </trkpt>
      <trkpt lat="47.25807" lon="0.31425">
        <ele>43</ele>
        <time>2017-09-25T12:24:53Z</time>
      </trkpt>
      <trkpt lat="47.25807" lon="0.31428">
        <ele>43</ele>
        <time>2017-09-25T12:26:53Z</time>
      </trkpt>
      <trkpt lat="47.2582" lon="0.31491">
        <ele>43</ele>
        <time>2017-09-25T12:28:53Z</time>
      </trkpt>
      <trkpt lat="47.25844" lon="0.31591">
        <ele>41</ele>
        <time>2017-09-25T12:30:53Z</time>
      </trkpt>
      <trkpt lat="47.25873" lon="0.31711">
        <ele>47</ele>
        <time>2017-09-25T12:32:53Z</time>
      </trkpt>
      <trkpt lat="47.25877" lon="0.31729">
        <ele>47</ele>
        <time>2017-09-25T12:34:53Z</time>
      </trkpt>
      <trkpt lat="47.2589" lon="0.3178">
        <ele>46</ele>
        <time>2017-09-25T12:36:53Z</time>
      </trkpt>
      <trkpt lat="47.25894" lon="0.31794">
        <ele>46</ele>
        <time>2017-09-25T12:38:53Z</time>
      </trkpt>
      <trkpt lat="47.25903" lon="0.31823">
        <ele>44</ele>
        <time>2017-09-25T12:40:53Z</time>
      </trkpt>
      <trkpt lat="47.25909" lon="0.31843">
        <ele>43</ele>
        <time>2017-09-25T12:42:53Z</time>
      </trkpt>
      <trkpt lat="47.25911" lon="0.31852">
        <ele>42</ele>
        <time>2017-09-25T12:44:53Z</time>
      </trkpt>
      <trkpt lat="47.25918" lon="0.3188">
        <ele>41</ele>
        <time>2017-09-25T12:46:53Z</time>
      </trkpt>
      <trkpt lat="47.25921" lon="0.31893">
        <ele>41</ele>
        <time>2017-09-25T12:48:53Z</time>
      </trkpt>
      <trkpt lat="47.25923" lon="0.31906">
        <ele>41</ele>
        <time>2017-09-25T12:50:53Z</time>
      </trkpt>
      <trkpt lat="47.25927" lon="0.31928">
        <ele>42</ele>
        <time>2017-09-25T12:52:53Z</time>
      </trkpt>
      <trkpt lat="47.25932" lon="0.31948">
        <ele>43</ele>
        <time>2017-09-25T12:54:53Z</time>
      </trkpt>
      <trkpt lat="47.25936" lon="0.31965">
        <ele>44</ele>
        <time>2017-09-25T12:56:53Z</time>
      </trkpt>
      <trkpt lat="47.25941" lon="0.31982">
        <ele>44</ele>
        <time>2017-09-25T12:58:53Z</time>
      </trkpt>
      <trkpt lat="47.25946" lon="0.31999">
        <ele>45</ele>
        <time>2017-09-25T13:00:53Z</time>
      </trkpt>
      <trkpt lat="47.2595" lon="0.32012">
        <ele>45</ele>
        <time>2017-09-25T13:02:53Z</time>
      </trkpt>
      <trkpt lat="47.25951" lon="0.32016">
        <ele>46</ele>
        <time>2017-09-25T13:04:53Z</time>
      </trkpt>
      <trkpt lat="47.25957" lon="0.32034">
        <ele>46</ele>
        <time>2017-09-25T13:06:53Z</time>
      </trkpt>
      <trkpt lat="47.25971" lon="0.32062">
        <ele>45</ele>
        <time>2017-09-25T13:08:53Z</time>
      </trkpt>
      <trkpt lat="47.25979" lon="0.3209">
        <ele>44</ele>
        <time>2017-09-25T13:10:53Z</time>
      </trkpt>
      <trkpt lat="47.25981" lon="0.321">
        <ele>44</ele>
        <time>2017-09-25T13:12:53Z</time>
      </trkpt>
      <trkpt lat="47.25983" lon="0.3211">
        <ele>44</ele>
        <time>2017-09-25T13:14:53Z</time>
      </trkpt>
      <trkpt lat="47.25986" lon="0.32132">
        <ele>45</ele>
        <time>2017-09-25T13:16:53Z</time>
      </trkpt>
      <trkpt lat="47.25988" lon="0.32144">
        <ele>45</ele>
        <time>2017-09-25T13:18:53Z</time>
      </trkpt>
      <trkpt lat="47.2599" lon="0.32161">
        <ele>45</ele>
        <time>2017-09-25T13:20:53Z</time>
      </trkpt>
      <trkpt lat="47.25991" lon="0.32174">
        <ele>46</ele>
        <time>2017-09-25T13:22:53Z</time>
      </trkpt>
      <trkpt lat="47.25992" lon="0.32184">
        <ele>46</ele>
        <time>2017-09-25T13:24:53Z</time>
      </trkpt>
      <trkpt lat="47.25995" lon="0.32197">
        <ele>46</ele>
        <time>2017-09-25T13:26:53Z</time>
      </trkpt>
      <trkpt lat="47.25997" lon="0.32211">
        <ele>47</ele>
        <time>2017-09-25T13:28:53Z</time>
      </trkpt>
      <trkpt lat="47.25998" lon="0.32214">
        <ele>47</ele>
        <time>2017-09-25T13:30:53Z</time>
      </trkpt>
      <trkpt lat="47.26001" lon="0.32224">
        <ele>47</ele>
        <time>2017-09-25T13:32:53Z</time>
      </trkpt>
      <trkpt lat="47.26006" lon="0.32239">
        <ele>47</ele>
        <time>2017-09-25T13:34:53Z</time>
      </trkpt>
      <trkpt lat="47.2601" lon="0.32254">
        <ele>48</ele>
        <time>2017-09-25T13:36:53Z</time>
      </trkpt>
      <trkpt lat="47.26019" lon="0.32282">
        <ele>50</ele>
        <time>2017-09-25T13:38:53Z</time>
      </trkpt>
      <trkpt lat="47.26034" lon="0.32317">
        <ele>50</ele>
        <time>2017-09-25T13:40:53Z</time>
      </trkpt>
      <trkpt lat="47.26048" lon="0.32348">
        <ele>49</ele>
        <time>2017-09-25T13:42:53Z</time>
      </trkpt>
      <trkpt lat="47.2606" lon="0.32375">
        <ele>49</ele>
        <time>2017-09-25T13:44:53Z</time>
      </trkpt>
      <trkpt lat="47.26074" lon="0.32405">
        <ele>48</ele>
        <time>2017-09-25T13:46:53Z</time>
      </trkpt>
      <trkpt lat="47.26082" lon="0.32425">
        <ele>47</ele>
        <time>2017-09-25T13:48:53Z</time>
      </trkpt>
      <trkpt lat="47.26089" lon="0.32441">
        <ele>48</ele>
        <time>2017-09-25T13:50:53Z</time>
      </trkpt>
      <trkpt lat="47.26095" lon="0.32456">
        <ele>48</ele>
        <time>2017-09-25T13:52:53Z</time>
      </trkpt>
      <trkpt lat="47.26101" lon="0.32469">
        <ele>48</ele>
        <time>2017-09-25T13:54:53Z</time>
      </trkpt>
      <trkpt lat="47.26105" lon="0.32482">
        <ele>48</ele>
        <time>2017-09-25T13:56:53Z</time>
      </trkpt>
      <trkpt lat="47.26112" lon="0.32501">
        <ele>48</ele>
        <time>2017-09-25T13:58:53Z</time>
      </trkpt>
      <trkpt lat="47.26117" lon="0.32518">
        <ele>48</ele>
        <time>2017-09-25T14:00:53Z</time>
      </trkpt>
      <trkpt lat="47.26119" lon="0.32532">
        <ele>49</ele>
        <time>2017-09-25T14:02:53Z</time>
      </trkpt>
      <trkpt lat="47.26122" lon="0.32543">
        <ele>49</ele>
        <time>2017-09-25T14:04:53Z</time>
      </trkpt>
      <trkpt lat="47.26124" lon="0.32551">
        <ele>49</ele>
        <time>2017-09-25T14:06:53Z</time>
      </trkpt>
      <trkpt lat="47.26125" lon="0.32559">
        <ele>49</ele>
        <time>2017-09-25T14:08:53Z</time>
      </trkpt>
      <trkpt lat="47.26133" lon="0.32583">
        <ele>48</ele>
        <time>2017-09-25T14:10:53Z</time>
      </trkpt>
      <trkpt lat="47.26139" lon="0.326">
        <ele>47</ele>
        <time>2017-09-25T14:12:53Z</time>
      </trkpt>
      <trkpt lat="47.26151" lon="0.32629">
        <ele>45</ele>
        <time>2017-09-25T14:14:53Z</time>
      </trkpt>
      <trkpt lat="47.26174" lon="0.32682">
        <ele>41</ele>
        <time>2017-09-25T14:16:53Z</time>
      </trkpt>
      <trkpt lat="47.26182" lon="0.32699">
        <ele>41</ele>
        <time>2017-09-25T14:18:53Z</time>
      </trkpt>
      <trkpt lat="47.26189" lon="0.32717">
        <ele>41</ele>
        <time>2017-09-25T14:20:53Z</time>
      </trkpt>
      <trkpt lat="47.26194" lon="0.32731">
        <ele>41</ele>
        <time>2017-09-25T14:22:53Z</time>
      </trkpt>
      <trkpt lat="47.262" lon="0.32749">
        <ele>41</ele>
        <time>2017-09-25T14:24:53Z</time>
      </trkpt>
      <trkpt lat="47.26203" lon="0.32763">
        <ele>42</ele>
        <time>2017-09-25T14:26:53Z</time>
      </trkpt>
      <trkpt lat="47.26203" lon="0.32764">
        <ele>42</ele>
        <time>2017-09-25T14:28:53Z</time>
      </trkpt>
      <trkpt lat="47.26209" lon="0.32785">
        <ele>43</ele>
        <time>2017-09-25T14:30:53Z</time>
      </trkpt>
      <trkpt lat="47.26213" lon="0.3281">
        <ele>44</ele>
        <time>2017-09-25T14:32:53Z</time>
      </trkpt>
      <trkpt lat="47.26218" lon="0.32843">
        <ele>44</ele>
        <time>2017-09-25T14:34:53Z</time>
      </trkpt>
      <trkpt lat="47.26222" lon="0.32862">
        <ele>45</ele>
        <time>2017-09-25T14:36:53Z</time>
      </trkpt>
      <trkpt lat="47.26251" lon="0.33046">
        <ele>42</ele>
        <time>2017-09-25T14:38:53Z</time>
      </trkpt>
      <trkpt lat="47.26259" lon="0.33091">
        <ele>42</ele>
        <time>2017-09-25T14:40:53Z</time>
      </trkpt>
      <trkpt lat="47.26265" lon="0.3313">
        <ele>42</ele>
        <time>2017-09-25T14:42:53Z</time>
      </trkpt>
      <trkpt lat="47.26271" lon="0.33169">
        <ele>42</ele>
        <time>2017-09-25T14:44:53Z</time>
      </trkpt>
      <trkpt lat="47.26274" lon="0.33187">
        <ele>43</ele>
        <time>2017-09-25T14:46:53Z</time>
      </trkpt>
      <trkpt lat="47.2628" lon="0.33213">
        <ele>42</ele>
        <time>2017-09-25T14:48:53Z</time>
      </trkpt>
      <trkpt lat="47.26289" lon="0.33246">
        <ele>42</ele>
        <time>2017-09-25T14:50:53Z</time>
      </trkpt>
      <trkpt lat="47.26291" lon="0.33255">
        <ele>42</ele>
        <time>2017-09-25T14:52:53Z</time>
      </trkpt>
      <trkpt lat="47.263" lon="0.33286">
        <ele>41</ele>
        <time>2017-09-25T14:54:53Z</time>
      </trkpt>
      <trkpt lat="47.26306" lon="0.33312">
        <ele>41</ele>
        <time>2017-09-25T14:56:53Z</time>
      </trkpt>
      <trkpt lat="47.26311" lon="0.33334">
        <ele>41</ele>
        <time>2017-09-25T14:58:53Z</time>
      </trkpt>
      <trkpt lat="47.26314" lon="0.33356">
        <ele>41</ele>
        <time>2017-09-25T15:00:53Z</time>
      </trkpt>
      <trkpt lat="47.26316" lon="0.33377">
        <ele>41</ele>
        <time>2017-09-25T15:02:53Z</time>
      </trkpt>
      <trkpt lat="47.26319" lon="0.33398">
        <ele>40</ele>
        <time>2017-09-25T15:04:53Z</time>
      </trkpt>
      <trkpt lat="47.26322" lon="0.3342">
        <ele>40</ele>
        <time>2017-09-25T15:06:53Z</time>
      </trkpt>
      <trkpt lat="47.26325" lon="0.33434">
        <ele>40</ele>
        <time>2017-09-25T15:08:53Z</time>
      </trkpt>
      <trkpt lat="47.26327" lon="0.33444">
        <ele>39</ele>
        <time>2017-09-25T15:10:53Z</time>
      </trkpt>
      <trkpt lat="47.26332" lon="0.33474">
        <ele>39</ele>
        <time>2017-09-25T15:12:53Z</time>
      </trkpt>
      <trkpt lat="47.26335" lon="0.33489">
        <ele>39</ele>
        <time>2017-09-25T15:14:53Z</time>
      </trkpt>
      <trkpt lat="47.26336" lon="0.33499">
        <ele>39</ele>
        <time>2017-09-25T15:16:53Z</time>
      </trkpt>
      <trkpt lat="47.26338" lon="0.3351">
        <ele>39</ele>
        <time>2017-09-25T15:18:53Z</time>
      </trkpt>
      <trkpt lat="47.26339" lon="0.33525">
        <ele>40</ele>
        <time>2017-09-25T15:20:53Z</time>
      </trkpt>
      <trkpt lat="47.2634" lon="0.33541">
        <ele>40</ele>
        <time>2017-09-25T15:22:53Z</time>
      </trkpt>
      <trkpt lat="47.26342" lon="0.33558">
        <ele>41</ele>
        <time>2017-09-25T15:24:53Z</time>
      </trkpt>
      <trkpt lat="47.26342" lon="0.33576">
        <ele>42</ele>
        <time>2017-09-25T15:26:53Z</time>
      </trkpt>
      <trkpt lat="47.26343" lon="0.33596">
        <ele>43</ele>
        <time>2017-09-25T15:28:53Z</time>
      </trkpt>
      <trkpt lat="47.26344" lon="0.33631">
        <ele>46</ele>
        <time>2017-09-25T15:30:53Z</time>
      </trkpt>
      <trkpt lat="47.26346" lon="0.33656">
        <ele>48</ele>
        <time>2017-09-25T15:32:53Z</time>
      </trkpt>
      <trkpt lat="47.26348" lon="0.33674">
        <ele>49</ele>
        <time>2017-09-25T15:34:53Z</time>
      </trkpt>
      <trkpt lat="47.26351" lon="0.33692">
        <ele>50</ele>
        <time>2017-09-25T15:36:53Z</time>
      </trkpt>
      <trkpt lat="47.26355" lon="0.33707">
        <ele>50</ele>
        <time>2017-09-25T15:38:53Z</time>
      </trkpt>
      <trkpt lat="47.26359" lon="0.33722">
        <ele>50</ele>
        <time>2017-09-25T15:40:53Z</time>
      </trkpt>
      <trkpt lat="47.26364" lon="0.33739">
        <ele>50</ele>
        <time>2017-09-25T15:42:53Z</time>
      </trkpt>
      <trkpt lat="47.26374" lon="0.33758">
        <ele>48</ele>
        <time>2017-09-25T15:44:53Z</time>
      </trkpt>
      <trkpt lat="47.2638" lon="0.33772">
        <ele>47</ele>
        <time>2017-09-25T15:46:53Z</time>
      </trkpt>
      <trkpt lat="47.26387" lon="0.33784">
        <ele>45</ele>
        <time>2017-09-25T15:48:53Z</time>
      </trkpt>
      <trkpt lat="47.26393" lon="0.33797">
        <ele>44</ele>
        <time>2017-09-25T15:50:53Z</time>
      </trkpt>
      <trkpt lat="47.26402" lon="0.3381">
        <ele>42</ele>
        <time>2017-09-25T15:52:53Z</time>
      </trkpt>
      <trkpt lat="47.26413" lon="0.33827">
        <ele>40</ele>
        <time>2017-09-25T15:54:53Z</time>
      </trkpt>
      <trkpt lat="47.26431" lon="0.33856">
        <ele>39</ele>
        <time>2017-09-25T15:56:53Z</time>
      </trkpt>
      <trkpt lat="47.26439" lon="0.33872">
        <ele>39</ele>
        <time>2017-09-25T15:58:53Z</time>
      </trkpt>
      <trkpt lat="47.26447" lon="0.33885">
        <ele>39</ele>
        <time>2017-09-25T16:00:53Z</time>
      </trkpt>
      <trkpt lat="47.26453" lon="0.33899">
        <ele>39</ele>
        <time>2017-09-25T16:02:53Z</time>
      </trkpt>
      <trkpt lat="47.26459" lon="0.33912">
        <ele>39</ele>
        <time>2017-09-25T16:04:53Z</time>
      </trkpt>
      <trkpt lat="47.26464" lon="0.33924">
        <ele>39</ele>
        <time>2017-09-25T16:06:53Z</time>
      </trkpt>
      <trkpt lat="47.26467" lon="0.33936">
        <ele>38</ele>
        <time>2017-09-25T16:08:53Z</time>
      </trkpt>
      <trkpt lat="47.26471" lon="0.3395">
        <ele>38</ele>
        <time>2017-09-25T16:10:53Z</time>
      </trkpt>
      <trkpt lat="47.26476" lon="0.33971">
        <ele>38</ele>
        <time>2017-09-25T16:12:53Z</time>
      </trkpt>
      <trkpt lat="47.26483" lon="0.34004">
        <ele>37</ele>
        <time>2017-09-25T16:14:53Z</time>
      </trkpt>
      <trkpt lat="47.26492" lon="0.34059">
        <ele>37</ele>
        <time>2017-09-25T16:16:53Z</time>
      </trkpt>
      <trkpt lat="47.26504" lon="0.34132">
        <ele>37</ele>
        <time>2017-09-25T16:18:53Z</time>
      </trkpt>
      <trkpt lat="47.26511" lon="0.34174">
        <ele>37</ele>
        <time>2017-09-25T16:20:53Z</time>
      </trkpt>
      <trkpt lat="47.26517" lon="0.34206">
        <ele>38</ele>
        <time>2017-09-25T16:22:53Z</time>
      </trkpt>
      <trkpt lat="47.26517" lon="0.34211">
        <ele>38</ele>
        <time>2017-09-25T16:24:53Z</time>
      </trkpt>
      <trkpt lat="47.26524" lon="0.34249">
        <ele>39</ele>
        <time>2017-09-25T16:26:53Z</time>
      </trkpt>
      <trkpt lat="47.26531" lon="0.34294">
        <ele>39</ele>
        <time>2017-09-25T16:28:53Z</time>
      </trkpt>
      <trkpt lat="47.26531" lon="0.34299">
        <ele>39</ele>
        <time>2017-09-25T16:30:53Z</time>
      </trkpt>
      <trkpt lat="47.26538" lon="0.34324">
        <ele>39</ele>
        <time>2017-09-25T16:32:53Z</time>
      </trkpt>
      <trkpt lat="47.26541" lon="0.34336">
        <ele>39</ele>
        <time>2017-09-25T16:34:53Z</time>
      </trkpt>
      <trkpt lat="47.26557" lon="0.3439">
        <ele>38</ele>
        <time>2017-09-25T16:36:53Z</time>
      </trkpt>
      <trkpt lat="47.26591" lon="0.345">
        <ele>38</ele>
        <time>2017-09-25T16:38:53Z</time>
      </trkpt>
      <trkpt lat="47.26592" lon="0.34504">
        <ele>38</ele>
        <time>2017-09-25T16:40:53Z</time>
      </trkpt>
      <trkpt lat="47.26593" lon="0.34505">
        <ele>38</ele>
        <time>2017-09-25T16:42:53Z</time>
      </trkpt>
      <trkpt lat="47.26607" lon="0.34555">
        <ele>38</ele>
        <time>2017-09-25T16:44:53Z</time>
      </trkpt>
      <trkpt lat="47.26625" lon="0.3462">
        <ele>38</ele>
        <time>2017-09-25T16:46:53Z</time>
      </trkpt>
      <trkpt lat="47.2664" lon="0.34677">
        <ele>38</ele>
        <time>2017-09-25T16:48:53Z</time>
      </trkpt>
      <trkpt lat="47.26645" lon="0.34694">
        <ele>38</ele>
        <time>2017-09-25T16:50:53Z</time>
      </trkpt>
      <trkpt lat="47.26659" lon="0.34751">
        <ele>37</ele>
        <time>2017-09-25T16:52:53Z</time>
      </trkpt>
      <trkpt lat="47.26666" lon="0.3478">
        <ele>37</ele>
        <time>2017-09-25T16:54:53Z</time>
      </trkpt>
      <trkpt lat="47.26684" lon="0.3485">
        <ele>39</ele>
        <time>2017-09-25T16:56:53Z</time>
      </trkpt>
      <trkpt lat="47.26692" lon="0.34882">
        <ele>39</ele>
        <time>2017-09-25T16:58:53Z</time>
      </trkpt>
      <trkpt lat="47.26699" lon="0.34911">
        <ele>40</ele>
        <time>2017-09-25T17:00:53Z</time>
      </trkpt>
      <trkpt lat="47.26704" lon="0.34933">
        <ele>40</ele>
        <time>2017-09-25T17:02:53Z</time>
      </trkpt>
      <trkpt lat="47.26711" lon="0.34959">
        <ele>41</ele>
        <time>2017-09-25T17:04:53Z</time>
      </trkpt>
      <trkpt lat="47.26717" lon="0.34987">
        <ele>41</ele>
        <time>2017-09-25T17:06:53Z</time>
      </trkpt>
      <trkpt lat="47.26722" lon="0.35014">
        <ele>41</ele>
        <time>2017-09-25T17:08:53Z</time>
      </trkpt>
      <trkpt lat="47.26725" lon="0.35033">
        <ele>41</ele>
        <time>2017-09-25T17:10:53Z</time>
      </trkpt>
      <trkpt lat="47.26728" lon="0.3505">
        <ele>41</ele>
        <time>2017-09-25T17:12:53Z</time>
      </trkpt>
      <trkpt lat="47.26731" lon="0.35074">
        <ele>42</ele>
        <time>2017-09-25T17:14:53Z</time>
      </trkpt>
      <trkpt lat="47.26734" lon="0.35093">
        <ele>42</ele>
        <time>2017-09-25T17:16:53Z</time>
      </trkpt>
      <trkpt lat="47.26735" lon="0.35105">
        <ele>42</ele>
        <time>2017-09-25T17:18:53Z</time>
      </trkpt>
      <trkpt lat="47.26739" lon="0.35128">
        <ele>42</ele>
        <time>2017-09-25T17:20:53Z</time>
      </trkpt>
      <trkpt lat="47.26739" lon="0.3513">
        <ele>43</ele>
        <time>2017-09-25T17:22:53Z</time>
      </trkpt>
      <trkpt lat="47.26741" lon="0.35139">
        <ele>43</ele>
        <time>2017-09-25T17:24:53Z</time>
      </trkpt>
      <trkpt lat="47.26741" lon="0.35144">
        <ele>43</ele>
        <time>2017-09-25T17:26:53Z</time>
      </trkpt>
      <trkpt lat="47.26744" lon="0.35157">
        <ele>43</ele>
        <time>2017-09-25T17:28:53Z</time>
      </trkpt>
      <trkpt lat="47.26749" lon="0.35176">
        <ele>43</ele>
        <time>2017-09-25T17:30:53Z</time>
      </trkpt>
      <trkpt lat="47.2676" lon="0.35217">
        <ele>42</ele>
        <time>2017-09-25T17:32:53Z</time>
      </trkpt>
      <trkpt lat="47.26764" lon="0.35226">
        <ele>41</ele>
        <time>2017-09-25T17:34:53Z</time>
      </trkpt>
      <trkpt lat="47.26767" lon="0.35235">
        <ele>41</ele>
        <time>2017-09-25T17:36:53Z</time>
      </trkpt>
      <trkpt lat="47.26769" lon="0.35243">
        <ele>41</ele>
        <time>2017-09-25T17:38:53Z</time>
      </trkpt>
      <trkpt lat="47.2677" lon="0.35247">
        <ele>41</ele>
        <time>2017-09-25T17:40:53Z</time>
      </trkpt>
      <trkpt lat="47.26772" lon="0.35256">
        <ele>41</ele>
        <time>2017-09-25T17:42:53Z</time>
      </trkpt>
      <trkpt lat="47.26772" lon="0.35257">
        <ele>41</ele>
        <time>2017-09-25T17:44:53Z</time>
      </trkpt>
      <trkpt lat="47.26771" lon="0.35258">
        <ele>41</ele>
        <time>2017-09-25T17:46:53Z</time>
      </trkpt>
      <trkpt lat="47.26771" lon="0.35259">
        <ele>41</ele>
        <time>2017-09-25T17:48:53Z</time>
      </trkpt>
      <trkpt lat="47.26771" lon="0.3526">
        <ele>41</ele>
        <time>2017-09-25T17:50:53Z</time>
      </trkpt>
      <trkpt lat="47.26771" lon="0.35261">
        <ele>41</ele>
        <time>2017-09-25T17:52:53Z</time>
      </trkpt>
      <trkpt lat="47.26771" lon="0.35262">
        <ele>41</ele>
        <time>2017-09-25T17:54:53Z</time>
      </trkpt>
      <trkpt lat="47.26771" lon="0.35263">
        <ele>41</ele>
        <time>2017-09-25T17:56:53Z</time>
      </trkpt>
      <trkpt lat="47.26771" lon="0.35264">
        <ele>41</ele>
        <time>2017-09-25T17:58:53Z</time>
      </trkpt>
      <trkpt lat="47.26771" lon="0.35265">
        <ele>41</ele>
        <time>2017-09-25T18:00:53Z</time>
      </trkpt>
      <trkpt lat="47.26771" lon="0.35266">
        <ele>41</ele>
        <time>2017-09-25T18:02:53Z</time>
      </trkpt>
      <trkpt lat="47.26771" lon="0.35267">
        <ele>41</ele>
        <time>2017-09-25T18:04:53Z</time>
      </trkpt>
      <trkpt lat="47.26771" lon="0.35268">
        <ele>41</ele>
        <time>2017-09-25T18:06:53Z</time>
      </trkpt>
      <trkpt lat="47.26771" lon="0.35269">
        <ele>41</ele>
        <time>2017-09-25T18:08:53Z</time>
      </trkpt>
      <trkpt lat="47.26772" lon="0.3527">
        <ele>41</ele>
        <time>2017-09-25T18:10:53Z</time>
      </trkpt>
      <trkpt lat="47.26772" lon="0.35271">
        <ele>41</ele>
        <time>2017-09-25T18:12:53Z</time>
      </trkpt>
      <trkpt lat="47.26772" lon="0.35272">
        <ele>41</ele>
        <time>2017-09-25T18:14:53Z</time>
      </trkpt>
      <trkpt lat="47.26773" lon="0.35272">
        <ele>41</ele>
        <time>2017-09-25T18:16:53Z</time>
      </trkpt>
      <trkpt lat="47.26773" lon="0.35273">
        <ele>41</ele>
        <time>2017-09-25T18:18:53Z</time>
      </trkpt>
      <trkpt lat="47.26774" lon="0.35274">
        <ele>41</ele>
        <time>2017-09-25T18:20:53Z</time>
      </trkpt>
      <trkpt lat="47.26774" lon="0.35275">
        <ele>41</ele>
        <time>2017-09-25T18:22:53Z</time>
      </trkpt>
      <trkpt lat="47.26775" lon="0.35275">
        <ele>41</ele>
        <time>2017-09-25T18:24:53Z</time>
      </trkpt>
      <trkpt lat="47.26775" lon="0.35276">
        <ele>41</ele>
        <time>2017-09-25T18:26:53Z</time>
      </trkpt>
      <trkpt lat="47.26776" lon="0.35276">
        <ele>41</ele>
        <time>2017-09-25T18:28:53Z</time>
      </trkpt>
      <trkpt lat="47.26776" lon="0.35277">
        <ele>41</ele>
        <time>2017-09-25T18:30:53Z</time>
      </trkpt>
      <trkpt lat="47.26777" lon="0.35277">
        <ele>41</ele>
        <time>2017-09-25T18:32:53Z</time>
      </trkpt>
      <trkpt lat="47.26778" lon="0.35278">
        <ele>41</ele>
        <time>2017-09-25T18:34:53Z</time>
      </trkpt>
      <trkpt lat="47.26781" lon="0.35282">
        <ele>40</ele>
        <time>2017-09-25T18:36:53Z</time>
      </trkpt>
      <trkpt lat="47.26783" lon="0.35287">
        <ele>40</ele>
        <time>2017-09-25T18:38:53Z</time>
      </trkpt>
      <trkpt lat="47.26785" lon="0.35294">
        <ele>40</ele>
        <time>2017-09-25T18:40:53Z</time>
      </trkpt>
      <trkpt lat="47.26789" lon="0.35307">
        <ele>40</ele>
        <time>2017-09-25T18:42:53Z</time>
      </trkpt>
      <trkpt lat="47.26791" lon="0.3533">
        <ele>40</ele>
        <time>2017-09-25T18:44:53Z</time>
      </trkpt>
      <trkpt lat="47.26793" lon="0.3538">
        <ele>39</ele>
        <time>2017-09-25T18:46:53Z</time>
      </trkpt>
      <trkpt lat="47.26793" lon="0.35392">
        <ele>39</ele>
        <time>2017-09-25T18:48:53Z</time>
      </trkpt>
      <trkpt lat="47.26793" lon="0.35443">
        <ele>39</ele>
        <time>2017-09-25T18:50:53Z</time>
      </trkpt>
      <trkpt lat="47.26792" lon="0.35477">
        <ele>39</ele>
        <time>2017-09-25T18:52:53Z</time>
      </trkpt>
      <trkpt lat="47.26791" lon="0.35574">
        <ele>41</ele>
        <time>2017-09-25T18:54:53Z</time>
      </trkpt>
      <trkpt lat="47.26791" lon="0.35575">
        <ele>41</ele>
        <time>2017-09-25T18:56:53Z</time>
      </trkpt>
      <trkpt lat="47.26789" lon="0.35647">
        <ele>40</ele>
        <time>2017-09-25T18:58:53Z</time>
      </trkpt>
      <trkpt lat="47.26786" lon="0.3582">
        <ele>41</ele>
        <time>2017-09-25T19:00:53Z</time>
      </trkpt>
      <trkpt lat="47.26786" lon="0.3585">
        <ele>42</ele>
        <time>2017-09-25T19:02:53Z</time>
      </trkpt>
      <trkpt lat="47.26786" lon="0.35885">
        <ele>42</ele>
        <time>2017-09-25T19:04:53Z</time>
      </trkpt>
      <trkpt lat="47.26786" lon="0.35893">
        <ele>42</ele>
        <time>2017-09-25T19:06:53Z</time>
      </trkpt>
      <trkpt lat="47.26788" lon="0.35922">
        <ele>42</ele>
        <time>2017-09-25T19:08:53Z</time>
      </trkpt>
      <trkpt lat="47.2679" lon="0.3594">
        <ele>42</ele>
        <time>2017-09-25T19:10:53Z</time>
      </trkpt>
      <trkpt lat="47.26793" lon="0.35973">
        <ele>42</ele>
        <time>2017-09-25T19:12:53Z</time>
      </trkpt>
      <trkpt lat="47.26798" lon="0.36036">
        <ele>42</ele>
        <time>2017-09-25T19:14:53Z</time>
      </trkpt>
      <trkpt lat="47.26802" lon="0.36064">
        <ele>43</ele>
        <time>2017-09-25T19:16:53Z</time>
      </trkpt>
      <trkpt lat="47.26802" lon="0.36068">
        <ele>43</ele>
        <time>2017-09-25T19:18:53Z</time>
      </trkpt>
      <trkpt lat="47.26804" lon="0.36083">
        <ele>43</ele>
        <time>2017-09-25T19:20:53Z</time>
      </trkpt>
      <trkpt lat="47.26813" lon="0.36115">
        <ele>43</ele>
        <time>2017-09-25T19:22:53Z</time>
      </trkpt>
      <trkpt lat="47.26823" lon="0.3615">
        <ele>42</ele>
        <time>2017-09-25T19:24:53Z</time>
      </trkpt>
      <trkpt lat="47.26824" lon="0.36153">
        <ele>42</ele>
        <time>2017-09-25T19:26:53Z</time>
      </trkpt>
      <trkpt lat="47.26835" lon="0.36192">
        <ele>42</ele>
        <time>2017-09-25T19:28:53Z</time>
      </trkpt>
      <trkpt lat="47.26875" lon="0.36327">
        <ele>41</ele>
        <time>2017-09-25T19:30:53Z</time>
      </trkpt>
      <trkpt lat="47.26879" lon="0.36341">
        <ele>41</ele>
        <time>2017-09-25T19:32:53Z</time>
      </trkpt>
      <trkpt lat="47.26882" lon="0.36351">
        <ele>41</ele>
        <time>2017-09-25T19:34:53Z</time>
      </trkpt>
      <trkpt lat="47.2689" lon="0.36384">
        <ele>40</ele>
        <time>2017-09-25T19:36:53Z</time>
      </trkpt>
      <trkpt lat="47.26916" lon="0.36501">
        <ele>39</ele>
        <time>2017-09-25T19:38:53Z</time>
      </trkpt>
      <trkpt lat="47.26928" lon="0.3655">
        <ele>40</ele>
        <time>2017-09-25T19:40:53Z</time>
      </trkpt>
      <trkpt lat="47.26934" lon="0.3657">
        <ele>40</ele>
        <time>2017-09-25T19:42:53Z</time>
      </trkpt>
      <trkpt lat="47.26934" lon="0.3657">
        <ele>40</ele>
        <time>2017-09-25T19:44:53Z</time>
      </trkpt>
      <trkpt lat="47.26935" lon="0.36578">
        <ele>40</ele>
        <time>2017-09-25T19:46:53Z</time>
      </trkpt>
      <trkpt lat="47.26937" lon="0.36592">
        <ele>40</ele>
        <time>2017-09-25T19:48:53Z</time>
      </trkpt>
      <trkpt lat="47.26959" lon="0.36692">
        <ele>38</ele>
        <time>2017-09-25T19:50:53Z</time>
      </trkpt>
      <trkpt lat="47.26964" lon="0.36721">
        <ele>38</ele>
        <time>2017-09-25T19:52:53Z</time>
      </trkpt>
      <trkpt lat="47.26956" lon="0.36729">
        <ele>38</ele>
        <time>2017-09-25T19:54:53Z</time>
      </trkpt>
      <trkpt lat="47.26952" lon="0.36733">
        <ele>39</ele>
        <time>2017-09-25T19:56:53Z</time>
      </trkpt>
      <trkpt lat="47.26947" lon="0.36737">
        <ele>39</ele>
        <time>2017-09-25T19:58:53Z</time>
      </trkpt>
      <trkpt lat="47.26941" lon="0.3674">
        <ele>39</ele>
        <time>2017-09-25T20:00:53Z</time>
      </trkpt>
      <trkpt lat="47.26936" lon="0.36745">
        <ele>39</ele>
        <time>2017-09-25T20:02:53Z</time>
      </trkpt>
      <trkpt lat="47.26933" lon="0.36748">
        <ele>39</ele>
        <time>2017-09-25T20:04:53Z</time>
      </trkpt>
      <trkpt lat="47.2693" lon="0.36752">
        <ele>40</ele>
        <time>2017-09-25T20:06:53Z</time>
      </trkpt>
      <trkpt lat="47.26929" lon="0.36756">
        <ele>40</ele>
        <time>2017-09-25T20:08:53Z</time>
      </trkpt>
      <trkpt lat="47.26929" lon="0.36756">
        <ele>40</ele>
        <time>2017-09-25T20:10:53Z</time>
      </trkpt>
      <trkpt lat="47.26929" lon="0.36762">
        <ele>40</ele>
        <time>2017-09-25T20:12:53Z</time>
      </trkpt>
      <trkpt lat="47.2693" lon="0.36767">
        <ele>40</ele>
        <time>2017-09-25T20:14:53Z</time>
      </trkpt>
      <trkpt lat="47.26931" lon="0.36773">
        <ele>39</ele>
        <time>2017-09-25T20:16:53Z</time>
      </trkpt>
      <trkpt lat="47.26933" lon="0.36778">
        <ele>39</ele>
        <time>2017-09-25T20:18:53Z</time>
      </trkpt>
      <trkpt lat="47.26936" lon="0.36785">
        <ele>39</ele>
        <time>2017-09-25T20:20:53Z</time>
      </trkpt>
      <trkpt lat="47.26941" lon="0.36794">
        <ele>39</ele>
        <time>2017-09-25T20:22:53Z</time>
      </trkpt>
      <trkpt lat="47.26947" lon="0.36805">
        <ele>39</ele>
        <time>2017-09-25T20:24:53Z</time>
      </trkpt>
      <trkpt lat="47.26952" lon="0.36815">
        <ele>39</ele>
        <time>2017-09-25T20:26:53Z</time>
      </trkpt>
      <trkpt lat="47.26957" lon="0.36827">
        <ele>39</ele>
        <time>2017-09-25T20:28:53Z</time>
      </trkpt>
      <trkpt lat="47.26964" lon="0.36845">
        <ele>39</ele>
        <time>2017-09-25T20:30:53Z</time>
      </trkpt>
      <trkpt lat="47.2697" lon="0.3686">
        <ele>39</ele>
        <time>2017-09-25T20:32:53Z</time>
      </trkpt>
      <trkpt lat="47.26978" lon="0.36885">
        <ele>39</ele>
        <time>2017-09-25T20:34:53Z</time>
      </trkpt>
      <trkpt lat="47.26984" lon="0.369">
        <ele>39</ele>
        <time>2017-09-25T20:36:53Z</time>
      </trkpt>
      <trkpt lat="47.26986" lon="0.36909">
        <ele>39</ele>
        <time>2017-09-25T20:38:53Z</time>
      </trkpt>
      <trkpt lat="47.26989" lon="0.3692">
        <ele>39</ele>
        <time>2017-09-25T20:40:53Z</time>
      </trkpt>
      <trkpt lat="47.26993" lon="0.36936">
        <ele>40</ele>
        <time>2017-09-25T20:42:53Z</time>
      </trkpt>
      <trkpt lat="47.26993" lon="0.36942">
        <ele>40</ele>
        <time>2017-09-25T20:44:53Z</time>
      </trkpt>
      <trkpt lat="47.26998" lon="0.3698">
        <ele>41</ele>
        <time>2017-09-25T20:46:53Z</time>
      </trkpt>
      <trkpt lat="47.27" lon="0.37006">
        <ele>41</ele>
        <time>2017-09-25T20:48:53Z</time>
      </trkpt>
      <trkpt lat="47.27002" lon="0.37063">
        <ele>42</ele>
        <time>2017-09-25T20:50:53Z</time>
      </trkpt>
      <trkpt lat="47.27008" lon="0.37143">
        <ele>43</ele>
        <time>2017-09-25T20:52:53Z</time>
      </trkpt>
      <trkpt lat="47.2701" lon="0.37162">
        <ele>43</ele>
        <time>2017-09-25T20:54:53Z</time>
      </trkpt>
      <trkpt lat="47.27011" lon="0.3717">
        <ele>43</ele>
        <time>2017-09-25T20:56:53Z</time>
      </trkpt>
      <trkpt lat="47.27021" lon="0.37245">
        <ele>43</ele>
        <time>2017-09-25T20:58:53Z</time>
      </trkpt>
      <trkpt lat="47.27022" lon="0.37252">
        <ele>43</ele>
        <time>2017-09-25T21:00:53Z</time>
      </trkpt>
      <trkpt lat="47.27023" lon="0.37267">
        <ele>43</ele>
        <time>2017-09-25T21:02:53Z</time>
      </trkpt>
      <trkpt lat="47.27024" lon="0.3729">
        <ele>44</ele>
        <time>2017-09-25T21:04:53Z</time>
      </trkpt>
      <trkpt lat="47.27023" lon="0.37298">
        <ele>44</ele>
        <time>2017-09-25T21:06:53Z</time>
      </trkpt>
      <trkpt lat="47.27023" lon="0.37306">
        <ele>44</ele>
        <time>2017-09-25T21:08:53Z</time>
      </trkpt>
      <trkpt lat="47.27022" lon="0.37316">
        <ele>44</ele>
        <time>2017-09-25T21:10:53Z</time>
      </trkpt>
      <trkpt lat="47.27018" lon="0.37348">
        <ele>45</ele>
        <time>2017-09-25T21:12:53Z</time>
      </trkpt>
      <trkpt lat="47.2701" lon="0.37394">
        <ele>45</ele>
        <time>2017-09-25T21:14:53Z</time>
      </trkpt>
      <trkpt lat="47.26995" lon="0.37466">
        <ele>44</ele>
        <time>2017-09-25T21:16:53Z</time>
      </trkpt>
      <trkpt lat="47.26987" lon="0.37512">
        <ele>44</ele>
        <time>2017-09-25T21:18:53Z</time>
      </trkpt>
      <trkpt lat="47.26983" lon="0.3758">
        <ele>43</ele>
        <time>2017-09-25T21:20:53Z</time>
      </trkpt>
      <trkpt lat="47.26984" lon="0.37696">
        <ele>43</ele>
        <time>2017-09-25T21:22:53Z</time>
      </trkpt>
      <trkpt lat="47.26984" lon="0.3771">
        <ele>43</ele>
        <time>2017-09-25T21:24:53Z</time>
      </trkpt>
      <trkpt lat="47.26985" lon="0.37755">
        <ele>43</ele>
        <time>2017-09-25T21:26:53Z</time>
      </trkpt>
      <trkpt lat="47.26984" lon="0.37764">
        <ele>44</ele>
        <time>2017-09-25T21:28:53Z</time>
      </trkpt>
      <trkpt lat="47.26983" lon="0.37787">
        <ele>44</ele>
        <time>2017-09-25T21:30:53Z</time>
      </trkpt>
      <trkpt lat="47.26981" lon="0.3781">
        <ele>44</ele>
        <time>2017-09-25T21:32:53Z</time>
      </trkpt>
      <trkpt lat="47.26977" lon="0.37848">
        <ele>44</ele>
        <time>2017-09-25T21:34:53Z</time>
      </trkpt>
      <trkpt lat="47.2697" lon="0.37878">
        <ele>43</ele>
        <time>2017-09-25T21:36:53Z</time>
      </trkpt>
      <trkpt lat="47.26944" lon="0.37951">
        <ele>43</ele>
        <time>2017-09-25T21:38:53Z</time>
      </trkpt>
      <trkpt lat="47.26928" lon="0.3799">
        <ele>43</ele>
        <time>2017-09-25T21:40:53Z</time>
      </trkpt>
      <trkpt lat="47.26918" lon="0.38018">
        <ele>43</ele>
        <time>2017-09-25T21:42:53Z</time>
      </trkpt>
      <trkpt lat="47.26916" lon="0.38044">
        <ele>43</ele>
        <time>2017-09-25T21:44:53Z</time>
      </trkpt>
      <trkpt lat="47.26916" lon="0.38068">
        <ele>42</ele>
        <time>2017-09-25T21:46:53Z</time>
      </trkpt>
      <trkpt lat="47.26916" lon="0.38073">
        <ele>42</ele>
        <time>2017-09-25T21:48:53Z</time>
      </trkpt>
      <trkpt lat="47.26918" lon="0.38094">
        <ele>42</ele>
        <time>2017-09-25T21:50:53Z</time>
      </trkpt>
      <trkpt lat="47.26931" lon="0.38187">
        <ele>41</ele>
        <time>2017-09-25T21:52:53Z</time>
      </trkpt>
      <trkpt lat="47.26932" lon="0.38195">
        <ele>41</ele>
        <time>2017-09-25T21:54:53Z</time>
      </trkpt>
      <trkpt lat="47.26933" lon="0.38241">
        <ele>41</ele>
        <time>2017-09-25T21:56:53Z</time>
      </trkpt>
      <trkpt lat="47.26942" lon="0.38271">
        <ele>42</ele>
        <time>2017-09-25T21:58:53Z</time>
      </trkpt>
      <trkpt lat="47.26951" lon="0.38294">
        <ele>41</ele>
        <time>2017-09-25T22:00:53Z</time>
      </trkpt>
      <trkpt lat="47.26956" lon="0.38305">
        <ele>41</ele>
        <time>2017-09-25T22:02:53Z</time>
      </trkpt>
      <trkpt lat="47.26957" lon="0.38309">
        <ele>41</ele>
        <time>2017-09-25T22:04:53Z</time>
      </trkpt>
      <trkpt lat="47.26958" lon="0.38314">
        <ele>41</ele>
        <time>2017-09-25T22:06:53Z</time>
      </trkpt>
      <trkpt lat="47.26959" lon="0.38318">
        <ele>41</ele>
        <time>2017-09-25T22:08:53Z</time>
      </trkpt>
      <trkpt lat="47.26959" lon="0.38325">
        <ele>41</ele>
        <time>2017-09-25T22:10:53Z</time>
      </trkpt>
      <trkpt lat="47.26959" lon="0.38332">
        <ele>41</ele>
        <time>2017-09-25T22:12:53Z</time>
      </trkpt>
      <trkpt lat="47.26955" lon="0.38399">
        <ele>44</ele>
        <time>2017-09-25T22:14:53Z</time>
      </trkpt>
      <trkpt lat="47.26954" lon="0.38412">
        <ele>44</ele>
        <time>2017-09-25T22:16:53Z</time>
      </trkpt>
      <trkpt lat="47.26952" lon="0.3847">
        <ele>46</ele>
        <time>2017-09-25T22:18:53Z</time>
      </trkpt>
      <trkpt lat="47.26949" lon="0.38573">
        <ele>48</ele>
        <time>2017-09-25T22:20:53Z</time>
      </trkpt>
      <trkpt lat="47.26942" lon="0.38746">
        <ele>51</ele>
        <time>2017-09-25T22:22:53Z</time>
      </trkpt>
      <trkpt lat="47.26936" lon="0.38881">
        <ele>50</ele>
        <time>2017-09-25T22:24:53Z</time>
      </trkpt>
      <trkpt lat="47.26933" lon="0.38955">
        <ele>47</ele>
        <time>2017-09-25T22:26:53Z</time>
      </trkpt>
      <trkpt lat="47.26933" lon="0.38964">
        <ele>47</ele>
        <time>2017-09-25T22:28:53Z</time>
      </trkpt>
      <trkpt lat="47.26933" lon="0.38973">
        <ele>46</ele>
        <time>2017-09-25T22:30:53Z</time>
      </trkpt>
      <trkpt lat="47.26924" lon="0.39183">
        <ele>42</ele>
        <time>2017-09-25T22:32:53Z</time>
      </trkpt>
      <trkpt lat="47.26919" lon="0.39279">
        <ele>41</ele>
        <time>2017-09-25T22:34:53Z</time>
      </trkpt>
      <trkpt lat="47.26917" lon="0.39315">
        <ele>41</ele>
        <time>2017-09-25T22:36:53Z</time>
      </trkpt>
      <trkpt lat="47.26914" lon="0.39347">
        <ele>41</ele>
        <time>2017-09-25T22:38:53Z</time>
      </trkpt>
      <trkpt lat="47.26911" lon="0.39367">
        <ele>41</ele>
        <time>2017-09-25T22:40:53Z</time>
      </trkpt>
      <trkpt lat="47.26901" lon="0.39398">
        <ele>42</ele>
        <time>2017-09-25T22:42:53Z</time>
      </trkpt>
      <trkpt lat="47.2688" lon="0.39474">
        <ele>45</ele>
        <time>2017-09-25T22:44:53Z</time>
      </trkpt>
      <trkpt lat="47.26872" lon="0.39512">
        <ele>46</ele>
        <time>2017-09-25T22:46:53Z</time>
      </trkpt>
      <trkpt lat="47.26863" lon="0.39557">
        <ele>46</ele>
        <time>2017-09-25T22:48:53Z</time>
      </trkpt>
      <trkpt lat="47.26861" lon="0.3959">
        <ele>46</ele>
        <time>2017-09-25T22:50:53Z</time>
      </trkpt>
      <trkpt lat="47.26861" lon="0.39599">
        <ele>46</ele>
        <time>2017-09-25T22:52:53Z</time>
      </trkpt>
      <trkpt lat="47.26861" lon="0.39621">
        <ele>45</ele>
        <time>2017-09-25T22:54:53Z</time>
      </trkpt>
      <trkpt lat="47.26861" lon="0.39648">
        <ele>44</ele>
        <time>2017-09-25T22:56:53Z</time>
      </trkpt>
      <trkpt lat="47.2686" lon="0.39722">
        <ele>44</ele>
        <time>2017-09-25T22:58:53Z</time>
      </trkpt>
      <trkpt lat="47.26857" lon="0.39772">
        <ele>44</ele>
        <time>2017-09-25T23:00:53Z</time>
      </trkpt>
      <trkpt lat="47.26853" lon="0.39802">
        <ele>44</ele>
        <time>2017-09-25T23:02:53Z</time>
      </trkpt>
      <trkpt lat="47.26839" lon="0.39901">
        <ele>44</ele>
        <time>2017-09-25T23:04:53Z</time>
      </trkpt>
      <trkpt lat="47.26832" lon="0.39955">
        <ele>44</ele>
        <time>2017-09-25T23:06:53Z</time>
      </trkpt>
      <trkpt lat="47.2683" lon="0.39984">
        <ele>44</ele>
        <time>2017-09-25T23:08:53Z</time>
      </trkpt>
      <trkpt lat="47.26831" lon="0.40013">
        <ele>44</ele>
        <time>2017-09-25T23:10:53Z</time>
      </trkpt>
      <trkpt lat="47.26849" lon="0.40183">
        <ele>44</ele>
        <time>2017-09-25T23:12:53Z</time>
      </trkpt>
      <trkpt lat="47.26851" lon="0.40224">
        <ele>43</ele>
        <time>2017-09-25T23:14:53Z</time>
      </trkpt>
      <trkpt lat="47.26851" lon="0.40256">
        <ele>43</ele>
        <time>2017-09-25T23:16:53Z</time>
      </trkpt>
      <trkpt lat="47.26849" lon="0.40285">
        <ele>42</ele>
        <time>2017-09-25T23:18:53Z</time>
      </trkpt>
      <trkpt lat="47.26837" lon="0.40428">
        <ele>43</ele>
        <time>2017-09-25T23:20:53Z</time>
      </trkpt>
      <trkpt lat="47.26832" lon="0.40485">
        <ele>43</ele>
        <time>2017-09-25T23:22:53Z</time>
      </trkpt>
      <trkpt lat="47.26831" lon="0.40521">
        <ele>43</ele>
        <time>2017-09-25T23:24:53Z</time>
      </trkpt>
      <trkpt lat="47.26829" lon="0.40584">
        <ele>41</ele>
        <time>2017-09-25T23:26:53Z</time>
      </trkpt>
      <trkpt lat="47.26825" lon="0.40617">
        <ele>41</ele>
        <time>2017-09-25T23:28:53Z</time>
      </trkpt>
      <trkpt lat="47.26819" lon="0.40639">
        <ele>41</ele>
        <time>2017-09-25T23:30:53Z</time>
      </trkpt>
      <trkpt lat="47.26816" lon="0.40646">
        <ele>41</ele>
        <time>2017-09-25T23:32:53Z</time>
      </trkpt>
      <trkpt lat="47.26812" lon="0.40657">
        <ele>41</ele>
        <time>2017-09-25T23:34:53Z</time>
      </trkpt>
      <trkpt lat="47.26808" lon="0.40675">
        <ele>41</ele>
        <time>2017-09-25T23:36:53Z</time>
      </trkpt>
      <trkpt lat="47.26804" lon="0.40693">
        <ele>41</ele>
        <time>2017-09-25T23:38:53Z</time>
      </trkpt>
      <trkpt lat="47.26801" lon="0.4071">
        <ele>41</ele>
        <time>2017-09-25T23:40:53Z</time>
      </trkpt>
      <trkpt lat="47.26799" lon="0.40728">
        <ele>41</ele>
        <time>2017-09-25T23:42:53Z</time>
      </trkpt>
      <trkpt lat="47.26798" lon="0.40745">
        <ele>40</ele>
        <time>2017-09-25T23:44:53Z</time>
      </trkpt>
      <trkpt lat="47.26797" lon="0.40751">
        <ele>40</ele>
        <time>2017-09-25T23:46:53Z</time>
      </trkpt>
      <trkpt lat="47.26797" lon="0.40761">
        <ele>40</ele>
        <time>2017-09-25T23:48:53Z</time>
      </trkpt>
      <trkpt lat="47.26796" lon="0.40776">
        <ele>40</ele>
        <time>2017-09-25T23:50:53Z</time>
      </trkpt>
      <trkpt lat="47.26796" lon="0.40792">
        <ele>41</ele>
        <time>2017-09-25T23:52:53Z</time>
      </trkpt>
      <trkpt lat="47.26796" lon="0.40809">
        <ele>41</ele>
        <time>2017-09-25T23:54:53Z</time>
      </trkpt>
      <trkpt lat="47.26796" lon="0.40826">
        <ele>41</ele>
        <time>2017-09-25T23:56:53Z</time>
      </trkpt>
      <trkpt lat="47.26796" lon="0.40844">
        <ele>41</ele>
        <time>2017-09-25T23:58:53Z</time>
      </trkpt>
      <trkpt lat="47.26796" lon="0.40865">
        <ele>42</ele>
        <time>2017-09-26T00:00:53Z</time>
      </trkpt>
      <trkpt lat="47.26796" lon="0.40913">
        <ele>44</ele>
        <time>2017-09-26T00:02:53Z</time>
      </trkpt>
      <trkpt lat="47.26794" lon="0.40976">
        <ele>45</ele>
        <time>2017-09-26T00:04:53Z</time>
      </trkpt>
      <trkpt lat="47.26795" lon="0.41007">
        <ele>45</ele>
        <time>2017-09-26T00:06:53Z</time>
      </trkpt>
      <trkpt lat="47.26794" lon="0.4104">
        <ele>45</ele>
        <time>2017-09-26T00:08:53Z</time>
      </trkpt>
      <trkpt lat="47.26794" lon="0.4107">
        <ele>46</ele>
        <time>2017-09-26T00:10:53Z</time>
      </trkpt>
      <trkpt lat="47.26793" lon="0.41079">
        <ele>46</ele>
        <time>2017-09-26T00:12:53Z</time>
      </trkpt>
      <trkpt lat="47.2679" lon="0.41124">
        <ele>46</ele>
        <time>2017-09-26T00:14:53Z</time>
      </trkpt>
      <trkpt lat="47.26783" lon="0.41169">
        <ele>47</ele>
        <time>2017-09-26T00:16:53Z</time>
      </trkpt>
      <trkpt lat="47.26772" lon="0.4122">
        <ele>49</ele>
        <time>2017-09-26T00:18:53Z</time>
      </trkpt>
      <trkpt lat="47.26727" lon="0.41386">
        <ele>50</ele>
        <time>2017-09-26T00:20:53Z</time>
      </trkpt>
      <trkpt lat="47.26722" lon="0.41405">
        <ele>50</ele>
        <time>2017-09-26T00:22:53Z</time>
      </trkpt>
      <trkpt lat="47.26712" lon="0.41449">
        <ele>52</ele>
        <time>2017-09-26T00:24:53Z</time>
      </trkpt>
      <trkpt lat="47.26698" lon="0.4152">
        <ele>53</ele>
        <time>2017-09-26T00:26:53Z</time>
      </trkpt>
      <trkpt lat="47.2669" lon="0.41554">
        <ele>52</ele>
        <time>2017-09-26T00:28:53Z</time>
      </trkpt>
      <trkpt lat="47.26657" lon="0.41656">
        <ele>49</ele>
        <time>2017-09-26T00:30:53Z</time>
      </trkpt>
      <trkpt lat="47.26646" lon="0.41684">
        <ele>49</ele>
        <time>2017-09-26T00:32:53Z</time>
      </trkpt>
      <trkpt lat="47.26639" lon="0.41707">
        <ele>49</ele>
        <time>2017-09-26T00:34:53Z</time>
      </trkpt>
      <trkpt lat="47.26636" lon="0.41716">
        <ele>49</ele>
        <time>2017-09-26T00:36:53Z</time>
      </trkpt>
      <trkpt lat="47.26621" lon="0.41783">
        <ele>49</ele>
        <time>2017-09-26T00:38:53Z</time>
      </trkpt>
      <trkpt lat="47.26616" lon="0.41801">
        <ele>49</ele>
        <time>2017-09-26T00:40:53Z</time>
      </trkpt>
      <trkpt lat="47.26609" lon="0.41822">
        <ele>49</ele>
        <time>2017-09-26T00:42:53Z</time>
      </trkpt>
      <trkpt lat="47.26585" lon="0.41883">
        <ele>49</ele>
        <time>2017-09-26T00:44:53Z</time>
      </trkpt>
      <trkpt lat="47.26521" lon="0.42032">
        <ele>50</ele>
        <time>2017-09-26T00:46:53Z</time>
      </trkpt>
      <trkpt lat="47.2652" lon="0.42035">
        <ele>50</ele>
        <time>2017-09-26T00:48:53Z</time>
      </trkpt>
      <trkpt lat="47.26491" lon="0.42116">
        <ele>47</ele>
        <time>2017-09-26T00:50:53Z</time>
      </trkpt>
      <trkpt lat="47.26486" lon="0.42128">
        <ele>48</ele>
        <time>2017-09-26T00:52:53Z</time>
      </trkpt>
      <trkpt lat="47.26466" lon="0.42174">
        <ele>49</ele>
        <time>2017-09-26T00:54:53Z</time>
      </trkpt>
      <trkpt lat="47.26443" lon="0.42228">
        <ele>49</ele>
        <time>2017-09-26T00:56:53Z</time>
      </trkpt>
      <trkpt lat="47.26436" lon="0.42246">
        <ele>48</ele>
        <time>2017-09-26T00:58:53Z</time>
      </trkpt>
      <trkpt lat="47.26419" lon="0.42287">
        <ele>46</ele>
        <time>2017-09-26T01:00:53Z</time>
      </trkpt>
      <trkpt lat="47.2639" lon="0.42357">
        <ele>46</ele>
        <time>2017-09-26T01:02:53Z</time>
      </trkpt>
      <trkpt lat="47.26388" lon="0.42363">
        <ele>46</ele>
        <time>2017-09-26T01:04:53Z</time>
      </trkpt>
      <trkpt lat="47.26359" lon="0.42429">
        <ele>47</ele>
        <time>2017-09-26T01:06:53Z</time>
      </trkpt>
      <trkpt lat="47.26354" lon="0.42436">
        <ele>47</ele>
        <time>2017-09-26T01:08:53Z</time>
      </trkpt>
      <trkpt lat="47.26344" lon="0.42455">
        <ele>47</ele>
        <time>2017-09-26T01:10:53Z</time>
      </trkpt>
      <trkpt lat="47.26295" lon="0.42523">
        <ele>45</ele>
        <time>2017-09-26T01:12:53Z</time>
      </trkpt>
      <trkpt lat="47.26292" lon="0.42527">
        <ele>45</ele>
        <time>2017-09-26T01:14:53Z</time>
      </trkpt>
      <trkpt lat="47.26281" lon="0.42543">
        <ele>44</ele>
        <time>2017-09-26T01:16:53Z</time>
      </trkpt>
      <trkpt lat="47.26274" lon="0.42556">
        <ele>44</ele>
        <time>2017-09-26T01:18:53Z</time>
      </trkpt>
      <trkpt lat="47.26266" lon="0.42579">
        <ele>43</ele>
        <time>2017-09-26T01:20:53Z</time>
      </trkpt>
      <trkpt lat="47.2626" lon="0.42606">
        <ele>43</ele>
        <time>2017-09-26T01:22:53Z</time>
      </trkpt>
      <trkpt lat="47.26254" lon="0.42645">
        <ele>43</ele>
        <time>2017-09-26T01:24:53Z</time>
      </trkpt>
      <trkpt lat="47.26246" lon="0.42685">
        <ele>43</ele>
        <time>2017-09-26T01:26:53Z</time>
      </trkpt>
      <trkpt lat="47.26234" lon="0.42726">
        <ele>45</ele>
        <time>2017-09-26T01:28:53Z</time>
      </trkpt>
      <trkpt lat="47.26219" lon="0.42766">
        <ele>48</ele>
        <time>2017-09-26T01:30:53Z</time>
      </trkpt>
      <trkpt lat="47.26189" lon="0.42857">
        <ele>50</ele>
        <time>2017-09-26T01:32:53Z</time>
      </trkpt>
      <trkpt lat="47.26182" lon="0.42879">
        <ele>50</ele>
        <time>2017-09-26T01:34:53Z</time>
      </trkpt>
      <trkpt lat="47.26172" lon="0.42921">
        <ele>48</ele>
        <time>2017-09-26T01:36:53Z</time>
      </trkpt>
      <trkpt lat="47.26168" lon="0.42949">
        <ele>47</ele>
        <time>2017-09-26T01:38:53Z</time>
      </trkpt>
      <trkpt lat="47.26162" lon="0.42995">
        <ele>46</ele>
        <time>2017-09-26T01:40:53Z</time>
      </trkpt>
      <trkpt lat="47.2615" lon="0.43047">
        <ele>45</ele>
        <time>2017-09-26T01:42:53Z</time>
      </trkpt>
      <trkpt lat="47.26141" lon="0.43081">
        <ele>46</ele>
        <time>2017-09-26T01:44:53Z</time>
      </trkpt>
      <trkpt lat="47.26122" lon="0.43196">
        <ele>46</ele>
        <time>2017-09-26T01:46:53Z</time>
      </trkpt>
      <trkpt lat="47.26101" lon="0.4332">
        <ele>45</ele>
        <time>2017-09-26T01:48:53Z</time>
      </trkpt>
      <trkpt lat="47.26067" lon="0.43509">
        <ele>45</ele>
        <time>2017-09-26T01:50:53Z</time>
      </trkpt>
      <trkpt lat="47.2606" lon="0.43553">
        <ele>45</ele>
        <time>2017-09-26T01:52:53Z</time>
      </trkpt>
      <trkpt lat="47.26039" lon="0.43663">
        <ele>45</ele>
        <time>2017-09-26T01:54:53Z</time>
      </trkpt>
      <trkpt lat="47.26037" lon="0.43675">
        <ele>45</ele>
        <time>2017-09-26T01:56:53Z</time>
      </trkpt>
      <trkpt lat="47.26028" lon="0.43725">
        <ele>44</ele>
        <time>2017-09-26T01:58:53Z</time>
      </trkpt>
      <trkpt lat="47.26004" lon="0.4385">
        <ele>45</ele>
        <time>2017-09-26T02:00:53Z</time>
      </trkpt>
      <trkpt lat="47.25998" lon="0.43887">
        <ele>45</ele>
        <time>2017-09-26T02:02:53Z</time>
      </trkpt>
      <trkpt lat="47.25985" lon="0.44002">
        <ele>44</ele>
        <time>2017-09-26T02:04:53Z</time>
      </trkpt>
      <trkpt lat="47.25981" lon="0.44027">
        <ele>44</ele>
        <time>2017-09-26T02:06:53Z</time>
      </trkpt>
      <trkpt lat="47.25977" lon="0.44054">
        <ele>44</ele>
        <time>2017-09-26T02:08:53Z</time>
      </trkpt>
      <trkpt lat="47.25962" lon="0.44113">
        <ele>45</ele>
        <time>2017-09-26T02:10:53Z</time>
      </trkpt>
      <trkpt lat="47.25961" lon="0.44123">
        <ele>45</ele>
        <time>2017-09-26T02:12:53Z</time>
      </trkpt>
      <trkpt lat="47.25959" lon="0.44131">
        <ele>45</ele>
        <time>2017-09-26T02:14:53Z</time>
      </trkpt>
      <trkpt lat="47.25957" lon="0.44155">
        <ele>45</ele>
        <time>2017-09-26T02:16:53Z</time>
      </trkpt>
      <trkpt lat="47.25954" lon="0.44192">
        <ele>45</ele>
        <time>2017-09-26T02:18:53Z</time>
      </trkpt>
      <trkpt lat="47.25949" lon="0.44256">
        <ele>45</ele>
        <time>2017-09-26T02:20:53Z</time>
      </trkpt>
      <trkpt lat="47.25946" lon="0.44302">
        <ele>45</ele>
        <time>2017-09-26T02:22:53Z</time>
      </trkpt>
      <trkpt lat="47.2594" lon="0.44361">
        <ele>45</ele>
        <time>2017-09-26T02:24:53Z</time>
      </trkpt>
      <trkpt lat="47.25931" lon="0.44457">
        <ele>46</ele>
        <time>2017-09-26T02:26:53Z</time>
      </trkpt>
      <trkpt lat="47.25927" lon="0.44485">
        <ele>46</ele>
        <time>2017-09-26T02:28:53Z</time>
      </trkpt>
      <trkpt lat="47.25921" lon="0.44515">
        <ele>46</ele>
        <time>2017-09-26T02:30:53Z</time>
      </trkpt>
      <trkpt lat="47.25913" lon="0.44546">
        <ele>46</ele>
        <time>2017-09-26T02:32:53Z</time>
      </trkpt>
      <trkpt lat="47.25903" lon="0.44586">
        <ele>47</ele>
        <time>2017-09-26T02:34:53Z</time>
      </trkpt>
      <trkpt lat="47.25885" lon="0.44648">
        <ele>48</ele>
        <time>2017-09-26T02:36:53Z</time>
      </trkpt>
      <trkpt lat="47.25881" lon="0.4466">
        <ele>48</ele>
        <time>2017-09-26T02:38:53Z</time>
      </trkpt>
      <trkpt lat="47.25877" lon="0.44674">
        <ele>49</ele>
        <time>2017-09-26T02:40:53Z</time>
      </trkpt>
      <trkpt lat="47.25874" lon="0.44682">
        <ele>49</ele>
        <time>2017-09-26T02:42:53Z</time>
      </trkpt>
      <trkpt lat="47.25869" lon="0.44692">
        <ele>49</ele>
        <time>2017-09-26T02:44:53Z</time>
      </trkpt>
      <trkpt lat="47.25864" lon="0.44702">
        <ele>49</ele>
        <time>2017-09-26T02:46:53Z</time>
      </trkpt>
      <trkpt lat="47.25859" lon="0.44712">
        <ele>49</ele>
        <time>2017-09-26T02:48:53Z</time>
      </trkpt>
      <trkpt lat="47.25853" lon="0.44721">
        <ele>49</ele>
        <time>2017-09-26T02:50:53Z</time>
      </trkpt>
      <trkpt lat="47.25848" lon="0.4473">
        <ele>49</ele>
        <time>2017-09-26T02:52:53Z</time>
      </trkpt>
      <trkpt lat="47.25842" lon="0.44739">
        <ele>49</ele>
        <time>2017-09-26T02:54:53Z</time>
      </trkpt>
      <trkpt lat="47.25836" lon="0.44748">
        <ele>49</ele>
        <time>2017-09-26T02:56:53Z</time>
      </trkpt>
      <trkpt lat="47.2583" lon="0.44758">
        <ele>49</ele>
        <time>2017-09-26T02:58:53Z</time>
      </trkpt>
      <trkpt lat="47.25818" lon="0.44777">
        <ele>49</ele>
        <time>2017-09-26T03:00:53Z</time>
      </trkpt>
      <trkpt lat="47.25812" lon="0.44786">
        <ele>49</ele>
        <time>2017-09-26T03:02:53Z</time>
      </trkpt>
      <trkpt lat="47.25808" lon="0.44795">
        <ele>50</ele>
        <time>2017-09-26T03:04:53Z</time>
      </trkpt>
      <trkpt lat="47.25801" lon="0.44805">
        <ele>50</ele>
        <time>2017-09-26T03:06:53Z</time>
      </trkpt>
      <trkpt lat="47.25791" lon="0.44825">
        <ele>50</ele>
        <time>2017-09-26T03:08:53Z</time>
      </trkpt>
      <trkpt lat="47.25748" lon="0.44908">
        <ele>47</ele>
        <time>2017-09-26T03:10:53Z</time>
      </trkpt>
      <trkpt lat="47.25741" lon="0.44923">
        <ele>46</ele>
        <time>2017-09-26T03:12:53Z</time>
      </trkpt>
      <trkpt lat="47.25736" lon="0.44932">
        <ele>46</ele>
        <time>2017-09-26T03:14:53Z</time>
      </trkpt>
      <trkpt lat="47.25731" lon="0.44942">
        <ele>46</ele>
        <time>2017-09-26T03:16:53Z</time>
      </trkpt>
      <trkpt lat="47.25729" lon="0.44949">
        <ele>46</ele>
        <time>2017-09-26T03:18:53Z</time>
      </trkpt>
      <trkpt lat="47.25723" lon="0.44964">
        <ele>45</ele>
        <time>2017-09-26T03:20:53Z</time>
      </trkpt>
      <trkpt lat="47.25718" lon="0.44979">
        <ele>45</ele>
        <time>2017-09-26T03:22:53Z</time>
      </trkpt>
      <trkpt lat="47.25716" lon="0.44987">
        <ele>45</ele>
        <time>2017-09-26T03:24:53Z</time>
      </trkpt>
      <trkpt lat="47.25714" lon="0.44999">
        <ele>45</ele>
        <time>2017-09-26T03:26:53Z</time>
      </trkpt>
      <trkpt lat="47.25712" lon="0.4501">
        <ele>45</ele>
        <time>2017-09-26T03:28:53Z</time>
      </trkpt>
      <trkpt lat="47.25711" lon="0.45023">
        <ele>46</ele>
        <time>2017-09-26T03:30:53Z</time>
      </trkpt>
      <trkpt lat="47.2571" lon="0.45032">
        <ele>47</ele>
        <time>2017-09-26T03:32:53Z</time>
      </trkpt>
      <trkpt lat="47.2571" lon="0.45038">
        <ele>47</ele>
        <time>2017-09-26T03:34:53Z</time>
      </trkpt>
      <trkpt lat="47.2571" lon="0.45045">
        <ele>48</ele>
        <time>2017-09-26T03:36:53Z</time>
      </trkpt>
      <trkpt lat="47.25709" lon="0.45052">
        <ele>48</ele>
        <time>2017-09-26T03:38:53Z</time>
      </trkpt>
      <trkpt lat="47.25709" lon="0.45082">
        <ele>50</ele>
        <time>2017-09-26T03:40:53Z</time>
      </trkpt>
      <trkpt lat="47.25708" lon="0.45089">
        <ele>51</ele>
        <time>2017-09-26T03:42:53Z</time>
      </trkpt>
      <trkpt lat="47.25708" lon="0.45098">
        <ele>51</ele>
        <time>2017-09-26T03:44:53Z</time>
      </trkpt>
      <trkpt lat="47.25708" lon="0.45111">
        <ele>51</ele>
        <time>2017-09-26T03:46:53Z</time>
      </trkpt>
      <trkpt lat="47.25707" lon="0.45129">
        <ele>51</ele>
        <time>2017-09-26T03:48:53Z</time>
      </trkpt>
      <trkpt lat="47.25706" lon="0.45148">
        <ele>51</ele>
        <time>2017-09-26T03:50:53Z</time>
      </trkpt>
      <trkpt lat="47.25705" lon="0.45173">
        <ele>52</ele>
        <time>2017-09-26T03:52:53Z</time>
      </trkpt>
      <trkpt lat="47.25703" lon="0.45184">
        <ele>51</ele>
        <time>2017-09-26T03:54:53Z</time>
      </trkpt>
      <trkpt lat="47.25702" lon="0.45194">
        <ele>51</ele>
        <time>2017-09-26T03:56:53Z</time>
      </trkpt>
      <trkpt lat="47.25699" lon="0.45207">
        <ele>51</ele>
        <time>2017-09-26T03:58:53Z</time>
      </trkpt>
      <trkpt lat="47.25697" lon="0.45219">
        <ele>51</ele>
        <time>2017-09-26T04:00:53Z</time>
      </trkpt>
      <trkpt lat="47.25691" lon="0.45242">
        <ele>51</ele>
        <time>2017-09-26T04:02:53Z</time>
      </trkpt>
      <trkpt lat="47.25685" lon="0.45265">
        <ele>51</ele>
        <time>2017-09-26T04:04:53Z</time>
      </trkpt>
      <trkpt lat="47.25675" lon="0.45299">
        <ele>51</ele>
        <time>2017-09-26T04:06:53Z</time>
      </trkpt>
      <trkpt lat="47.25668" lon="0.45322">
        <ele>51</ele>
        <time>2017-09-26T04:08:53Z</time>
      </trkpt>
      <trkpt lat="47.25661" lon="0.45345">
        <ele>51</ele>
        <time>2017-09-26T04:10:53Z</time>
      </trkpt>
      <trkpt lat="47.25651" lon="0.4538">
        <ele>52</ele>
        <time>2017-09-26T04:12:53Z</time>
      </trkpt>
      <trkpt lat="47.25645" lon="0.45404">
        <ele>53</ele>
        <time>2017-09-26T04:14:53Z</time>
      </trkpt>
      <trkpt lat="47.25638" lon="0.45428">
        <ele>53</ele>
        <time>2017-09-26T04:16:53Z</time>
      </trkpt>
      <trkpt lat="47.25631" lon="0.45453">
        <ele>53</ele>
        <time>2017-09-26T04:18:53Z</time>
      </trkpt>
      <trkpt lat="47.25624" lon="0.45478">
        <ele>53</ele>
        <time>2017-09-26T04:20:53Z</time>
      </trkpt>
      <trkpt lat="47.2562" lon="0.4549">
        <ele>52</ele>
        <time>2017-09-26T04:22:53Z</time>
      </trkpt>
      <trkpt lat="47.25613" lon="0.45515">
        <ele>52</ele>
        <time>2017-09-26T04:24:53Z</time>
      </trkpt>
      <trkpt lat="47.25613" lon="0.45516">
        <ele>52</ele>
        <time>2017-09-26T04:26:53Z</time>
      </trkpt>
      <trkpt lat="47.25604" lon="0.45544">
        <ele>52</ele>
        <time>2017-09-26T04:28:53Z</time>
      </trkpt>
      <trkpt lat="47.25604" lon="0.45546">
        <ele>52</ele>
        <time>2017-09-26T04:30:53Z</time>
      </trkpt>
      <trkpt lat="47.25599" lon="0.45563">
        <ele>52</ele>
        <time>2017-09-26T04:32:53Z</time>
      </trkpt>
      <trkpt lat="47.25599" lon="0.45564">
        <ele>52</ele>
        <time>2017-09-26T04:34:53Z</time>
      </trkpt>
      <trkpt lat="47.25594" lon="0.45581">
        <ele>52</ele>
        <time>2017-09-26T04:36:53Z</time>
      </trkpt>
      <trkpt lat="47.25588" lon="0.45602">
        <ele>53</ele>
        <time>2017-09-26T04:38:53Z</time>
      </trkpt>
      <trkpt lat="47.25578" lon="0.45635">
        <ele>54</ele>
        <time>2017-09-26T04:40:53Z</time>
      </trkpt>
      <trkpt lat="47.25571" lon="0.45659">
        <ele>55</ele>
        <time>2017-09-26T04:42:53Z</time>
      </trkpt>
      <trkpt lat="47.25562" lon="0.45693">
        <ele>55</ele>
        <time>2017-09-26T04:44:53Z</time>
      </trkpt>
      <trkpt lat="47.25558" lon="0.45703">
        <ele>56</ele>
        <time>2017-09-26T04:46:53Z</time>
      </trkpt>
      <trkpt lat="47.25553" lon="0.45722">
        <ele>56</ele>
        <time>2017-09-26T04:48:53Z</time>
      </trkpt>
      <trkpt lat="47.25531" lon="0.45775">
        <ele>57</ele>
        <time>2017-09-26T04:50:53Z</time>
      </trkpt>
      <trkpt lat="47.25485" lon="0.4588">
        <ele>57</ele>
        <time>2017-09-26T04:52:53Z</time>
      </trkpt>
      <trkpt lat="47.25475" lon="0.45905">
        <ele>56</ele>
        <time>2017-09-26T04:54:53Z</time>
      </trkpt>
      <trkpt lat="47.25472" lon="0.4592">
        <ele>56</ele>
        <time>2017-09-26T04:56:53Z</time>
      </trkpt>
      <trkpt lat="47.2547" lon="0.45931">
        <ele>56</ele>
        <time>2017-09-26T04:58:53Z</time>
      </trkpt>
      <trkpt lat="47.25469" lon="0.45939">
        <ele>56</ele>
        <time>2017-09-26T05:00:53Z</time>
      </trkpt>
      <trkpt lat="47.25468" lon="0.45948">
        <ele>56</ele>
        <time>2017-09-26T05:02:53Z</time>
      </trkpt>
      <trkpt lat="47.25467" lon="0.45968">
        <ele>55</ele>
        <time>2017-09-26T05:04:53Z</time>
      </trkpt>
      <trkpt lat="47.25465" lon="0.46026">
        <ele>55</ele>
        <time>2017-09-26T05:06:53Z</time>
      </trkpt>
      <trkpt lat="47.25464" lon="0.46052">
        <ele>54</ele>
        <time>2017-09-26T05:08:53Z</time>
      </trkpt>
      <trkpt lat="47.25463" lon="0.46068">
        <ele>54</ele>
        <time>2017-09-26T05:10:53Z</time>
      </trkpt>
      <trkpt lat="47.25462" lon="0.4608">
        <ele>54</ele>
        <time>2017-09-26T05:12:53Z</time>
      </trkpt>
      <trkpt lat="47.25462" lon="0.46087">
        <ele>54</ele>
        <time>2017-09-26T05:14:53Z</time>
      </trkpt>
      <trkpt lat="47.25459" lon="0.46104">
        <ele>54</ele>
        <time>2017-09-26T05:16:53Z</time>
      </trkpt>
      <trkpt lat="47.25453" lon="0.46124">
        <ele>54</ele>
        <time>2017-09-26T05:18:53Z</time>
      </trkpt>
      <trkpt lat="47.25446" lon="0.46147">
        <ele>54</ele>
        <time>2017-09-26T05:20:53Z</time>
      </trkpt>
      <trkpt lat="47.25443" lon="0.46156">
        <ele>54</ele>
        <time>2017-09-26T05:22:53Z</time>
      </trkpt>
      <trkpt lat="47.25441" lon="0.46159">
        <ele>54</ele>
        <time>2017-09-26T05:24:53Z</time>
      </trkpt>
      <trkpt lat="47.25441" lon="0.46161">
        <ele>54</ele>
        <time>2017-09-26T05:26:53Z</time>
      </trkpt>
      <trkpt lat="47.25439" lon="0.46164">
        <ele>54</ele>
        <time>2017-09-26T05:28:53Z</time>
      </trkpt>
      <trkpt lat="47.25434" lon="0.4617">
        <ele>55</ele>
        <time>2017-09-26T05:30:53Z</time>
      </trkpt>
      <trkpt lat="47.25434" lon="0.4617">
        <ele>55</ele>
        <time>2017-09-26T05:32:53Z</time>
      </trkpt>
      <trkpt lat="47.25439" lon="0.46182">
        <ele>54</ele>
        <time>2017-09-26T05:34:53Z</time>
      </trkpt>
      <trkpt lat="47.25458" lon="0.46216">
        <ele>52</ele>
        <time>2017-09-26T05:36:53Z</time>
      </trkpt>
      <trkpt lat="47.25458" lon="0.46216">
        <ele>52</ele>
        <time>2017-09-26T05:38:53Z</time>
      </trkpt>
      <trkpt lat="47.2543" lon="0.46265">
        <ele>53</ele>
        <time>2017-09-26T05:40:53Z</time>
      </trkpt>
      <trkpt lat="47.25424" lon="0.46281">
        <ele>53</ele>
        <time>2017-09-26T05:42:53Z</time>
      </trkpt>
      <trkpt lat="47.25403" lon="0.4636">
        <ele>53</ele>
        <time>2017-09-26T05:44:53Z</time>
      </trkpt>
      <trkpt lat="47.25401" lon="0.46368">
        <ele>53</ele>
        <time>2017-09-26T05:46:53Z</time>
      </trkpt>
      <trkpt lat="47.25383" lon="0.46405">
        <ele>54</ele>
        <time>2017-09-26T05:48:53Z</time>
      </trkpt>
      <trkpt lat="47.25364" lon="0.46442">
        <ele>56</ele>
        <time>2017-09-26T05:50:53Z</time>
      </trkpt>
      <trkpt lat="47.25362" lon="0.46448">
        <ele>56</ele>
        <time>2017-09-26T05:52:53Z</time>
      </trkpt>
      <trkpt lat="47.25356" lon="0.46467">
        <ele>57</ele>
        <time>2017-09-26T05:54:53Z</time>
      </trkpt>
      <trkpt lat="47.25355" lon="0.46472">
        <ele>58</ele>
        <time>2017-09-26T05:56:53Z</time>
      </trkpt>
      <trkpt lat="47.25344" lon="0.46509">
        <ele>59</ele>
        <time>2017-09-26T05:58:53Z</time>
      </trkpt>
      <trkpt lat="47.2534" lon="0.46524">
        <ele>59</ele>
        <time>2017-09-26T06:00:53Z</time>
      </trkpt>
      <trkpt lat="47.25319" lon="0.46581">
        <ele>59</ele>
        <time>2017-09-26T06:02:53Z</time>
      </trkpt>
      <trkpt lat="47.25281" lon="0.46675">
        <ele>57</ele>
        <time>2017-09-26T06:04:53Z</time>
      </trkpt>
      <trkpt lat="47.25274" lon="0.46698">
        <ele>57</ele>
        <time>2017-09-26T06:06:53Z</time>
      </trkpt>
      <trkpt lat="47.25271" lon="0.46711">
        <ele>57</ele>
        <time>2017-09-26T06:08:53Z</time>
      </trkpt>
      <trkpt lat="47.25266" lon="0.46734">
        <ele>57</ele>
        <time>2017-09-26T06:10:53Z</time>
      </trkpt>
      <trkpt lat="47.25263" lon="0.46758">
        <ele>57</ele>
        <time>2017-09-26T06:12:53Z</time>
      </trkpt>
      <trkpt lat="47.25261" lon="0.46793">
        <ele>56</ele>
        <time>2017-09-26T06:14:53Z</time>
      </trkpt>
      <trkpt lat="47.25256" lon="0.46858">
        <ele>54</ele>
        <time>2017-09-26T06:16:53Z</time>
      </trkpt>
      <trkpt lat="47.25253" lon="0.46884">
        <ele>54</ele>
        <time>2017-09-26T06:18:53Z</time>
      </trkpt>
      <trkpt lat="47.25249" lon="0.46914">
        <ele>53</ele>
        <time>2017-09-26T06:20:53Z</time>
      </trkpt>
      <trkpt lat="47.25245" lon="0.46933">
        <ele>53</ele>
        <time>2017-09-26T06:22:53Z</time>
      </trkpt>
      <trkpt lat="47.25236" lon="0.46958">
        <ele>53</ele>
        <time>2017-09-26T06:24:53Z</time>
      </trkpt>
      <trkpt lat="47.25235" lon="0.46961">
        <ele>53</ele>
        <time>2017-09-26T06:26:53Z</time>
      </trkpt>
      <trkpt lat="47.25232" lon="0.46969">
        <ele>52</ele>
        <time>2017-09-26T06:28:53Z</time>
      </trkpt>
      <trkpt lat="47.25229" lon="0.46976">
        <ele>52</ele>
        <time>2017-09-26T06:30:53Z</time>
      </trkpt>
      <trkpt lat="47.25219" lon="0.47001">
        <ele>52</ele>
        <time>2017-09-26T06:32:53Z</time>
      </trkpt>
      <trkpt lat="47.25214" lon="0.47013">
        <ele>53</ele>
        <time>2017-09-26T06:34:53Z</time>
      </trkpt>
      <trkpt lat="47.25204" lon="0.47042">
        <ele>53</ele>
        <time>2017-09-26T06:36:53Z</time>
      </trkpt>
      <trkpt lat="47.25192" lon="0.47078">
        <ele>55</ele>
        <time>2017-09-26T06:38:53Z</time>
      </trkpt>
      <trkpt lat="47.25181" lon="0.47123">
        <ele>56</ele>
        <time>2017-09-26T06:40:53Z</time>
      </trkpt>
      <trkpt lat="47.25173" lon="0.47166">
        <ele>56</ele>
        <time>2017-09-26T06:42:53Z</time>
      </trkpt>
      <trkpt lat="47.25171" lon="0.47202">
        <ele>56</ele>
        <time>2017-09-26T06:44:53Z</time>
      </trkpt>
      <trkpt lat="47.25167" lon="0.47246">
        <ele>57</ele>
        <time>2017-09-26T06:46:53Z</time>
      </trkpt>
      <trkpt lat="47.25166" lon="0.47256">
        <ele>57</ele>
        <time>2017-09-26T06:48:53Z</time>
      </trkpt>
      <trkpt lat="47.25164" lon="0.47264">
        <ele>57</ele>
        <time>2017-09-26T06:50:53Z</time>
      </trkpt>
      <trkpt lat="47.25162" lon="0.47272">
        <ele>57</ele>
        <time>2017-09-26T06:52:53Z</time>
      </trkpt>
      <trkpt lat="47.2516" lon="0.47277">
        <ele>57</ele>
        <time>2017-09-26T06:54:53Z</time>
      </trkpt>
      <trkpt lat="47.25157" lon="0.47283">
        <ele>57</ele>
        <time>2017-09-26T06:56:53Z</time>
      </trkpt>
      <trkpt lat="47.25157" lon="0.47283">
        <ele>57</ele>
        <time>2017-09-26T06:58:53Z</time>
      </trkpt>
      <trkpt lat="47.25162" lon="0.47297">
        <ele>57</ele>
        <time>2017-09-26T07:00:53Z</time>
      </trkpt>
      <trkpt lat="47.25162" lon="0.47302">
        <ele>57</ele>
        <time>2017-09-26T07:02:53Z</time>
      </trkpt>
      <trkpt lat="47.25162" lon="0.47307">
        <ele>57</ele>
        <time>2017-09-26T07:04:53Z</time>
      </trkpt>
      <trkpt lat="47.25162" lon="0.47316">
        <ele>57</ele>
        <time>2017-09-26T07:06:53Z</time>
      </trkpt>
      <trkpt lat="47.2516" lon="0.47338">
        <ele>57</ele>
        <time>2017-09-26T07:08:53Z</time>
      </trkpt>
      <trkpt lat="47.25158" lon="0.47358">
        <ele>56</ele>
        <time>2017-09-26T07:10:53Z</time>
      </trkpt>
      <trkpt lat="47.25156" lon="0.47382">
        <ele>55</ele>
        <time>2017-09-26T07:12:53Z</time>
      </trkpt>
      <trkpt lat="47.25152" lon="0.47407">
        <ele>54</ele>
        <time>2017-09-26T07:14:53Z</time>
      </trkpt>
      <trkpt lat="47.25147" lon="0.47431">
        <ele>54</ele>
        <time>2017-09-26T07:16:53Z</time>
      </trkpt>
      <trkpt lat="47.25142" lon="0.47457">
        <ele>54</ele>
        <time>2017-09-26T07:18:53Z</time>
      </trkpt>
      <trkpt lat="47.25139" lon="0.47474">
        <ele>53</ele>
        <time>2017-09-26T07:20:53Z</time>
      </trkpt>
      <trkpt lat="47.25136" lon="0.47496">
        <ele>53</ele>
        <time>2017-09-26T07:22:53Z</time>
      </trkpt>
      <trkpt lat="47.25135" lon="0.47522">
        <ele>53</ele>
        <time>2017-09-26T07:24:53Z</time>
      </trkpt>
      <trkpt lat="47.25135" lon="0.47564">
        <ele>53</ele>
        <time>2017-09-26T07:26:53Z</time>
      </trkpt>
      <trkpt lat="47.25135" lon="0.47607">
        <ele>53</ele>
        <time>2017-09-26T07:28:53Z</time>
      </trkpt>
      <trkpt lat="47.25134" lon="0.47664">
        <ele>54</ele>
        <time>2017-09-26T07:30:53Z</time>
      </trkpt>
      <trkpt lat="47.25131" lon="0.47716">
        <ele>54</ele>
        <time>2017-09-26T07:32:53Z</time>
      </trkpt>
      <trkpt lat="47.25131" lon="0.47732">
        <ele>54</ele>
        <time>2017-09-26T07:34:53Z</time>
      </trkpt>
      <trkpt lat="47.25127" lon="0.47781">
        <ele>54</ele>
        <time>2017-09-26T07:36:53Z</time>
      </trkpt>
      <trkpt lat="47.25124" lon="0.47848">
        <ele>53</ele>
        <time>2017-09-26T07:38:53Z</time>
      </trkpt>
      <trkpt lat="47.25124" lon="0.47883">
        <ele>53</ele>
        <time>2017-09-26T07:40:53Z</time>
      </trkpt>
      <trkpt lat="47.25123" lon="0.47917">
        <ele>53</ele>
        <time>2017-09-26T07:42:53Z</time>
      </trkpt>
      <trkpt lat="47.25122" lon="0.47926">
        <ele>52</ele>
        <time>2017-09-26T07:44:53Z</time>
      </trkpt>
      <trkpt lat="47.25122" lon="0.47952">
        <ele>52</ele>
        <time>2017-09-26T07:46:53Z</time>
      </trkpt>
      <trkpt lat="47.25121" lon="0.47972">
        <ele>52</ele>
        <time>2017-09-26T07:48:53Z</time>
      </trkpt>
      <trkpt lat="47.25121" lon="0.47992">
        <ele>51</ele>
        <time>2017-09-26T07:50:53Z</time>
      </trkpt>
      <trkpt lat="47.2512" lon="0.48028">
        <ele>51</ele>
        <time>2017-09-26T07:52:53Z</time>
      </trkpt>
      <trkpt lat="47.25114" lon="0.48124">
        <ele>51</ele>
        <time>2017-09-26T07:54:53Z</time>
      </trkpt>
      <trkpt lat="47.25107" lon="0.48197">
        <ele>52</ele>
        <time>2017-09-26T07:56:53Z</time>
      </trkpt>
      <trkpt lat="47.25104" lon="0.48225">
        <ele>52</ele>
        <time>2017-09-26T07:58:53Z</time>
      </trkpt>
      <trkpt lat="47.25094" lon="0.48339">
        <ele>53</ele>
        <time>2017-09-26T08:00:53Z</time>
      </trkpt>
      <trkpt lat="47.25092" lon="0.48373">
        <ele>54</ele>
        <time>2017-09-26T08:02:53Z</time>
      </trkpt>
      <trkpt lat="47.2509" lon="0.48405">
        <ele>54</ele>
        <time>2017-09-26T08:04:53Z</time>
      </trkpt>
      <trkpt lat="47.25087" lon="0.48472">
        <ele>55</ele>
        <time>2017-09-26T08:06:53Z</time>
      </trkpt>
      <trkpt lat="47.25085" lon="0.48524">
        <ele>54</ele>
        <time>2017-09-26T08:08:53Z</time>
      </trkpt>
      <trkpt lat="47.25081" lon="0.48603">
        <ele>53</ele>
        <time>2017-09-26T08:10:53Z</time>
      </trkpt>
      <trkpt lat="47.25081" lon="0.4862">
        <ele>53</ele>
        <time>2017-09-26T08:12:53Z</time>
      </trkpt>
      <trkpt lat="47.25079" lon="0.48668">
        <ele>53</ele>
        <time>2017-09-26T08:14:53Z</time>
      </trkpt>
      <trkpt lat="47.25078" lon="0.487">
        <ele>53</ele>
        <time>2017-09-26T08:16:53Z</time>
      </trkpt>
      <trkpt lat="47.25075" lon="0.48735">
        <ele>53</ele>
        <time>2017-09-26T08:18:53Z</time>
      </trkpt>
      <trkpt lat="47.25072" lon="0.48771">
        <ele>54</ele>
        <time>2017-09-26T08:20:53Z</time>
      </trkpt>
      <trkpt lat="47.25071" lon="0.48785">
        <ele>54</ele>
        <time>2017-09-26T08:22:53Z</time>
      </trkpt>
      <trkpt lat="47.2507" lon="0.48804">
        <ele>54</ele>
        <time>2017-09-26T08:24:53Z</time>
      </trkpt>
      <trkpt lat="47.25069" lon="0.48829">
        <ele>55</ele>
        <time>2017-09-26T08:26:53Z</time>
      </trkpt>
      <trkpt lat="47.2507" lon="0.48894">
        <ele>56</ele>
        <time>2017-09-26T08:28:53Z</time>
      </trkpt>
      <trkpt lat="47.2507" lon="0.48902">
        <ele>57</ele>
        <time>2017-09-26T08:30:53Z</time>
      </trkpt>
      <trkpt lat="47.2507" lon="0.48916">
        <ele>57</ele>
        <time>2017-09-26T08:32:53Z</time>
      </trkpt>
      <trkpt lat="47.25071" lon="0.48925">
        <ele>57</ele>
        <time>2017-09-26T08:34:53Z</time>
      </trkpt>
      <trkpt lat="47.25067" lon="0.48966">
        <ele>57</ele>
        <time>2017-09-26T08:36:53Z</time>
      </trkpt>
      <trkpt lat="47.25062" lon="0.48998">
        <ele>57</ele>
        <time>2017-09-26T08:38:53Z</time>
      </trkpt>
      <trkpt lat="47.25061" lon="0.49009">
        <ele>56</ele>
        <time>2017-09-26T08:40:53Z</time>
      </trkpt>
      <trkpt lat="47.25058" lon="0.49025">
        <ele>56</ele>
        <time>2017-09-26T08:42:53Z</time>
      </trkpt>
      <trkpt lat="47.25034" lon="0.4917">
        <ele>57</ele>
        <time>2017-09-26T08:44:53Z</time>
      </trkpt>
      <trkpt lat="47.25029" lon="0.49194">
        <ele>56</ele>
        <time>2017-09-26T08:46:53Z</time>
      </trkpt>
      <trkpt lat="47.25027" lon="0.49202">
        <ele>56</ele>
        <time>2017-09-26T08:48:53Z</time>
      </trkpt>
      <trkpt lat="47.2502" lon="0.49221">
        <ele>56</ele>
        <time>2017-09-26T08:50:53Z</time>
      </trkpt>
      <trkpt lat="47.25018" lon="0.49225">
        <ele>56</ele>
        <time>2017-09-26T08:52:53Z</time>
      </trkpt>
      <trkpt lat="47.25004" lon="0.49257">
        <ele>55</ele>
        <time>2017-09-26T08:54:53Z</time>
      </trkpt>
      <trkpt lat="47.24985" lon="0.49298">
        <ele>53</ele>
        <time>2017-09-26T08:56:53Z</time>
      </trkpt>
      <trkpt lat="47.24979" lon="0.49314">
        <ele>53</ele>
        <time>2017-09-26T08:58:53Z</time>
      </trkpt>
      <trkpt lat="47.24968" lon="0.49351">
        <ele>52</ele>
        <time>2017-09-26T09:00:53Z</time>
      </trkpt>
      <trkpt lat="47.24966" lon="0.49359">
        <ele>52</ele>
        <time>2017-09-26T09:02:53Z</time>
      </trkpt>
      <trkpt lat="47.24951" lon="0.49424">
        <ele>53</ele>
        <time>2017-09-26T09:04:53Z</time>
      </trkpt>
      <trkpt lat="47.24943" lon="0.49457">
        <ele>54</ele>
        <time>2017-09-26T09:06:53Z</time>
      </trkpt>
      <trkpt lat="47.24939" lon="0.49477">
        <ele>54</ele>
        <time>2017-09-26T09:08:53Z</time>
      </trkpt>
      <trkpt lat="47.24936" lon="0.49495">
        <ele>55</ele>
        <time>2017-09-26T09:10:53Z</time>
      </trkpt>
      <trkpt lat="47.24934" lon="0.49515">
        <ele>54</ele>
        <time>2017-09-26T09:12:53Z</time>
      </trkpt>
      <trkpt lat="47.24935" lon="0.4954">
        <ele>54</ele>
        <time>2017-09-26T09:14:53Z</time>
      </trkpt>
      <trkpt lat="47.24937" lon="0.49572">
        <ele>54</ele>
        <time>2017-09-26T09:16:53Z</time>
      </trkpt>
      <trkpt lat="47.24944" lon="0.4963">
        <ele>53</ele>
        <time>2017-09-26T09:18:53Z</time>
      </trkpt>
      <trkpt lat="47.24945" lon="0.49665">
        <ele>52</ele>
        <time>2017-09-26T09:20:53Z</time>
      </trkpt>
      <trkpt lat="47.24943" lon="0.49697">
        <ele>52</ele>
        <time>2017-09-26T09:22:53Z</time>
      </trkpt>
      <trkpt lat="47.24929" lon="0.498">
        <ele>52</ele>
        <time>2017-09-26T09:24:53Z</time>
      </trkpt>
      <trkpt lat="47.24928" lon="0.49816">
        <ele>52</ele>
        <time>2017-09-26T09:26:53Z</time>
      </trkpt>
      <trkpt lat="47.24929" lon="0.49856">
        <ele>53</ele>
        <time>2017-09-26T09:28:53Z</time>
      </trkpt>
      <trkpt lat="47.24931" lon="0.49903">
        <ele>54</ele>
        <time>2017-09-26T09:30:53Z</time>
      </trkpt>
      <trkpt lat="47.24932" lon="0.49921">
        <ele>54</ele>
        <time>2017-09-26T09:32:53Z</time>
      </trkpt>
      <trkpt lat="47.24932" lon="0.49955">
        <ele>54</ele>
        <time>2017-09-26T09:34:53Z</time>
      </trkpt>
      <trkpt lat="47.24931" lon="0.49965">
        <ele>54</ele>
        <time>2017-09-26T09:36:53Z</time>
      </trkpt>
      <trkpt lat="47.24927" lon="0.49998">
        <ele>54</ele>
        <time>2017-09-26T09:38:53Z</time>
      </trkpt>
      <trkpt lat="47.24921" lon="0.50034">
        <ele>53</ele>
        <time>2017-09-26T09:40:53Z</time>
      </trkpt>
      <trkpt lat="47.24917" lon="0.50068">
        <ele>52</ele>
        <time>2017-09-26T09:42:53Z</time>
      </trkpt>
      <trkpt lat="47.24915" lon="0.50125">
        <ele>51</ele>
        <time>2017-09-26T09:44:53Z</time>
      </trkpt>
      <trkpt lat="47.24913" lon="0.50248">
        <ele>50</ele>
        <time>2017-09-26T09:46:53Z</time>
      </trkpt>
      <trkpt lat="47.2491" lon="0.50297">
        <ele>50</ele>
        <time>2017-09-26T09:48:53Z</time>
      </trkpt>
      <trkpt lat="47.24902" lon="0.50371">
        <ele>50</ele>
        <time>2017-09-26T09:50:53Z</time>
      </trkpt>
      <trkpt lat="47.24898" lon="0.50396">
        <ele>50</ele>
        <time>2017-09-26T09:52:53Z</time>
      </trkpt>
      <trkpt lat="47.24884" lon="0.50498">
        <ele>50</ele>
        <time>2017-09-26T09:54:53Z</time>
      </trkpt>
      <trkpt lat="47.24879" lon="0.50549">
        <ele>50</ele>
        <time>2017-09-26T09:56:53Z</time>
      </trkpt>
      <trkpt lat="47.24869" lon="0.5064">
        <ele>49</ele>
        <time>2017-09-26T09:58:53Z</time>
      </trkpt>
      <trkpt lat="47.24862" lon="0.50707">
        <ele>47</ele>
        <time>2017-09-26T10:00:53Z</time>
      </trkpt>
      <trkpt lat="47.24852" lon="0.50762">
        <ele>47</ele>
        <time>2017-09-26T10:02:53Z</time>
      </trkpt>
      <trkpt lat="47.2483" lon="0.50842">
        <ele>50</ele>
        <time>2017-09-26T10:04:53Z</time>
      </trkpt>
      <trkpt lat="47.24819" lon="0.50885">
        <ele>49</ele>
        <time>2017-09-26T10:06:53Z</time>
      </trkpt>
      <trkpt lat="47.24777" lon="0.51033">
        <ele>49</ele>
        <time>2017-09-26T10:08:53Z</time>
      </trkpt>
      <trkpt lat="47.24769" lon="0.51058">
        <ele>49</ele>
        <time>2017-09-26T10:10:53Z</time>
      </trkpt>
      <trkpt lat="47.24745" lon="0.51133">
        <ele>48</ele>
        <time>2017-09-26T10:12:53Z</time>
      </trkpt>
      <trkpt lat="47.24736" lon="0.51167">
        <ele>47</ele>
        <time>2017-09-26T10:14:53Z</time>
      </trkpt>
      <trkpt lat="47.24734" lon="0.51188">
        <ele>47</ele>
        <time>2017-09-26T10:16:53Z</time>
      </trkpt>
      <trkpt lat="47.24731" lon="0.51253">
        <ele>44</ele>
        <time>2017-09-26T10:18:53Z</time>
      </trkpt>
      <trkpt lat="47.2473" lon="0.51269">
        <ele>45</ele>
        <time>2017-09-26T10:20:53Z</time>
      </trkpt>
      <trkpt lat="47.2473" lon="0.51285">
        <ele>45</ele>
        <time>2017-09-26T10:22:53Z</time>
      </trkpt>
      <trkpt lat="47.2473" lon="0.51316">
        <ele>45</ele>
        <time>2017-09-26T10:24:53Z</time>
      </trkpt>
      <trkpt lat="47.24734" lon="0.51344">
        <ele>46</ele>
        <time>2017-09-26T10:26:53Z</time>
      </trkpt>
      <trkpt lat="47.24737" lon="0.51356">
        <ele>46</ele>
        <time>2017-09-26T10:28:53Z</time>
      </trkpt>
      <trkpt lat="47.24745" lon="0.5139">
        <ele>47</ele>
        <time>2017-09-26T10:30:53Z</time>
      </trkpt>
      <trkpt lat="47.24758" lon="0.51432">
        <ele>48</ele>
        <time>2017-09-26T10:32:53Z</time>
      </trkpt>
      <trkpt lat="47.24768" lon="0.51466">
        <ele>47</ele>
        <time>2017-09-26T10:34:53Z</time>
      </trkpt>
      <trkpt lat="47.24792" lon="0.5155">
        <ele>47</ele>
        <time>2017-09-26T10:36:53Z</time>
      </trkpt>
      <trkpt lat="47.24799" lon="0.51576">
        <ele>47</ele>
        <time>2017-09-26T10:38:53Z</time>
      </trkpt>
      <trkpt lat="47.24805" lon="0.516">
        <ele>47</ele>
        <time>2017-09-26T10:40:53Z</time>
      </trkpt>
      <trkpt lat="47.24813" lon="0.51635">
        <ele>48</ele>
        <time>2017-09-26T10:42:53Z</time>
      </trkpt>
      <trkpt lat="47.24814" lon="0.51659">
        <ele>48</ele>
        <time>2017-09-26T10:44:53Z</time>
      </trkpt>
      <trkpt lat="47.24814" lon="0.51692">
        <ele>48</ele>
        <time>2017-09-26T10:46:53Z</time>
      </trkpt>
      <trkpt lat="47.24811" lon="0.51743">
        <ele>48</ele>
        <time>2017-09-26T10:48:53Z</time>
      </trkpt>
      <trkpt lat="47.24808" lon="0.51797">
        <ele>46</ele>
        <time>2017-09-26T10:50:53Z</time>
      </trkpt>
      <trkpt lat="47.24803" lon="0.51851">
        <ele>46</ele>
        <time>2017-09-26T10:52:53Z</time>
      </trkpt>
      <trkpt lat="47.24795" lon="0.51928">
        <ele>47</ele>
        <time>2017-09-26T10:54:53Z</time>
      </trkpt>
      <trkpt lat="47.24793" lon="0.51942">
        <ele>47</ele>
        <time>2017-09-26T10:56:53Z</time>
      </trkpt>
      <trkpt lat="47.24784" lon="0.52031">
        <ele>46</ele>
        <time>2017-09-26T10:58:53Z</time>
      </trkpt>
      <trkpt lat="47.24783" lon="0.52042">
        <ele>46</ele>
        <time>2017-09-26T11:00:53Z</time>
      </trkpt>
      <trkpt lat="47.24778" lon="0.5214">
        <ele>47</ele>
        <time>2017-09-26T11:02:53Z</time>
      </trkpt>
      <trkpt lat="47.24777" lon="0.52193">
        <ele>48</ele>
        <time>2017-09-26T11:04:53Z</time>
      </trkpt>
      <trkpt lat="47.24777" lon="0.52277">
        <ele>48</ele>
        <time>2017-09-26T11:06:53Z</time>
      </trkpt>
      <trkpt lat="47.24775" lon="0.52318">
        <ele>48</ele>
        <time>2017-09-26T11:08:53Z</time>
      </trkpt>
      <trkpt lat="47.24774" lon="0.52355">
        <ele>47</ele>
        <time>2017-09-26T11:10:53Z</time>
      </trkpt>
      <trkpt lat="47.24771" lon="0.52421">
        <ele>47</ele>
        <time>2017-09-26T11:12:53Z</time>
      </trkpt>
      <trkpt lat="47.24769" lon="0.52439">
        <ele>47</ele>
        <time>2017-09-26T11:14:53Z</time>
      </trkpt>
      <trkpt lat="47.24768" lon="0.52459">
        <ele>47</ele>
        <time>2017-09-26T11:16:53Z</time>
      </trkpt>
      <trkpt lat="47.24763" lon="0.52508">
        <ele>48</ele>
        <time>2017-09-26T11:18:53Z</time>
      </trkpt>
      <trkpt lat="47.24756" lon="0.5258">
        <ele>49</ele>
        <time>2017-09-26T11:20:53Z</time>
      </trkpt>
      <trkpt lat="47.24746" lon="0.52668">
        <ele>48</ele>
        <time>2017-09-26T11:22:53Z</time>
      </trkpt>
      <trkpt lat="47.24741" lon="0.52713">
        <ele>47</ele>
        <time>2017-09-26T11:24:53Z</time>
      </trkpt>
      <trkpt lat="47.24738" lon="0.52752">
        <ele>47</ele>
        <time>2017-09-26T11:26:53Z</time>
      </trkpt>
      <trkpt lat="47.24736" lon="0.52802">
        <ele>48</ele>
        <time>2017-09-26T11:28:53Z</time>
      </trkpt>
      <trkpt lat="47.24736" lon="0.52808">
        <ele>48</ele>
        <time>2017-09-26T11:30:53Z</time>
      </trkpt>
      <trkpt lat="47.24736" lon="0.52814">
        <ele>48</ele>
        <time>2017-09-26T11:32:53Z</time>
      </trkpt>
      <trkpt lat="47.24736" lon="0.52845">
        <ele>49</ele>
        <time>2017-09-26T11:34:53Z</time>
      </trkpt>
      <trkpt lat="47.24736" lon="0.52849">
        <ele>49</ele>
        <time>2017-09-26T11:36:53Z</time>
      </trkpt>
      <trkpt lat="47.24734" lon="0.52912">
        <ele>49</ele>
        <time>2017-09-26T11:38:53Z</time>
      </trkpt>
      <trkpt lat="47.24732" lon="0.52933">
        <ele>49</ele>
        <time>2017-09-26T11:40:53Z</time>
      </trkpt>
      <trkpt lat="47.24731" lon="0.52948">
        <ele>49</ele>
        <time>2017-09-26T11:42:53Z</time>
      </trkpt>
      <trkpt lat="47.24716" lon="0.53027">
        <ele>51</ele>
        <time>2017-09-26T11:44:53Z</time>
      </trkpt>
      <trkpt lat="47.2471" lon="0.53062">
        <ele>52</ele>
        <time>2017-09-26T11:46:53Z</time>
      </trkpt>
      <trkpt lat="47.24697" lon="0.53164">
        <ele>52</ele>
        <time>2017-09-26T11:48:53Z</time>
      </trkpt>
      <trkpt lat="47.24697" lon="0.53199">
        <ele>52</ele>
        <time>2017-09-26T11:50:53Z</time>
      </trkpt>
      <trkpt lat="47.24697" lon="0.53211">
        <ele>52</ele>
        <time>2017-09-26T11:52:53Z</time>
      </trkpt>
      <trkpt lat="47.24703" lon="0.5327">
        <ele>52</ele>
        <time>2017-09-26T11:54:53Z</time>
      </trkpt>
      <trkpt lat="47.24713" lon="0.53315">
        <ele>50</ele>
        <time>2017-09-26T11:56:53Z</time>
      </trkpt>
      <trkpt lat="47.2473" lon="0.534">
        <ele>49</ele>
        <time>2017-09-26T11:58:53Z</time>
      </trkpt>
      <trkpt lat="47.24735" lon="0.53436">
        <ele>49</ele>
        <time>2017-09-26T12:00:53Z</time>
      </trkpt>
      <trkpt lat="47.24736" lon="0.53443">
        <ele>49</ele>
        <time>2017-09-26T12:02:53Z</time>
      </trkpt>
      <trkpt lat="47.24735" lon="0.53454">
        <ele>49</ele>
        <time>2017-09-26T12:04:53Z</time>
      </trkpt>
      <trkpt lat="47.24736" lon="0.53473">
        <ele>49</ele>
        <time>2017-09-26T12:06:53Z</time>
      </trkpt>
      <trkpt lat="47.24737" lon="0.53488">
        <ele>49</ele>
        <time>2017-09-26T12:08:53Z</time>
      </trkpt>
      <trkpt lat="47.24737" lon="0.53493">
        <ele>49</ele>
        <time>2017-09-26T12:10:53Z</time>
      </trkpt>
      <trkpt lat="47.24737" lon="0.53502">
        <ele>49</ele>
        <time>2017-09-26T12:12:53Z</time>
      </trkpt>
      <trkpt lat="47.24737" lon="0.53512">
        <ele>49</ele>
        <time>2017-09-26T12:14:53Z</time>
      </trkpt>
      <trkpt lat="47.24736" lon="0.53535">
        <ele>49</ele>
        <time>2017-09-26T12:16:53Z</time>
      </trkpt>
      <trkpt lat="47.24734" lon="0.53548">
        <ele>49</ele>
        <time>2017-09-26T12:18:53Z</time>
      </trkpt>
      <trkpt lat="47.24731" lon="0.53563">
        <ele>49</ele>
        <time>2017-09-26T12:20:53Z</time>
      </trkpt>
      <trkpt lat="47.24723" lon="0.53587">
        <ele>50</ele>
        <time>2017-09-26T12:22:53Z</time>
      </trkpt>
      <trkpt lat="47.24707" lon="0.53631">
        <ele>51</ele>
        <time>2017-09-26T12:24:53Z</time>
      </trkpt>
      <trkpt lat="47.24702" lon="0.53651">
        <ele>52</ele>
        <time>2017-09-26T12:26:53Z</time>
      </trkpt>
      <trkpt lat="47.24701" lon="0.53659">
        <ele>52</ele>
        <time>2017-09-26T12:28:53Z</time>
      </trkpt>
      <trkpt lat="47.24695" lon="0.5368">
        <ele>53</ele>
        <time>2017-09-26T12:30:53Z</time>
      </trkpt>
      <trkpt lat="47.24688" lon="0.53711">
        <ele>54</ele>
        <time>2017-09-26T12:32:53Z</time>
      </trkpt>
      <trkpt lat="47.24685" lon="0.5373">
        <ele>55</ele>
        <time>2017-09-26T12:34:53Z</time>
      </trkpt>
      <trkpt lat="47.24682" lon="0.53761">
        <ele>56</ele>
        <time>2017-09-26T12:36:53Z</time>
      </trkpt>
      <trkpt lat="47.24681" lon="0.53794">
        <ele>57</ele>
        <time>2017-09-26T12:38:53Z</time>
      </trkpt>
      <trkpt lat="47.24676" lon="0.53882">
        <ele>60</ele>
        <time>2017-09-26T12:40:53Z</time>
      </trkpt>
      <trkpt lat="47.24671" lon="0.54001">
        <ele>62</ele>
        <time>2017-09-26T12:42:53Z</time>
      </trkpt>
      <trkpt lat="47.24668" lon="0.54023">
        <ele>63</ele>
        <time>2017-09-26T12:44:53Z</time>
      </trkpt>
      <trkpt lat="47.24661" lon="0.54063">
        <ele>64</ele>
        <time>2017-09-26T12:46:53Z</time>
      </trkpt>
      <trkpt lat="47.2466" lon="0.54084">
        <ele>65</ele>
        <time>2017-09-26T12:48:53Z</time>
      </trkpt>
      <trkpt lat="47.24657" lon="0.54111">
        <ele>65</ele>
        <time>2017-09-26T12:50:53Z</time>
      </trkpt>
      <trkpt lat="47.24656" lon="0.54152">
        <ele>66</ele>
        <time>2017-09-26T12:52:53Z</time>
      </trkpt>
      <trkpt lat="47.24654" lon="0.54195">
        <ele>67</ele>
        <time>2017-09-26T12:54:53Z</time>
      </trkpt>
      <trkpt lat="47.24652" lon="0.54216">
        <ele>67</ele>
        <time>2017-09-26T12:56:53Z</time>
      </trkpt>
      <trkpt lat="47.2465" lon="0.54234">
        <ele>67</ele>
        <time>2017-09-26T12:58:53Z</time>
      </trkpt>
      <trkpt lat="47.2465" lon="0.54243">
        <ele>68</ele>
        <time>2017-09-26T13:00:53Z</time>
      </trkpt>
      <trkpt lat="47.24649" lon="0.54256">
        <ele>67</ele>
        <time>2017-09-26T13:02:53Z</time>
      </trkpt>
      <trkpt lat="47.24649" lon="0.54295">
        <ele>66</ele>
        <time>2017-09-26T13:04:53Z</time>
      </trkpt>
      <trkpt lat="47.2465" lon="0.54325">
        <ele>65</ele>
        <time>2017-09-26T13:06:53Z</time>
      </trkpt>
      <trkpt lat="47.24649" lon="0.54332">
        <ele>65</ele>
        <time>2017-09-26T13:08:53Z</time>
      </trkpt>
      <trkpt lat="47.2465" lon="0.54343">
        <ele>64</ele>
        <time>2017-09-26T13:10:53Z</time>
      </trkpt>
      <trkpt lat="47.24649" lon="0.54347">
        <ele>64</ele>
        <time>2017-09-26T13:12:53Z</time>
      </trkpt>
      <trkpt lat="47.24648" lon="0.54352">
        <ele>64</ele>
        <time>2017-09-26T13:14:53Z</time>
      </trkpt>
      <trkpt lat="47.24643" lon="0.54376">
        <ele>64</ele>
        <time>2017-09-26T13:16:53Z</time>
      </trkpt>
      <trkpt lat="47.2464" lon="0.54389">
        <ele>63</ele>
        <time>2017-09-26T13:18:53Z</time>
      </trkpt>
      <trkpt lat="47.2464" lon="0.54389">
        <ele>63</ele>
        <time>2017-09-26T13:20:53Z</time>
      </trkpt>
      <trkpt lat="47.24645" lon="0.54392">
        <ele>63</ele>
        <time>2017-09-26T13:22:53Z</time>
      </trkpt>
      <trkpt lat="47.24647" lon="0.54394">
        <ele>63</ele>
        <time>2017-09-26T13:24:53Z</time>
      </trkpt>
      <trkpt lat="47.24652" lon="0.54402">
        <ele>62</ele>
        <time>2017-09-26T13:26:53Z</time>
      </trkpt>
      <trkpt lat="47.2466" lon="0.54414">
        <ele>61</ele>
        <time>2017-09-26T13:28:53Z</time>
      </trkpt>
      <trkpt lat="47.24665" lon="0.54419">
        <ele>61</ele>
        <time>2017-09-26T13:30:53Z</time>
      </trkpt>
      <trkpt lat="47.2467" lon="0.54422">
        <ele>61</ele>
        <time>2017-09-26T13:32:53Z</time>
      </trkpt>
      <trkpt lat="47.24676" lon="0.54424">
        <ele>60</ele>
        <time>2017-09-26T13:34:53Z</time>
      </trkpt>
      <trkpt lat="47.24681" lon="0.54424">
        <ele>60</ele>
        <time>2017-09-26T13:36:53Z</time>
      </trkpt>
      <trkpt lat="47.24693" lon="0.54421">
        <ele>59</ele>
        <time>2017-09-26T13:38:53Z</time>
      </trkpt>
      <trkpt lat="47.24702" lon="0.54419">
        <ele>59</ele>
        <time>2017-09-26T13:40:53Z</time>
      </trkpt>
      <trkpt lat="47.24707" lon="0.54418">
        <ele>59</ele>
        <time>2017-09-26T13:42:53Z</time>
      </trkpt>
      <trkpt lat="47.24711" lon="0.54418">
        <ele>58</ele>
        <time>2017-09-26T13:44:53Z</time>
      </trkpt>
      <trkpt lat="47.2472" lon="0.54418">
        <ele>58</ele>
        <time>2017-09-26T13:46:53Z</time>
      </trkpt>
      <trkpt lat="47.24725" lon="0.5442">
        <ele>57</ele>
        <time>2017-09-26T13:48:53Z</time>
      </trkpt>
      <trkpt lat="47.24735" lon="0.54427">
        <ele>57</ele>
        <time>2017-09-26T13:50:53Z</time>
      </trkpt>
      <trkpt lat="47.24748" lon="0.54441">
        <ele>55</ele>
        <time>2017-09-26T13:52:53Z</time>
      </trkpt>
      <trkpt lat="47.24761" lon="0.54457">
        <ele>54</ele>
        <time>2017-09-26T13:54:53Z</time>
      </trkpt>
      <trkpt lat="47.24764" lon="0.54462">
        <ele>53</ele>
        <time>2017-09-26T13:56:53Z</time>
      </trkpt>
      <trkpt lat="47.24766" lon="0.54466">
        <ele>53</ele>
        <time>2017-09-26T13:58:53Z</time>
      </trkpt>
      <trkpt lat="47.24766" lon="0.54466">
        <ele>53</ele>
        <time>2017-09-26T14:00:53Z</time>
      </trkpt>
      <trkpt lat="47.24784" lon="0.54467">
        <ele>52</ele>
        <time>2017-09-26T14:02:53Z</time>
      </trkpt>
      <trkpt lat="47.24806" lon="0.54469">
        <ele>50</ele>
        <time>2017-09-26T14:04:53Z</time>
      </trkpt>
      <trkpt lat="47.24845" lon="0.5447">
        <ele>48</ele>
        <time>2017-09-26T14:06:53Z</time>
      </trkpt>
      <trkpt lat="47.24858" lon="0.54471">
        <ele>48</ele>
        <time>2017-09-26T14:08:53Z</time>
      </trkpt>
      <trkpt lat="47.24887" lon="0.54473">
        <ele>48</ele>
        <time>2017-09-26T14:10:53Z</time>
      </trkpt>
      <trkpt lat="47.24943" lon="0.54475">
        <ele>48</ele>
        <time>2017-09-26T14:12:53Z</time>
      </trkpt>
      <trkpt lat="47.24987" lon="0.54478">
        <ele>49</ele>
        <time>2017-09-26T14:14:53Z</time>
      </trkpt>
      <trkpt lat="47.24987" lon="0.54478">
        <ele>49</ele>
        <time>2017-09-26T14:16:53Z</time>
      </trkpt>
      <trkpt lat="47.25026" lon="0.5448">
        <ele>49</ele>
        <time>2017-09-26T14:18:53Z</time>
      </trkpt>
      <trkpt lat="47.25048" lon="0.54484">
        <ele>50</ele>
        <time>2017-09-26T14:20:53Z</time>
      </trkpt>
      <trkpt lat="47.25064" lon="0.54488">
        <ele>50</ele>
        <time>2017-09-26T14:22:53Z</time>
      </trkpt>
      <trkpt lat="47.25116" lon="0.54501">
        <ele>50</ele>
        <time>2017-09-26T14:24:53Z</time>
      </trkpt>
      <trkpt lat="47.25121" lon="0.54502">
        <ele>50</ele>
        <time>2017-09-26T14:26:53Z</time>
      </trkpt>
      <trkpt lat="47.25125" lon="0.54503">
        <ele>50</ele>
        <time>2017-09-26T14:28:53Z</time>
      </trkpt>
      <trkpt lat="47.25131" lon="0.54504">
        <ele>49</ele>
        <time>2017-09-26T14:30:53Z</time>
      </trkpt>
      <trkpt lat="47.25142" lon="0.54505">
        <ele>49</ele>
        <time>2017-09-26T14:32:53Z</time>
      </trkpt>
      <trkpt lat="47.25155" lon="0.54506">
        <ele>49</ele>
        <time>2017-09-26T14:34:53Z</time>
      </trkpt>
      <trkpt lat="47.25166" lon="0.54504">
        <ele>49</ele>
        <time>2017-09-26T14:36:53Z</time>
      </trkpt>
      <trkpt lat="47.25181" lon="0.54499">
        <ele>48</ele>
        <time>2017-09-26T14:38:53Z</time>
      </trkpt>
      <trkpt lat="47.25202" lon="0.54492">
        <ele>47</ele>
        <time>2017-09-26T14:40:53Z</time>
      </trkpt>
      <trkpt lat="47.25219" lon="0.54486">
        <ele>47</ele>
        <time>2017-09-26T14:42:53Z</time>
      </trkpt>
      <trkpt lat="47.2524" lon="0.5448">
        <ele>46</ele>
        <time>2017-09-26T14:44:53Z</time>
      </trkpt>
      <trkpt lat="47.25283" lon="0.54467">
        <ele>45</ele>
        <time>2017-09-26T14:46:53Z</time>
      </trkpt>
      <trkpt lat="47.25294" lon="0.54464">
        <ele>45</ele>
        <time>2017-09-26T14:48:53Z</time>
      </trkpt>
      <trkpt lat="47.25299" lon="0.54462">
        <ele>45</ele>
        <time>2017-09-26T14:50:53Z</time>
      </trkpt>
      <trkpt lat="47.25313" lon="0.54457">
        <ele>45</ele>
        <time>2017-09-26T14:52:53Z</time>
      </trkpt>
      <trkpt lat="47.2537" lon="0.54441">
        <ele>45</ele>
        <time>2017-09-26T14:54:53Z</time>
      </trkpt>
      <trkpt lat="47.25372" lon="0.5444">
        <ele>45</ele>
        <time>2017-09-26T14:56:53Z</time>
      </trkpt>
      <trkpt lat="47.2542" lon="0.54425">
        <ele>45</ele>
        <time>2017-09-26T14:58:53Z</time>
      </trkpt>
      <trkpt lat="47.25426" lon="0.54423">
        <ele>45</ele>
        <time>2017-09-26T15:00:53Z</time>
      </trkpt>
      <trkpt lat="47.25436" lon="0.5442">
        <ele>45</ele>
        <time>2017-09-26T15:02:53Z</time>
      </trkpt>
      <trkpt lat="47.25439" lon="0.54419">
        <ele>45</ele>
        <time>2017-09-26T15:04:53Z</time>
      </trkpt>
      <trkpt lat="47.25444" lon="0.54417">
        <ele>45</ele>
        <time>2017-09-26T15:06:53Z</time>
      </trkpt>
      <trkpt lat="47.25479" lon="0.54408">
        <ele>46</ele>
        <time>2017-09-26T15:08:53Z</time>
      </trkpt>
      <trkpt lat="47.25502" lon="0.54401">
        <ele>46</ele>
        <time>2017-09-26T15:10:53Z</time>
      </trkpt>
      <trkpt lat="47.25522" lon="0.54394">
        <ele>48</ele>
        <time>2017-09-26T15:12:53Z</time>
      </trkpt>
      <trkpt lat="47.2554" lon="0.5439">
        <ele>49</ele>
        <time>2017-09-26T15:14:53Z</time>
      </trkpt>
      <trkpt lat="47.2554" lon="0.5439">
        <ele>49</ele>
        <time>2017-09-26T15:16:53Z</time>
      </trkpt>
      <trkpt lat="47.2555" lon="0.54429">
        <ele>49</ele>
        <time>2017-09-26T15:18:53Z</time>
      </trkpt>
      <trkpt lat="47.25569" lon="0.54489">
        <ele>50</ele>
        <time>2017-09-26T15:20:53Z</time>
      </trkpt>
      <trkpt lat="47.25582" lon="0.54523">
        <ele>50</ele>
        <time>2017-09-26T15:22:53Z</time>
      </trkpt>
      <trkpt lat="47.25597" lon="0.54559">
        <ele>49</ele>
        <time>2017-09-26T15:24:53Z</time>
      </trkpt>
      <trkpt lat="47.25608" lon="0.54579">
        <ele>49</ele>
        <time>2017-09-26T15:26:53Z</time>
      </trkpt>
      <trkpt lat="47.25617" lon="0.54592">
        <ele>49</ele>
        <time>2017-09-26T15:28:53Z</time>
      </trkpt>
      <trkpt lat="47.2562" lon="0.54595">
        <ele>49</ele>
        <time>2017-09-26T15:30:53Z</time>
      </trkpt>
      <trkpt lat="47.25625" lon="0.54602">
        <ele>49</ele>
        <time>2017-09-26T15:32:53Z</time>
      </trkpt>
      <trkpt lat="47.25632" lon="0.5462">
        <ele>50</ele>
        <time>2017-09-26T15:34:53Z</time>
      </trkpt>
      <trkpt lat="47.25638" lon="0.54635">
        <ele>50</ele>
        <time>2017-09-26T15:36:53Z</time>
      </trkpt>
      <trkpt lat="47.25654" lon="0.54702">
        <ele>50</ele>
        <time>2017-09-26T15:38:53Z</time>
      </trkpt>
      <trkpt lat="47.25666" lon="0.54756">
        <ele>49</ele>
        <time>2017-09-26T15:40:53Z</time>
      </trkpt>
      <trkpt lat="47.25675" lon="0.54786">
        <ele>50</ele>
        <time>2017-09-26T15:42:53Z</time>
      </trkpt>
      <trkpt lat="47.25682" lon="0.54808">
        <ele>50</ele>
        <time>2017-09-26T15:44:53Z</time>
      </trkpt>
      <trkpt lat="47.25695" lon="0.54833">
        <ele>50</ele>
        <time>2017-09-26T15:46:53Z</time>
      </trkpt>
      <trkpt lat="47.25705" lon="0.54844">
        <ele>51</ele>
        <time>2017-09-26T15:48:53Z</time>
      </trkpt>
      <trkpt lat="47.25723" lon="0.54864">
        <ele>51</ele>
        <time>2017-09-26T15:50:53Z</time>
      </trkpt>
      <trkpt lat="47.25732" lon="0.54876">
        <ele>51</ele>
        <time>2017-09-26T15:52:53Z</time>
      </trkpt>
      <trkpt lat="47.25734" lon="0.54881">
        <ele>51</ele>
        <time>2017-09-26T15:54:53Z</time>
      </trkpt>
      <trkpt lat="47.2574" lon="0.54895">
        <ele>50</ele>
        <time>2017-09-26T15:56:53Z</time>
      </trkpt>
      <trkpt lat="47.25744" lon="0.54907">
        <ele>50</ele>
        <time>2017-09-26T15:58:53Z</time>
      </trkpt>
      <trkpt lat="47.25747" lon="0.54924">
        <ele>49</ele>
        <time>2017-09-26T16:00:53Z</time>
      </trkpt>
      <trkpt lat="47.25749" lon="0.54933">
        <ele>49</ele>
        <time>2017-09-26T16:02:53Z</time>
      </trkpt>
      <trkpt lat="47.25751" lon="0.54939">
        <ele>49</ele>
        <time>2017-09-26T16:04:53Z</time>
      </trkpt>
      <trkpt lat="47.25754" lon="0.54945">
        <ele>49</ele>
        <time>2017-09-26T16:06:53Z</time>
      </trkpt>
      <trkpt lat="47.25758" lon="0.54949">
        <ele>49</ele>
        <time>2017-09-26T16:08:53Z</time>
      </trkpt>
      <trkpt lat="47.25807" lon="0.54986">
        <ele>53</ele>
        <time>2017-09-26T16:10:53Z</time>
      </trkpt>
      <trkpt lat="47.25819" lon="0.54997">
        <ele>54</ele>
        <time>2017-09-26T16:12:53Z</time>
      </trkpt>
      <trkpt lat="47.25828" lon="0.55005">
        <ele>55</ele>
        <time>2017-09-26T16:14:53Z</time>
      </trkpt>
      <trkpt lat="47.25851" lon="0.55028">
        <ele>56</ele>
        <time>2017-09-26T16:16:53Z</time>
      </trkpt>
      <trkpt lat="47.25899" lon="0.55082">
        <ele>58</ele>
        <time>2017-09-26T16:18:53Z</time>
      </trkpt>
      <trkpt lat="47.25925" lon="0.55114">
        <ele>58</ele>
        <time>2017-09-26T16:20:53Z</time>
      </trkpt>
      <trkpt lat="47.25969" lon="0.55188">
        <ele>57</ele>
        <time>2017-09-26T16:22:53Z</time>
      </trkpt>
      <trkpt lat="47.25974" lon="0.55196">
        <ele>57</ele>
        <time>2017-09-26T16:24:53Z</time>
      </trkpt>
      <trkpt lat="47.25978" lon="0.55203">
        <ele>57</ele>
        <time>2017-09-26T16:26:53Z</time>
      </trkpt>
      <trkpt lat="47.26037" lon="0.55272">
        <ele>58</ele>
        <time>2017-09-26T16:28:53Z</time>
      </trkpt>
      <trkpt lat="47.26052" lon="0.55286">
        <ele>58</ele>
        <time>2017-09-26T16:30:53Z</time>
      </trkpt>
      <trkpt lat="47.2611" lon="0.5533">
        <ele>58</ele>
        <time>2017-09-26T16:32:53Z</time>
      </trkpt>
      <trkpt lat="47.26116" lon="0.55335">
        <ele>59</ele>
        <time>2017-09-26T16:34:53Z</time>
      </trkpt>
      <trkpt lat="47.26136" lon="0.55351">
        <ele>60</ele>
        <time>2017-09-26T16:36:53Z</time>
      </trkpt>
      <trkpt lat="47.26153" lon="0.55366">
        <ele>60</ele>
        <time>2017-09-26T16:38:53Z</time>
      </trkpt>
      <trkpt lat="47.26165" lon="0.55378">
        <ele>59</ele>
        <time>2017-09-26T16:40:53Z</time>
      </trkpt>
      <trkpt lat="47.26177" lon="0.55392">
        <ele>58</ele>
        <time>2017-09-26T16:42:53Z</time>
      </trkpt>
      <trkpt lat="47.26181" lon="0.55396">
        <ele>58</ele>
        <time>2017-09-26T16:44:53Z</time>
      </trkpt>
      <trkpt lat="47.26209" lon="0.55427">
        <ele>58</ele>
        <time>2017-09-26T16:46:53Z</time>
      </trkpt>
      <trkpt lat="47.2623" lon="0.55451">
        <ele>58</ele>
        <time>2017-09-26T16:48:53Z</time>
      </trkpt>
      <trkpt lat="47.26267" lon="0.55497">
        <ele>57</ele>
        <time>2017-09-26T16:50:53Z</time>
      </trkpt>
      <trkpt lat="47.26281" lon="0.55517">
        <ele>58</ele>
        <time>2017-09-26T16:52:53Z</time>
      </trkpt>
      <trkpt lat="47.26293" lon="0.55533">
        <ele>59</ele>
        <time>2017-09-26T16:54:53Z</time>
      </trkpt>
      <trkpt lat="47.26323" lon="0.55572">
        <ele>59</ele>
        <time>2017-09-26T16:56:53Z</time>
      </trkpt>
      <trkpt lat="47.26371" lon="0.55633">
        <ele>61</ele>
        <time>2017-09-26T16:58:53Z</time>
      </trkpt>
      <trkpt lat="47.26387" lon="0.55656">
        <ele>61</ele>
        <time>2017-09-26T17:00:53Z</time>
      </trkpt>
      <trkpt lat="47.26424" lon="0.55697">
        <ele>61</ele>
        <time>2017-09-26T17:02:53Z</time>
      </trkpt>
      <trkpt lat="47.26428" lon="0.55703">
        <ele>61</ele>
        <time>2017-09-26T17:04:53Z</time>
      </trkpt>
      <trkpt lat="47.26453" lon="0.55734">
        <ele>62</ele>
        <time>2017-09-26T17:06:53Z</time>
      </trkpt>
      <trkpt lat="47.26462" lon="0.55745">
        <ele>63</ele>
        <time>2017-09-26T17:08:53Z</time>
      </trkpt>
      <trkpt lat="47.265" lon="0.55781">
        <ele>66</ele>
        <time>2017-09-26T17:10:53Z</time>
      </trkpt>
      <trkpt lat="47.26512" lon="0.55796">
        <ele>66</ele>
        <time>2017-09-26T17:12:53Z</time>
      </trkpt>
      <trkpt lat="47.26523" lon="0.55814">
        <ele>65</ele>
        <time>2017-09-26T17:14:53Z</time>
      </trkpt>
      <trkpt lat="47.26528" lon="0.55825">
        <ele>65</ele>
        <time>2017-09-26T17:16:53Z</time>
      </trkpt>
      <trkpt lat="47.26544" lon="0.55852">
        <ele>65</ele>
        <time>2017-09-26T17:18:53Z</time>
      </trkpt>
      <trkpt lat="47.26587" lon="0.55939">
        <ele>61</ele>
        <time>2017-09-26T17:20:53Z</time>
      </trkpt>
      <trkpt lat="47.26602" lon="0.55973">
        <ele>60</ele>
        <time>2017-09-26T17:22:53Z</time>
      </trkpt>
      <trkpt lat="47.26627" lon="0.56038">
        <ele>58</ele>
        <time>2017-09-26T17:24:53Z</time>
      </trkpt>
      <trkpt lat="47.26633" lon="0.56054">
        <ele>58</ele>
        <time>2017-09-26T17:26:53Z</time>
      </trkpt>
      <trkpt lat="47.2664" lon="0.56066">
        <ele>58</ele>
        <time>2017-09-26T17:28:53Z</time>
      </trkpt>
      <trkpt lat="47.26725" lon="0.56191">
        <ele>56</ele>
        <time>2017-09-26T17:30:53Z</time>
      </trkpt>
      <trkpt lat="47.2674" lon="0.56213">
        <ele>56</ele>
        <time>2017-09-26T17:32:53Z</time>
      </trkpt>
      <trkpt lat="47.26752" lon="0.56232">
        <ele>55</ele>
        <time>2017-09-26T17:34:53Z</time>
      </trkpt>
      <trkpt lat="47.26775" lon="0.56267">
        <ele>53</ele>
        <time>2017-09-26T17:36:53Z</time>
      </trkpt>
      <trkpt lat="47.26786" lon="0.56281">
        <ele>52</ele>
        <time>2017-09-26T17:38:53Z</time>
      </trkpt>
      <trkpt lat="47.26819" lon="0.56318">
        <ele>50</ele>
        <time>2017-09-26T17:40:53Z</time>
      </trkpt>
      <trkpt lat="47.26828" lon="0.56324">
        <ele>50</ele>
        <time>2017-09-26T17:42:53Z</time>
      </trkpt>
      <trkpt lat="47.26841" lon="0.56332">
        <ele>50</ele>
        <time>2017-09-26T17:44:53Z</time>
      </trkpt>
      <trkpt lat="47.26871" lon="0.56358">
        <ele>51</ele>
        <time>2017-09-26T17:46:53Z</time>
      </trkpt>
      <trkpt lat="47.26881" lon="0.56364">
        <ele>52</ele>
        <time>2017-09-26T17:48:53Z</time>
      </trkpt>
      <trkpt lat="47.26915" lon="0.56393">
        <ele>55</ele>
        <time>2017-09-26T17:50:53Z</time>
      </trkpt>
      <trkpt lat="47.2693" lon="0.5641">
        <ele>59</ele>
        <time>2017-09-26T17:52:53Z</time>
      </trkpt>
      <trkpt lat="47.26939" lon="0.56425">
        <ele>61</ele>
        <time>2017-09-26T17:54:53Z</time>
      </trkpt>
      <trkpt lat="47.26942" lon="0.56433">
        <ele>61</ele>
        <time>2017-09-26T17:56:53Z</time>
      </trkpt>
      <trkpt lat="47.26946" lon="0.56446">
        <ele>62</ele>
        <time>2017-09-26T17:58:53Z</time>
      </trkpt>
      <trkpt lat="47.26947" lon="0.56461">
        <ele>62</ele>
        <time>2017-09-26T18:00:53Z</time>
      </trkpt>
      <trkpt lat="47.26947" lon="0.56472">
        <ele>62</ele>
        <time>2017-09-26T18:02:53Z</time>
      </trkpt>
      <trkpt lat="47.26945" lon="0.56505">
        <ele>61</ele>
        <time>2017-09-26T18:04:53Z</time>
      </trkpt>
      <trkpt lat="47.26945" lon="0.56511">
        <ele>62</ele>
        <time>2017-09-26T18:06:53Z</time>
      </trkpt>
      <trkpt lat="47.26946" lon="0.56526">
        <ele>62</ele>
        <time>2017-09-26T18:08:53Z</time>
      </trkpt>
      <trkpt lat="47.26948" lon="0.56538">
        <ele>62</ele>
        <time>2017-09-26T18:10:53Z</time>
      </trkpt>
      <trkpt lat="47.26953" lon="0.56554">
        <ele>63</ele>
        <time>2017-09-26T18:12:53Z</time>
      </trkpt>
      <trkpt lat="47.26965" lon="0.56585">
        <ele>65</ele>
        <time>2017-09-26T18:14:53Z</time>
      </trkpt>
      <trkpt lat="47.2698" lon="0.56629">
        <ele>66</ele>
        <time>2017-09-26T18:16:53Z</time>
      </trkpt>
      <trkpt lat="47.26993" lon="0.56674">
        <ele>66</ele>
        <time>2017-09-26T18:18:53Z</time>
      </trkpt>
      <trkpt lat="47.26998" lon="0.56702">
        <ele>65</ele>
        <time>2017-09-26T18:20:53Z</time>
      </trkpt>
      <trkpt lat="47.26998" lon="0.56717">
        <ele>65</ele>
        <time>2017-09-26T18:22:53Z</time>
      </trkpt>
      <trkpt lat="47.26996" lon="0.56736">
        <ele>64</ele>
        <time>2017-09-26T18:24:53Z</time>
      </trkpt>
      <trkpt lat="47.26986" lon="0.56792">
        <ele>63</ele>
        <time>2017-09-26T18:26:53Z</time>
      </trkpt>
      <trkpt lat="47.26968" lon="0.56898">
        <ele>60</ele>
        <time>2017-09-26T18:28:53Z</time>
      </trkpt>
      <trkpt lat="47.26966" lon="0.56913">
        <ele>59</ele>
        <time>2017-09-26T18:30:53Z</time>
      </trkpt>
      <trkpt lat="47.26964" lon="0.56927">
        <ele>59</ele>
        <time>2017-09-26T18:32:53Z</time>
      </trkpt>
      <trkpt lat="47.26962" lon="0.56933">
        <ele>59</ele>
        <time>2017-09-26T18:34:53Z</time>
      </trkpt>
      <trkpt lat="47.2696" lon="0.56944">
        <ele>59</ele>
        <time>2017-09-26T18:36:53Z</time>
      </trkpt>
      <trkpt lat="47.26957" lon="0.56954">
        <ele>59</ele>
        <time>2017-09-26T18:38:53Z</time>
      </trkpt>
      <trkpt lat="47.26954" lon="0.56965">
        <ele>59</ele>
        <time>2017-09-26T18:40:53Z</time>
      </trkpt>
      <trkpt lat="47.26951" lon="0.56974">
        <ele>58</ele>
        <time>2017-09-26T18:42:53Z</time>
      </trkpt>
      <trkpt lat="47.26947" lon="0.56983">
        <ele>58</ele>
        <time>2017-09-26T18:44:53Z</time>
      </trkpt>
      <trkpt lat="47.26944" lon="0.56991">
        <ele>58</ele>
        <time>2017-09-26T18:46:53Z</time>
      </trkpt>
      <trkpt lat="47.2694" lon="0.56998">
        <ele>58</ele>
        <time>2017-09-26T18:48:53Z</time>
      </trkpt>
      <trkpt lat="47.26935" lon="0.57006">
        <ele>58</ele>
        <time>2017-09-26T18:50:53Z</time>
      </trkpt>
      <trkpt lat="47.26929" lon="0.57014">
        <ele>57</ele>
        <time>2017-09-26T18:52:53Z</time>
      </trkpt>
      <trkpt lat="47.26924" lon="0.57021">
        <ele>57</ele>
        <time>2017-09-26T18:54:53Z</time>
      </trkpt>
      <trkpt lat="47.26919" lon="0.57027">
        <ele>57</ele>
        <time>2017-09-26T18:56:53Z</time>
      </trkpt>
      <trkpt lat="47.26914" lon="0.57032">
        <ele>56</ele>
        <time>2017-09-26T18:58:53Z</time>
      </trkpt>
      <trkpt lat="47.26911" lon="0.57035">
        <ele>56</ele>
        <time>2017-09-26T19:00:53Z</time>
      </trkpt>
      <trkpt lat="47.26907" lon="0.57039">
        <ele>56</ele>
        <time>2017-09-26T19:02:53Z</time>
      </trkpt>
      <trkpt lat="47.26903" lon="0.57042">
        <ele>56</ele>
        <time>2017-09-26T19:04:53Z</time>
      </trkpt>
      <trkpt lat="47.26891" lon="0.57053">
        <ele>55</ele>
        <time>2017-09-26T19:06:53Z</time>
      </trkpt>
      <trkpt lat="47.26881" lon="0.57062">
        <ele>55</ele>
        <time>2017-09-26T19:08:53Z</time>
      </trkpt>
      <trkpt lat="47.26872" lon="0.57071">
        <ele>54</ele>
        <time>2017-09-26T19:10:53Z</time>
      </trkpt>
      <trkpt lat="47.26862" lon="0.57087">
        <ele>54</ele>
        <time>2017-09-26T19:12:53Z</time>
      </trkpt>
      <trkpt lat="47.26854" lon="0.57103">
        <ele>54</ele>
        <time>2017-09-26T19:14:53Z</time>
      </trkpt>
      <trkpt lat="47.26847" lon="0.57124">
        <ele>53</ele>
        <time>2017-09-26T19:16:53Z</time>
      </trkpt>
      <trkpt lat="47.26836" lon="0.57161">
        <ele>52</ele>
        <time>2017-09-26T19:18:53Z</time>
      </trkpt>
      <trkpt lat="47.26835" lon="0.57163">
        <ele>52</ele>
        <time>2017-09-26T19:20:53Z</time>
      </trkpt>
      <trkpt lat="47.26832" lon="0.57176">
        <ele>52</ele>
        <time>2017-09-26T19:22:53Z</time>
      </trkpt>
      <trkpt lat="47.26826" lon="0.57203">
        <ele>52</ele>
        <time>2017-09-26T19:24:53Z</time>
      </trkpt>
      <trkpt lat="47.26822" lon="0.57238">
        <ele>52</ele>
        <time>2017-09-26T19:26:53Z</time>
      </trkpt>
      <trkpt lat="47.26818" lon="0.5728">
        <ele>52</ele>
        <time>2017-09-26T19:28:53Z</time>
      </trkpt>
      <trkpt lat="47.26818" lon="0.57293">
        <ele>52</ele>
        <time>2017-09-26T19:30:53Z</time>
      </trkpt>
      <trkpt lat="47.26817" lon="0.57315">
        <ele>51</ele>
        <time>2017-09-26T19:32:53Z</time>
      </trkpt>
      <trkpt lat="47.26818" lon="0.57354">
        <ele>51</ele>
        <time>2017-09-26T19:34:53Z</time>
      </trkpt>
      <trkpt lat="47.26818" lon="0.57367">
        <ele>51</ele>
        <time>2017-09-26T19:36:53Z</time>
      </trkpt>
      <trkpt lat="47.2682" lon="0.57385">
        <ele>51</ele>
        <time>2017-09-26T19:38:53Z</time>
      </trkpt>
      <trkpt lat="47.26821" lon="0.574">
        <ele>50</ele>
        <time>2017-09-26T19:40:53Z</time>
      </trkpt>
      <trkpt lat="47.26823" lon="0.57419">
        <ele>50</ele>
        <time>2017-09-26T19:42:53Z</time>
      </trkpt>
      <trkpt lat="47.26825" lon="0.5744">
        <ele>51</ele>
        <time>2017-09-26T19:44:53Z</time>
      </trkpt>
      <trkpt lat="47.26828" lon="0.57466">
        <ele>51</ele>
        <time>2017-09-26T19:46:53Z</time>
      </trkpt>
      <trkpt lat="47.26831" lon="0.57493">
        <ele>51</ele>
        <time>2017-09-26T19:48:53Z</time>
      </trkpt>
      <trkpt lat="47.26837" lon="0.5753">
        <ele>51</ele>
        <time>2017-09-26T19:50:53Z</time>
      </trkpt>
      <trkpt lat="47.26839" lon="0.57544">
        <ele>51</ele>
        <time>2017-09-26T19:52:53Z</time>
      </trkpt>
      <trkpt lat="47.26841" lon="0.57555">
        <ele>52</ele>
        <time>2017-09-26T19:54:53Z</time>
      </trkpt>
      <trkpt lat="47.26847" lon="0.57581">
        <ele>52</ele>
        <time>2017-09-26T19:56:53Z</time>
      </trkpt>
      <trkpt lat="47.26855" lon="0.57621">
        <ele>52</ele>
        <time>2017-09-26T19:58:53Z</time>
      </trkpt>
      <trkpt lat="47.26859" lon="0.57641">
        <ele>52</ele>
        <time>2017-09-26T20:00:53Z</time>
      </trkpt>
      <trkpt lat="47.26859" lon="0.57656">
        <ele>52</ele>
        <time>2017-09-26T20:02:53Z</time>
      </trkpt>
      <trkpt lat="47.26859" lon="0.57686">
        <ele>52</ele>
        <time>2017-09-26T20:04:53Z</time>
      </trkpt>
      <trkpt lat="47.26857" lon="0.57735">
        <ele>52</ele>
        <time>2017-09-26T20:06:53Z</time>
      </trkpt>
      <trkpt lat="47.26856" lon="0.5777">
        <ele>52</ele>
        <time>2017-09-26T20:08:53Z</time>
      </trkpt>
      <trkpt lat="47.26856" lon="0.5778">
        <ele>52</ele>
        <time>2017-09-26T20:10:53Z</time>
      </trkpt>
      <trkpt lat="47.26855" lon="0.57798">
        <ele>52</ele>
        <time>2017-09-26T20:12:53Z</time>
      </trkpt>
      <trkpt lat="47.26851" lon="0.57883">
        <ele>51</ele>
        <time>2017-09-26T20:14:53Z</time>
      </trkpt>
      <trkpt lat="47.26849" lon="0.57946">
        <ele>51</ele>
        <time>2017-09-26T20:16:53Z</time>
      </trkpt>
      <trkpt lat="47.26849" lon="0.57974">
        <ele>51</ele>
        <time>2017-09-26T20:18:53Z</time>
      </trkpt>
      <trkpt lat="47.26849" lon="0.57997">
        <ele>51</ele>
        <time>2017-09-26T20:20:53Z</time>
      </trkpt>
      <trkpt lat="47.26849" lon="0.5805">
        <ele>51</ele>
        <time>2017-09-26T20:22:53Z</time>
      </trkpt>
      <trkpt lat="47.26848" lon="0.58058">
        <ele>51</ele>
        <time>2017-09-26T20:24:53Z</time>
      </trkpt>
      <trkpt lat="47.26847" lon="0.58074">
        <ele>51</ele>
        <time>2017-09-26T20:26:53Z</time>
      </trkpt>
      <trkpt lat="47.26844" lon="0.58083">
        <ele>51</ele>
        <time>2017-09-26T20:28:53Z</time>
      </trkpt>
      <trkpt lat="47.26843" lon="0.58087">
        <ele>51</ele>
        <time>2017-09-26T20:30:53Z</time>
      </trkpt>
      <trkpt lat="47.2684" lon="0.58092">
        <ele>51</ele>
        <time>2017-09-26T20:32:53Z</time>
      </trkpt>
      <trkpt lat="47.26839" lon="0.58095">
        <ele>51</ele>
        <time>2017-09-26T20:34:53Z</time>
      </trkpt>
      <trkpt lat="47.26837" lon="0.58097">
        <ele>51</ele>
        <time>2017-09-26T20:36:53Z</time>
      </trkpt>
      <trkpt lat="47.26837" lon="0.58097">
        <ele>51</ele>
        <time>2017-09-26T20:38:53Z</time>
      </trkpt>
      <trkpt lat="47.26844" lon="0.58108">
        <ele>51</ele>
        <time>2017-09-26T20:40:53Z</time>
      </trkpt>
      <trkpt lat="47.26865" lon="0.58135">
        <ele>51</ele>
        <time>2017-09-26T20:42:53Z</time>
      </trkpt>
      <trkpt lat="47.26903" lon="0.58178">
        <ele>52</ele>
        <time>2017-09-26T20:44:53Z</time>
      </trkpt>
      <trkpt lat="47.26921" lon="0.582">
        <ele>53</ele>
        <time>2017-09-26T20:46:53Z</time>
      </trkpt>
      <trkpt lat="47.26923" lon="0.58202">
        <ele>53</ele>
        <time>2017-09-26T20:48:53Z</time>
      </trkpt>
      <trkpt lat="47.26942" lon="0.58225">
        <ele>54</ele>
        <time>2017-09-26T20:50:53Z</time>
      </trkpt>
      <trkpt lat="47.26944" lon="0.58226">
        <ele>54</ele>
        <time>2017-09-26T20:52:53Z</time>
      </trkpt>
      <trkpt lat="47.26953" lon="0.58234">
        <ele>55</ele>
        <time>2017-09-26T20:54:53Z</time>
      </trkpt>
      <trkpt lat="47.26959" lon="0.58239">
        <ele>55</ele>
        <time>2017-09-26T20:56:53Z</time>
      </trkpt>
      <trkpt lat="47.26972" lon="0.58249">
        <ele>56</ele>
        <time>2017-09-26T20:58:53Z</time>
      </trkpt>
      <trkpt lat="47.26983" lon="0.58256">
        <ele>56</ele>
        <time>2017-09-26T21:00:53Z</time>
      </trkpt>
      <trkpt lat="47.26993" lon="0.58261">
        <ele>57</ele>
        <time>2017-09-26T21:02:53Z</time>
      </trkpt>
      <trkpt lat="47.27001" lon="0.58265">
        <ele>57</ele>
        <time>2017-09-26T21:04:53Z</time>
      </trkpt>
      <trkpt lat="47.27009" lon="0.58268">
        <ele>57</ele>
        <time>2017-09-26T21:06:53Z</time>
      </trkpt>
      <trkpt lat="47.27018" lon="0.5827">
        <ele>58</ele>
        <time>2017-09-26T21:08:53Z</time>
      </trkpt>
      <trkpt lat="47.27033" lon="0.58275">
        <ele>58</ele>
        <time>2017-09-26T21:10:53Z</time>
      </trkpt>
      <trkpt lat="47.27048" lon="0.58281">
        <ele>59</ele>
        <time>2017-09-26T21:12:53Z</time>
      </trkpt>
      <trkpt lat="47.27055" lon="0.58284">
        <ele>59</ele>
        <time>2017-09-26T21:14:53Z</time>
      </trkpt>
      <trkpt lat="47.27061" lon="0.58287">
        <ele>59</ele>
        <time>2017-09-26T21:16:53Z</time>
      </trkpt>
      <trkpt lat="47.27067" lon="0.58292">
        <ele>59</ele>
        <time>2017-09-26T21:18:53Z</time>
      </trkpt>
      <trkpt lat="47.27079" lon="0.58304">
        <ele>60</ele>
        <time>2017-09-26T21:20:53Z</time>
      </trkpt>
      <trkpt lat="47.27126" lon="0.58361">
        <ele>62</ele>
        <time>2017-09-26T21:22:53Z</time>
      </trkpt>
      <trkpt lat="47.27158" lon="0.58393">
        <ele>65</ele>
        <time>2017-09-26T21:24:53Z</time>
      </trkpt>
      <trkpt lat="47.2717" lon="0.58398">
        <ele>66</ele>
        <time>2017-09-26T21:26:53Z</time>
      </trkpt>
      <trkpt lat="47.27183" lon="0.58402">
        <ele>67</ele>
        <time>2017-09-26T21:28:53Z</time>
      </trkpt>
      <trkpt lat="47.27191" lon="0.58405">
        <ele>67</ele>
        <time>2017-09-26T21:30:53Z</time>
      </trkpt>
      <trkpt lat="47.27228" lon="0.58413">
        <ele>68</ele>
        <time>2017-09-26T21:32:53Z</time>
      </trkpt>
      <trkpt lat="47.27264" lon="0.58421">
        <ele>70</ele>
        <time>2017-09-26T21:34:53Z</time>
      </trkpt>
      <trkpt lat="47.27288" lon="0.58427">
        <ele>71</ele>
        <time>2017-09-26T21:36:53Z</time>
      </trkpt>
      <trkpt lat="47.27294" lon="0.58429">
        <ele>71</ele>
        <time>2017-09-26T21:38:53Z</time>
      </trkpt>
      <trkpt lat="47.27317" lon="0.58436">
        <ele>72</ele>
        <time>2017-09-26T21:40:53Z</time>
      </trkpt>
      <trkpt lat="47.2734" lon="0.58447">
        <ele>73</ele>
        <time>2017-09-26T21:42:53Z</time>
      </trkpt>
      <trkpt lat="47.27353" lon="0.58456">
        <ele>74</ele>
        <time>2017-09-26T21:44:53Z</time>
      </trkpt>
      <trkpt lat="47.27373" lon="0.5847">
        <ele>74</ele>
        <time>2017-09-26T21:46:53Z</time>
      </trkpt>
      <trkpt lat="47.27393" lon="0.58489">
        <ele>75</ele>
        <time>2017-09-26T21:48:53Z</time>
      </trkpt>
      <trkpt lat="47.27453" lon="0.58536">
        <ele>75</ele>
        <time>2017-09-26T21:50:53Z</time>
      </trkpt>
      <trkpt lat="47.275" lon="0.58574">
        <ele>76</ele>
        <time>2017-09-26T21:52:53Z</time>
      </trkpt>
      <trkpt lat="47.27563" lon="0.5861">
        <ele>78</ele>
        <time>2017-09-26T21:54:53Z</time>
      </trkpt>
      <trkpt lat="47.27588" lon="0.58627">
        <ele>79</ele>
        <time>2017-09-26T21:56:53Z</time>
      </trkpt>
      <trkpt lat="47.276" lon="0.58633">
        <ele>79</ele>
        <time>2017-09-26T21:58:53Z</time>
      </trkpt>
      <trkpt lat="47.27657" lon="0.58672">
        <ele>82</ele>
        <time>2017-09-26T22:00:53Z</time>
      </trkpt>
      <trkpt lat="47.27693" lon="0.587">
        <ele>83</ele>
        <time>2017-09-26T22:02:53Z</time>
      </trkpt>
      <trkpt lat="47.27735" lon="0.58741">
        <ele>85</ele>
        <time>2017-09-26T22:04:53Z</time>
      </trkpt>
      <trkpt lat="47.27754" lon="0.58763">
        <ele>85</ele>
        <time>2017-09-26T22:06:53Z</time>
      </trkpt>
      <trkpt lat="47.27766" lon="0.58777">
        <ele>85</ele>
        <time>2017-09-26T22:08:53Z</time>
      </trkpt>
      <trkpt lat="47.27779" lon="0.58794">
        <ele>85</ele>
        <time>2017-09-26T22:10:53Z</time>
      </trkpt>
      <trkpt lat="47.27782" lon="0.58799">
        <ele>85</ele>
        <time>2017-09-26T22:12:53Z</time>
      </trkpt>
      <trkpt lat="47.27784" lon="0.58801">
        <ele>85</ele>
        <time>2017-09-26T22:14:53Z</time>
      </trkpt>
      <trkpt lat="47.27786" lon="0.58805">
        <ele>85</ele>
        <time>2017-09-26T22:16:53Z</time>
      </trkpt>
      <trkpt lat="47.2779" lon="0.58813">
        <ele>85</ele>
        <time>2017-09-26T22:18:53Z</time>
      </trkpt>
      <trkpt lat="47.27796" lon="0.58826">
        <ele>85</ele>
        <time>2017-09-26T22:20:53Z</time>
      </trkpt>
      <trkpt lat="47.278" lon="0.58832">
        <ele>85</ele>
        <time>2017-09-26T22:22:53Z</time>
      </trkpt>
      <trkpt lat="47.27804" lon="0.58838">
        <ele>85</ele>
        <time>2017-09-26T22:24:53Z</time>
      </trkpt>
      <trkpt lat="47.27813" lon="0.58848">
        <ele>85</ele>
        <time>2017-09-26T22:26:53Z</time>
      </trkpt>
      <trkpt lat="47.27829" lon="0.58861">
        <ele>86</ele>
        <time>2017-09-26T22:28:53Z</time>
      </trkpt>
      <trkpt lat="47.27842" lon="0.58868">
        <ele>86</ele>
        <time>2017-09-26T22:30:53Z</time>
      </trkpt>
      <trkpt lat="47.27849" lon="0.58871">
        <ele>85</ele>
        <time>2017-09-26T22:32:53Z</time>
      </trkpt>
      <trkpt lat="47.27855" lon="0.58873">
        <ele>85</ele>
        <time>2017-09-26T22:34:53Z</time>
      </trkpt>
      <trkpt lat="47.27858" lon="0.58875">
        <ele>85</ele>
        <time>2017-09-26T22:36:53Z</time>
      </trkpt>
      <trkpt lat="47.27866" lon="0.5888">
        <ele>85</ele>
        <time>2017-09-26T22:38:53Z</time>
      </trkpt>
      <trkpt lat="47.27874" lon="0.58885">
        <ele>85</ele>
        <time>2017-09-26T22:40:53Z</time>
      </trkpt>
      <trkpt lat="47.27899" lon="0.58898">
        <ele>85</ele>
        <time>2017-09-26T22:42:53Z</time>
      </trkpt>
      <trkpt lat="47.27914" lon="0.58907">
        <ele>84</ele>
        <time>2017-09-26T22:44:53Z</time>
      </trkpt>
      <trkpt lat="47.27943" lon="0.58927">
        <ele>84</ele>
        <time>2017-09-26T22:46:53Z</time>
      </trkpt>
      <trkpt lat="47.2798" lon="0.58952">
        <ele>84</ele>
        <time>2017-09-26T22:48:53Z</time>
      </trkpt>
      <trkpt lat="47.28005" lon="0.58972">
        <ele>84</ele>
        <time>2017-09-26T22:50:53Z</time>
      </trkpt>
      <trkpt lat="47.28012" lon="0.5898">
        <ele>84</ele>
        <time>2017-09-26T22:52:53Z</time>
      </trkpt>
      <trkpt lat="47.28025" lon="0.58995">
        <ele>83</ele>
        <time>2017-09-26T22:54:53Z</time>
      </trkpt>
      <trkpt lat="47.28037" lon="0.5901">
        <ele>83</ele>
        <time>2017-09-26T22:56:53Z</time>
      </trkpt>
      <trkpt lat="47.28058" lon="0.59039">
        <ele>84</ele>
        <time>2017-09-26T22:58:53Z</time>
      </trkpt>
      <trkpt lat="47.28063" lon="0.59045">
        <ele>84</ele>
        <time>2017-09-26T23:00:53Z</time>
      </trkpt>
      <trkpt lat="47.28067" lon="0.5905">
        <ele>84</ele>
        <time>2017-09-26T23:02:53Z</time>
      </trkpt>
      <trkpt lat="47.28072" lon="0.59056">
        <ele>84</ele>
        <time>2017-09-26T23:04:53Z</time>
      </trkpt>
      <trkpt lat="47.28084" lon="0.59069">
        <ele>84</ele>
        <time>2017-09-26T23:06:53Z</time>
      </trkpt>
      <trkpt lat="47.28098" lon="0.59083">
        <ele>84</ele>
        <time>2017-09-26T23:08:53Z</time>
      </trkpt>
      <trkpt lat="47.28115" lon="0.59098">
        <ele>84</ele>
        <time>2017-09-26T23:10:53Z</time>
      </trkpt>
      <trkpt lat="47.28121" lon="0.59102">
        <ele>83</ele>
        <time>2017-09-26T23:12:53Z</time>
      </trkpt>
      <trkpt lat="47.28138" lon="0.59116">
        <ele>83</ele>
        <time>2017-09-26T23:14:53Z</time>
      </trkpt>
      <trkpt lat="47.28146" lon="0.59122">
        <ele>83</ele>
        <time>2017-09-26T23:16:53Z</time>
      </trkpt>
      <trkpt lat="47.28147" lon="0.59123">
        <ele>83</ele>
        <time>2017-09-26T23:18:53Z</time>
      </trkpt>
      <trkpt lat="47.28153" lon="0.59127">
        <ele>83</ele>
        <time>2017-09-26T23:20:53Z</time>
      </trkpt>
      <trkpt lat="47.28155" lon="0.59129">
        <ele>83</ele>
        <time>2017-09-26T23:22:53Z</time>
      </trkpt>
      <trkpt lat="47.28158" lon="0.59132">
        <ele>83</ele>
        <time>2017-09-26T23:24:53Z</time>
      </trkpt>
      <trkpt lat="47.28176" lon="0.59146">
        <ele>83</ele>
        <time>2017-09-26T23:26:53Z</time>
      </trkpt>
      <trkpt lat="47.28195" lon="0.59161">
        <ele>83</ele>
        <time>2017-09-26T23:28:53Z</time>
      </trkpt>
      <trkpt lat="47.28197" lon="0.59162">
        <ele>83</ele>
        <time>2017-09-26T23:30:53Z</time>
      </trkpt>
      <trkpt lat="47.28232" lon="0.59188">
        <ele>83</ele>
        <time>2017-09-26T23:32:53Z</time>
      </trkpt>
      <trkpt lat="47.28247" lon="0.59196">
        <ele>83</ele>
        <time>2017-09-26T23:34:53Z</time>
      </trkpt>
      <trkpt lat="47.28263" lon="0.59202">
        <ele>83</ele>
        <time>2017-09-26T23:36:53Z</time>
      </trkpt>
      <trkpt lat="47.28271" lon="0.59204">
        <ele>83</ele>
        <time>2017-09-26T23:38:53Z</time>
      </trkpt>
      <trkpt lat="47.28288" lon="0.59208">
        <ele>83</ele>
        <time>2017-09-26T23:40:53Z</time>
      </trkpt>
      <trkpt lat="47.28304" lon="0.5921">
        <ele>83</ele>
        <time>2017-09-26T23:42:53Z</time>
      </trkpt>
      <trkpt lat="47.28431" lon="0.59225">
        <ele>87</ele>
        <time>2017-09-26T23:44:53Z</time>
      </trkpt>
      <trkpt lat="47.2846" lon="0.59228">
        <ele>88</ele>
        <time>2017-09-26T23:46:53Z</time>
      </trkpt>
      <trkpt lat="47.28481" lon="0.59231">
        <ele>89</ele>
        <time>2017-09-26T23:48:53Z</time>
      </trkpt>
      <trkpt lat="47.2849" lon="0.59234">
        <ele>89</ele>
        <time>2017-09-26T23:50:53Z</time>
      </trkpt>
      <trkpt lat="47.28505" lon="0.59239">
        <ele>89</ele>
        <time>2017-09-26T23:52:53Z</time>
      </trkpt>
      <trkpt lat="47.2852" lon="0.59246">
        <ele>90</ele>
        <time>2017-09-26T23:54:53Z</time>
      </trkpt>
      <trkpt lat="47.28549" lon="0.5926">
        <ele>90</ele>
        <time>2017-09-26T23:56:53Z</time>
      </trkpt>
      <trkpt lat="47.28571" lon="0.59272">
        <ele>91</ele>
        <time>2017-09-26T23:58:53Z</time>
      </trkpt>
      <trkpt lat="47.28598" lon="0.59286">
        <ele>91</ele>
        <time>2017-09-27T00:00:53Z</time>
      </trkpt>
      <trkpt lat="47.28612" lon="0.59294">
        <ele>91</ele>
        <time>2017-09-27T00:02:53Z</time>
      </trkpt>
      <trkpt lat="47.28631" lon="0.59305">
        <ele>90</ele>
        <time>2017-09-27T00:04:53Z</time>
      </trkpt>
      <trkpt lat="47.28642" lon="0.59311">
        <ele>90</ele>
        <time>2017-09-27T00:06:53Z</time>
      </trkpt>
      <trkpt lat="47.28648" lon="0.59316">
        <ele>90</ele>
        <time>2017-09-27T00:08:53Z</time>
      </trkpt>
      <trkpt lat="47.28653" lon="0.59321">
        <ele>90</ele>
        <time>2017-09-27T00:10:53Z</time>
      </trkpt>
      <trkpt lat="47.28661" lon="0.59328">
        <ele>90</ele>
        <time>2017-09-27T00:12:53Z</time>
      </trkpt>
      <trkpt lat="47.28666" lon="0.59335">
        <ele>90</ele>
        <time>2017-09-27T00:14:53Z</time>
      </trkpt>
      <trkpt lat="47.2868" lon="0.59354">
        <ele>90</ele>
        <time>2017-09-27T00:16:53Z</time>
      </trkpt>
      <trkpt lat="47.28686" lon="0.5936">
        <ele>90</ele>
        <time>2017-09-27T00:18:53Z</time>
      </trkpt>
      <trkpt lat="47.28696" lon="0.5937">
        <ele>90</ele>
        <time>2017-09-27T00:20:53Z</time>
      </trkpt>
      <trkpt lat="47.28708" lon="0.59378">
        <ele>89</ele>
        <time>2017-09-27T00:22:53Z</time>
      </trkpt>
      <trkpt lat="47.28877" lon="0.59448">
        <ele>82</ele>
        <time>2017-09-27T00:24:53Z</time>
      </trkpt>
      <trkpt lat="47.2889" lon="0.59453">
        <ele>81</ele>
        <time>2017-09-27T00:26:53Z</time>
      </trkpt>
      <trkpt lat="47.289" lon="0.59457">
        <ele>80</ele>
        <time>2017-09-27T00:28:53Z</time>
      </trkpt>
      <trkpt lat="47.2891" lon="0.59462">
        <ele>79</ele>
        <time>2017-09-27T00:30:53Z</time>
      </trkpt>
      <trkpt lat="47.28921" lon="0.59466">
        <ele>78</ele>
        <time>2017-09-27T00:32:53Z</time>
      </trkpt>
      <trkpt lat="47.28934" lon="0.59472">
        <ele>78</ele>
        <time>2017-09-27T00:34:53Z</time>
      </trkpt>
      <trkpt lat="47.28959" lon="0.59482">
        <ele>77</ele>
        <time>2017-09-27T00:36:53Z</time>
      </trkpt>
      <trkpt lat="47.2898" lon="0.5949">
        <ele>77</ele>
        <time>2017-09-27T00:38:53Z</time>
      </trkpt>
      <trkpt lat="47.28991" lon="0.59495">
        <ele>76</ele>
        <time>2017-09-27T00:40:53Z</time>
      </trkpt>
      <trkpt lat="47.29" lon="0.59499">
        <ele>76</ele>
        <time>2017-09-27T00:42:53Z</time>
      </trkpt>
      <trkpt lat="47.29009" lon="0.59502">
        <ele>76</ele>
        <time>2017-09-27T00:44:53Z</time>
      </trkpt>
      <trkpt lat="47.29016" lon="0.59505">
        <ele>76</ele>
        <time>2017-09-27T00:46:53Z</time>
      </trkpt>
      <trkpt lat="47.29024" lon="0.59508">
        <ele>76</ele>
        <time>2017-09-27T00:48:53Z</time>
      </trkpt>
      <trkpt lat="47.29048" lon="0.59516">
        <ele>77</ele>
        <time>2017-09-27T00:50:53Z</time>
      </trkpt>
      <trkpt lat="47.2906" lon="0.5952">
        <ele>77</ele>
        <time>2017-09-27T00:52:53Z</time>
      </trkpt>
      <trkpt lat="47.29071" lon="0.59524">
        <ele>77</ele>
        <time>2017-09-27T00:54:53Z</time>
      </trkpt>
      <trkpt lat="47.29121" lon="0.59541">
        <ele>80</ele>
        <time>2017-09-27T00:56:53Z</time>
      </trkpt>
      <trkpt lat="47.29129" lon="0.59543">
        <ele>80</ele>
        <time>2017-09-27T00:58:53Z</time>
      </trkpt>
      <trkpt lat="47.29142" lon="0.59548">
        <ele>81</ele>
        <time>2017-09-27T01:00:53Z</time>
      </trkpt>
      <trkpt lat="47.29169" lon="0.59556">
        <ele>82</ele>
        <time>2017-09-27T01:02:53Z</time>
      </trkpt>
      <trkpt lat="47.29201" lon="0.59566">
        <ele>84</ele>
        <time>2017-09-27T01:04:53Z</time>
      </trkpt>
      <trkpt lat="47.29209" lon="0.59568">
        <ele>84</ele>
        <time>2017-09-27T01:06:53Z</time>
      </trkpt>
      <trkpt lat="47.2922" lon="0.59571">
        <ele>84</ele>
        <time>2017-09-27T01:08:53Z</time>
      </trkpt>
      <trkpt lat="47.2926" lon="0.59581">
        <ele>85</ele>
        <time>2017-09-27T01:10:53Z</time>
      </trkpt>
      <trkpt lat="47.29292" lon="0.59589">
        <ele>86</ele>
        <time>2017-09-27T01:12:53Z</time>
      </trkpt>
      <trkpt lat="47.29294" lon="0.59589">
        <ele>86</ele>
        <time>2017-09-27T01:14:53Z</time>
      </trkpt>
      <trkpt lat="47.2934" lon="0.59594">
        <ele>87</ele>
        <time>2017-09-27T01:16:53Z</time>
      </trkpt>
      <trkpt lat="47.2936" lon="0.59599">
        <ele>88</ele>
        <time>2017-09-27T01:18:53Z</time>
      </trkpt>
      <trkpt lat="47.29376" lon="0.59603">
        <ele>88</ele>
        <time>2017-09-27T01:20:53Z</time>
      </trkpt>
      <trkpt lat="47.29417" lon="0.59616">
        <ele>89</ele>
        <time>2017-09-27T01:22:53Z</time>
      </trkpt>
      <trkpt lat="47.29523" lon="0.59649">
        <ele>91</ele>
        <time>2017-09-27T01:24:53Z</time>
      </trkpt>
      <trkpt lat="47.29549" lon="0.59657">
        <ele>92</ele>
        <time>2017-09-27T01:26:53Z</time>
      </trkpt>
      <trkpt lat="47.2961" lon="0.59677">
        <ele>92</ele>
        <time>2017-09-27T01:28:53Z</time>
      </trkpt>
      <trkpt lat="47.29636" lon="0.59689">
        <ele>93</ele>
        <time>2017-09-27T01:30:53Z</time>
      </trkpt>
      <trkpt lat="47.29657" lon="0.597">
        <ele>93</ele>
        <time>2017-09-27T01:32:53Z</time>
      </trkpt>
      <trkpt lat="47.29728" lon="0.59737">
        <ele>94</ele>
        <time>2017-09-27T01:34:53Z</time>
      </trkpt>
      <trkpt lat="47.29778" lon="0.59762">
        <ele>93</ele>
        <time>2017-09-27T01:36:53Z</time>
      </trkpt>
      <trkpt lat="47.29899" lon="0.59825">
        <ele>92</ele>
        <time>2017-09-27T01:38:53Z</time>
      </trkpt>
      <trkpt lat="47.29929" lon="0.5984">
        <ele>92</ele>
        <time>2017-09-27T01:40:53Z</time>
      </trkpt>
      <trkpt lat="47.30002" lon="0.59878">
        <ele>92</ele>
        <time>2017-09-27T01:42:53Z</time>
      </trkpt>
      <trkpt lat="47.30239" lon="0.60002">
        <ele>94</ele>
        <time>2017-09-27T01:44:53Z</time>
      </trkpt>
      <trkpt lat="47.30369" lon="0.60083">
        <ele>93</ele>
        <time>2017-09-27T01:46:53Z</time>
      </trkpt>
      <trkpt lat="47.30487" lon="0.6016">
        <ele>96</ele>
        <time>2017-09-27T01:48:53Z</time>
      </trkpt>
      <trkpt lat="47.30562" lon="0.60209">
        <ele>97</ele>
        <time>2017-09-27T01:50:53Z</time>
      </trkpt>
      <trkpt lat="47.3058" lon="0.60223">
        <ele>98</ele>
        <time>2017-09-27T01:52:53Z</time>
      </trkpt>
      <trkpt lat="47.30592" lon="0.60232">
        <ele>98</ele>
        <time>2017-09-27T01:54:53Z</time>
      </trkpt>
      <trkpt lat="47.30608" lon="0.60247">
        <ele>97</ele>
        <time>2017-09-27T01:56:53Z</time>
      </trkpt>
      <trkpt lat="47.30622" lon="0.60259">
        <ele>97</ele>
        <time>2017-09-27T01:58:53Z</time>
      </trkpt>
      <trkpt lat="47.30641" lon="0.60277">
        <ele>96</ele>
        <time>2017-09-27T02:00:53Z</time>
      </trkpt>
      <trkpt lat="47.3065" lon="0.60283">
        <ele>95</ele>
        <time>2017-09-27T02:02:53Z</time>
      </trkpt>
      <trkpt lat="47.30663" lon="0.60294">
        <ele>94</ele>
        <time>2017-09-27T02:04:53Z</time>
      </trkpt>
      <trkpt lat="47.30677" lon="0.60305">
        <ele>94</ele>
        <time>2017-09-27T02:06:53Z</time>
      </trkpt>
      <trkpt lat="47.30691" lon="0.60314">
        <ele>94</ele>
        <time>2017-09-27T02:08:53Z</time>
      </trkpt>
      <trkpt lat="47.30704" lon="0.60323">
        <ele>94</ele>
        <time>2017-09-27T02:10:53Z</time>
      </trkpt>
      <trkpt lat="47.30717" lon="0.60331">
        <ele>95</ele>
        <time>2017-09-27T02:12:53Z</time>
      </trkpt>
      <trkpt lat="47.3073" lon="0.60338">
        <ele>95</ele>
        <time>2017-09-27T02:14:53Z</time>
      </trkpt>
      <trkpt lat="47.30742" lon="0.60344">
        <ele>95</ele>
        <time>2017-09-27T02:16:53Z</time>
      </trkpt>
      <trkpt lat="47.30753" lon="0.6035">
        <ele>95</ele>
        <time>2017-09-27T02:18:53Z</time>
      </trkpt>
      <trkpt lat="47.30764" lon="0.60354">
        <ele>95</ele>
        <time>2017-09-27T02:20:53Z</time>
      </trkpt>
      <trkpt lat="47.30773" lon="0.60358">
        <ele>95</ele>
        <time>2017-09-27T02:22:53Z</time>
      </trkpt>
      <trkpt lat="47.30781" lon="0.60361">
        <ele>95</ele>
        <time>2017-09-27T02:24:53Z</time>
      </trkpt>
      <trkpt lat="47.30787" lon="0.60363">
        <ele>95</ele>
        <time>2017-09-27T02:26:53Z</time>
      </trkpt>
      <trkpt lat="47.30793" lon="0.60365">
        <ele>94</ele>
        <time>2017-09-27T02:28:53Z</time>
      </trkpt>
      <trkpt lat="47.30797" lon="0.60367">
        <ele>94</ele>
        <time>2017-09-27T02:30:53Z</time>
      </trkpt>
      <trkpt lat="47.30799" lon="0.60368">
        <ele>94</ele>
        <time>2017-09-27T02:32:53Z</time>
      </trkpt>
      <trkpt lat="47.308" lon="0.60368">
        <ele>94</ele>
        <time>2017-09-27T02:34:53Z</time>
      </trkpt>
      <trkpt lat="47.30801" lon="0.60369">
        <ele>94</ele>
        <time>2017-09-27T02:36:53Z</time>
      </trkpt>
      <trkpt lat="47.30807" lon="0.60371">
        <ele>94</ele>
        <time>2017-09-27T02:38:53Z</time>
      </trkpt>
      <trkpt lat="47.30811" lon="0.60372">
        <ele>94</ele>
        <time>2017-09-27T02:40:53Z</time>
      </trkpt>
      <trkpt lat="47.30817" lon="0.60375">
        <ele>95</ele>
        <time>2017-09-27T02:42:53Z</time>
      </trkpt>
      <trkpt lat="47.30825" lon="0.60378">
        <ele>95</ele>
        <time>2017-09-27T02:44:53Z</time>
      </trkpt>
      <trkpt lat="47.30831" lon="0.6038">
        <ele>95</ele>
        <time>2017-09-27T02:46:53Z</time>
      </trkpt>
      <trkpt lat="47.30838" lon="0.60382">
        <ele>95</ele>
        <time>2017-09-27T02:48:53Z</time>
      </trkpt>
      <trkpt lat="47.30847" lon="0.60386">
        <ele>95</ele>
        <time>2017-09-27T02:50:53Z</time>
      </trkpt>
      <trkpt lat="47.30856" lon="0.6039">
        <ele>95</ele>
        <time>2017-09-27T02:52:53Z</time>
      </trkpt>
      <trkpt lat="47.30866" lon="0.60393">
        <ele>95</ele>
        <time>2017-09-27T02:54:53Z</time>
      </trkpt>
      <trkpt lat="47.30877" lon="0.60397">
        <ele>95</ele>
        <time>2017-09-27T02:56:53Z</time>
      </trkpt>
      <trkpt lat="47.30888" lon="0.60402">
        <ele>95</ele>
        <time>2017-09-27T02:58:53Z</time>
      </trkpt>
      <trkpt lat="47.309" lon="0.60406">
        <ele>95</ele>
        <time>2017-09-27T03:00:53Z</time>
      </trkpt>
      <trkpt lat="47.30913" lon="0.60411">
        <ele>95</ele>
        <time>2017-09-27T03:02:53Z</time>
      </trkpt>
      <trkpt lat="47.30926" lon="0.60416">
        <ele>95</ele>
        <time>2017-09-27T03:04:53Z</time>
      </trkpt>
      <trkpt lat="47.30939" lon="0.6042">
        <ele>95</ele>
        <time>2017-09-27T03:06:53Z</time>
      </trkpt>
      <trkpt lat="47.30951" lon="0.60425">
        <ele>95</ele>
        <time>2017-09-27T03:08:53Z</time>
      </trkpt>
      <trkpt lat="47.30964" lon="0.6043">
        <ele>94</ele>
        <time>2017-09-27T03:10:53Z</time>
      </trkpt>
      <trkpt lat="47.30976" lon="0.60434">
        <ele>94</ele>
        <time>2017-09-27T03:12:53Z</time>
      </trkpt>
      <trkpt lat="47.30988" lon="0.60439">
        <ele>94</ele>
        <time>2017-09-27T03:14:53Z</time>
      </trkpt>
      <trkpt lat="47.30995" lon="0.60442">
        <ele>94</ele>
        <time>2017-09-27T03:16:53Z</time>
      </trkpt>
      <trkpt lat="47.31034" lon="0.60456">
        <ele>96</ele>
        <time>2017-09-27T03:18:53Z</time>
      </trkpt>
      <trkpt lat="47.31041" lon="0.60458">
        <ele>96</ele>
        <time>2017-09-27T03:20:53Z</time>
      </trkpt>
      <trkpt lat="47.31043" lon="0.60459">
        <ele>96</ele>
        <time>2017-09-27T03:22:53Z</time>
      </trkpt>
      <trkpt lat="47.31054" lon="0.60463">
        <ele>97</ele>
        <time>2017-09-27T03:24:53Z</time>
      </trkpt>
      <trkpt lat="47.31067" lon="0.60466">
        <ele>97</ele>
        <time>2017-09-27T03:26:53Z</time>
      </trkpt>
      <trkpt lat="47.31085" lon="0.60469">
        <ele>98</ele>
        <time>2017-09-27T03:28:53Z</time>
      </trkpt>
      <trkpt lat="47.31089" lon="0.60469">
        <ele>98</ele>
        <time>2017-09-27T03:30:53Z</time>
      </trkpt>
      <trkpt lat="47.31102" lon="0.60469">
        <ele>99</ele>
        <time>2017-09-27T03:32:53Z</time>
      </trkpt>
      <trkpt lat="47.31117" lon="0.60468">
        <ele>99</ele>
        <time>2017-09-27T03:34:53Z</time>
      </trkpt>
      <trkpt lat="47.31149" lon="0.60463">
        <ele>99</ele>
        <time>2017-09-27T03:36:53Z</time>
      </trkpt>
      <trkpt lat="47.31214" lon="0.60453">
        <ele>99</ele>
        <time>2017-09-27T03:38:53Z</time>
      </trkpt>
      <trkpt lat="47.31263" lon="0.60447">
        <ele>99</ele>
        <time>2017-09-27T03:40:53Z</time>
      </trkpt>
      <trkpt lat="47.31303" lon="0.6044">
        <ele>99</ele>
        <time>2017-09-27T03:42:53Z</time>
      </trkpt>
      <trkpt lat="47.31329" lon="0.60437">
        <ele>100</ele>
        <time>2017-09-27T03:44:53Z</time>
      </trkpt>
      <trkpt lat="47.31331" lon="0.60437">
        <ele>100</ele>
        <time>2017-09-27T03:46:53Z</time>
      </trkpt>
      <trkpt lat="47.31357" lon="0.60431">
        <ele>100</ele>
        <time>2017-09-27T03:48:53Z</time>
      </trkpt>
      <trkpt lat="47.31364" lon="0.60429">
        <ele>100</ele>
        <time>2017-09-27T03:50:53Z</time>
      </trkpt>
      <trkpt lat="47.31368" lon="0.60428">
        <ele>100</ele>
        <time>2017-09-27T03:52:53Z</time>
      </trkpt>
      <trkpt lat="47.31372" lon="0.60426">
        <ele>100</ele>
        <time>2017-09-27T03:54:53Z</time>
      </trkpt>
      <trkpt lat="47.31377" lon="0.60423">
        <ele>100</ele>
        <time>2017-09-27T03:56:53Z</time>
      </trkpt>
      <trkpt lat="47.3138" lon="0.6042">
        <ele>100</ele>
        <time>2017-09-27T03:58:53Z</time>
      </trkpt>
      <trkpt lat="47.31385" lon="0.60416">
        <ele>100</ele>
        <time>2017-09-27T04:00:53Z</time>
      </trkpt>
      <trkpt lat="47.31392" lon="0.6041">
        <ele>99</ele>
        <time>2017-09-27T04:02:53Z</time>
      </trkpt>
      <trkpt lat="47.31403" lon="0.60399">
        <ele>99</ele>
        <time>2017-09-27T04:04:53Z</time>
      </trkpt>
      <trkpt lat="47.31411" lon="0.6039">
        <ele>98</ele>
        <time>2017-09-27T04:06:53Z</time>
      </trkpt>
      <trkpt lat="47.31446" lon="0.60354">
        <ele>95</ele>
        <time>2017-09-27T04:08:53Z</time>
      </trkpt>
      <trkpt lat="47.31462" lon="0.60335">
        <ele>94</ele>
        <time>2017-09-27T04:10:53Z</time>
      </trkpt>
      <trkpt lat="47.31507" lon="0.60287">
        <ele>95</ele>
        <time>2017-09-27T04:12:53Z</time>
      </trkpt>
      <trkpt lat="47.31605" lon="0.60181">
        <ele>94</ele>
        <time>2017-09-27T04:14:53Z</time>
      </trkpt>
      <trkpt lat="47.31615" lon="0.6017">
        <ele>94</ele>
        <time>2017-09-27T04:16:53Z</time>
      </trkpt>
      <trkpt lat="47.3169" lon="0.60089">
        <ele>93</ele>
        <time>2017-09-27T04:18:53Z</time>
      </trkpt>
      <trkpt lat="47.31768" lon="0.60006">
        <ele>91</ele>
        <time>2017-09-27T04:20:53Z</time>
      </trkpt>
      <trkpt lat="47.31818" lon="0.5995">
        <ele>92</ele>
        <time>2017-09-27T04:22:53Z</time>
      </trkpt>
      <trkpt lat="47.31829" lon="0.59936">
        <ele>92</ele>
        <time>2017-09-27T04:24:53Z</time>
      </trkpt>
      <trkpt lat="47.31861" lon="0.59903">
        <ele>92</ele>
        <time>2017-09-27T04:26:53Z</time>
      </trkpt>
      <trkpt lat="47.31874" lon="0.5989">
        <ele>92</ele>
        <time>2017-09-27T04:28:53Z</time>
      </trkpt>
      <trkpt lat="47.31896" lon="0.59873">
        <ele>92</ele>
        <time>2017-09-27T04:30:53Z</time>
      </trkpt>
      <trkpt lat="47.31913" lon="0.59862">
        <ele>92</ele>
        <time>2017-09-27T04:32:53Z</time>
      </trkpt>
      <trkpt lat="47.31926" lon="0.59856">
        <ele>92</ele>
        <time>2017-09-27T04:34:53Z</time>
      </trkpt>
      <trkpt lat="47.31938" lon="0.5985">
        <ele>92</ele>
        <time>2017-09-27T04:36:53Z</time>
      </trkpt>
      <trkpt lat="47.31942" lon="0.5985">
        <ele>92</ele>
        <time>2017-09-27T04:38:53Z</time>
      </trkpt>
      <trkpt lat="47.31953" lon="0.59846">
        <ele>92</ele>
        <time>2017-09-27T04:40:53Z</time>
      </trkpt>
      <trkpt lat="47.31965" lon="0.59842">
        <ele>92</ele>
        <time>2017-09-27T04:42:53Z</time>
      </trkpt>
      <trkpt lat="47.31978" lon="0.59838">
        <ele>93</ele>
        <time>2017-09-27T04:44:53Z</time>
      </trkpt>
      <trkpt lat="47.31997" lon="0.59833">
        <ele>93</ele>
        <time>2017-09-27T04:46:53Z</time>
      </trkpt>
      <trkpt lat="47.32012" lon="0.59829">
        <ele>93</ele>
        <time>2017-09-27T04:48:53Z</time>
      </trkpt>
      <trkpt lat="47.32022" lon="0.59826">
        <ele>92</ele>
        <time>2017-09-27T04:50:53Z</time>
      </trkpt>
      <trkpt lat="47.32031" lon="0.59823">
        <ele>92</ele>
        <time>2017-09-27T04:52:53Z</time>
      </trkpt>
      <trkpt lat="47.32048" lon="0.59818">
        <ele>92</ele>
        <time>2017-09-27T04:54:53Z</time>
      </trkpt>
      <trkpt lat="47.32061" lon="0.59815">
        <ele>92</ele>
        <time>2017-09-27T04:56:53Z</time>
      </trkpt>
      <trkpt lat="47.32069" lon="0.59813">
        <ele>91</ele>
        <time>2017-09-27T04:58:53Z</time>
      </trkpt>
      <trkpt lat="47.32077" lon="0.59813">
        <ele>91</ele>
        <time>2017-09-27T05:00:53Z</time>
      </trkpt>
      <trkpt lat="47.32087" lon="0.59813">
        <ele>91</ele>
        <time>2017-09-27T05:02:53Z</time>
      </trkpt>
      <trkpt lat="47.32094" lon="0.59814">
        <ele>91</ele>
        <time>2017-09-27T05:04:53Z</time>
      </trkpt>
      <trkpt lat="47.32102" lon="0.59817">
        <ele>91</ele>
        <time>2017-09-27T05:06:53Z</time>
      </trkpt>
      <trkpt lat="47.32112" lon="0.5982">
        <ele>91</ele>
        <time>2017-09-27T05:08:53Z</time>
      </trkpt>
      <trkpt lat="47.3212" lon="0.59825">
        <ele>91</ele>
        <time>2017-09-27T05:10:53Z</time>
      </trkpt>
      <trkpt lat="47.32129" lon="0.5983">
        <ele>90</ele>
        <time>2017-09-27T05:12:53Z</time>
      </trkpt>
      <trkpt lat="47.32136" lon="0.59836">
        <ele>90</ele>
        <time>2017-09-27T05:14:53Z</time>
      </trkpt>
      <trkpt lat="47.32146" lon="0.59846">
        <ele>90</ele>
        <time>2017-09-27T05:16:53Z</time>
      </trkpt>
      <trkpt lat="47.32156" lon="0.59858">
        <ele>90</ele>
        <time>2017-09-27T05:18:53Z</time>
      </trkpt>
      <trkpt lat="47.32169" lon="0.59875">
        <ele>89</ele>
        <time>2017-09-27T05:20:53Z</time>
      </trkpt>
      <trkpt lat="47.32179" lon="0.59885">
        <ele>89</ele>
        <time>2017-09-27T05:22:53Z</time>
      </trkpt>
      <trkpt lat="47.32187" lon="0.59893">
        <ele>89</ele>
        <time>2017-09-27T05:24:53Z</time>
      </trkpt>
      <trkpt lat="47.32192" lon="0.59897">
        <ele>89</ele>
        <time>2017-09-27T05:26:53Z</time>
      </trkpt>
      <trkpt lat="47.32196" lon="0.59899">
        <ele>89</ele>
        <time>2017-09-27T05:28:53Z</time>
      </trkpt>
      <trkpt lat="47.322" lon="0.59901">
        <ele>89</ele>
        <time>2017-09-27T05:30:53Z</time>
      </trkpt>
      <trkpt lat="47.32203" lon="0.59902">
        <ele>89</ele>
        <time>2017-09-27T05:32:53Z</time>
      </trkpt>
      <trkpt lat="47.32206" lon="0.59903">
        <ele>89</ele>
        <time>2017-09-27T05:34:53Z</time>
      </trkpt>
      <trkpt lat="47.32208" lon="0.59906">
        <ele>89</ele>
        <time>2017-09-27T05:36:53Z</time>
      </trkpt>
      <trkpt lat="47.3221" lon="0.59906">
        <ele>89</ele>
        <time>2017-09-27T05:38:53Z</time>
      </trkpt>
      <trkpt lat="47.32213" lon="0.59907">
        <ele>89</ele>
        <time>2017-09-27T05:40:53Z</time>
      </trkpt>
      <trkpt lat="47.32215" lon="0.59906">
        <ele>89</ele>
        <time>2017-09-27T05:42:53Z</time>
      </trkpt>
      <trkpt lat="47.32217" lon="0.59906">
        <ele>89</ele>
        <time>2017-09-27T05:44:53Z</time>
      </trkpt>
      <trkpt lat="47.32221" lon="0.59906">
        <ele>89</ele>
        <time>2017-09-27T05:46:53Z</time>
      </trkpt>
      <trkpt lat="47.32223" lon="0.59905">
        <ele>89</ele>
        <time>2017-09-27T05:48:53Z</time>
      </trkpt>
      <trkpt lat="47.32228" lon="0.59903">
        <ele>89</ele>
        <time>2017-09-27T05:50:53Z</time>
      </trkpt>
      <trkpt lat="47.32231" lon="0.59901">
        <ele>89</ele>
        <time>2017-09-27T05:52:53Z</time>
      </trkpt>
      <trkpt lat="47.32234" lon="0.59898">
        <ele>89</ele>
        <time>2017-09-27T05:54:53Z</time>
      </trkpt>
      <trkpt lat="47.32236" lon="0.59897">
        <ele>89</ele>
        <time>2017-09-27T05:56:53Z</time>
      </trkpt>
      <trkpt lat="47.32238" lon="0.59895">
        <ele>89</ele>
        <time>2017-09-27T05:58:53Z</time>
      </trkpt>
      <trkpt lat="47.3224" lon="0.59892">
        <ele>89</ele>
        <time>2017-09-27T06:00:53Z</time>
      </trkpt>
      <trkpt lat="47.32242" lon="0.59889">
        <ele>89</ele>
        <time>2017-09-27T06:02:53Z</time>
      </trkpt>
      <trkpt lat="47.32244" lon="0.59886">
        <ele>89</ele>
        <time>2017-09-27T06:04:53Z</time>
      </trkpt>
      <trkpt lat="47.32248" lon="0.59882">
        <ele>89</ele>
        <time>2017-09-27T06:06:53Z</time>
      </trkpt>
      <trkpt lat="47.3225" lon="0.5988">
        <ele>89</ele>
        <time>2017-09-27T06:08:53Z</time>
      </trkpt>
      <trkpt lat="47.32255" lon="0.59874">
        <ele>89</ele>
        <time>2017-09-27T06:10:53Z</time>
      </trkpt>
      <trkpt lat="47.32255" lon="0.59874">
        <ele>89</ele>
        <time>2017-09-27T06:12:53Z</time>
      </trkpt>
      <trkpt lat="47.3226" lon="0.59872">
        <ele>89</ele>
        <time>2017-09-27T06:14:53Z</time>
      </trkpt>
      <trkpt lat="47.32265" lon="0.5987">
        <ele>89</ele>
        <time>2017-09-27T06:16:53Z</time>
      </trkpt>
      <trkpt lat="47.32269" lon="0.59863">
        <ele>89</ele>
        <time>2017-09-27T06:18:53Z</time>
      </trkpt>
      <trkpt lat="47.32275" lon="0.59863">
        <ele>89</ele>
        <time>2017-09-27T06:20:53Z</time>
      </trkpt>
      <trkpt lat="47.32282" lon="0.59861">
        <ele>89</ele>
        <time>2017-09-27T06:22:53Z</time>
      </trkpt>
      <trkpt lat="47.32287" lon="0.59861">
        <ele>89</ele>
        <time>2017-09-27T06:24:53Z</time>
      </trkpt>
      <trkpt lat="47.3229" lon="0.59862">
        <ele>89</ele>
        <time>2017-09-27T06:26:53Z</time>
      </trkpt>
      <trkpt lat="47.32295" lon="0.59863">
        <ele>89</ele>
        <time>2017-09-27T06:28:53Z</time>
      </trkpt>
      <trkpt lat="47.32301" lon="0.59865">
        <ele>89</ele>
        <time>2017-09-27T06:30:53Z</time>
      </trkpt>
      <trkpt lat="47.32307" lon="0.59869">
        <ele>89</ele>
        <time>2017-09-27T06:32:53Z</time>
      </trkpt>
      <trkpt lat="47.32312" lon="0.59873">
        <ele>89</ele>
        <time>2017-09-27T06:34:53Z</time>
      </trkpt>
      <trkpt lat="47.32314" lon="0.59875">
        <ele>89</ele>
        <time>2017-09-27T06:36:53Z</time>
      </trkpt>
      <trkpt lat="47.32319" lon="0.5988">
        <ele>89</ele>
        <time>2017-09-27T06:38:53Z</time>
      </trkpt>
      <trkpt lat="47.32324" lon="0.59885">
        <ele>90</ele>
        <time>2017-09-27T06:40:53Z</time>
      </trkpt>
      <trkpt lat="47.32327" lon="0.59889">
        <ele>90</ele>
        <time>2017-09-27T06:42:53Z</time>
      </trkpt>
      <trkpt lat="47.32333" lon="0.59897">
        <ele>90</ele>
        <time>2017-09-27T06:44:53Z</time>
      </trkpt>
      <trkpt lat="47.32339" lon="0.59906">
        <ele>90</ele>
        <time>2017-09-27T06:46:53Z</time>
      </trkpt>
      <trkpt lat="47.32344" lon="0.59915">
        <ele>90</ele>
        <time>2017-09-27T06:48:53Z</time>
      </trkpt>
      <trkpt lat="47.32349" lon="0.59925">
        <ele>90</ele>
        <time>2017-09-27T06:50:53Z</time>
      </trkpt>
      <trkpt lat="47.32355" lon="0.59937">
        <ele>90</ele>
        <time>2017-09-27T06:52:53Z</time>
      </trkpt>
      <trkpt lat="47.32363" lon="0.5995">
        <ele>90</ele>
        <time>2017-09-27T06:54:53Z</time>
      </trkpt>
      <trkpt lat="47.32368" lon="0.59959">
        <ele>90</ele>
        <time>2017-09-27T06:56:53Z</time>
      </trkpt>
      <trkpt lat="47.32372" lon="0.59966">
        <ele>90</ele>
        <time>2017-09-27T06:58:53Z</time>
      </trkpt>
      <trkpt lat="47.32374" lon="0.59969">
        <ele>90</ele>
        <time>2017-09-27T07:00:53Z</time>
      </trkpt>
      <trkpt lat="47.32379" lon="0.59976">
        <ele>90</ele>
        <time>2017-09-27T07:02:53Z</time>
      </trkpt>
      <trkpt lat="47.32389" lon="0.59989">
        <ele>90</ele>
        <time>2017-09-27T07:04:53Z</time>
      </trkpt>
      <trkpt lat="47.32396" lon="0.59997">
        <ele>90</ele>
        <time>2017-09-27T07:06:53Z</time>
      </trkpt>
      <trkpt lat="47.32409" lon="0.60012">
        <ele>91</ele>
        <time>2017-09-27T07:08:53Z</time>
      </trkpt>
      <trkpt lat="47.3243" lon="0.60038">
        <ele>91</ele>
        <time>2017-09-27T07:10:53Z</time>
      </trkpt>
      <trkpt lat="47.32449" lon="0.6006">
        <ele>91</ele>
        <time>2017-09-27T07:12:53Z</time>
      </trkpt>
      <trkpt lat="47.32449" lon="0.60061">
        <ele>91</ele>
        <time>2017-09-27T07:14:53Z</time>
      </trkpt>
      <trkpt lat="47.32467" lon="0.60082">
        <ele>92</ele>
        <time>2017-09-27T07:16:53Z</time>
      </trkpt>
      <trkpt lat="47.32493" lon="0.60114">
        <ele>92</ele>
        <time>2017-09-27T07:18:53Z</time>
      </trkpt>
      <trkpt lat="47.32534" lon="0.60164">
        <ele>91</ele>
        <time>2017-09-27T07:20:53Z</time>
      </trkpt>
      <trkpt lat="47.32577" lon="0.60216">
        <ele>91</ele>
        <time>2017-09-27T07:22:53Z</time>
      </trkpt>
      <trkpt lat="47.32592" lon="0.60234">
        <ele>91</ele>
        <time>2017-09-27T07:24:53Z</time>
      </trkpt>
      <trkpt lat="47.32634" lon="0.60286">
        <ele>92</ele>
        <time>2017-09-27T07:26:53Z</time>
      </trkpt>
      <trkpt lat="47.32674" lon="0.60333">
        <ele>91</ele>
        <time>2017-09-27T07:28:53Z</time>
      </trkpt>
      <trkpt lat="47.32712" lon="0.60379">
        <ele>92</ele>
        <time>2017-09-27T07:30:53Z</time>
      </trkpt>
      <trkpt lat="47.32721" lon="0.60391">
        <ele>92</ele>
        <time>2017-09-27T07:32:53Z</time>
      </trkpt>
      <trkpt lat="47.32727" lon="0.60401">
        <ele>92</ele>
        <time>2017-09-27T07:34:53Z</time>
      </trkpt>
      <trkpt lat="47.32726" lon="0.60404">
        <ele>92</ele>
        <time>2017-09-27T07:36:53Z</time>
      </trkpt>
      <trkpt lat="47.32726" lon="0.60406">
        <ele>92</ele>
        <time>2017-09-27T07:38:53Z</time>
      </trkpt>
      <trkpt lat="47.32726" lon="0.60407">
        <ele>92</ele>
        <time>2017-09-27T07:40:53Z</time>
      </trkpt>
      <trkpt lat="47.32727" lon="0.60409">
        <ele>92</ele>
        <time>2017-09-27T07:42:53Z</time>
      </trkpt>
      <trkpt lat="47.32727" lon="0.6041">
        <ele>92</ele>
        <time>2017-09-27T07:44:53Z</time>
      </trkpt>
      <trkpt lat="47.32728" lon="0.60412">
        <ele>92</ele>
        <time>2017-09-27T07:46:53Z</time>
      </trkpt>
      <trkpt lat="47.3273" lon="0.60415">
        <ele>92</ele>
        <time>2017-09-27T07:48:53Z</time>
      </trkpt>
      <trkpt lat="47.32732" lon="0.60417">
        <ele>92</ele>
        <time>2017-09-27T07:50:53Z</time>
      </trkpt>
      <trkpt lat="47.32733" lon="0.60418">
        <ele>92</ele>
        <time>2017-09-27T07:52:53Z</time>
      </trkpt>
      <trkpt lat="47.32736" lon="0.60418">
        <ele>92</ele>
        <time>2017-09-27T07:54:53Z</time>
      </trkpt>
      <trkpt lat="47.32738" lon="0.60418">
        <ele>92</ele>
        <time>2017-09-27T07:56:53Z</time>
      </trkpt>
      <trkpt lat="47.32745" lon="0.60422">
        <ele>92</ele>
        <time>2017-09-27T07:58:53Z</time>
      </trkpt>
      <trkpt lat="47.32752" lon="0.60428">
        <ele>92</ele>
        <time>2017-09-27T08:00:53Z</time>
      </trkpt>
      <trkpt lat="47.32756" lon="0.60432">
        <ele>92</ele>
        <time>2017-09-27T08:02:53Z</time>
      </trkpt>
      <trkpt lat="47.3276" lon="0.60438">
        <ele>92</ele>
        <time>2017-09-27T08:04:53Z</time>
      </trkpt>
      <trkpt lat="47.32773" lon="0.60453">
        <ele>92</ele>
        <time>2017-09-27T08:06:53Z</time>
      </trkpt>
      <trkpt lat="47.32798" lon="0.60484">
        <ele>93</ele>
        <time>2017-09-27T08:08:53Z</time>
      </trkpt>
      <trkpt lat="47.32833" lon="0.60526">
        <ele>95</ele>
        <time>2017-09-27T08:10:53Z</time>
      </trkpt>
      <trkpt lat="47.32857" lon="0.60556">
        <ele>96</ele>
        <time>2017-09-27T08:12:53Z</time>
      </trkpt>
      <trkpt lat="47.32886" lon="0.6059">
        <ele>97</ele>
        <time>2017-09-27T08:14:53Z</time>
      </trkpt>
      <trkpt lat="47.32932" lon="0.60646">
        <ele>96</ele>
        <time>2017-09-27T08:16:53Z</time>
      </trkpt>
      <trkpt lat="47.3296" lon="0.60679">
        <ele>95</ele>
        <time>2017-09-27T08:18:53Z</time>
      </trkpt>
      <trkpt lat="47.33049" lon="0.60787">
        <ele>93</ele>
        <time>2017-09-27T08:20:53Z</time>
      </trkpt>
      <trkpt lat="47.33095" lon="0.60843">
        <ele>93</ele>
        <time>2017-09-27T08:22:53Z</time>
      </trkpt>
      <trkpt lat="47.33139" lon="0.60897">
        <ele>93</ele>
        <time>2017-09-27T08:24:53Z</time>
      </trkpt>
      <trkpt lat="47.3318" lon="0.60947">
        <ele>93</ele>
        <time>2017-09-27T08:26:53Z</time>
      </trkpt>
      <trkpt lat="47.3337" lon="0.61175">
        <ele>90</ele>
        <time>2017-09-27T08:28:53Z</time>
      </trkpt>
      <trkpt lat="47.33381" lon="0.61189">
        <ele>90</ele>
        <time>2017-09-27T08:30:53Z</time>
      </trkpt>
      <trkpt lat="47.33385" lon="0.61196">
        <ele>90</ele>
        <time>2017-09-27T08:32:53Z</time>
      </trkpt>
      <trkpt lat="47.33392" lon="0.61205">
        <ele>90</ele>
        <time>2017-09-27T08:34:53Z</time>
      </trkpt>
      <trkpt lat="47.33398" lon="0.61215">
        <ele>90</ele>
        <time>2017-09-27T08:36:53Z</time>
      </trkpt>
      <trkpt lat="47.33404" lon="0.61226">
        <ele>90</ele>
        <time>2017-09-27T08:38:53Z</time>
      </trkpt>
      <trkpt lat="47.3341" lon="0.61242">
        <ele>90</ele>
        <time>2017-09-27T08:40:53Z</time>
      </trkpt>
      <trkpt lat="47.33417" lon="0.61259">
        <ele>90</ele>
        <time>2017-09-27T08:42:53Z</time>
      </trkpt>
      <trkpt lat="47.33421" lon="0.6127">
        <ele>90</ele>
        <time>2017-09-27T08:44:53Z</time>
      </trkpt>
      <trkpt lat="47.33421" lon="0.6127">
        <ele>90</ele>
        <time>2017-09-27T08:46:53Z</time>
      </trkpt>
      <trkpt lat="47.3342" lon="0.61276">
        <ele>90</ele>
        <time>2017-09-27T08:48:53Z</time>
      </trkpt>
      <trkpt lat="47.3342" lon="0.61282">
        <ele>90</ele>
        <time>2017-09-27T08:50:53Z</time>
      </trkpt>
      <trkpt lat="47.33422" lon="0.6129">
        <ele>91</ele>
        <time>2017-09-27T08:52:53Z</time>
      </trkpt>
      <trkpt lat="47.33427" lon="0.61298">
        <ele>91</ele>
        <time>2017-09-27T08:54:53Z</time>
      </trkpt>
      <trkpt lat="47.33433" lon="0.61303">
        <ele>91</ele>
        <time>2017-09-27T08:56:53Z</time>
      </trkpt>
      <trkpt lat="47.33439" lon="0.61303">
        <ele>91</ele>
        <time>2017-09-27T08:58:53Z</time>
      </trkpt>
      <trkpt lat="47.33444" lon="0.61301">
        <ele>91</ele>
        <time>2017-09-27T09:00:53Z</time>
      </trkpt>
      <trkpt lat="47.33448" lon="0.61298">
        <ele>91</ele>
        <time>2017-09-27T09:02:53Z</time>
      </trkpt>
      <trkpt lat="47.33451" lon="0.6129">
        <ele>91</ele>
        <time>2017-09-27T09:04:53Z</time>
      </trkpt>
      <trkpt lat="47.33453" lon="0.61283">
        <ele>91</ele>
        <time>2017-09-27T09:06:53Z</time>
      </trkpt>
      <trkpt lat="47.33452" lon="0.61275">
        <ele>91</ele>
        <time>2017-09-27T09:08:53Z</time>
      </trkpt>
      <trkpt lat="47.33451" lon="0.61271">
        <ele>91</ele>
        <time>2017-09-27T09:10:53Z</time>
      </trkpt>
      <trkpt lat="47.3345" lon="0.61266">
        <ele>91</ele>
        <time>2017-09-27T09:12:53Z</time>
      </trkpt>
      <trkpt lat="47.33452" lon="0.6126">
        <ele>91</ele>
        <time>2017-09-27T09:14:53Z</time>
      </trkpt>
      <trkpt lat="47.33453" lon="0.61254">
        <ele>91</ele>
        <time>2017-09-27T09:16:53Z</time>
      </trkpt>
      <trkpt lat="47.33452" lon="0.61248">
        <ele>91</ele>
        <time>2017-09-27T09:18:53Z</time>
      </trkpt>
      <trkpt lat="47.33451" lon="0.61241">
        <ele>91</ele>
        <time>2017-09-27T09:20:53Z</time>
      </trkpt>
      <trkpt lat="47.3345" lon="0.61235">
        <ele>91</ele>
        <time>2017-09-27T09:22:53Z</time>
      </trkpt>
      <trkpt lat="47.3344" lon="0.61191">
        <ele>90</ele>
        <time>2017-09-27T09:24:53Z</time>
      </trkpt>
      <trkpt lat="47.3342" lon="0.61108">
        <ele>92</ele>
        <time>2017-09-27T09:26:53Z</time>
      </trkpt>
      <trkpt lat="47.33405" lon="0.61041">
        <ele>92</ele>
        <time>2017-09-27T09:28:53Z</time>
      </trkpt>
      <trkpt lat="47.33401" lon="0.61025">
        <ele>92</ele>
        <time>2017-09-27T09:30:53Z</time>
      </trkpt>
      <trkpt lat="47.33399" lon="0.61016">
        <ele>92</ele>
        <time>2017-09-27T09:32:53Z</time>
      </trkpt>
      <trkpt lat="47.33394" lon="0.60986">
        <ele>92</ele>
        <time>2017-09-27T09:34:53Z</time>
      </trkpt>
      <trkpt lat="47.33385" lon="0.60926">
        <ele>91</ele>
        <time>2017-09-27T09:36:53Z</time>
      </trkpt>
      <trkpt lat="47.33385" lon="0.60926">
        <ele>91</ele>
        <time>2017-09-27T09:38:53Z</time>
      </trkpt>
      <trkpt lat="47.33382" lon="0.60907">
        <ele>91</ele>
        <time>2017-09-27T09:40:53Z</time>
      </trkpt>
      <trkpt lat="47.33373" lon="0.60866">
        <ele>92</ele>
        <time>2017-09-27T09:42:53Z</time>
      </trkpt>
      <trkpt lat="47.3337" lon="0.60852">
        <ele>92</ele>
        <time>2017-09-27T09:44:53Z</time>
      </trkpt>
      <trkpt lat="47.3334" lon="0.6073">
        <ele>93</ele>
        <time>2017-09-27T09:46:53Z</time>
      </trkpt>
      <trkpt lat="47.33334" lon="0.60703">
        <ele>93</ele>
        <time>2017-09-27T09:48:53Z</time>
      </trkpt>
      <trkpt lat="47.33334" lon="0.60703">
        <ele>93</ele>
        <time>2017-09-27T09:50:53Z</time>
      </trkpt>
      <trkpt lat="47.33382" lon="0.60707">
        <ele>93</ele>
        <time>2017-09-27T09:52:53Z</time>
      </trkpt>
      <trkpt lat="47.33387" lon="0.60707">
        <ele>93</ele>
        <time>2017-09-27T09:54:53Z</time>
      </trkpt>
      <trkpt lat="47.33401" lon="0.60707">
        <ele>93</ele>
        <time>2017-09-27T09:56:53Z</time>
      </trkpt>
      <trkpt lat="47.33405" lon="0.60707">
        <ele>93</ele>
        <time>2017-09-27T09:58:53Z</time>
      </trkpt>
      <trkpt lat="47.33437" lon="0.60708">
        <ele>93</ele>
        <time>2017-09-27T10:00:53Z</time>
      </trkpt>
      <trkpt lat="47.33471" lon="0.6071">
        <ele>93</ele>
        <time>2017-09-27T10:02:53Z</time>
      </trkpt>
      <trkpt lat="47.33489" lon="0.6071">
        <ele>93</ele>
        <time>2017-09-27T10:04:53Z</time>
      </trkpt>
      <trkpt lat="47.33512" lon="0.60709">
        <ele>93</ele>
        <time>2017-09-27T10:06:53Z</time>
      </trkpt>
      <trkpt lat="47.33541" lon="0.60707">
        <ele>93</ele>
        <time>2017-09-27T10:08:53Z</time>
      </trkpt>
      <trkpt lat="47.33554" lon="0.60706">
        <ele>93</ele>
        <time>2017-09-27T10:10:53Z</time>
      </trkpt>
      <trkpt lat="47.33568" lon="0.60705">
        <ele>93</ele>
        <time>2017-09-27T10:12:53Z</time>
      </trkpt>
      <trkpt lat="47.33589" lon="0.60704">
        <ele>93</ele>
        <time>2017-09-27T10:14:53Z</time>
      </trkpt>
      <trkpt lat="47.33589" lon="0.60704">
        <ele>93</ele>
        <time>2017-09-27T10:16:53Z</time>
      </trkpt>
      <trkpt lat="47.33604" lon="0.60703">
        <ele>93</ele>
        <time>2017-09-27T10:18:53Z</time>
      </trkpt>
      <trkpt lat="47.33637" lon="0.60696">
        <ele>94</ele>
        <time>2017-09-27T10:20:53Z</time>
      </trkpt>
      <trkpt lat="47.3367" lon="0.60685">
        <ele>95</ele>
        <time>2017-09-27T10:22:53Z</time>
      </trkpt>
      <trkpt lat="47.33673" lon="0.60683">
        <ele>95</ele>
        <time>2017-09-27T10:24:53Z</time>
      </trkpt>
      <trkpt lat="47.33702" lon="0.6067">
        <ele>94</ele>
        <time>2017-09-27T10:26:53Z</time>
      </trkpt>
      <trkpt lat="47.33737" lon="0.60654">
        <ele>93</ele>
        <time>2017-09-27T10:28:53Z</time>
      </trkpt>
      <trkpt lat="47.33763" lon="0.60643">
        <ele>92</ele>
        <time>2017-09-27T10:30:53Z</time>
      </trkpt>
      <trkpt lat="47.33778" lon="0.60639">
        <ele>92</ele>
        <time>2017-09-27T10:32:53Z</time>
      </trkpt>
      <trkpt lat="47.33799" lon="0.60637">
        <ele>92</ele>
        <time>2017-09-27T10:34:53Z</time>
      </trkpt>
      <trkpt lat="47.3381" lon="0.60637">
        <ele>92</ele>
        <time>2017-09-27T10:36:53Z</time>
      </trkpt>
      <trkpt lat="47.33836" lon="0.60636">
        <ele>92</ele>
        <time>2017-09-27T10:38:53Z</time>
      </trkpt>
      <trkpt lat="47.33847" lon="0.60634">
        <ele>92</ele>
        <time>2017-09-27T10:40:53Z</time>
      </trkpt>
      <trkpt lat="47.33851" lon="0.60633">
        <ele>92</ele>
        <time>2017-09-27T10:42:53Z</time>
      </trkpt>
      <trkpt lat="47.3386" lon="0.6063">
        <ele>92</ele>
        <time>2017-09-27T10:44:53Z</time>
      </trkpt>
      <trkpt lat="47.33871" lon="0.60625">
        <ele>92</ele>
        <time>2017-09-27T10:46:53Z</time>
      </trkpt>
      <trkpt lat="47.33888" lon="0.60616">
        <ele>92</ele>
        <time>2017-09-27T10:48:53Z</time>
      </trkpt>
      <trkpt lat="47.3398" lon="0.60583">
        <ele>90</ele>
        <time>2017-09-27T10:50:53Z</time>
      </trkpt>
      <trkpt lat="47.34005" lon="0.60574">
        <ele>90</ele>
        <time>2017-09-27T10:52:53Z</time>
      </trkpt>
      <trkpt lat="47.34005" lon="0.60574">
        <ele>90</ele>
        <time>2017-09-27T10:54:53Z</time>
      </trkpt>
      <trkpt lat="47.34008" lon="0.60479">
        <ele>90</ele>
        <time>2017-09-27T10:56:53Z</time>
      </trkpt>
      <trkpt lat="47.34008" lon="0.60457">
        <ele>90</ele>
        <time>2017-09-27T10:58:53Z</time>
      </trkpt>
      <trkpt lat="47.34009" lon="0.60424">
        <ele>89</ele>
        <time>2017-09-27T11:00:53Z</time>
      </trkpt>
      <trkpt lat="47.34008" lon="0.60309">
        <ele>90</ele>
        <time>2017-09-27T11:02:53Z</time>
      </trkpt>
      <trkpt lat="47.34008" lon="0.60309">
        <ele>90</ele>
        <time>2017-09-27T11:04:53Z</time>
      </trkpt>
      <trkpt lat="47.34019" lon="0.60304">
        <ele>90</ele>
        <time>2017-09-27T11:06:53Z</time>
      </trkpt>
      <trkpt lat="47.34148" lon="0.60238">
        <ele>88</ele>
        <time>2017-09-27T11:08:53Z</time>
      </trkpt>
      <trkpt lat="47.34172" lon="0.60228">
        <ele>88</ele>
        <time>2017-09-27T11:10:53Z</time>
      </trkpt>
      <trkpt lat="47.34192" lon="0.6022">
        <ele>87</ele>
        <time>2017-09-27T11:12:53Z</time>
      </trkpt>
      <trkpt lat="47.34421" lon="0.60151">
        <ele>84</ele>
        <time>2017-09-27T11:14:53Z</time>
      </trkpt>
      <trkpt lat="47.34444" lon="0.60142">
        <ele>83</ele>
        <time>2017-09-27T11:16:53Z</time>
      </trkpt>
      <trkpt lat="47.34485" lon="0.60121">
        <ele>82</ele>
        <time>2017-09-27T11:18:53Z</time>
      </trkpt>
      <trkpt lat="47.34512" lon="0.60109">
        <ele>82</ele>
        <time>2017-09-27T11:20:53Z</time>
      </trkpt>
      <trkpt lat="47.3454" lon="0.60096">
        <ele>83</ele>
        <time>2017-09-27T11:22:53Z</time>
      </trkpt>
      <trkpt lat="47.34573" lon="0.60082">
        <ele>84</ele>
        <time>2017-09-27T11:24:53Z</time>
      </trkpt>
      <trkpt lat="47.34575" lon="0.60081">
        <ele>84</ele>
        <time>2017-09-27T11:26:53Z</time>
      </trkpt>
      <trkpt lat="47.34584" lon="0.60078">
        <ele>84</ele>
        <time>2017-09-27T11:28:53Z</time>
      </trkpt>
      <trkpt lat="47.34626" lon="0.60059">
        <ele>84</ele>
        <time>2017-09-27T11:30:53Z</time>
      </trkpt>
      <trkpt lat="47.34634" lon="0.60055">
        <ele>84</ele>
        <time>2017-09-27T11:32:53Z</time>
      </trkpt>
      <trkpt lat="47.34639" lon="0.60052">
        <ele>84</ele>
        <time>2017-09-27T11:34:53Z</time>
      </trkpt>
      <trkpt lat="47.34644" lon="0.60049">
        <ele>84</ele>
        <time>2017-09-27T11:36:53Z</time>
      </trkpt>
      <trkpt lat="47.34644" lon="0.60049">
        <ele>84</ele>
        <time>2017-09-27T11:38:53Z</time>
      </trkpt>
      <trkpt lat="47.34646" lon="0.60051">
        <ele>84</ele>
        <time>2017-09-27T11:40:53Z</time>
      </trkpt>
      <trkpt lat="47.34648" lon="0.60052">
        <ele>84</ele>
        <time>2017-09-27T11:42:53Z</time>
      </trkpt>
      <trkpt lat="47.34651" lon="0.60053">
        <ele>83</ele>
        <time>2017-09-27T11:44:53Z</time>
      </trkpt>
      <trkpt lat="47.34656" lon="0.60053">
        <ele>83</ele>
        <time>2017-09-27T11:46:53Z</time>
      </trkpt>
      <trkpt lat="47.34689" lon="0.60054">
        <ele>84</ele>
        <time>2017-09-27T11:48:53Z</time>
      </trkpt>
      <trkpt lat="47.34715" lon="0.60052">
        <ele>85</ele>
        <time>2017-09-27T11:50:53Z</time>
      </trkpt>
      <trkpt lat="47.34769" lon="0.60047">
        <ele>87</ele>
        <time>2017-09-27T11:52:53Z</time>
      </trkpt>
      <trkpt lat="47.34786" lon="0.60046">
        <ele>88</ele>
        <time>2017-09-27T11:54:53Z</time>
      </trkpt>
      <trkpt lat="47.34823" lon="0.60043">
        <ele>90</ele>
        <time>2017-09-27T11:56:53Z</time>
      </trkpt>
      <trkpt lat="47.34851" lon="0.60038">
        <ele>91</ele>
        <time>2017-09-27T11:58:53Z</time>
      </trkpt>
      <trkpt lat="47.34883" lon="0.60031">
        <ele>92</ele>
        <time>2017-09-27T12:00:53Z</time>
      </trkpt>
      <trkpt lat="47.34933" lon="0.60024">
        <ele>93</ele>
        <time>2017-09-27T12:02:53Z</time>
      </trkpt>
      <trkpt lat="47.34956" lon="0.60025">
        <ele>92</ele>
        <time>2017-09-27T12:04:53Z</time>
      </trkpt>
      <trkpt lat="47.34985" lon="0.60028">
        <ele>91</ele>
        <time>2017-09-27T12:06:53Z</time>
      </trkpt>
      <trkpt lat="47.35017" lon="0.60027">
        <ele>91</ele>
        <time>2017-09-27T12:08:53Z</time>
      </trkpt>
      <trkpt lat="47.35043" lon="0.60022">
        <ele>90</ele>
        <time>2017-09-27T12:10:53Z</time>
      </trkpt>
      <trkpt lat="47.35064" lon="0.60018">
        <ele>90</ele>
        <time>2017-09-27T12:12:53Z</time>
      </trkpt>
      <trkpt lat="47.35087" lon="0.60015">
        <ele>89</ele>
        <time>2017-09-27T12:14:53Z</time>
      </trkpt>
      <trkpt lat="47.35118" lon="0.60012">
        <ele>88</ele>
        <time>2017-09-27T12:16:53Z</time>
      </trkpt>
      <trkpt lat="47.35136" lon="0.60009">
        <ele>87</ele>
        <time>2017-09-27T12:18:53Z</time>
      </trkpt>
      <trkpt lat="47.35152" lon="0.60003">
        <ele>87</ele>
        <time>2017-09-27T12:20:53Z</time>
      </trkpt>
      <trkpt lat="47.35181" lon="0.5999">
        <ele>86</ele>
        <time>2017-09-27T12:22:53Z</time>
      </trkpt>
      <trkpt lat="47.35205" lon="0.59981">
        <ele>86</ele>
        <time>2017-09-27T12:24:53Z</time>
      </trkpt>
      <trkpt lat="47.35227" lon="0.59975">
        <ele>86</ele>
        <time>2017-09-27T12:26:53Z</time>
      </trkpt>
      <trkpt lat="47.35267" lon="0.59972">
        <ele>86</ele>
        <time>2017-09-27T12:28:53Z</time>
      </trkpt>
      <trkpt lat="47.35274" lon="0.59973">
        <ele>86</ele>
        <time>2017-09-27T12:30:53Z</time>
      </trkpt>
      <trkpt lat="47.35278" lon="0.59974">
        <ele>87</ele>
        <time>2017-09-27T12:32:53Z</time>
      </trkpt>
      <trkpt lat="47.35278" lon="0.59974">
        <ele>87</ele>
        <time>2017-09-27T12:34:53Z</time>
      </trkpt>
      <trkpt lat="47.35283" lon="0.59977">
        <ele>87</ele>
        <time>2017-09-27T12:36:53Z</time>
      </trkpt>
      <trkpt lat="47.35287" lon="0.59982">
        <ele>86</ele>
        <time>2017-09-27T12:38:53Z</time>
      </trkpt>
      <trkpt lat="47.35293" lon="0.59991">
        <ele>86</ele>
        <time>2017-09-27T12:40:53Z</time>
      </trkpt>
      <trkpt lat="47.35341" lon="0.6006">
        <ele>86</ele>
        <time>2017-09-27T12:42:53Z</time>
      </trkpt>
      <trkpt lat="47.35417" lon="0.60158">
        <ele>82</ele>
        <time>2017-09-27T12:44:53Z</time>
      </trkpt>
      <trkpt lat="47.35431" lon="0.60178">
        <ele>81</ele>
        <time>2017-09-27T12:46:53Z</time>
      </trkpt>
      <trkpt lat="47.35497" lon="0.60306">
        <ele>74</ele>
        <time>2017-09-27T12:48:53Z</time>
      </trkpt>
      <trkpt lat="47.35511" lon="0.60326">
        <ele>74</ele>
        <time>2017-09-27T12:50:53Z</time>
      </trkpt>
      <trkpt lat="47.3553" lon="0.6035">
        <ele>73</ele>
        <time>2017-09-27T12:52:53Z</time>
      </trkpt>
      <trkpt lat="47.35569" lon="0.60394">
        <ele>71</ele>
        <time>2017-09-27T12:54:53Z</time>
      </trkpt>
      <trkpt lat="47.35581" lon="0.60408">
        <ele>70</ele>
        <time>2017-09-27T12:56:53Z</time>
      </trkpt>
      <trkpt lat="47.35603" lon="0.60429">
        <ele>70</ele>
        <time>2017-09-27T12:58:53Z</time>
      </trkpt>
      <trkpt lat="47.35619" lon="0.60442">
        <ele>70</ele>
        <time>2017-09-27T13:00:53Z</time>
      </trkpt>
      <trkpt lat="47.3563" lon="0.60452">
        <ele>70</ele>
        <time>2017-09-27T13:02:53Z</time>
      </trkpt>
      <trkpt lat="47.3565" lon="0.60466">
        <ele>69</ele>
        <time>2017-09-27T13:04:53Z</time>
      </trkpt>
      <trkpt lat="47.35666" lon="0.60477">
        <ele>68</ele>
        <time>2017-09-27T13:06:53Z</time>
      </trkpt>
      <trkpt lat="47.35673" lon="0.60481">
        <ele>67</ele>
        <time>2017-09-27T13:08:53Z</time>
      </trkpt>
      <trkpt lat="47.35678" lon="0.60485">
        <ele>67</ele>
        <time>2017-09-27T13:10:53Z</time>
      </trkpt>
      <trkpt lat="47.3569" lon="0.60497">
        <ele>65</ele>
        <time>2017-09-27T13:12:53Z</time>
      </trkpt>
      <trkpt lat="47.35711" lon="0.60524">
        <ele>64</ele>
        <time>2017-09-27T13:14:53Z</time>
      </trkpt>
      <trkpt lat="47.35714" lon="0.60527">
        <ele>64</ele>
        <time>2017-09-27T13:16:53Z</time>
      </trkpt>
      <trkpt lat="47.35737" lon="0.60542">
        <ele>62</ele>
        <time>2017-09-27T13:18:53Z</time>
      </trkpt>
      <trkpt lat="47.35771" lon="0.6056">
        <ele>58</ele>
        <time>2017-09-27T13:20:53Z</time>
      </trkpt>
      <trkpt lat="47.35804" lon="0.60577">
        <ele>54</ele>
        <time>2017-09-27T13:22:53Z</time>
      </trkpt>
      <trkpt lat="47.3581" lon="0.6058">
        <ele>54</ele>
        <time>2017-09-27T13:24:53Z</time>
      </trkpt>
      <trkpt lat="47.35811" lon="0.6058">
        <ele>53</ele>
        <time>2017-09-27T13:26:53Z</time>
      </trkpt>
      <trkpt lat="47.35818" lon="0.60581">
        <ele>53</ele>
        <time>2017-09-27T13:28:53Z</time>
      </trkpt>
      <trkpt lat="47.35864" lon="0.60593">
        <ele>49</ele>
        <time>2017-09-27T13:30:53Z</time>
      </trkpt>
      <trkpt lat="47.35884" lon="0.60598">
        <ele>48</ele>
        <time>2017-09-27T13:32:53Z</time>
      </trkpt>
      <trkpt lat="47.35884" lon="0.60598">
        <ele>48</ele>
        <time>2017-09-27T13:34:53Z</time>
      </trkpt>
      <trkpt lat="47.35888" lon="0.60634">
        <ele>48</ele>
        <time>2017-09-27T13:36:53Z</time>
      </trkpt>
      <trkpt lat="47.35898" lon="0.60676">
        <ele>47</ele>
        <time>2017-09-27T13:38:53Z</time>
      </trkpt>
      <trkpt lat="47.3591" lon="0.60713">
        <ele>46</ele>
        <time>2017-09-27T13:40:53Z</time>
      </trkpt>
      <trkpt lat="47.35911" lon="0.60721">
        <ele>46</ele>
        <time>2017-09-27T13:42:53Z</time>
      </trkpt>
      <trkpt lat="47.35913" lon="0.6073">
        <ele>45</ele>
        <time>2017-09-27T13:44:53Z</time>
      </trkpt>
      <trkpt lat="47.35915" lon="0.60739">
        <ele>45</ele>
        <time>2017-09-27T13:46:53Z</time>
      </trkpt>
      <trkpt lat="47.35916" lon="0.60748">
        <ele>45</ele>
        <time>2017-09-27T13:48:53Z</time>
      </trkpt>
      <trkpt lat="47.35917" lon="0.60758">
        <ele>45</ele>
        <time>2017-09-27T13:50:53Z</time>
      </trkpt>
      <trkpt lat="47.35918" lon="0.60766">
        <ele>45</ele>
        <time>2017-09-27T13:52:53Z</time>
      </trkpt>
      <trkpt lat="47.35919" lon="0.60774">
        <ele>45</ele>
        <time>2017-09-27T13:54:53Z</time>
      </trkpt>
      <trkpt lat="47.35918" lon="0.60785">
        <ele>45</ele>
        <time>2017-09-27T13:56:53Z</time>
      </trkpt>
      <trkpt lat="47.35917" lon="0.60787">
        <ele>45</ele>
        <time>2017-09-27T13:58:53Z</time>
      </trkpt>
      <trkpt lat="47.35916" lon="0.60789">
        <ele>46</ele>
        <time>2017-09-27T14:00:53Z</time>
      </trkpt>
      <trkpt lat="47.35916" lon="0.60792">
        <ele>46</ele>
        <time>2017-09-27T14:02:53Z</time>
      </trkpt>
      <trkpt lat="47.35916" lon="0.60794">
        <ele>46</ele>
        <time>2017-09-27T14:04:53Z</time>
      </trkpt>
      <trkpt lat="47.35917" lon="0.60798">
        <ele>46</ele>
        <time>2017-09-27T14:06:53Z</time>
      </trkpt>
      <trkpt lat="47.35919" lon="0.60801">
        <ele>46</ele>
        <time>2017-09-27T14:08:53Z</time>
      </trkpt>
      <trkpt lat="47.35921" lon="0.60803">
        <ele>46</ele>
        <time>2017-09-27T14:10:53Z</time>
      </trkpt>
      <trkpt lat="47.35923" lon="0.60804">
        <ele>46</ele>
        <time>2017-09-27T14:12:53Z</time>
      </trkpt>
      <trkpt lat="47.35926" lon="0.60804">
        <ele>46</ele>
        <time>2017-09-27T14:14:53Z</time>
      </trkpt>
      <trkpt lat="47.35928" lon="0.60804">
        <ele>46</ele>
        <time>2017-09-27T14:16:53Z</time>
      </trkpt>
      <trkpt lat="47.35933" lon="0.60811">
        <ele>46</ele>
        <time>2017-09-27T14:18:53Z</time>
      </trkpt>
      <trkpt lat="47.35938" lon="0.60819">
        <ele>46</ele>
        <time>2017-09-27T14:20:53Z</time>
      </trkpt>
      <trkpt lat="47.3594" lon="0.60823">
        <ele>46</ele>
        <time>2017-09-27T14:22:53Z</time>
      </trkpt>
      <trkpt lat="47.35942" lon="0.6083">
        <ele>46</ele>
        <time>2017-09-27T14:24:53Z</time>
      </trkpt>
      <trkpt lat="47.35945" lon="0.6084">
        <ele>46</ele>
        <time>2017-09-27T14:26:53Z</time>
      </trkpt>
      <trkpt lat="47.35948" lon="0.60851">
        <ele>47</ele>
        <time>2017-09-27T14:28:53Z</time>
      </trkpt>
      <trkpt lat="47.3595" lon="0.60862">
        <ele>47</ele>
        <time>2017-09-27T14:30:53Z</time>
      </trkpt>
      <trkpt lat="47.35952" lon="0.60873">
        <ele>47</ele>
        <time>2017-09-27T14:32:53Z</time>
      </trkpt>
      <trkpt lat="47.35953" lon="0.60881">
        <ele>47</ele>
        <time>2017-09-27T14:34:53Z</time>
      </trkpt>
      <trkpt lat="47.35955" lon="0.60887">
        <ele>48</ele>
        <time>2017-09-27T14:36:53Z</time>
      </trkpt>
      <trkpt lat="47.35955" lon="0.60901">
        <ele>48</ele>
        <time>2017-09-27T14:38:53Z</time>
      </trkpt>
      <trkpt lat="47.35955" lon="0.60928">
        <ele>48</ele>
        <time>2017-09-27T14:40:53Z</time>
      </trkpt>
      <trkpt lat="47.35958" lon="0.60952">
        <ele>48</ele>
        <time>2017-09-27T14:42:53Z</time>
      </trkpt>
      <trkpt lat="47.35966" lon="0.6101">
        <ele>48</ele>
        <time>2017-09-27T14:44:53Z</time>
      </trkpt>
      <trkpt lat="47.35968" lon="0.6102">
        <ele>48</ele>
        <time>2017-09-27T14:46:53Z</time>
      </trkpt>
      <trkpt lat="47.35975" lon="0.61057">
        <ele>48</ele>
        <time>2017-09-27T14:48:53Z</time>
      </trkpt>
      <trkpt lat="47.35982" lon="0.61092">
        <ele>47</ele>
        <time>2017-09-27T14:50:53Z</time>
      </trkpt>
      <trkpt lat="47.35991" lon="0.61129">
        <ele>47</ele>
        <time>2017-09-27T14:52:53Z</time>
      </trkpt>
      <trkpt lat="47.35998" lon="0.61154">
        <ele>47</ele>
        <time>2017-09-27T14:54:53Z</time>
      </trkpt>
      <trkpt lat="47.36001" lon="0.61164">
        <ele>47</ele>
        <time>2017-09-27T14:56:53Z</time>
      </trkpt>
      <trkpt lat="47.36029" lon="0.61241">
        <ele>48</ele>
        <time>2017-09-27T14:58:53Z</time>
      </trkpt>
      <trkpt lat="47.36042" lon="0.61276">
        <ele>49</ele>
        <time>2017-09-27T15:00:53Z</time>
      </trkpt>
      <trkpt lat="47.36044" lon="0.6128">
        <ele>49</ele>
        <time>2017-09-27T15:02:53Z</time>
      </trkpt>
      <trkpt lat="47.36056" lon="0.61316">
        <ele>49</ele>
        <time>2017-09-27T15:04:53Z</time>
      </trkpt>
      <trkpt lat="47.3606" lon="0.61332">
        <ele>49</ele>
        <time>2017-09-27T15:06:53Z</time>
      </trkpt>
      <trkpt lat="47.36065" lon="0.61351">
        <ele>49</ele>
        <time>2017-09-27T15:08:53Z</time>
      </trkpt>
      <trkpt lat="47.36067" lon="0.61366">
        <ele>49</ele>
        <time>2017-09-27T15:10:53Z</time>
      </trkpt>
      <trkpt lat="47.36069" lon="0.61376">
        <ele>49</ele>
        <time>2017-09-27T15:12:53Z</time>
      </trkpt>
      <trkpt lat="47.36079" lon="0.61472">
        <ele>48</ele>
        <time>2017-09-27T15:14:53Z</time>
      </trkpt>
      <trkpt lat="47.36088" lon="0.6152">
        <ele>47</ele>
        <time>2017-09-27T15:16:53Z</time>
      </trkpt>
      <trkpt lat="47.36098" lon="0.61558">
        <ele>47</ele>
        <time>2017-09-27T15:18:53Z</time>
      </trkpt>
      <trkpt lat="47.36102" lon="0.61572">
        <ele>47</ele>
        <time>2017-09-27T15:20:53Z</time>
      </trkpt>
      <trkpt lat="47.36107" lon="0.6159">
        <ele>47</ele>
        <time>2017-09-27T15:22:53Z</time>
      </trkpt>
      <trkpt lat="47.3611" lon="0.616">
        <ele>47</ele>
        <time>2017-09-27T15:24:53Z</time>
      </trkpt>
      <trkpt lat="47.36115" lon="0.61614">
        <ele>47</ele>
        <time>2017-09-27T15:26:53Z</time>
      </trkpt>
      <trkpt lat="47.36123" lon="0.61638">
        <ele>47</ele>
        <time>2017-09-27T15:28:53Z</time>
      </trkpt>
      <trkpt lat="47.36136" lon="0.61669">
        <ele>47</ele>
        <time>2017-09-27T15:30:53Z</time>
      </trkpt>
      <trkpt lat="47.36137" lon="0.61676">
        <ele>47</ele>
        <time>2017-09-27T15:32:53Z</time>
      </trkpt>
      <trkpt lat="47.36145" lon="0.61693">
        <ele>47</ele>
        <time>2017-09-27T15:34:53Z</time>
      </trkpt>
      <trkpt lat="47.36156" lon="0.61719">
        <ele>47</ele>
        <time>2017-09-27T15:36:53Z</time>
      </trkpt>
      <trkpt lat="47.36167" lon="0.61748">
        <ele>46</ele>
        <time>2017-09-27T15:38:53Z</time>
      </trkpt>
      <trkpt lat="47.3617" lon="0.61755">
        <ele>46</ele>
        <time>2017-09-27T15:40:53Z</time>
      </trkpt>
      <trkpt lat="47.36177" lon="0.61778">
        <ele>46</ele>
        <time>2017-09-27T15:42:53Z</time>
      </trkpt>
      <trkpt lat="47.3618" lon="0.61788">
        <ele>46</ele>
        <time>2017-09-27T15:44:53Z</time>
      </trkpt>
      <trkpt lat="47.36185" lon="0.61805">
        <ele>46</ele>
        <time>2017-09-27T15:46:53Z</time>
      </trkpt>
      <trkpt lat="47.36188" lon="0.61811">
        <ele>46</ele>
        <time>2017-09-27T15:48:53Z</time>
      </trkpt>
      <trkpt lat="47.3619" lon="0.6182">
        <ele>46</ele>
        <time>2017-09-27T15:50:53Z</time>
      </trkpt>
      <trkpt lat="47.36194" lon="0.61841">
        <ele>46</ele>
        <time>2017-09-27T15:52:53Z</time>
      </trkpt>
      <trkpt lat="47.36198" lon="0.61869">
        <ele>46</ele>
        <time>2017-09-27T15:54:53Z</time>
      </trkpt>
      <trkpt lat="47.36204" lon="0.61939">
        <ele>47</ele>
        <time>2017-09-27T15:56:53Z</time>
      </trkpt>
      <trkpt lat="47.36205" lon="0.61951">
        <ele>47</ele>
        <time>2017-09-27T15:58:53Z</time>
      </trkpt>
      <trkpt lat="47.36207" lon="0.61994">
        <ele>48</ele>
        <time>2017-09-27T16:00:53Z</time>
      </trkpt>
      <trkpt lat="47.36212" lon="0.62095">
        <ele>49</ele>
        <time>2017-09-27T16:02:53Z</time>
      </trkpt>
      <trkpt lat="47.36215" lon="0.62119">
        <ele>49</ele>
        <time>2017-09-27T16:04:53Z</time>
      </trkpt>
      <trkpt lat="47.36221" lon="0.62161">
        <ele>49</ele>
        <time>2017-09-27T16:06:53Z</time>
      </trkpt>
      <trkpt lat="47.36229" lon="0.62192">
        <ele>49</ele>
        <time>2017-09-27T16:08:53Z</time>
      </trkpt>
      <trkpt lat="47.36253" lon="0.62281">
        <ele>48</ele>
        <time>2017-09-27T16:10:53Z</time>
      </trkpt>
      <trkpt lat="47.36263" lon="0.62318">
        <ele>49</ele>
        <time>2017-09-27T16:12:53Z</time>
      </trkpt>
      <trkpt lat="47.3627" lon="0.62353">
        <ele>49</ele>
        <time>2017-09-27T16:14:53Z</time>
      </trkpt>
      <trkpt lat="47.36276" lon="0.62389">
        <ele>48</ele>
        <time>2017-09-27T16:16:53Z</time>
      </trkpt>
      <trkpt lat="47.3629" lon="0.62508">
        <ele>50</ele>
        <time>2017-09-27T16:18:53Z</time>
      </trkpt>
      <trkpt lat="47.36302" lon="0.62608">
        <ele>50</ele>
        <time>2017-09-27T16:20:53Z</time>
      </trkpt>
      <trkpt lat="47.36317" lon="0.62731">
        <ele>50</ele>
        <time>2017-09-27T16:22:53Z</time>
      </trkpt>
      <trkpt lat="47.36321" lon="0.62766">
        <ele>51</ele>
        <time>2017-09-27T16:24:53Z</time>
      </trkpt>
      <trkpt lat="47.36325" lon="0.6279">
        <ele>51</ele>
        <time>2017-09-27T16:26:53Z</time>
      </trkpt>
      <trkpt lat="47.36328" lon="0.62808">
        <ele>51</ele>
        <time>2017-09-27T16:28:53Z</time>
      </trkpt>
      <trkpt lat="47.36329" lon="0.62813">
        <ele>51</ele>
        <time>2017-09-27T16:30:53Z</time>
      </trkpt>
      <trkpt lat="47.36333" lon="0.62831">
        <ele>51</ele>
        <time>2017-09-27T16:32:53Z</time>
      </trkpt>
      <trkpt lat="47.36339" lon="0.62853">
        <ele>51</ele>
        <time>2017-09-27T16:34:53Z</time>
      </trkpt>
      <trkpt lat="47.36352" lon="0.62893">
        <ele>51</ele>
        <time>2017-09-27T16:36:53Z</time>
      </trkpt>
      <trkpt lat="47.36358" lon="0.6291">
        <ele>50</ele>
        <time>2017-09-27T16:38:53Z</time>
      </trkpt>
      <trkpt lat="47.36399" lon="0.63016">
        <ele>51</ele>
        <time>2017-09-27T16:40:53Z</time>
      </trkpt>
      <trkpt lat="47.36411" lon="0.63043">
        <ele>52</ele>
        <time>2017-09-27T16:42:53Z</time>
      </trkpt>
      <trkpt lat="47.36421" lon="0.63065">
        <ele>52</ele>
        <time>2017-09-27T16:44:53Z</time>
      </trkpt>
      <trkpt lat="47.36429" lon="0.63078">
        <ele>52</ele>
        <time>2017-09-27T16:46:53Z</time>
      </trkpt>
      <trkpt lat="47.36439" lon="0.63095">
        <ele>52</ele>
        <time>2017-09-27T16:48:53Z</time>
      </trkpt>
      <trkpt lat="47.36447" lon="0.63108">
        <ele>52</ele>
        <time>2017-09-27T16:50:53Z</time>
      </trkpt>
      <trkpt lat="47.36475" lon="0.63145">
        <ele>51</ele>
        <time>2017-09-27T16:52:53Z</time>
      </trkpt>
      <trkpt lat="47.36497" lon="0.63173">
        <ele>49</ele>
        <time>2017-09-27T16:54:53Z</time>
      </trkpt>
      <trkpt lat="47.3651" lon="0.63191">
        <ele>49</ele>
        <time>2017-09-27T16:56:53Z</time>
      </trkpt>
      <trkpt lat="47.36518" lon="0.63203">
        <ele>49</ele>
        <time>2017-09-27T16:58:53Z</time>
      </trkpt>
      <trkpt lat="47.36524" lon="0.63214">
        <ele>49</ele>
        <time>2017-09-27T17:00:53Z</time>
      </trkpt>
      <trkpt lat="47.36533" lon="0.63231">
        <ele>49</ele>
        <time>2017-09-27T17:02:53Z</time>
      </trkpt>
      <trkpt lat="47.36544" lon="0.63255">
        <ele>49</ele>
        <time>2017-09-27T17:04:53Z</time>
      </trkpt>
      <trkpt lat="47.36549" lon="0.63265">
        <ele>49</ele>
        <time>2017-09-27T17:06:53Z</time>
      </trkpt>
      <trkpt lat="47.36553" lon="0.63276">
        <ele>49</ele>
        <time>2017-09-27T17:08:53Z</time>
      </trkpt>
      <trkpt lat="47.36564" lon="0.63308">
        <ele>49</ele>
        <time>2017-09-27T17:10:53Z</time>
      </trkpt>
      <trkpt lat="47.36572" lon="0.63331">
        <ele>48</ele>
        <time>2017-09-27T17:12:53Z</time>
      </trkpt>
      <trkpt lat="47.36602" lon="0.63436">
        <ele>50</ele>
        <time>2017-09-27T17:14:53Z</time>
      </trkpt>
      <trkpt lat="47.36611" lon="0.63468">
        <ele>50</ele>
        <time>2017-09-27T17:16:53Z</time>
      </trkpt>
      <trkpt lat="47.36619" lon="0.63492">
        <ele>50</ele>
        <time>2017-09-27T17:18:53Z</time>
      </trkpt>
      <trkpt lat="47.36636" lon="0.63549">
        <ele>49</ele>
        <time>2017-09-27T17:20:53Z</time>
      </trkpt>
      <trkpt lat="47.36656" lon="0.63618">
        <ele>48</ele>
        <time>2017-09-27T17:22:53Z</time>
      </trkpt>
      <trkpt lat="47.36671" lon="0.63661">
        <ele>49</ele>
        <time>2017-09-27T17:24:53Z</time>
      </trkpt>
      <trkpt lat="47.36683" lon="0.63696">
        <ele>49</ele>
        <time>2017-09-27T17:26:53Z</time>
      </trkpt>
      <trkpt lat="47.36686" lon="0.63707">
        <ele>49</ele>
        <time>2017-09-27T17:28:53Z</time>
      </trkpt>
      <trkpt lat="47.36693" lon="0.63732">
        <ele>49</ele>
        <time>2017-09-27T17:30:53Z</time>
      </trkpt>
      <trkpt lat="47.36696" lon="0.63745">
        <ele>50</ele>
        <time>2017-09-27T17:32:53Z</time>
      </trkpt>
      <trkpt lat="47.36697" lon="0.63751">
        <ele>50</ele>
        <time>2017-09-27T17:34:53Z</time>
      </trkpt>
      <trkpt lat="47.36701" lon="0.63772">
        <ele>49</ele>
        <time>2017-09-27T17:36:53Z</time>
      </trkpt>
      <trkpt lat="47.36705" lon="0.638">
        <ele>49</ele>
        <time>2017-09-27T17:38:53Z</time>
      </trkpt>
      <trkpt lat="47.36708" lon="0.63827">
        <ele>48</ele>
        <time>2017-09-27T17:40:53Z</time>
      </trkpt>
      <trkpt lat="47.36712" lon="0.63859">
        <ele>48</ele>
        <time>2017-09-27T17:42:53Z</time>
      </trkpt>
      <trkpt lat="47.36745" lon="0.64128">
        <ele>47</ele>
        <time>2017-09-27T17:44:53Z</time>
      </trkpt>
      <trkpt lat="47.36746" lon="0.64131">
        <ele>47</ele>
        <time>2017-09-27T17:46:53Z</time>
      </trkpt>
      <trkpt lat="47.36749" lon="0.64156">
        <ele>46</ele>
        <time>2017-09-27T17:48:53Z</time>
      </trkpt>
      <trkpt lat="47.36756" lon="0.64214">
        <ele>47</ele>
        <time>2017-09-27T17:50:53Z</time>
      </trkpt>
      <trkpt lat="47.36758" lon="0.64228">
        <ele>47</ele>
        <time>2017-09-27T17:52:53Z</time>
      </trkpt>
      <trkpt lat="47.36765" lon="0.6428">
        <ele>50</ele>
        <time>2017-09-27T17:54:53Z</time>
      </trkpt>
      <trkpt lat="47.3678" lon="0.64388">
        <ele>57</ele>
        <time>2017-09-27T17:56:53Z</time>
      </trkpt>
      <trkpt lat="47.36781" lon="0.64396">
        <ele>58</ele>
        <time>2017-09-27T17:58:53Z</time>
      </trkpt>
      <trkpt lat="47.36786" lon="0.64444">
        <ele>59</ele>
        <time>2017-09-27T18:00:53Z</time>
      </trkpt>
      <trkpt lat="47.36785" lon="0.64457">
        <ele>59</ele>
        <time>2017-09-27T18:02:53Z</time>
      </trkpt>
      <trkpt lat="47.36784" lon="0.64465">
        <ele>59</ele>
        <time>2017-09-27T18:04:53Z</time>
      </trkpt>
      <trkpt lat="47.36781" lon="0.64505">
        <ele>60</ele>
        <time>2017-09-27T18:06:53Z</time>
      </trkpt>
      <trkpt lat="47.36771" lon="0.64592">
        <ele>59</ele>
        <time>2017-09-27T18:08:53Z</time>
      </trkpt>
      <trkpt lat="47.36768" lon="0.64636">
        <ele>62</ele>
        <time>2017-09-27T18:10:53Z</time>
      </trkpt>
      <trkpt lat="47.36768" lon="0.64654">
        <ele>62</ele>
        <time>2017-09-27T18:12:53Z</time>
      </trkpt>
      <trkpt lat="47.36768" lon="0.64678">
        <ele>64</ele>
        <time>2017-09-27T18:14:53Z</time>
      </trkpt>
      <trkpt lat="47.36768" lon="0.64684">
        <ele>64</ele>
        <time>2017-09-27T18:16:53Z</time>
      </trkpt>
      <trkpt lat="47.36766" lon="0.64808">
        <ele>63</ele>
        <time>2017-09-27T18:18:53Z</time>
      </trkpt>
      <trkpt lat="47.36764" lon="0.64908">
        <ele>55</ele>
        <time>2017-09-27T18:20:53Z</time>
      </trkpt>
      <trkpt lat="47.36764" lon="0.64916">
        <ele>54</ele>
        <time>2017-09-27T18:22:53Z</time>
      </trkpt>
      <trkpt lat="47.36763" lon="0.64962">
        <ele>53</ele>
        <time>2017-09-27T18:24:53Z</time>
      </trkpt>
      <trkpt lat="47.36761" lon="0.64971">
        <ele>53</ele>
        <time>2017-09-27T18:26:53Z</time>
      </trkpt>
      <trkpt lat="47.36761" lon="0.64972">
        <ele>53</ele>
        <time>2017-09-27T18:28:53Z</time>
      </trkpt>
      <trkpt lat="47.36759" lon="0.64999">
        <ele>52</ele>
        <time>2017-09-27T18:30:53Z</time>
      </trkpt>
      <trkpt lat="47.36758" lon="0.65024">
        <ele>52</ele>
        <time>2017-09-27T18:32:53Z</time>
      </trkpt>
      <trkpt lat="47.36756" lon="0.6506">
        <ele>51</ele>
        <time>2017-09-27T18:34:53Z</time>
      </trkpt>
      <trkpt lat="47.36752" lon="0.6513">
        <ele>48</ele>
        <time>2017-09-27T18:36:53Z</time>
      </trkpt>
      <trkpt lat="47.36749" lon="0.65178">
        <ele>46</ele>
        <time>2017-09-27T18:38:53Z</time>
      </trkpt>
      <trkpt lat="47.36746" lon="0.65222">
        <ele>46</ele>
        <time>2017-09-27T18:40:53Z</time>
      </trkpt>
      <trkpt lat="47.36744" lon="0.65259">
        <ele>46</ele>
        <time>2017-09-27T18:42:53Z</time>
      </trkpt>
      <trkpt lat="47.36744" lon="0.65259">
        <ele>46</ele>
        <time>2017-09-27T18:44:53Z</time>
      </trkpt>
      <trkpt lat="47.36743" lon="0.6526">
        <ele>46</ele>
        <time>2017-09-27T18:46:53Z</time>
      </trkpt>
      <trkpt lat="47.36742" lon="0.6526">
        <ele>46</ele>
        <time>2017-09-27T18:48:53Z</time>
      </trkpt>
      <trkpt lat="47.36741" lon="0.65261">
        <ele>46</ele>
        <time>2017-09-27T18:50:53Z</time>
      </trkpt>
      <trkpt lat="47.3674" lon="0.65262">
        <ele>46</ele>
        <time>2017-09-27T18:52:53Z</time>
      </trkpt>
      <trkpt lat="47.36739" lon="0.65263">
        <ele>46</ele>
        <time>2017-09-27T18:54:53Z</time>
      </trkpt>
      <trkpt lat="47.36738" lon="0.65264">
        <ele>46</ele>
        <time>2017-09-27T18:56:53Z</time>
      </trkpt>
      <trkpt lat="47.36738" lon="0.65265">
        <ele>46</ele>
        <time>2017-09-27T18:58:53Z</time>
      </trkpt>
      <trkpt lat="47.36737" lon="0.65267">
        <ele>46</ele>
        <time>2017-09-27T19:00:53Z</time>
      </trkpt>
      <trkpt lat="47.36737" lon="0.65268">
        <ele>46</ele>
        <time>2017-09-27T19:02:53Z</time>
      </trkpt>
      <trkpt lat="47.36736" lon="0.65269">
        <ele>47</ele>
        <time>2017-09-27T19:04:53Z</time>
      </trkpt>
      <trkpt lat="47.36736" lon="0.6527">
        <ele>47</ele>
        <time>2017-09-27T19:06:53Z</time>
      </trkpt>
      <trkpt lat="47.36736" lon="0.65271">
        <ele>47</ele>
        <time>2017-09-27T19:08:53Z</time>
      </trkpt>
      <trkpt lat="47.36736" lon="0.65273">
        <ele>47</ele>
        <time>2017-09-27T19:10:53Z</time>
      </trkpt>
      <trkpt lat="47.36736" lon="0.65274">
        <ele>47</ele>
        <time>2017-09-27T19:12:53Z</time>
      </trkpt>
      <trkpt lat="47.36736" lon="0.65275">
        <ele>47</ele>
        <time>2017-09-27T19:14:53Z</time>
      </trkpt>
      <trkpt lat="47.36736" lon="0.65276">
        <ele>47</ele>
        <time>2017-09-27T19:16:53Z</time>
      </trkpt>
      <trkpt lat="47.36736" lon="0.65277">
        <ele>47</ele>
        <time>2017-09-27T19:18:53Z</time>
      </trkpt>
      <trkpt lat="47.36736" lon="0.65279">
        <ele>47</ele>
        <time>2017-09-27T19:20:53Z</time>
      </trkpt>
      <trkpt lat="47.36736" lon="0.65281">
        <ele>47</ele>
        <time>2017-09-27T19:22:53Z</time>
      </trkpt>
      <trkpt lat="47.36737" lon="0.65282">
        <ele>47</ele>
        <time>2017-09-27T19:24:53Z</time>
      </trkpt>
      <trkpt lat="47.36737" lon="0.65283">
        <ele>47</ele>
        <time>2017-09-27T19:26:53Z</time>
      </trkpt>
      <trkpt lat="47.36737" lon="0.65284">
        <ele>47</ele>
        <time>2017-09-27T19:28:53Z</time>
      </trkpt>
      <trkpt lat="47.36738" lon="0.65285">
        <ele>47</ele>
        <time>2017-09-27T19:30:53Z</time>
      </trkpt>
      <trkpt lat="47.36738" lon="0.65286">
        <ele>47</ele>
        <time>2017-09-27T19:32:53Z</time>
      </trkpt>
      <trkpt lat="47.36738" lon="0.65287">
        <ele>47</ele>
        <time>2017-09-27T19:34:53Z</time>
      </trkpt>
      <trkpt lat="47.36739" lon="0.65288">
        <ele>47</ele>
        <time>2017-09-27T19:36:53Z</time>
      </trkpt>
      <trkpt lat="47.36739" lon="0.65289">
        <ele>47</ele>
        <time>2017-09-27T19:38:53Z</time>
      </trkpt>
      <trkpt lat="47.3674" lon="0.6529">
        <ele>47</ele>
        <time>2017-09-27T19:40:53Z</time>
      </trkpt>
      <trkpt lat="47.36741" lon="0.65291">
        <ele>47</ele>
        <time>2017-09-27T19:42:53Z</time>
      </trkpt>
      <trkpt lat="47.36741" lon="0.65292">
        <ele>47</ele>
        <time>2017-09-27T19:44:53Z</time>
      </trkpt>
      <trkpt lat="47.36737" lon="0.6534">
        <ele>48</ele>
        <time>2017-09-27T19:46:53Z</time>
      </trkpt>
      <trkpt lat="47.36735" lon="0.65378">
        <ele>47</ele>
        <time>2017-09-27T19:48:53Z</time>
      </trkpt>
      <trkpt lat="47.36735" lon="0.65382">
        <ele>47</ele>
        <time>2017-09-27T19:50:53Z</time>
      </trkpt>
      <trkpt lat="47.36731" lon="0.65424">
        <ele>47</ele>
        <time>2017-09-27T19:52:53Z</time>
      </trkpt>
      <trkpt lat="47.36728" lon="0.65468">
        <ele>47</ele>
        <time>2017-09-27T19:54:53Z</time>
      </trkpt>
      <trkpt lat="47.36725" lon="0.65494">
        <ele>47</ele>
        <time>2017-09-27T19:56:53Z</time>
      </trkpt>
      <trkpt lat="47.36724" lon="0.65526">
        <ele>46</ele>
        <time>2017-09-27T19:58:53Z</time>
      </trkpt>
      <trkpt lat="47.36717" lon="0.65624">
        <ele>46</ele>
        <time>2017-09-27T20:00:53Z</time>
      </trkpt>
      <trkpt lat="47.36717" lon="0.65645">
        <ele>46</ele>
        <time>2017-09-27T20:02:53Z</time>
      </trkpt>
      <trkpt lat="47.36717" lon="0.65657">
        <ele>46</ele>
        <time>2017-09-27T20:04:53Z</time>
      </trkpt>
      <trkpt lat="47.36718" lon="0.65674">
        <ele>46</ele>
        <time>2017-09-27T20:06:53Z</time>
      </trkpt>
      <trkpt lat="47.36719" lon="0.65688">
        <ele>46</ele>
        <time>2017-09-27T20:08:53Z</time>
      </trkpt>
      <trkpt lat="47.36721" lon="0.65704">
        <ele>46</ele>
        <time>2017-09-27T20:10:53Z</time>
      </trkpt>
      <trkpt lat="47.36725" lon="0.65723">
        <ele>46</ele>
        <time>2017-09-27T20:12:53Z</time>
      </trkpt>
      <trkpt lat="47.36727" lon="0.65732">
        <ele>46</ele>
        <time>2017-09-27T20:14:53Z</time>
      </trkpt>
      <trkpt lat="47.36737" lon="0.65781">
        <ele>45</ele>
        <time>2017-09-27T20:16:53Z</time>
      </trkpt>
      <trkpt lat="47.36742" lon="0.658">
        <ele>45</ele>
        <time>2017-09-27T20:18:53Z</time>
      </trkpt>
      <trkpt lat="47.36748" lon="0.65829">
        <ele>44</ele>
        <time>2017-09-27T20:20:53Z</time>
      </trkpt>
      <trkpt lat="47.36749" lon="0.65835">
        <ele>44</ele>
        <time>2017-09-27T20:22:53Z</time>
      </trkpt>
      <trkpt lat="47.36758" lon="0.6588">
        <ele>43</ele>
        <time>2017-09-27T20:24:53Z</time>
      </trkpt>
      <trkpt lat="47.36765" lon="0.65911">
        <ele>43</ele>
        <time>2017-09-27T20:26:53Z</time>
      </trkpt>
      <trkpt lat="47.36769" lon="0.65934">
        <ele>43</ele>
        <time>2017-09-27T20:28:53Z</time>
      </trkpt>
      <trkpt lat="47.36778" lon="0.65982">
        <ele>44</ele>
        <time>2017-09-27T20:30:53Z</time>
      </trkpt>
      <trkpt lat="47.3679" lon="0.66065">
        <ele>44</ele>
        <time>2017-09-27T20:32:53Z</time>
      </trkpt>
      <trkpt lat="47.36792" lon="0.66081">
        <ele>44</ele>
        <time>2017-09-27T20:34:53Z</time>
      </trkpt>
      <trkpt lat="47.36806" lon="0.66158">
        <ele>43</ele>
        <time>2017-09-27T20:36:53Z</time>
      </trkpt>
      <trkpt lat="47.3681" lon="0.6619">
        <ele>43</ele>
        <time>2017-09-27T20:38:53Z</time>
      </trkpt>
      <trkpt lat="47.36814" lon="0.66197">
        <ele>43</ele>
        <time>2017-09-27T20:40:53Z</time>
      </trkpt>
      <trkpt lat="47.3684" lon="0.66365">
        <ele>43</ele>
        <time>2017-09-27T20:42:53Z</time>
      </trkpt>
      <trkpt lat="47.36873" lon="0.66562">
        <ele>43</ele>
        <time>2017-09-27T20:44:53Z</time>
      </trkpt>
      <trkpt lat="47.36875" lon="0.66578">
        <ele>43</ele>
        <time>2017-09-27T20:46:53Z</time>
      </trkpt>
      <trkpt lat="47.36904" lon="0.66762">
        <ele>45</ele>
        <time>2017-09-27T20:48:53Z</time>
      </trkpt>
      <trkpt lat="47.36906" lon="0.66779">
        <ele>45</ele>
        <time>2017-09-27T20:50:53Z</time>
      </trkpt>
      <trkpt lat="47.36918" lon="0.66853">
        <ele>46</ele>
        <time>2017-09-27T20:52:53Z</time>
      </trkpt>
      <trkpt lat="47.36946" lon="0.67038">
        <ele>46</ele>
        <time>2017-09-27T20:54:53Z</time>
      </trkpt>
      <trkpt lat="47.36947" lon="0.67044">
        <ele>46</ele>
        <time>2017-09-27T20:56:53Z</time>
      </trkpt>
      <trkpt lat="47.36947" lon="0.67057">
        <ele>45</ele>
        <time>2017-09-27T20:58:53Z</time>
      </trkpt>
      <trkpt lat="47.36964" lon="0.6718">
        <ele>45</ele>
        <time>2017-09-27T21:00:53Z</time>
      </trkpt>
      <trkpt lat="47.36966" lon="0.67194">
        <ele>45</ele>
        <time>2017-09-27T21:02:53Z</time>
      </trkpt>
      <trkpt lat="47.36975" lon="0.67242">
        <ele>45</ele>
        <time>2017-09-27T21:04:53Z</time>
      </trkpt>
      <trkpt lat="47.36987" lon="0.67318">
        <ele>47</ele>
        <time>2017-09-27T21:06:53Z</time>
      </trkpt>
      <trkpt lat="47.36992" lon="0.67332">
        <ele>48</ele>
        <time>2017-09-27T21:08:53Z</time>
      </trkpt>
      <trkpt lat="47.37009" lon="0.67439">
        <ele>48</ele>
        <time>2017-09-27T21:10:53Z</time>
      </trkpt>
      <trkpt lat="47.37018" lon="0.67496">
        <ele>49</ele>
        <time>2017-09-27T21:12:53Z</time>
      </trkpt>
      <trkpt lat="47.37021" lon="0.67541">
        <ele>49</ele>
        <time>2017-09-27T21:14:53Z</time>
      </trkpt>
      <trkpt lat="47.37025" lon="0.67557">
        <ele>49</ele>
        <time>2017-09-27T21:16:53Z</time>
      </trkpt>
      <trkpt lat="47.37036" lon="0.6765">
        <ele>49</ele>
        <time>2017-09-27T21:18:53Z</time>
      </trkpt>
      <trkpt lat="47.37043" lon="0.67705">
        <ele>49</ele>
        <time>2017-09-27T21:20:53Z</time>
      </trkpt>
      <trkpt lat="47.37043" lon="0.67705">
        <ele>49</ele>
        <time>2017-09-27T21:22:53Z</time>
      </trkpt>
      <trkpt lat="47.37042" lon="0.67704">
        <ele>49</ele>
        <time>2017-09-27T21:24:53Z</time>
      </trkpt>
      <trkpt lat="47.3704" lon="0.67704">
        <ele>49</ele>
        <time>2017-09-27T21:26:53Z</time>
      </trkpt>
      <trkpt lat="47.37038" lon="0.67703">
        <ele>49</ele>
        <time>2017-09-27T21:28:53Z</time>
      </trkpt>
      <trkpt lat="47.37036" lon="0.67704">
        <ele>48</ele>
        <time>2017-09-27T21:30:53Z</time>
      </trkpt>
      <trkpt lat="47.37033" lon="0.67705">
        <ele>48</ele>
        <time>2017-09-27T21:32:53Z</time>
      </trkpt>
      <trkpt lat="47.37031" lon="0.67706">
        <ele>48</ele>
        <time>2017-09-27T21:34:53Z</time>
      </trkpt>
      <trkpt lat="47.3703" lon="0.67707">
        <ele>48</ele>
        <time>2017-09-27T21:36:53Z</time>
      </trkpt>
      <trkpt lat="47.37029" lon="0.67709">
        <ele>48</ele>
        <time>2017-09-27T21:38:53Z</time>
      </trkpt>
      <trkpt lat="47.37027" lon="0.67711">
        <ele>48</ele>
        <time>2017-09-27T21:40:53Z</time>
      </trkpt>
      <trkpt lat="47.37026" lon="0.67713">
        <ele>48</ele>
        <time>2017-09-27T21:42:53Z</time>
      </trkpt>
      <trkpt lat="47.37025" lon="0.67715">
        <ele>48</ele>
        <time>2017-09-27T21:44:53Z</time>
      </trkpt>
      <trkpt lat="47.37025" lon="0.67718">
        <ele>48</ele>
        <time>2017-09-27T21:46:53Z</time>
      </trkpt>
      <trkpt lat="47.37024" lon="0.6772">
        <ele>48</ele>
        <time>2017-09-27T21:48:53Z</time>
      </trkpt>
      <trkpt lat="47.37024" lon="0.67723">
        <ele>48</ele>
        <time>2017-09-27T21:50:53Z</time>
      </trkpt>
      <trkpt lat="47.37024" lon="0.67728">
        <ele>48</ele>
        <time>2017-09-27T21:52:53Z</time>
      </trkpt>
      <trkpt lat="47.37024" lon="0.6773">
        <ele>48</ele>
        <time>2017-09-27T21:54:53Z</time>
      </trkpt>
      <trkpt lat="47.37025" lon="0.67733">
        <ele>48</ele>
        <time>2017-09-27T21:56:53Z</time>
      </trkpt>
      <trkpt lat="47.37027" lon="0.67737">
        <ele>48</ele>
        <time>2017-09-27T21:58:53Z</time>
      </trkpt>
      <trkpt lat="47.37029" lon="0.6774">
        <ele>48</ele>
        <time>2017-09-27T22:00:53Z</time>
      </trkpt>
      <trkpt lat="47.3703" lon="0.67742">
        <ele>48</ele>
        <time>2017-09-27T22:02:53Z</time>
      </trkpt>
      <trkpt lat="47.37032" lon="0.67743">
        <ele>48</ele>
        <time>2017-09-27T22:04:53Z</time>
      </trkpt>
      <trkpt lat="47.37034" lon="0.67744">
        <ele>48</ele>
        <time>2017-09-27T22:06:53Z</time>
      </trkpt>
      <trkpt lat="47.37035" lon="0.67745">
        <ele>48</ele>
        <time>2017-09-27T22:08:53Z</time>
      </trkpt>
      <trkpt lat="47.37037" lon="0.67745">
        <ele>48</ele>
        <time>2017-09-27T22:10:53Z</time>
      </trkpt>
      <trkpt lat="47.37039" lon="0.67745">
        <ele>48</ele>
        <time>2017-09-27T22:12:53Z</time>
      </trkpt>
      <trkpt lat="47.37041" lon="0.67745">
        <ele>48</ele>
        <time>2017-09-27T22:14:53Z</time>
      </trkpt>
      <trkpt lat="47.37042" lon="0.67744">
        <ele>48</ele>
        <time>2017-09-27T22:16:53Z</time>
      </trkpt>
      <trkpt lat="47.37044" lon="0.67744">
        <ele>48</ele>
        <time>2017-09-27T22:18:53Z</time>
      </trkpt>
      <trkpt lat="47.37046" lon="0.67742">
        <ele>48</ele>
        <time>2017-09-27T22:20:53Z</time>
      </trkpt>
      <trkpt lat="47.37047" lon="0.67741">
        <ele>48</ele>
        <time>2017-09-27T22:22:53Z</time>
      </trkpt>
      <trkpt lat="47.37049" lon="0.67739">
        <ele>48</ele>
        <time>2017-09-27T22:24:53Z</time>
      </trkpt>
      <trkpt lat="47.3705" lon="0.67736">
        <ele>48</ele>
        <time>2017-09-27T22:26:53Z</time>
      </trkpt>
      <trkpt lat="47.37059" lon="0.67738">
        <ele>48</ele>
        <time>2017-09-27T22:28:53Z</time>
      </trkpt>
      <trkpt lat="47.37062" lon="0.67739">
        <ele>48</ele>
        <time>2017-09-27T22:30:53Z</time>
      </trkpt>
      <trkpt lat="47.37066" lon="0.67739">
        <ele>48</ele>
        <time>2017-09-27T22:32:53Z</time>
      </trkpt>
      <trkpt lat="47.37072" lon="0.67741">
        <ele>48</ele>
        <time>2017-09-27T22:34:53Z</time>
      </trkpt>
      <trkpt lat="47.37078" lon="0.67744">
        <ele>48</ele>
        <time>2017-09-27T22:36:53Z</time>
      </trkpt>
      <trkpt lat="47.37084" lon="0.67746">
        <ele>48</ele>
        <time>2017-09-27T22:38:53Z</time>
      </trkpt>
      <trkpt lat="47.37089" lon="0.67749">
        <ele>48</ele>
        <time>2017-09-27T22:40:53Z</time>
      </trkpt>
      <trkpt lat="47.3712" lon="0.67762">
        <ele>47</ele>
        <time>2017-09-27T22:42:53Z</time>
      </trkpt>
      <trkpt lat="47.37147" lon="0.67774">
        <ele>47</ele>
        <time>2017-09-27T22:44:53Z</time>
      </trkpt>
      <trkpt lat="47.37152" lon="0.67776">
        <ele>47</ele>
        <time>2017-09-27T22:46:53Z</time>
      </trkpt>
      <trkpt lat="47.37155" lon="0.67779">
        <ele>47</ele>
        <time>2017-09-27T22:48:53Z</time>
      </trkpt>
      <trkpt lat="47.37168" lon="0.67784">
        <ele>47</ele>
        <time>2017-09-27T22:50:53Z</time>
      </trkpt>
      <trkpt lat="47.37175" lon="0.67786">
        <ele>47</ele>
        <time>2017-09-27T22:52:53Z</time>
      </trkpt>
      <trkpt lat="47.37175" lon="0.67786">
        <ele>47</ele>
        <time>2017-09-27T22:54:53Z</time>
      </trkpt>
      <trkpt lat="47.37188" lon="0.67792">
        <ele>46</ele>
        <time>2017-09-27T22:56:53Z</time>
      </trkpt>
      <trkpt lat="47.37248" lon="0.67819">
        <ele>46</ele>
        <time>2017-09-27T22:58:53Z</time>
      </trkpt>
      <trkpt lat="47.37345" lon="0.67862">
        <ele>49</ele>
        <time>2017-09-27T23:00:53Z</time>
      </trkpt>
      <trkpt lat="47.37345" lon="0.67862">
        <ele>49</ele>
        <time>2017-09-27T23:02:53Z</time>
      </trkpt>
      <trkpt lat="47.37346" lon="0.67872">
        <ele>49</ele>
        <time>2017-09-27T23:04:53Z</time>
      </trkpt>
      <trkpt lat="47.37347" lon="0.67927">
        <ele>50</ele>
        <time>2017-09-27T23:06:53Z</time>
      </trkpt>
      <trkpt lat="47.37347" lon="0.67927">
        <ele>50</ele>
        <time>2017-09-27T23:08:53Z</time>
      </trkpt>
      <trkpt lat="47.37362" lon="0.67926">
        <ele>49</ele>
        <time>2017-09-27T23:10:53Z</time>
      </trkpt>
      <trkpt lat="47.37362" lon="0.67926">
        <ele>49</ele>
        <time>2017-09-27T23:12:53Z</time>
      </trkpt>
      <trkpt lat="47.3736" lon="0.67989">
        <ele>50</ele>
        <time>2017-09-27T23:14:53Z</time>
      </trkpt>
      <trkpt lat="47.3736" lon="0.68074">
        <ele>52</ele>
        <time>2017-09-27T23:16:53Z</time>
      </trkpt>
      <trkpt lat="47.3736" lon="0.68144">
        <ele>53</ele>
        <time>2017-09-27T23:18:53Z</time>
      </trkpt>
      <trkpt lat="47.37363" lon="0.68236">
        <ele>51</ele>
        <time>2017-09-27T23:20:53Z</time>
      </trkpt>
      <trkpt lat="47.37365" lon="0.68301">
        <ele>51</ele>
        <time>2017-09-27T23:22:53Z</time>
      </trkpt>
      <trkpt lat="47.37366" lon="0.68358">
        <ele>51</ele>
        <time>2017-09-27T23:24:53Z</time>
      </trkpt>
      <trkpt lat="47.37366" lon="0.68382">
        <ele>52</ele>
        <time>2017-09-27T23:26:53Z</time>
      </trkpt>
      <trkpt lat="47.37366" lon="0.68395">
        <ele>52</ele>
        <time>2017-09-27T23:28:53Z</time>
      </trkpt>
      <trkpt lat="47.37366" lon="0.68413">
        <ele>53</ele>
        <time>2017-09-27T23:30:53Z</time>
      </trkpt>
      <trkpt lat="47.37365" lon="0.68431">
        <ele>52</ele>
        <time>2017-09-27T23:32:53Z</time>
      </trkpt>
      <trkpt lat="47.37363" lon="0.68453">
        <ele>52</ele>
        <time>2017-09-27T23:34:53Z</time>
      </trkpt>
      <trkpt lat="47.3736" lon="0.68489">
        <ele>51</ele>
        <time>2017-09-27T23:36:53Z</time>
      </trkpt>
      <trkpt lat="47.37358" lon="0.6851">
        <ele>51</ele>
        <time>2017-09-27T23:38:53Z</time>
      </trkpt>
      <trkpt lat="47.37353" lon="0.68544">
        <ele>50</ele>
        <time>2017-09-27T23:40:53Z</time>
      </trkpt>
      <trkpt lat="47.37344" lon="0.68608">
        <ele>50</ele>
        <time>2017-09-27T23:42:53Z</time>
      </trkpt>
      <trkpt lat="47.37337" lon="0.6865">
        <ele>51</ele>
        <time>2017-09-27T23:44:53Z</time>
      </trkpt>
      <trkpt lat="47.37333" lon="0.68674">
        <ele>51</ele>
        <time>2017-09-27T23:46:53Z</time>
      </trkpt>
      <trkpt lat="47.3733" lon="0.6869">
        <ele>51</ele>
        <time>2017-09-27T23:48:53Z</time>
      </trkpt>
      <trkpt lat="47.37327" lon="0.68706">
        <ele>51</ele>
        <time>2017-09-27T23:50:53Z</time>
      </trkpt>
      <trkpt lat="47.37314" lon="0.68776">
        <ele>50</ele>
        <time>2017-09-27T23:52:53Z</time>
      </trkpt>
      <trkpt lat="47.37312" lon="0.68793">
        <ele>50</ele>
        <time>2017-09-27T23:54:53Z</time>
      </trkpt>
      <trkpt lat="47.37311" lon="0.68812">
        <ele>50</ele>
        <time>2017-09-27T23:56:53Z</time>
      </trkpt>
      <trkpt lat="47.3731" lon="0.68833">
        <ele>50</ele>
        <time>2017-09-27T23:58:53Z</time>
      </trkpt>
      <trkpt lat="47.37311" lon="0.68849">
        <ele>50</ele>
        <time>2017-09-28T00:00:53Z</time>
      </trkpt>
      <trkpt lat="47.37311" lon="0.68903">
        <ele>50</ele>
        <time>2017-09-28T00:02:53Z</time>
      </trkpt>
      <trkpt lat="47.37312" lon="0.68916">
        <ele>50</ele>
        <time>2017-09-28T00:04:53Z</time>
      </trkpt>
      <trkpt lat="47.37313" lon="0.6894">
        <ele>51</ele>
        <time>2017-09-28T00:06:53Z</time>
      </trkpt>
      <trkpt lat="47.37314" lon="0.68952">
        <ele>51</ele>
        <time>2017-09-28T00:08:53Z</time>
      </trkpt>
      <trkpt lat="47.37316" lon="0.68974">
        <ele>51</ele>
        <time>2017-09-28T00:10:53Z</time>
      </trkpt>
      <trkpt lat="47.3732" lon="0.69001">
        <ele>52</ele>
        <time>2017-09-28T00:12:53Z</time>
      </trkpt>
      <trkpt lat="47.37321" lon="0.69013">
        <ele>52</ele>
        <time>2017-09-28T00:14:53Z</time>
      </trkpt>
      <trkpt lat="47.37325" lon="0.69036">
        <ele>52</ele>
        <time>2017-09-28T00:16:53Z</time>
      </trkpt>
      <trkpt lat="47.37327" lon="0.69049">
        <ele>52</ele>
        <time>2017-09-28T00:18:53Z</time>
      </trkpt>
      <trkpt lat="47.37333" lon="0.69084">
        <ele>53</ele>
        <time>2017-09-28T00:20:53Z</time>
      </trkpt>
      <trkpt lat="47.37338" lon="0.69112">
        <ele>52</ele>
        <time>2017-09-28T00:22:53Z</time>
      </trkpt>
      <trkpt lat="47.37351" lon="0.69191">
        <ele>52</ele>
        <time>2017-09-28T00:24:53Z</time>
      </trkpt>
      <trkpt lat="47.37358" lon="0.69229">
        <ele>51</ele>
        <time>2017-09-28T00:26:53Z</time>
      </trkpt>
      <trkpt lat="47.37361" lon="0.69247">
        <ele>51</ele>
        <time>2017-09-28T00:28:53Z</time>
      </trkpt>
      <trkpt lat="47.37367" lon="0.69274">
        <ele>52</ele>
        <time>2017-09-28T00:30:53Z</time>
      </trkpt>
      <trkpt lat="47.37372" lon="0.69296">
        <ele>52</ele>
        <time>2017-09-28T00:32:53Z</time>
      </trkpt>
      <trkpt lat="47.37372" lon="0.69296">
        <ele>52</ele>
        <time>2017-09-28T00:34:53Z</time>
      </trkpt>
      <trkpt lat="47.37371" lon="0.69311">
        <ele>53</ele>
        <time>2017-09-28T00:36:53Z</time>
      </trkpt>
      <trkpt lat="47.37371" lon="0.69317">
        <ele>53</ele>
        <time>2017-09-28T00:38:53Z</time>
      </trkpt>
      <trkpt lat="47.37378" lon="0.69352">
        <ele>53</ele>
        <time>2017-09-28T00:40:53Z</time>
      </trkpt>
      <trkpt lat="47.37385" lon="0.69399">
        <ele>53</ele>
        <time>2017-09-28T00:42:53Z</time>
      </trkpt>
      <trkpt lat="47.37388" lon="0.69426">
        <ele>54</ele>
        <time>2017-09-28T00:44:53Z</time>
      </trkpt>
      <trkpt lat="47.3739" lon="0.69459">
        <ele>54</ele>
        <time>2017-09-28T00:46:53Z</time>
      </trkpt>
      <trkpt lat="47.3739" lon="0.69505">
        <ele>55</ele>
        <time>2017-09-28T00:48:53Z</time>
      </trkpt>
      <trkpt lat="47.3739" lon="0.69531">
        <ele>55</ele>
        <time>2017-09-28T00:50:53Z</time>
      </trkpt>
      <trkpt lat="47.3739" lon="0.69531">
        <ele>55</ele>
        <time>2017-09-28T00:52:53Z</time>
      </trkpt>
      <trkpt lat="47.37387" lon="0.69533">
        <ele>55</ele>
        <time>2017-09-28T00:54:53Z</time>
      </trkpt>
      <trkpt lat="47.37384" lon="0.69536">
        <ele>55</ele>
        <time>2017-09-28T00:56:53Z</time>
      </trkpt>
      <trkpt lat="47.37383" lon="0.69538">
        <ele>55</ele>
        <time>2017-09-28T00:58:53Z</time>
      </trkpt>
      <trkpt lat="47.37383" lon="0.69539">
        <ele>55</ele>
        <time>2017-09-28T01:00:53Z</time>
      </trkpt>
      <trkpt lat="47.37382" lon="0.69539">
        <ele>55</ele>
        <time>2017-09-28T01:02:53Z</time>
      </trkpt>
      <trkpt lat="47.37382" lon="0.6954">
        <ele>55</ele>
        <time>2017-09-28T01:04:53Z</time>
      </trkpt>
      <trkpt lat="47.37382" lon="0.69541">
        <ele>55</ele>
        <time>2017-09-28T01:06:53Z</time>
      </trkpt>
      <trkpt lat="47.37381" lon="0.69542">
        <ele>55</ele>
        <time>2017-09-28T01:08:53Z</time>
      </trkpt>
      <trkpt lat="47.37381" lon="0.69543">
        <ele>55</ele>
        <time>2017-09-28T01:10:53Z</time>
      </trkpt>
      <trkpt lat="47.37381" lon="0.69544">
        <ele>55</ele>
        <time>2017-09-28T01:12:53Z</time>
      </trkpt>
      <trkpt lat="47.37381" lon="0.69545">
        <ele>55</ele>
        <time>2017-09-28T01:14:53Z</time>
      </trkpt>
      <trkpt lat="47.37381" lon="0.69546">
        <ele>55</ele>
        <time>2017-09-28T01:16:53Z</time>
      </trkpt>
      <trkpt lat="47.37381" lon="0.69547">
        <ele>55</ele>
        <time>2017-09-28T01:18:53Z</time>
      </trkpt>
      <trkpt lat="47.37381" lon="0.69548">
        <ele>55</ele>
        <time>2017-09-28T01:20:53Z</time>
      </trkpt>
      <trkpt lat="47.37381" lon="0.69549">
        <ele>55</ele>
        <time>2017-09-28T01:22:53Z</time>
      </trkpt>
      <trkpt lat="47.37381" lon="0.6955">
        <ele>55</ele>
        <time>2017-09-28T01:24:53Z</time>
      </trkpt>
      <trkpt lat="47.37381" lon="0.69551">
        <ele>55</ele>
        <time>2017-09-28T01:26:53Z</time>
      </trkpt>
      <trkpt lat="47.37381" lon="0.69552">
        <ele>55</ele>
        <time>2017-09-28T01:28:53Z</time>
      </trkpt>
      <trkpt lat="47.37381" lon="0.69553">
        <ele>55</ele>
        <time>2017-09-28T01:30:53Z</time>
      </trkpt>
      <trkpt lat="47.37381" lon="0.69554">
        <ele>55</ele>
        <time>2017-09-28T01:32:53Z</time>
      </trkpt>
      <trkpt lat="47.37382" lon="0.69555">
        <ele>55</ele>
        <time>2017-09-28T01:34:53Z</time>
      </trkpt>
      <trkpt lat="47.37382" lon="0.69556">
        <ele>55</ele>
        <time>2017-09-28T01:36:53Z</time>
      </trkpt>
      <trkpt lat="47.37382" lon="0.69557">
        <ele>55</ele>
        <time>2017-09-28T01:38:53Z</time>
      </trkpt>
      <trkpt lat="47.37383" lon="0.69557">
        <ele>55</ele>
        <time>2017-09-28T01:40:53Z</time>
      </trkpt>
      <trkpt lat="47.37383" lon="0.69558">
        <ele>55</ele>
        <time>2017-09-28T01:42:53Z</time>
      </trkpt>
      <trkpt lat="47.37383" lon="0.69559">
        <ele>55</ele>
        <time>2017-09-28T01:44:53Z</time>
      </trkpt>
      <trkpt lat="47.37384" lon="0.69559">
        <ele>55</ele>
        <time>2017-09-28T01:46:53Z</time>
      </trkpt>
      <trkpt lat="47.37384" lon="0.6956">
        <ele>55</ele>
        <time>2017-09-28T01:48:53Z</time>
      </trkpt>
      <trkpt lat="47.37385" lon="0.69561">
        <ele>55</ele>
        <time>2017-09-28T01:50:53Z</time>
      </trkpt>
      <trkpt lat="47.37386" lon="0.69562">
        <ele>55</ele>
        <time>2017-09-28T01:52:53Z</time>
      </trkpt>
      <trkpt lat="47.37389" lon="0.69563">
        <ele>55</ele>
        <time>2017-09-28T01:54:53Z</time>
      </trkpt>
      <trkpt lat="47.37391" lon="0.69564">
        <ele>55</ele>
        <time>2017-09-28T01:56:53Z</time>
      </trkpt>
      <trkpt lat="47.37392" lon="0.69574">
        <ele>55</ele>
        <time>2017-09-28T01:58:53Z</time>
      </trkpt>
      <trkpt lat="47.37392" lon="0.6958">
        <ele>55</ele>
        <time>2017-09-28T02:00:53Z</time>
      </trkpt>
      <trkpt lat="47.37394" lon="0.696">
        <ele>55</ele>
        <time>2017-09-28T02:02:53Z</time>
      </trkpt>
      <trkpt lat="47.37396" lon="0.69666">
        <ele>55</ele>
        <time>2017-09-28T02:04:53Z</time>
      </trkpt>
      <trkpt lat="47.37398" lon="0.69725">
        <ele>54</ele>
        <time>2017-09-28T02:06:53Z</time>
      </trkpt>
      <trkpt lat="47.37399" lon="0.69749">
        <ele>54</ele>
        <time>2017-09-28T02:08:53Z</time>
      </trkpt>
      <trkpt lat="47.37401" lon="0.69801">
        <ele>52</ele>
        <time>2017-09-28T02:10:53Z</time>
      </trkpt>
      <trkpt lat="47.37402" lon="0.69808">
        <ele>52</ele>
        <time>2017-09-28T02:12:53Z</time>
      </trkpt>
      <trkpt lat="47.37406" lon="0.69825">
        <ele>51</ele>
        <time>2017-09-28T02:14:53Z</time>
      </trkpt>
      <trkpt lat="47.37406" lon="0.69829">
        <ele>51</ele>
        <time>2017-09-28T02:16:53Z</time>
      </trkpt>
      <trkpt lat="47.37406" lon="0.69867">
        <ele>52</ele>
        <time>2017-09-28T02:18:53Z</time>
      </trkpt>
      <trkpt lat="47.37407" lon="0.6989">
        <ele>53</ele>
        <time>2017-09-28T02:20:53Z</time>
      </trkpt>
      <trkpt lat="47.37409" lon="0.69931">
        <ele>55</ele>
        <time>2017-09-28T02:22:53Z</time>
      </trkpt>
      <trkpt lat="47.37409" lon="0.69949">
        <ele>56</ele>
        <time>2017-09-28T02:24:53Z</time>
      </trkpt>
      <trkpt lat="47.37411" lon="0.70001">
        <ele>59</ele>
        <time>2017-09-28T02:26:53Z</time>
      </trkpt>
      <trkpt lat="47.37412" lon="0.70025">
        <ele>58</ele>
        <time>2017-09-28T02:28:53Z</time>
      </trkpt>
      <trkpt lat="47.37413" lon="0.70048">
        <ele>56</ele>
        <time>2017-09-28T02:30:53Z</time>
      </trkpt>
      <trkpt lat="47.37414" lon="0.70064">
        <ele>55</ele>
        <time>2017-09-28T02:32:53Z</time>
      </trkpt>
      <trkpt lat="47.37417" lon="0.70095">
        <ele>54</ele>
        <time>2017-09-28T02:34:53Z</time>
      </trkpt>
      <trkpt lat="47.37418" lon="0.70114">
        <ele>53</ele>
        <time>2017-09-28T02:36:53Z</time>
      </trkpt>
      <trkpt lat="47.37421" lon="0.7014">
        <ele>52</ele>
        <time>2017-09-28T02:38:53Z</time>
      </trkpt>
      <trkpt lat="47.37423" lon="0.7016">
        <ele>52</ele>
        <time>2017-09-28T02:40:53Z</time>
      </trkpt>
      <trkpt lat="47.37424" lon="0.70176">
        <ele>52</ele>
        <time>2017-09-28T02:42:53Z</time>
      </trkpt>
      <trkpt lat="47.37426" lon="0.70198">
        <ele>51</ele>
        <time>2017-09-28T02:44:53Z</time>
      </trkpt>
      <trkpt lat="47.37426" lon="0.70221">
        <ele>51</ele>
        <time>2017-09-28T02:46:53Z</time>
      </trkpt>
      <trkpt lat="47.37426" lon="0.70236">
        <ele>50</ele>
        <time>2017-09-28T02:48:53Z</time>
      </trkpt>
      <trkpt lat="47.37425" lon="0.70248">
        <ele>50</ele>
        <time>2017-09-28T02:50:53Z</time>
      </trkpt>
      <trkpt lat="47.37424" lon="0.7026">
        <ele>50</ele>
        <time>2017-09-28T02:52:53Z</time>
      </trkpt>
      <trkpt lat="47.37423" lon="0.70288">
        <ele>50</ele>
        <time>2017-09-28T02:54:53Z</time>
      </trkpt>
      <trkpt lat="47.37423" lon="0.70289">
        <ele>50</ele>
        <time>2017-09-28T02:56:53Z</time>
      </trkpt>
      <trkpt lat="47.37423" lon="0.70289">
        <ele>50</ele>
        <time>2017-09-28T02:58:53Z</time>
      </trkpt>
      <trkpt lat="47.37421" lon="0.7032">
        <ele>50</ele>
        <time>2017-09-28T03:00:53Z</time>
      </trkpt>
      <trkpt lat="47.37421" lon="0.70329">
        <ele>50</ele>
        <time>2017-09-28T03:02:53Z</time>
      </trkpt>
      <trkpt lat="47.37422" lon="0.70347">
        <ele>50</ele>
        <time>2017-09-28T03:04:53Z</time>
      </trkpt>
      <trkpt lat="47.37423" lon="0.70367">
        <ele>50</ele>
        <time>2017-09-28T03:06:53Z</time>
      </trkpt>
      <trkpt lat="47.37424" lon="0.7038">
        <ele>49</ele>
        <time>2017-09-28T03:08:53Z</time>
      </trkpt>
      <trkpt lat="47.37425" lon="0.70393">
        <ele>49</ele>
        <time>2017-09-28T03:10:53Z</time>
      </trkpt>
      <trkpt lat="47.37428" lon="0.70415">
        <ele>49</ele>
        <time>2017-09-28T03:12:53Z</time>
      </trkpt>
      <trkpt lat="47.37431" lon="0.70429">
        <ele>49</ele>
        <time>2017-09-28T03:14:53Z</time>
      </trkpt>
      <trkpt lat="47.37433" lon="0.7044">
        <ele>49</ele>
        <time>2017-09-28T03:16:53Z</time>
      </trkpt>
      <trkpt lat="47.37438" lon="0.70463">
        <ele>50</ele>
        <time>2017-09-28T03:18:53Z</time>
      </trkpt>
      <trkpt lat="47.37443" lon="0.70482">
        <ele>50</ele>
        <time>2017-09-28T03:20:53Z</time>
      </trkpt>
      <trkpt lat="47.37451" lon="0.70509">
        <ele>50</ele>
        <time>2017-09-28T03:22:53Z</time>
      </trkpt>
      <trkpt lat="47.37465" lon="0.70559">
        <ele>51</ele>
        <time>2017-09-28T03:24:53Z</time>
      </trkpt>
      <trkpt lat="47.37473" lon="0.70584">
        <ele>51</ele>
        <time>2017-09-28T03:26:53Z</time>
      </trkpt>
      <trkpt lat="47.37481" lon="0.70615">
        <ele>50</ele>
        <time>2017-09-28T03:28:53Z</time>
      </trkpt>
      <trkpt lat="47.37494" lon="0.70666">
        <ele>50</ele>
        <time>2017-09-28T03:30:53Z</time>
      </trkpt>
      <trkpt lat="47.375" lon="0.70686">
        <ele>50</ele>
        <time>2017-09-28T03:32:53Z</time>
      </trkpt>
      <trkpt lat="47.37503" lon="0.70697">
        <ele>50</ele>
        <time>2017-09-28T03:34:53Z</time>
      </trkpt>
      <trkpt lat="47.37542" lon="0.70836">
        <ele>51</ele>
        <time>2017-09-28T03:36:53Z</time>
      </trkpt>
      <trkpt lat="47.37558" lon="0.709">
        <ele>51</ele>
        <time>2017-09-28T03:38:53Z</time>
      </trkpt>
      <trkpt lat="47.37568" lon="0.70936">
        <ele>50</ele>
        <time>2017-09-28T03:40:53Z</time>
      </trkpt>
      <trkpt lat="47.37593" lon="0.7103">
        <ele>49</ele>
        <time>2017-09-28T03:42:53Z</time>
      </trkpt>
      <trkpt lat="47.37602" lon="0.71064">
        <ele>50</ele>
        <time>2017-09-28T03:44:53Z</time>
      </trkpt>
      <trkpt lat="47.37608" lon="0.71091">
        <ele>51</ele>
        <time>2017-09-28T03:46:53Z</time>
      </trkpt>
      <trkpt lat="47.37611" lon="0.71103">
        <ele>51</ele>
        <time>2017-09-28T03:48:53Z</time>
      </trkpt>
      <trkpt lat="47.37625" lon="0.71151">
        <ele>52</ele>
        <time>2017-09-28T03:50:53Z</time>
      </trkpt>
      <trkpt lat="47.37628" lon="0.71163">
        <ele>52</ele>
        <time>2017-09-28T03:52:53Z</time>
      </trkpt>
      <trkpt lat="47.37645" lon="0.71225">
        <ele>52</ele>
        <time>2017-09-28T03:54:53Z</time>
      </trkpt>
      <trkpt lat="47.37661" lon="0.71283">
        <ele>51</ele>
        <time>2017-09-28T03:56:53Z</time>
      </trkpt>
      <trkpt lat="47.37672" lon="0.71321">
        <ele>50</ele>
        <time>2017-09-28T03:58:53Z</time>
      </trkpt>
      <trkpt lat="47.37675" lon="0.71332">
        <ele>50</ele>
        <time>2017-09-28T04:00:53Z</time>
      </trkpt>
      <trkpt lat="47.37681" lon="0.71353">
        <ele>50</ele>
        <time>2017-09-28T04:02:53Z</time>
      </trkpt>
      <trkpt lat="47.37684" lon="0.71365">
        <ele>50</ele>
        <time>2017-09-28T04:04:53Z</time>
      </trkpt>
      <trkpt lat="47.37692" lon="0.7139">
        <ele>50</ele>
        <time>2017-09-28T04:06:53Z</time>
      </trkpt>
      <trkpt lat="47.37694" lon="0.71401">
        <ele>50</ele>
        <time>2017-09-28T04:08:53Z</time>
      </trkpt>
      <trkpt lat="47.37698" lon="0.71413">
        <ele>50</ele>
        <time>2017-09-28T04:10:53Z</time>
      </trkpt>
      <trkpt lat="47.37702" lon="0.71429">
        <ele>50</ele>
        <time>2017-09-28T04:12:53Z</time>
      </trkpt>
      <trkpt lat="47.37704" lon="0.71435">
        <ele>51</ele>
        <time>2017-09-28T04:14:53Z</time>
      </trkpt>
      <trkpt lat="47.37707" lon="0.71447">
        <ele>51</ele>
        <time>2017-09-28T04:16:53Z</time>
      </trkpt>
      <trkpt lat="47.37709" lon="0.71456">
        <ele>51</ele>
        <time>2017-09-28T04:18:53Z</time>
      </trkpt>
      <trkpt lat="47.37709" lon="0.71456">
        <ele>51</ele>
        <time>2017-09-28T04:20:53Z</time>
      </trkpt>
      <trkpt lat="47.3771" lon="0.71457">
        <ele>51</ele>
        <time>2017-09-28T04:22:53Z</time>
      </trkpt>
      <trkpt lat="47.37712" lon="0.71465">
        <ele>51</ele>
        <time>2017-09-28T04:24:53Z</time>
      </trkpt>
      <trkpt lat="47.37713" lon="0.71469">
        <ele>51</ele>
        <time>2017-09-28T04:26:53Z</time>
      </trkpt>
      <trkpt lat="47.37715" lon="0.71476">
        <ele>51</ele>
        <time>2017-09-28T04:28:53Z</time>
      </trkpt>
      <trkpt lat="47.37715" lon="0.71477">
        <ele>51</ele>
        <time>2017-09-28T04:30:53Z</time>
      </trkpt>
      <trkpt lat="47.37716" lon="0.71481">
        <ele>51</ele>
        <time>2017-09-28T04:32:53Z</time>
      </trkpt>
      <trkpt lat="47.37719" lon="0.71493">
        <ele>51</ele>
        <time>2017-09-28T04:34:53Z</time>
      </trkpt>
      <trkpt lat="47.37724" lon="0.7151">
        <ele>51</ele>
        <time>2017-09-28T04:36:53Z</time>
      </trkpt>
      <trkpt lat="47.3773" lon="0.71534">
        <ele>52</ele>
        <time>2017-09-28T04:38:53Z</time>
      </trkpt>
      <trkpt lat="47.37737" lon="0.71558">
        <ele>52</ele>
        <time>2017-09-28T04:40:53Z</time>
      </trkpt>
      <trkpt lat="47.37739" lon="0.71562">
        <ele>52</ele>
        <time>2017-09-28T04:42:53Z</time>
      </trkpt>
      <trkpt lat="47.37762" lon="0.71637">
        <ele>51</ele>
        <time>2017-09-28T04:44:53Z</time>
      </trkpt>
      <trkpt lat="47.3777" lon="0.71662">
        <ele>50</ele>
        <time>2017-09-28T04:46:53Z</time>
      </trkpt>
      <trkpt lat="47.37786" lon="0.71709">
        <ele>49</ele>
        <time>2017-09-28T04:48:53Z</time>
      </trkpt>
      <trkpt lat="47.378" lon="0.7175">
        <ele>48</ele>
        <time>2017-09-28T04:50:53Z</time>
      </trkpt>
      <trkpt lat="47.37813" lon="0.71792">
        <ele>49</ele>
        <time>2017-09-28T04:52:53Z</time>
      </trkpt>
      <trkpt lat="47.37822" lon="0.7182">
        <ele>49</ele>
        <time>2017-09-28T04:54:53Z</time>
      </trkpt>
      <trkpt lat="47.37827" lon="0.71838">
        <ele>49</ele>
        <time>2017-09-28T04:56:53Z</time>
      </trkpt>
      <trkpt lat="47.37832" lon="0.7186">
        <ele>49</ele>
        <time>2017-09-28T04:58:53Z</time>
      </trkpt>
      <trkpt lat="47.37837" lon="0.71884">
        <ele>49</ele>
        <time>2017-09-28T05:00:53Z</time>
      </trkpt>
      <trkpt lat="47.3784" lon="0.71899">
        <ele>49</ele>
        <time>2017-09-28T05:02:53Z</time>
      </trkpt>
      <trkpt lat="47.37841" lon="0.71907">
        <ele>49</ele>
        <time>2017-09-28T05:04:53Z</time>
      </trkpt>
      <trkpt lat="47.37843" lon="0.71916">
        <ele>49</ele>
        <time>2017-09-28T05:06:53Z</time>
      </trkpt>
      <trkpt lat="47.37845" lon="0.71923">
        <ele>49</ele>
        <time>2017-09-28T05:08:53Z</time>
      </trkpt>
      <trkpt lat="47.37849" lon="0.71941">
        <ele>49</ele>
        <time>2017-09-28T05:10:53Z</time>
      </trkpt>
      <trkpt lat="47.37856" lon="0.71972">
        <ele>49</ele>
        <time>2017-09-28T05:12:53Z</time>
      </trkpt>
      <trkpt lat="47.37871" lon="0.72028">
        <ele>48</ele>
        <time>2017-09-28T05:14:53Z</time>
      </trkpt>
      <trkpt lat="47.3789" lon="0.72102">
        <ele>48</ele>
        <time>2017-09-28T05:16:53Z</time>
      </trkpt>
      <trkpt lat="47.37916" lon="0.72197">
        <ele>48</ele>
        <time>2017-09-28T05:18:53Z</time>
      </trkpt>
      <trkpt lat="47.37942" lon="0.72294">
        <ele>48</ele>
        <time>2017-09-28T05:20:53Z</time>
      </trkpt>
      <trkpt lat="47.3796" lon="0.72364">
        <ele>48</ele>
        <time>2017-09-28T05:22:53Z</time>
      </trkpt>
      <trkpt lat="47.37965" lon="0.72381">
        <ele>48</ele>
        <time>2017-09-28T05:24:53Z</time>
      </trkpt>
      <trkpt lat="47.37983" lon="0.72451">
        <ele>49</ele>
        <time>2017-09-28T05:26:53Z</time>
      </trkpt>
      <trkpt lat="47.3799" lon="0.72477">
        <ele>49</ele>
        <time>2017-09-28T05:28:53Z</time>
      </trkpt>
      <trkpt lat="47.37994" lon="0.72492">
        <ele>50</ele>
        <time>2017-09-28T05:30:53Z</time>
      </trkpt>
      <trkpt lat="47.38001" lon="0.72519">
        <ele>50</ele>
        <time>2017-09-28T05:32:53Z</time>
      </trkpt>
      <trkpt lat="47.38006" lon="0.72541">
        <ele>50</ele>
        <time>2017-09-28T05:34:53Z</time>
      </trkpt>
      <trkpt lat="47.38008" lon="0.7255">
        <ele>49</ele>
        <time>2017-09-28T05:36:53Z</time>
      </trkpt>
      <trkpt lat="47.3801" lon="0.7256">
        <ele>49</ele>
        <time>2017-09-28T05:38:53Z</time>
      </trkpt>
      <trkpt lat="47.38011" lon="0.7257">
        <ele>49</ele>
        <time>2017-09-28T05:40:53Z</time>
      </trkpt>
      <trkpt lat="47.38012" lon="0.72591">
        <ele>49</ele>
        <time>2017-09-28T05:42:53Z</time>
      </trkpt>
      <trkpt lat="47.38012" lon="0.72614">
        <ele>49</ele>
        <time>2017-09-28T05:44:53Z</time>
      </trkpt>
      <trkpt lat="47.38012" lon="0.72628">
        <ele>49</ele>
        <time>2017-09-28T05:46:53Z</time>
      </trkpt>
      <trkpt lat="47.38011" lon="0.72645">
        <ele>50</ele>
        <time>2017-09-28T05:48:53Z</time>
      </trkpt>
      <trkpt lat="47.38011" lon="0.72645">
        <ele>50</ele>
        <time>2017-09-28T05:50:53Z</time>
      </trkpt>
      <trkpt lat="47.38011" lon="0.72646">
        <ele>50</ele>
        <time>2017-09-28T05:52:53Z</time>
      </trkpt>
      <trkpt lat="47.3801" lon="0.72646">
        <ele>50</ele>
        <time>2017-09-28T05:54:53Z</time>
      </trkpt>
      <trkpt lat="47.3801" lon="0.72647">
        <ele>50</ele>
        <time>2017-09-28T05:56:53Z</time>
      </trkpt>
      <trkpt lat="47.38009" lon="0.72648">
        <ele>50</ele>
        <time>2017-09-28T05:58:53Z</time>
      </trkpt>
      <trkpt lat="47.38009" lon="0.72649">
        <ele>50</ele>
        <time>2017-09-28T06:00:53Z</time>
      </trkpt>
      <trkpt lat="47.38008" lon="0.72649">
        <ele>50</ele>
        <time>2017-09-28T06:02:53Z</time>
      </trkpt>
      <trkpt lat="47.38008" lon="0.7265">
        <ele>50</ele>
        <time>2017-09-28T06:04:53Z</time>
      </trkpt>
      <trkpt lat="47.38007" lon="0.72651">
        <ele>50</ele>
        <time>2017-09-28T06:06:53Z</time>
      </trkpt>
      <trkpt lat="47.38007" lon="0.72652">
        <ele>50</ele>
        <time>2017-09-28T06:08:53Z</time>
      </trkpt>
      <trkpt lat="47.38007" lon="0.72653">
        <ele>50</ele>
        <time>2017-09-28T06:10:53Z</time>
      </trkpt>
      <trkpt lat="47.38006" lon="0.72654">
        <ele>50</ele>
        <time>2017-09-28T06:12:53Z</time>
      </trkpt>
      <trkpt lat="47.38006" lon="0.72655">
        <ele>50</ele>
        <time>2017-09-28T06:14:53Z</time>
      </trkpt>
      <trkpt lat="47.38006" lon="0.72656">
        <ele>50</ele>
        <time>2017-09-28T06:16:53Z</time>
      </trkpt>
      <trkpt lat="47.38006" lon="0.72658">
        <ele>50</ele>
        <time>2017-09-28T06:18:53Z</time>
      </trkpt>
      <trkpt lat="47.38006" lon="0.72659">
        <ele>50</ele>
        <time>2017-09-28T06:20:53Z</time>
      </trkpt>
      <trkpt lat="47.38005" lon="0.7266">
        <ele>50</ele>
        <time>2017-09-28T06:22:53Z</time>
      </trkpt>
      <trkpt lat="47.38005" lon="0.72661">
        <ele>50</ele>
        <time>2017-09-28T06:24:53Z</time>
      </trkpt>
      <trkpt lat="47.38005" lon="0.72662">
        <ele>50</ele>
        <time>2017-09-28T06:26:53Z</time>
      </trkpt>
      <trkpt lat="47.38005" lon="0.72663">
        <ele>50</ele>
        <time>2017-09-28T06:28:53Z</time>
      </trkpt>
      <trkpt lat="47.38005" lon="0.72664">
        <ele>50</ele>
        <time>2017-09-28T06:30:53Z</time>
      </trkpt>
      <trkpt lat="47.38006" lon="0.72665">
        <ele>50</ele>
        <time>2017-09-28T06:32:53Z</time>
      </trkpt>
      <trkpt lat="47.38006" lon="0.72666">
        <ele>50</ele>
        <time>2017-09-28T06:34:53Z</time>
      </trkpt>
      <trkpt lat="47.38006" lon="0.72667">
        <ele>50</ele>
        <time>2017-09-28T06:36:53Z</time>
      </trkpt>
      <trkpt lat="47.38006" lon="0.72668">
        <ele>50</ele>
        <time>2017-09-28T06:38:53Z</time>
      </trkpt>
      <trkpt lat="47.38006" lon="0.7267">
        <ele>50</ele>
        <time>2017-09-28T06:40:53Z</time>
      </trkpt>
      <trkpt lat="47.38007" lon="0.72671">
        <ele>50</ele>
        <time>2017-09-28T06:42:53Z</time>
      </trkpt>
      <trkpt lat="47.38007" lon="0.72672">
        <ele>50</ele>
        <time>2017-09-28T06:44:53Z</time>
      </trkpt>
      <trkpt lat="47.38008" lon="0.72673">
        <ele>50</ele>
        <time>2017-09-28T06:46:53Z</time>
      </trkpt>
      <trkpt lat="47.38008" lon="0.72674">
        <ele>50</ele>
        <time>2017-09-28T06:48:53Z</time>
      </trkpt>
      <trkpt lat="47.38009" lon="0.72675">
        <ele>50</ele>
        <time>2017-09-28T06:50:53Z</time>
      </trkpt>
      <trkpt lat="47.38009" lon="0.72676">
        <ele>50</ele>
        <time>2017-09-28T06:52:53Z</time>
      </trkpt>
      <trkpt lat="47.3801" lon="0.72677">
        <ele>50</ele>
        <time>2017-09-28T06:54:53Z</time>
      </trkpt>
      <trkpt lat="47.38011" lon="0.72678">
        <ele>50</ele>
        <time>2017-09-28T06:56:53Z</time>
      </trkpt>
      <trkpt lat="47.38012" lon="0.72678">
        <ele>50</ele>
        <time>2017-09-28T06:58:53Z</time>
      </trkpt>
      <trkpt lat="47.38013" lon="0.72679">
        <ele>50</ele>
        <time>2017-09-28T07:00:53Z</time>
      </trkpt>
      <trkpt lat="47.38014" lon="0.72679">
        <ele>50</ele>
        <time>2017-09-28T07:02:53Z</time>
      </trkpt>
      <trkpt lat="47.38016" lon="0.7268">
        <ele>50</ele>
        <time>2017-09-28T07:04:53Z</time>
      </trkpt>
      <trkpt lat="47.38017" lon="0.7268">
        <ele>50</ele>
        <time>2017-09-28T07:06:53Z</time>
      </trkpt>
      <trkpt lat="47.38018" lon="0.7268">
        <ele>50</ele>
        <time>2017-09-28T07:08:53Z</time>
      </trkpt>
      <trkpt lat="47.38019" lon="0.7268">
        <ele>50</ele>
        <time>2017-09-28T07:10:53Z</time>
      </trkpt>
      <trkpt lat="47.3802" lon="0.7268">
        <ele>50</ele>
        <time>2017-09-28T07:12:53Z</time>
      </trkpt>
      <trkpt lat="47.38022" lon="0.7268">
        <ele>50</ele>
        <time>2017-09-28T07:14:53Z</time>
      </trkpt>
      <trkpt lat="47.38023" lon="0.72679">
        <ele>50</ele>
        <time>2017-09-28T07:16:53Z</time>
      </trkpt>
      <trkpt lat="47.38024" lon="0.72679">
        <ele>50</ele>
        <time>2017-09-28T07:18:53Z</time>
      </trkpt>
      <trkpt lat="47.38025" lon="0.72678">
        <ele>50</ele>
        <time>2017-09-28T07:20:53Z</time>
      </trkpt>
      <trkpt lat="47.38026" lon="0.72678">
        <ele>50</ele>
        <time>2017-09-28T07:22:53Z</time>
      </trkpt>
      <trkpt lat="47.38026" lon="0.72677">
        <ele>50</ele>
        <time>2017-09-28T07:24:53Z</time>
      </trkpt>
      <trkpt lat="47.38027" lon="0.72677">
        <ele>49</ele>
        <time>2017-09-28T07:26:53Z</time>
      </trkpt>
      <trkpt lat="47.38027" lon="0.72676">
        <ele>49</ele>
        <time>2017-09-28T07:28:53Z</time>
      </trkpt>
      <trkpt lat="47.38028" lon="0.72676">
        <ele>49</ele>
        <time>2017-09-28T07:30:53Z</time>
      </trkpt>
      <trkpt lat="47.38028" lon="0.72675">
        <ele>49</ele>
        <time>2017-09-28T07:32:53Z</time>
      </trkpt>
      <trkpt lat="47.38029" lon="0.72675">
        <ele>49</ele>
        <time>2017-09-28T07:34:53Z</time>
      </trkpt>
      <trkpt lat="47.38029" lon="0.72674">
        <ele>49</ele>
        <time>2017-09-28T07:36:53Z</time>
      </trkpt>
      <trkpt lat="47.3803" lon="0.72673">
        <ele>49</ele>
        <time>2017-09-28T07:38:53Z</time>
      </trkpt>
      <trkpt lat="47.3803" lon="0.72672">
        <ele>49</ele>
        <time>2017-09-28T07:40:53Z</time>
      </trkpt>
      <trkpt lat="47.38031" lon="0.72671">
        <ele>49</ele>
        <time>2017-09-28T07:42:53Z</time>
      </trkpt>
      <trkpt lat="47.38031" lon="0.7267">
        <ele>49</ele>
        <time>2017-09-28T07:44:53Z</time>
      </trkpt>
      <trkpt lat="47.38031" lon="0.72669">
        <ele>49</ele>
        <time>2017-09-28T07:46:53Z</time>
      </trkpt>
      <trkpt lat="47.38032" lon="0.72668">
        <ele>49</ele>
        <time>2017-09-28T07:48:53Z</time>
      </trkpt>
      <trkpt lat="47.38032" lon="0.72666">
        <ele>49</ele>
        <time>2017-09-28T07:50:53Z</time>
      </trkpt>
      <trkpt lat="47.38032" lon="0.72665">
        <ele>49</ele>
        <time>2017-09-28T07:52:53Z</time>
      </trkpt>
      <trkpt lat="47.38032" lon="0.72663">
        <ele>49</ele>
        <time>2017-09-28T07:54:53Z</time>
      </trkpt>
      <trkpt lat="47.38032" lon="0.72662">
        <ele>49</ele>
        <time>2017-09-28T07:56:53Z</time>
      </trkpt>
      <trkpt lat="47.38032" lon="0.72661">
        <ele>49</ele>
        <time>2017-09-28T07:58:53Z</time>
      </trkpt>
      <trkpt lat="47.38032" lon="0.7266">
        <ele>49</ele>
        <time>2017-09-28T08:00:53Z</time>
      </trkpt>
      <trkpt lat="47.38032" lon="0.72658">
        <ele>49</ele>
        <time>2017-09-28T08:02:53Z</time>
      </trkpt>
      <trkpt lat="47.38032" lon="0.72657">
        <ele>49</ele>
        <time>2017-09-28T08:04:53Z</time>
      </trkpt>
      <trkpt lat="47.38031" lon="0.72656">
        <ele>49</ele>
        <time>2017-09-28T08:06:53Z</time>
      </trkpt>
      <trkpt lat="47.38031" lon="0.72655">
        <ele>49</ele>
        <time>2017-09-28T08:08:53Z</time>
      </trkpt>
      <trkpt lat="47.38031" lon="0.72654">
        <ele>49</ele>
        <time>2017-09-28T08:10:53Z</time>
      </trkpt>
      <trkpt lat="47.38031" lon="0.72653">
        <ele>49</ele>
        <time>2017-09-28T08:12:53Z</time>
      </trkpt>
      <trkpt lat="47.3803" lon="0.72652">
        <ele>49</ele>
        <time>2017-09-28T08:14:53Z</time>
      </trkpt>
      <trkpt lat="47.3803" lon="0.72651">
        <ele>49</ele>
        <time>2017-09-28T08:16:53Z</time>
      </trkpt>
      <trkpt lat="47.38029" lon="0.7265">
        <ele>49</ele>
        <time>2017-09-28T08:18:53Z</time>
      </trkpt>
      <trkpt lat="47.38029" lon="0.72649">
        <ele>49</ele>
        <time>2017-09-28T08:20:53Z</time>
      </trkpt>
      <trkpt lat="47.38028" lon="0.72648">
        <ele>49</ele>
        <time>2017-09-28T08:22:53Z</time>
      </trkpt>
      <trkpt lat="47.38028" lon="0.72647">
        <ele>49</ele>
        <time>2017-09-28T08:24:53Z</time>
      </trkpt>
    </trkseg>
  </trk>
</gpx>